<?xml version="1.0" encoding="UTF-8" standalone="no" ?>
<gpx xmlns="http://www.topografix.com/GPX/1/1" xmlns:xsi="http://www.w3.org/2001/XMLSchema-instance" xsi:schemaLocation="http://www.topografix.com/GPX/1/1 http://www.topografix.com/GPX/1/1/gpx.xsd" version="1.1" creator="VisuGPX - https://www.visugpx.com">
  <metadata>
    <name>Bugatet hourquette de, Cau pas de la</name>
  </metadata>
  <trk>
    <name><![CDATA[Bugatet hourquette de, Cau pas de la]]></name>
    <trkseg>
      <trkpt lat="42.82462" lon="0.16823">
        <ele>1894.478</ele>
        <time>2013-06-11T01:52:34Z</time>
      </trkpt>
      <trkpt lat="42.82456" lon="0.16829">
        <ele>1893.533</ele>
        <time>2013-06-11T02:01:11Z</time>
      </trkpt>
      <trkpt lat="42.82458" lon="0.16834">
        <ele>1893.526</ele>
        <time>2013-06-11T02:01:16Z</time>
      </trkpt>
      <trkpt lat="42.82458" lon="0.16834">
        <ele>1902.107</ele>
        <time>2013-06-11T02:01:47Z</time>
      </trkpt>
      <trkpt lat="42.82458" lon="0.16829">
        <ele>1898.771</ele>
        <time>2013-06-11T02:03:04Z</time>
      </trkpt>
      <trkpt lat="42.82456" lon="0.16827">
        <ele>1898.333</ele>
        <time>2013-06-11T02:03:07Z</time>
      </trkpt>
      <trkpt lat="42.82456" lon="0.16827">
        <ele>1898.713</ele>
        <time>2013-06-11T02:03:09Z</time>
      </trkpt>
      <trkpt lat="42.82458" lon="0.16829">
        <ele>1897.859</ele>
        <time>2013-06-11T02:03:29Z</time>
      </trkpt>
      <trkpt lat="42.82458" lon="0.16829">
        <ele>1898.357</ele>
        <time>2013-06-11T02:03:46Z</time>
      </trkpt>
      <trkpt lat="42.82458" lon="0.16829">
        <ele>1898.757</ele>
        <time>2013-06-11T02:03:50Z</time>
      </trkpt>
      <trkpt lat="42.82456" lon="0.16829">
        <ele>1899.716</ele>
        <time>2013-06-11T02:04:01Z</time>
      </trkpt>
      <trkpt lat="42.82454" lon="0.1684">
        <ele>1899.714</ele>
        <time>2013-06-11T02:04:11Z</time>
      </trkpt>
      <trkpt lat="42.82454" lon="0.1684">
        <ele>1899.754</ele>
        <time>2013-06-11T02:04:12Z</time>
      </trkpt>
      <trkpt lat="42.82451" lon="0.16846">
        <ele>1900.209</ele>
        <time>2013-06-11T02:04:16Z</time>
      </trkpt>
      <trkpt lat="42.82449" lon="0.16851">
        <ele>1900.707</ele>
        <time>2013-06-11T02:04:18Z</time>
      </trkpt>
      <trkpt lat="42.82449" lon="0.16855">
        <ele>1900.735</ele>
        <time>2013-06-11T02:04:21Z</time>
      </trkpt>
      <trkpt lat="42.82447" lon="0.16857">
        <ele>1900.227</ele>
        <time>2013-06-11T02:04:22Z</time>
      </trkpt>
      <trkpt lat="42.82447" lon="0.16859">
        <ele>1900.727</ele>
        <time>2013-06-11T02:04:24Z</time>
      </trkpt>
      <trkpt lat="42.82445" lon="0.16864">
        <ele>1901.143</ele>
        <time>2013-06-11T02:04:28Z</time>
      </trkpt>
      <trkpt lat="42.82447" lon="0.16861">
        <ele>1897.831</ele>
        <time>2013-06-11T02:04:45Z</time>
      </trkpt>
      <trkpt lat="42.82445" lon="0.1687">
        <ele>1898.761</ele>
        <time>2013-06-11T02:04:49Z</time>
      </trkpt>
      <trkpt lat="42.82441" lon="0.16881">
        <ele>1899.22</ele>
        <time>2013-06-11T02:04:56Z</time>
      </trkpt>
      <trkpt lat="42.82441" lon="0.16885">
        <ele>1899.778</ele>
        <time>2013-06-11T02:04:59Z</time>
      </trkpt>
      <trkpt lat="42.82439" lon="0.16892">
        <ele>1900.233</ele>
        <time>2013-06-11T02:05:03Z</time>
      </trkpt>
      <trkpt lat="42.8243" lon="0.16898">
        <ele>1901.126</ele>
        <time>2013-06-11T02:05:11Z</time>
      </trkpt>
      <trkpt lat="42.82428" lon="0.16896">
        <ele>1900.707</ele>
        <time>2013-06-11T02:05:12Z</time>
      </trkpt>
      <trkpt lat="42.8243" lon="0.16892">
        <ele>1901.691</ele>
        <time>2013-06-11T02:05:18Z</time>
      </trkpt>
      <trkpt lat="42.8243" lon="0.16889">
        <ele>1902.133</ele>
        <time>2013-06-11T02:05:19Z</time>
      </trkpt>
      <trkpt lat="42.82434" lon="0.16877">
        <ele>1904.533</ele>
        <time>2013-06-11T02:05:27Z</time>
      </trkpt>
      <trkpt lat="42.82436" lon="0.16864">
        <ele>1905.029</ele>
        <time>2013-06-11T02:05:34Z</time>
      </trkpt>
      <trkpt lat="42.82439" lon="0.16855">
        <ele>1905.557</ele>
        <time>2013-06-11T02:05:39Z</time>
      </trkpt>
      <trkpt lat="42.82439" lon="0.16806">
        <ele>1910.327</ele>
        <time>2013-06-11T02:06:06Z</time>
      </trkpt>
      <trkpt lat="42.82439" lon="0.16799">
        <ele>1910.866</ele>
        <time>2013-06-11T02:06:09Z</time>
      </trkpt>
      <trkpt lat="42.82439" lon="0.16793">
        <ele>1911.264</ele>
        <time>2013-06-11T02:06:13Z</time>
      </trkpt>
      <trkpt lat="42.82439" lon="0.16782">
        <ele>1911.706</ele>
        <time>2013-06-11T02:06:18Z</time>
      </trkpt>
      <trkpt lat="42.82441" lon="0.16765">
        <ele>1912.216</ele>
        <time>2013-06-11T02:06:27Z</time>
      </trkpt>
      <trkpt lat="42.82441" lon="0.16761">
        <ele>1911.707</ele>
        <time>2013-06-11T02:06:30Z</time>
      </trkpt>
      <trkpt lat="42.82441" lon="0.16758">
        <ele>1912.28</ele>
        <time>2013-06-11T02:06:31Z</time>
      </trkpt>
      <trkpt lat="42.82439" lon="0.16741">
        <ele>1912.262</ele>
        <time>2013-06-11T02:06:41Z</time>
      </trkpt>
      <trkpt lat="42.82436" lon="0.16737">
        <ele>1912.742</ele>
        <time>2013-06-11T02:06:43Z</time>
      </trkpt>
      <trkpt lat="42.82436" lon="0.16735">
        <ele>1913.248</ele>
        <time>2013-06-11T02:06:45Z</time>
      </trkpt>
      <trkpt lat="42.82434" lon="0.16728">
        <ele>1914.146</ele>
        <time>2013-06-11T02:06:48Z</time>
      </trkpt>
      <trkpt lat="42.82434" lon="0.16724">
        <ele>1914.176</ele>
        <time>2013-06-11T02:06:51Z</time>
      </trkpt>
      <trkpt lat="42.82434" lon="0.16722">
        <ele>1915.115</ele>
        <time>2013-06-11T02:06:52Z</time>
      </trkpt>
      <trkpt lat="42.82432" lon="0.16716">
        <ele>1915.179</ele>
        <time>2013-06-11T02:06:56Z</time>
      </trkpt>
      <trkpt lat="42.8243" lon="0.16709">
        <ele>1915.105</ele>
        <time>2013-06-11T02:07:01Z</time>
      </trkpt>
      <trkpt lat="42.8243" lon="0.16707">
        <ele>1915.125</ele>
        <time>2013-06-11T02:07:02Z</time>
      </trkpt>
      <trkpt lat="42.82428" lon="0.16703">
        <ele>1915.607</ele>
        <time>2013-06-11T02:07:05Z</time>
      </trkpt>
      <trkpt lat="42.82423" lon="0.1669">
        <ele>1915.171</ele>
        <time>2013-06-11T02:07:13Z</time>
      </trkpt>
      <trkpt lat="42.82422" lon="0.16686">
        <ele>1915.633</ele>
        <time>2013-06-11T02:07:16Z</time>
      </trkpt>
      <trkpt lat="42.82419" lon="0.16677">
        <ele>1916.573</ele>
        <time>2013-06-11T02:07:22Z</time>
      </trkpt>
      <trkpt lat="42.82417" lon="0.16671">
        <ele>1917.089</ele>
        <time>2013-06-11T02:07:26Z</time>
      </trkpt>
      <trkpt lat="42.82415" lon="0.16655">
        <ele>1918.077</ele>
        <time>2013-06-11T02:07:35Z</time>
      </trkpt>
      <trkpt lat="42.82413" lon="0.16647">
        <ele>1918.957</ele>
        <time>2013-06-11T02:07:41Z</time>
      </trkpt>
      <trkpt lat="42.82413" lon="0.16643">
        <ele>1918.996</ele>
        <time>2013-06-11T02:07:44Z</time>
      </trkpt>
      <trkpt lat="42.8241" lon="0.16636">
        <ele>1920.979</ele>
        <time>2013-06-11T02:07:49Z</time>
      </trkpt>
      <trkpt lat="42.8241" lon="0.16636">
        <ele>1921.305</ele>
        <time>2013-06-11T02:07:50Z</time>
      </trkpt>
      <trkpt lat="42.82406" lon="0.16621">
        <ele>1921.825</ele>
        <time>2013-06-11T02:08:00Z</time>
      </trkpt>
      <trkpt lat="42.82404" lon="0.16615">
        <ele>1921.807</ele>
        <time>2013-06-11T02:08:04Z</time>
      </trkpt>
      <trkpt lat="42.82402" lon="0.16604">
        <ele>1922.821</ele>
        <time>2013-06-11T02:08:12Z</time>
      </trkpt>
      <trkpt lat="42.824" lon="0.166">
        <ele>1923.353</ele>
        <time>2013-06-11T02:08:15Z</time>
      </trkpt>
      <trkpt lat="42.82396" lon="0.16593">
        <ele>1924.253</ele>
        <time>2013-06-11T02:08:25Z</time>
      </trkpt>
      <trkpt lat="42.82396" lon="0.16591">
        <ele>1924.289</ele>
        <time>2013-06-11T02:08:28Z</time>
      </trkpt>
      <trkpt lat="42.82396" lon="0.16589">
        <ele>1925.257</ele>
        <time>2013-06-11T02:08:31Z</time>
      </trkpt>
      <trkpt lat="42.82393" lon="0.16587">
        <ele>1925.767</ele>
        <time>2013-06-11T02:08:33Z</time>
      </trkpt>
      <trkpt lat="42.82393" lon="0.16587">
        <ele>1926.116</ele>
        <time>2013-06-11T02:08:36Z</time>
      </trkpt>
      <trkpt lat="42.82393" lon="0.16587">
        <ele>1925.785</ele>
        <time>2013-06-11T02:08:47Z</time>
      </trkpt>
      <trkpt lat="42.82398" lon="0.16585">
        <ele>1919.489</ele>
        <time>2013-06-11T02:10:13Z</time>
      </trkpt>
      <trkpt lat="42.82406" lon="0.1658">
        <ele>1927.117</ele>
        <time>2013-06-11T02:11:05Z</time>
      </trkpt>
      <trkpt lat="42.82404" lon="0.16585">
        <ele>1920.407</ele>
        <time>2013-06-11T02:12:11Z</time>
      </trkpt>
      <trkpt lat="42.824" lon="0.16587">
        <ele>1919.982</ele>
        <time>2013-06-11T02:12:20Z</time>
      </trkpt>
      <trkpt lat="42.82398" lon="0.16587">
        <ele>1925.284</ele>
        <time>2013-06-11T02:12:44Z</time>
      </trkpt>
      <trkpt lat="42.82398" lon="0.16585">
        <ele>1926.174</ele>
        <time>2013-06-11T02:12:46Z</time>
      </trkpt>
      <trkpt lat="42.82396" lon="0.16583">
        <ele>1926.68</ele>
        <time>2013-06-11T02:12:49Z</time>
      </trkpt>
      <trkpt lat="42.82396" lon="0.16583">
        <ele>1926.668</ele>
        <time>2013-06-11T02:12:52Z</time>
      </trkpt>
      <trkpt lat="42.82393" lon="0.16576">
        <ele>1926.148</ele>
        <time>2013-06-11T02:12:57Z</time>
      </trkpt>
      <trkpt lat="42.82391" lon="0.16572">
        <ele>1925.257</ele>
        <time>2013-06-11T02:13:00Z</time>
      </trkpt>
      <trkpt lat="42.82389" lon="0.16568">
        <ele>1925.715</ele>
        <time>2013-06-11T02:13:03Z</time>
      </trkpt>
      <trkpt lat="42.82389" lon="0.16561">
        <ele>1925.765</ele>
        <time>2013-06-11T02:13:07Z</time>
      </trkpt>
      <trkpt lat="42.82387" lon="0.16559">
        <ele>1926.111</ele>
        <time>2013-06-11T02:13:09Z</time>
      </trkpt>
      <trkpt lat="42.82385" lon="0.1655">
        <ele>1926.607</ele>
        <time>2013-06-11T02:13:16Z</time>
      </trkpt>
      <trkpt lat="42.82385" lon="0.16548">
        <ele>1927.145</ele>
        <time>2013-06-11T02:13:17Z</time>
      </trkpt>
      <trkpt lat="42.82383" lon="0.16544">
        <ele>1927.177</ele>
        <time>2013-06-11T02:13:20Z</time>
      </trkpt>
      <trkpt lat="42.82383" lon="0.16537">
        <ele>1928.157</ele>
        <time>2013-06-11T02:13:25Z</time>
      </trkpt>
      <trkpt lat="42.82383" lon="0.16533">
        <ele>1928.143</ele>
        <time>2013-06-11T02:13:28Z</time>
      </trkpt>
      <trkpt lat="42.82381" lon="0.16527">
        <ele>1929.011</ele>
        <time>2013-06-11T02:13:33Z</time>
      </trkpt>
      <trkpt lat="42.82381" lon="0.16516">
        <ele>1929.541</ele>
        <time>2013-06-11T02:13:41Z</time>
      </trkpt>
      <trkpt lat="42.82381" lon="0.16514">
        <ele>1929.51</ele>
        <time>2013-06-11T02:13:42Z</time>
      </trkpt>
      <trkpt lat="42.82378" lon="0.16507">
        <ele>1930.546</ele>
        <time>2013-06-11T02:13:48Z</time>
      </trkpt>
      <trkpt lat="42.82378" lon="0.16499">
        <ele>1930.988</ele>
        <time>2013-06-11T02:13:54Z</time>
      </trkpt>
      <trkpt lat="42.82378" lon="0.16495">
        <ele>1930.916</ele>
        <time>2013-06-11T02:13:57Z</time>
      </trkpt>
      <trkpt lat="42.82376" lon="0.1649">
        <ele>1930.507</ele>
        <time>2013-06-11T02:14:01Z</time>
      </trkpt>
      <trkpt lat="42.82376" lon="0.16486">
        <ele>1930.538</ele>
        <time>2013-06-11T02:14:05Z</time>
      </trkpt>
      <trkpt lat="42.82376" lon="0.16484">
        <ele>1930.94</ele>
        <time>2013-06-11T02:14:07Z</time>
      </trkpt>
      <trkpt lat="42.8237" lon="0.16458">
        <ele>1933.34</ele>
        <time>2013-06-11T02:14:27Z</time>
      </trkpt>
      <trkpt lat="42.8237" lon="0.16454">
        <ele>1933.896</ele>
        <time>2013-06-11T02:14:30Z</time>
      </trkpt>
      <trkpt lat="42.82368" lon="0.16452">
        <ele>1934.874</ele>
        <time>2013-06-11T02:14:33Z</time>
      </trkpt>
      <trkpt lat="42.82364" lon="0.16441">
        <ele>1935.364</ele>
        <time>2013-06-11T02:14:43Z</time>
      </trkpt>
      <trkpt lat="42.82364" lon="0.16441">
        <ele>1935.833</ele>
        <time>2013-06-11T02:14:44Z</time>
      </trkpt>
      <trkpt lat="42.82361" lon="0.16437">
        <ele>1936.259</ele>
        <time>2013-06-11T02:14:47Z</time>
      </trkpt>
      <trkpt lat="42.82361" lon="0.16437">
        <ele>1936.203</ele>
        <time>2013-06-11T02:14:49Z</time>
      </trkpt>
      <trkpt lat="42.82359" lon="0.16432">
        <ele>1936.723</ele>
        <time>2013-06-11T02:14:52Z</time>
      </trkpt>
      <trkpt lat="42.82357" lon="0.1643">
        <ele>1936.707</ele>
        <time>2013-06-11T02:14:55Z</time>
      </trkpt>
      <trkpt lat="42.82357" lon="0.1643">
        <ele>1936.719</ele>
        <time>2013-06-11T02:14:56Z</time>
      </trkpt>
      <trkpt lat="42.82355" lon="0.16426">
        <ele>1936.751</ele>
        <time>2013-06-11T02:15:00Z</time>
      </trkpt>
      <trkpt lat="42.82353" lon="0.16424">
        <ele>1937.221</ele>
        <time>2013-06-11T02:15:03Z</time>
      </trkpt>
      <trkpt lat="42.82351" lon="0.16424">
        <ele>1937.277</ele>
        <time>2013-06-11T02:15:04Z</time>
      </trkpt>
      <trkpt lat="42.82346" lon="0.16417">
        <ele>1938.675</ele>
        <time>2013-06-11T02:15:10Z</time>
      </trkpt>
      <trkpt lat="42.82344" lon="0.16415">
        <ele>1938.625</ele>
        <time>2013-06-11T02:15:14Z</time>
      </trkpt>
      <trkpt lat="42.82342" lon="0.16411">
        <ele>1939.654</ele>
        <time>2013-06-11T02:15:19Z</time>
      </trkpt>
      <trkpt lat="42.82342" lon="0.16409">
        <ele>1940.167</ele>
        <time>2013-06-11T02:15:20Z</time>
      </trkpt>
      <trkpt lat="42.8234" lon="0.16404">
        <ele>1940.681</ele>
        <time>2013-06-11T02:15:25Z</time>
      </trkpt>
      <trkpt lat="42.82333" lon="0.16389">
        <ele>1940.619</ele>
        <time>2013-06-11T02:15:39Z</time>
      </trkpt>
      <trkpt lat="42.82333" lon="0.16389">
        <ele>1941.007</ele>
        <time>2013-06-11T02:15:40Z</time>
      </trkpt>
      <trkpt lat="42.82333" lon="0.16383">
        <ele>1941.57</ele>
        <time>2013-06-11T02:15:44Z</time>
      </trkpt>
      <trkpt lat="42.82331" lon="0.16383">
        <ele>1941.552</ele>
        <time>2013-06-11T02:15:45Z</time>
      </trkpt>
      <trkpt lat="42.82329" lon="0.16374">
        <ele>1942.092</ele>
        <time>2013-06-11T02:15:52Z</time>
      </trkpt>
      <trkpt lat="42.82329" lon="0.16374">
        <ele>1942.048</ele>
        <time>2013-06-11T02:15:53Z</time>
      </trkpt>
      <trkpt lat="42.82327" lon="0.1637">
        <ele>1942.536</ele>
        <time>2013-06-11T02:15:57Z</time>
      </trkpt>
      <trkpt lat="42.82327" lon="0.1637">
        <ele>1945.836</ele>
        <time>2013-06-11T02:16:23Z</time>
      </trkpt>
      <trkpt lat="42.82327" lon="0.16366">
        <ele>1946.815</ele>
        <time>2013-06-11T02:16:27Z</time>
      </trkpt>
      <trkpt lat="42.82327" lon="0.16364">
        <ele>1946.334</ele>
        <time>2013-06-11T02:16:28Z</time>
      </trkpt>
      <trkpt lat="42.82325" lon="0.16357">
        <ele>1946.355</ele>
        <time>2013-06-11T02:16:33Z</time>
      </trkpt>
      <trkpt lat="42.82325" lon="0.16355">
        <ele>1945.81</ele>
        <time>2013-06-11T02:16:35Z</time>
      </trkpt>
      <trkpt lat="42.82323" lon="0.16347">
        <ele>1945.807</ele>
        <time>2013-06-11T02:16:42Z</time>
      </trkpt>
      <trkpt lat="42.8232" lon="0.16347">
        <ele>1946.337</ele>
        <time>2013-06-11T02:16:43Z</time>
      </trkpt>
      <trkpt lat="42.8232" lon="0.16342">
        <ele>1946.829</ele>
        <time>2013-06-11T02:16:46Z</time>
      </trkpt>
      <trkpt lat="42.8232" lon="0.1634">
        <ele>1947.339</ele>
        <time>2013-06-11T02:16:48Z</time>
      </trkpt>
      <trkpt lat="42.82316" lon="0.16334">
        <ele>1947.375</ele>
        <time>2013-06-11T02:16:54Z</time>
      </trkpt>
      <trkpt lat="42.82316" lon="0.16331">
        <ele>1947.313</ele>
        <time>2013-06-11T02:16:56Z</time>
      </trkpt>
      <trkpt lat="42.82314" lon="0.16327">
        <ele>1947.313</ele>
        <time>2013-06-11T02:16:59Z</time>
      </trkpt>
      <trkpt lat="42.82312" lon="0.16325">
        <ele>1946.862</ele>
        <time>2013-06-11T02:17:02Z</time>
      </trkpt>
      <trkpt lat="42.8231" lon="0.16321">
        <ele>1947.382</ele>
        <time>2013-06-11T02:17:06Z</time>
      </trkpt>
      <trkpt lat="42.8231" lon="0.16319">
        <ele>1947.843</ele>
        <time>2013-06-11T02:17:09Z</time>
      </trkpt>
      <trkpt lat="42.82307" lon="0.16316">
        <ele>1947.817</ele>
        <time>2013-06-11T02:17:12Z</time>
      </trkpt>
      <trkpt lat="42.82303" lon="0.16312">
        <ele>1948.207</ele>
        <time>2013-06-11T02:17:16Z</time>
      </trkpt>
      <trkpt lat="42.82303" lon="0.16312">
        <ele>1948.212</ele>
        <time>2013-06-11T02:17:17Z</time>
      </trkpt>
      <trkpt lat="42.82297" lon="0.16304">
        <ele>1948.784</ele>
        <time>2013-06-11T02:17:28Z</time>
      </trkpt>
      <trkpt lat="42.82295" lon="0.16301">
        <ele>1949.264</ele>
        <time>2013-06-11T02:17:29Z</time>
      </trkpt>
      <trkpt lat="42.82295" lon="0.16299">
        <ele>1949.23</ele>
        <time>2013-06-11T02:17:32Z</time>
      </trkpt>
      <trkpt lat="42.82293" lon="0.16299">
        <ele>1949.248</ele>
        <time>2013-06-11T02:17:33Z</time>
      </trkpt>
      <trkpt lat="42.8229" lon="0.16295">
        <ele>1949.748</ele>
        <time>2013-06-11T02:17:37Z</time>
      </trkpt>
      <trkpt lat="42.82288" lon="0.16293">
        <ele>1950.247</ele>
        <time>2013-06-11T02:17:40Z</time>
      </trkpt>
      <trkpt lat="42.82286" lon="0.16291">
        <ele>1951.112</ele>
        <time>2013-06-11T02:17:43Z</time>
      </trkpt>
      <trkpt lat="42.82286" lon="0.16289">
        <ele>1951.132</ele>
        <time>2013-06-11T02:17:45Z</time>
      </trkpt>
      <trkpt lat="42.82284" lon="0.16284">
        <ele>1951.605</ele>
        <time>2013-06-11T02:17:49Z</time>
      </trkpt>
      <trkpt lat="42.82282" lon="0.16284">
        <ele>1951.607</ele>
        <time>2013-06-11T02:17:50Z</time>
      </trkpt>
      <trkpt lat="42.82282" lon="0.16282">
        <ele>1952.145</ele>
        <time>2013-06-11T02:17:53Z</time>
      </trkpt>
      <trkpt lat="42.8228" lon="0.1628">
        <ele>1952.157</ele>
        <time>2013-06-11T02:17:54Z</time>
      </trkpt>
      <trkpt lat="42.82278" lon="0.16278">
        <ele>1952.187</ele>
        <time>2013-06-11T02:17:58Z</time>
      </trkpt>
      <trkpt lat="42.82278" lon="0.16276">
        <ele>1952.633</ele>
        <time>2013-06-11T02:17:59Z</time>
      </trkpt>
      <trkpt lat="42.82275" lon="0.16274">
        <ele>1953.171</ele>
        <time>2013-06-11T02:18:03Z</time>
      </trkpt>
      <trkpt lat="42.82275" lon="0.16271">
        <ele>1953.161</ele>
        <time>2013-06-11T02:18:04Z</time>
      </trkpt>
      <trkpt lat="42.82273" lon="0.16269">
        <ele>1953.59</ele>
        <time>2013-06-11T02:18:07Z</time>
      </trkpt>
      <trkpt lat="42.82271" lon="0.16267">
        <ele>1953.585</ele>
        <time>2013-06-11T02:18:10Z</time>
      </trkpt>
      <trkpt lat="42.82269" lon="0.16265">
        <ele>1953.589</ele>
        <time>2013-06-11T02:18:12Z</time>
      </trkpt>
      <trkpt lat="42.82269" lon="0.16263">
        <ele>1954.517</ele>
        <time>2013-06-11T02:18:15Z</time>
      </trkpt>
      <trkpt lat="42.82267" lon="0.16261">
        <ele>1954.507</ele>
        <time>2013-06-11T02:18:17Z</time>
      </trkpt>
      <trkpt lat="42.82261" lon="0.1625">
        <ele>1954.522</ele>
        <time>2013-06-11T02:18:28Z</time>
      </trkpt>
      <trkpt lat="42.82261" lon="0.1625">
        <ele>1954.554</ele>
        <time>2013-06-11T02:18:29Z</time>
      </trkpt>
      <trkpt lat="42.82254" lon="0.16239">
        <ele>1955.534</ele>
        <time>2013-06-11T02:18:41Z</time>
      </trkpt>
      <trkpt lat="42.82252" lon="0.16237">
        <ele>1955.92</ele>
        <time>2013-06-11T02:18:42Z</time>
      </trkpt>
      <trkpt lat="42.8225" lon="0.16235">
        <ele>1956.428</ele>
        <time>2013-06-11T02:18:45Z</time>
      </trkpt>
      <trkpt lat="42.8225" lon="0.16235">
        <ele>1956.468</ele>
        <time>2013-06-11T02:18:46Z</time>
      </trkpt>
      <trkpt lat="42.82248" lon="0.16233">
        <ele>1957.467</ele>
        <time>2013-06-11T02:18:50Z</time>
      </trkpt>
      <trkpt lat="42.8225" lon="0.16235">
        <ele>1955.057</ele>
        <time>2013-06-11T02:18:57Z</time>
      </trkpt>
      <trkpt lat="42.82248" lon="0.16231">
        <ele>1916.5</ele>
        <time>2013-06-11T02:20:04Z</time>
      </trkpt>
      <trkpt lat="42.82243" lon="0.16228">
        <ele>1942.02</ele>
        <time>2013-06-11T02:20:06Z</time>
      </trkpt>
      <trkpt lat="42.82245" lon="0.16228">
        <ele>1772.807</ele>
        <time>2013-06-11T02:20:11Z</time>
      </trkpt>
      <trkpt lat="42.82239" lon="0.1622">
        <ele>1959.339</ele>
        <time>2013-06-11T02:20:21Z</time>
      </trkpt>
      <trkpt lat="42.82237" lon="0.1622">
        <ele>1958.351</ele>
        <time>2013-06-11T02:20:22Z</time>
      </trkpt>
      <trkpt lat="42.82235" lon="0.16218">
        <ele>1959.331</ele>
        <time>2013-06-11T02:20:25Z</time>
      </trkpt>
      <trkpt lat="42.82226" lon="0.16209">
        <ele>1960.377</ele>
        <time>2013-06-11T02:20:34Z</time>
      </trkpt>
      <trkpt lat="42.82226" lon="0.16207">
        <ele>1960.785</ele>
        <time>2013-06-11T02:20:35Z</time>
      </trkpt>
      <trkpt lat="42.82217" lon="0.16198">
        <ele>1960.785</ele>
        <time>2013-06-11T02:20:44Z</time>
      </trkpt>
      <trkpt lat="42.82216" lon="0.16196">
        <ele>1960.734</ele>
        <time>2013-06-11T02:20:46Z</time>
      </trkpt>
      <trkpt lat="42.82213" lon="0.1619">
        <ele>1804.125</ele>
        <time>2013-06-11T02:20:59Z</time>
      </trkpt>
      <trkpt lat="42.82213" lon="0.16188">
        <ele>1804.126</ele>
        <time>2013-06-11T02:21:00Z</time>
      </trkpt>
      <trkpt lat="42.82213" lon="0.16186">
        <ele>1804.108</ele>
        <time>2013-06-11T02:21:04Z</time>
      </trkpt>
      <trkpt lat="42.82213" lon="0.16186">
        <ele>1804.107</ele>
        <time>2013-06-11T02:21:05Z</time>
      </trkpt>
      <trkpt lat="42.82211" lon="0.16183">
        <ele>1804.586</ele>
        <time>2013-06-11T02:21:13Z</time>
      </trkpt>
      <trkpt lat="42.82211" lon="0.16181">
        <ele>1804.548</ele>
        <time>2013-06-11T02:21:14Z</time>
      </trkpt>
      <trkpt lat="42.82207" lon="0.16179">
        <ele>1807.468</ele>
        <time>2013-06-11T02:21:20Z</time>
      </trkpt>
      <trkpt lat="42.82207" lon="0.16179">
        <ele>1807.444</ele>
        <time>2013-06-11T02:21:21Z</time>
      </trkpt>
      <trkpt lat="42.8219" lon="0.16168">
        <ele>1964.622</ele>
        <time>2013-06-11T02:21:38Z</time>
      </trkpt>
      <trkpt lat="42.82187" lon="0.16168">
        <ele>1965.612</ele>
        <time>2013-06-11T02:21:39Z</time>
      </trkpt>
      <trkpt lat="42.82187" lon="0.16166">
        <ele>1966.041</ele>
        <time>2013-06-11T02:21:40Z</time>
      </trkpt>
      <trkpt lat="42.82179" lon="0.16162">
        <ele>1968.488</ele>
        <time>2013-06-11T02:21:47Z</time>
      </trkpt>
      <trkpt lat="42.82179" lon="0.16162">
        <ele>1968.024</ele>
        <time>2013-06-11T02:21:48Z</time>
      </trkpt>
      <trkpt lat="42.82177" lon="0.16162">
        <ele>1968.026</ele>
        <time>2013-06-11T02:21:51Z</time>
      </trkpt>
      <trkpt lat="42.82175" lon="0.16162">
        <ele>1968.007</ele>
        <time>2013-06-11T02:21:52Z</time>
      </trkpt>
      <trkpt lat="42.82172" lon="0.1616">
        <ele>1968.442</ele>
        <time>2013-06-11T02:21:54Z</time>
      </trkpt>
      <trkpt lat="42.8217" lon="0.1616">
        <ele>1968.994</ele>
        <time>2013-06-11T02:21:57Z</time>
      </trkpt>
      <trkpt lat="42.82166" lon="0.16158">
        <ele>1968.984</ele>
        <time>2013-06-11T02:22:00Z</time>
      </trkpt>
      <trkpt lat="42.82166" lon="0.16158">
        <ele>1969.45</ele>
        <time>2013-06-11T02:22:01Z</time>
      </trkpt>
      <trkpt lat="42.82158" lon="0.16151">
        <ele>1971.828</ele>
        <time>2013-06-11T02:22:09Z</time>
      </trkpt>
      <trkpt lat="42.82155" lon="0.16151">
        <ele>1972.878</ele>
        <time>2013-06-11T02:22:12Z</time>
      </trkpt>
      <trkpt lat="42.82153" lon="0.16149">
        <ele>1972.327</ele>
        <time>2013-06-11T02:22:15Z</time>
      </trkpt>
      <trkpt lat="42.82151" lon="0.16147">
        <ele>1972.358</ele>
        <time>2013-06-11T02:22:17Z</time>
      </trkpt>
      <trkpt lat="42.82147" lon="0.16145">
        <ele>1972.352</ele>
        <time>2013-06-11T02:22:23Z</time>
      </trkpt>
      <trkpt lat="42.82145" lon="0.16143">
        <ele>1972.317</ele>
        <time>2013-06-11T02:22:24Z</time>
      </trkpt>
      <trkpt lat="42.82142" lon="0.16141">
        <ele>1972.307</ele>
        <time>2013-06-11T02:22:28Z</time>
      </trkpt>
      <trkpt lat="42.82142" lon="0.16141">
        <ele>1972.329</ele>
        <time>2013-06-11T02:22:29Z</time>
      </trkpt>
      <trkpt lat="42.82138" lon="0.16138">
        <ele>1972.871</ele>
        <time>2013-06-11T02:22:33Z</time>
      </trkpt>
      <trkpt lat="42.82138" lon="0.16136">
        <ele>1972.841</ele>
        <time>2013-06-11T02:22:34Z</time>
      </trkpt>
      <trkpt lat="42.82136" lon="0.16134">
        <ele>1972.827</ele>
        <time>2013-06-11T02:22:38Z</time>
      </trkpt>
      <trkpt lat="42.82134" lon="0.16134">
        <ele>1972.865</ele>
        <time>2013-06-11T02:22:39Z</time>
      </trkpt>
      <trkpt lat="42.82132" lon="0.16132">
        <ele>1973.215</ele>
        <time>2013-06-11T02:22:44Z</time>
      </trkpt>
      <trkpt lat="42.82132" lon="0.16132">
        <ele>1968.444</ele>
        <time>2013-06-11T02:22:45Z</time>
      </trkpt>
      <trkpt lat="42.82134" lon="0.1613">
        <ele>1815.156</ele>
        <time>2013-06-11T02:22:52Z</time>
      </trkpt>
      <trkpt lat="42.82136" lon="0.16132">
        <ele>1812.259</ele>
        <time>2013-06-11T02:22:59Z</time>
      </trkpt>
      <trkpt lat="42.82138" lon="0.16134">
        <ele>1813.214</ele>
        <time>2013-06-11T02:23:05Z</time>
      </trkpt>
      <trkpt lat="42.82138" lon="0.16132">
        <ele>1829.507</ele>
        <time>2013-06-11T02:23:07Z</time>
      </trkpt>
      <trkpt lat="42.82136" lon="0.1613">
        <ele>1968.939</ele>
        <time>2013-06-11T02:23:10Z</time>
      </trkpt>
      <trkpt lat="42.82134" lon="0.16125">
        <ele>1926.631</ele>
        <time>2013-06-11T02:23:14Z</time>
      </trkpt>
      <trkpt lat="42.82134" lon="0.16125">
        <ele>1823.851</ele>
        <time>2013-06-11T02:23:17Z</time>
      </trkpt>
      <trkpt lat="42.82136" lon="0.16125">
        <ele>1817.017</ele>
        <time>2013-06-11T02:23:20Z</time>
      </trkpt>
      <trkpt lat="42.82134" lon="0.16121">
        <ele>1827.155</ele>
        <time>2013-06-11T02:23:32Z</time>
      </trkpt>
      <trkpt lat="42.82134" lon="0.16121">
        <ele>1830.015</ele>
        <time>2013-06-11T02:23:36Z</time>
      </trkpt>
      <trkpt lat="42.82127" lon="0.1611">
        <ele>1834.894</ele>
        <time>2013-06-11T02:23:50Z</time>
      </trkpt>
      <trkpt lat="42.82127" lon="0.16108">
        <ele>1834.885</ele>
        <time>2013-06-11T02:23:51Z</time>
      </trkpt>
      <trkpt lat="42.82125" lon="0.16106">
        <ele>1832.989</ele>
        <time>2013-06-11T02:23:55Z</time>
      </trkpt>
      <trkpt lat="42.82125" lon="0.16104">
        <ele>1832.417</ele>
        <time>2013-06-11T02:23:57Z</time>
      </trkpt>
      <trkpt lat="42.82123" lon="0.16102">
        <ele>1840.107</ele>
        <time>2013-06-11T02:24:00Z</time>
      </trkpt>
      <trkpt lat="42.82119" lon="0.16095">
        <ele>1851.272</ele>
        <time>2013-06-11T02:24:05Z</time>
      </trkpt>
      <trkpt lat="42.82119" lon="0.16095">
        <ele>1850.214</ele>
        <time>2013-06-11T02:24:06Z</time>
      </trkpt>
      <trkpt lat="42.82117" lon="0.16091">
        <ele>1845.414</ele>
        <time>2013-06-11T02:24:11Z</time>
      </trkpt>
      <trkpt lat="42.82117" lon="0.16091">
        <ele>1844.94</ele>
        <time>2013-06-11T02:24:12Z</time>
      </trkpt>
      <trkpt lat="42.82114" lon="0.16087">
        <ele>1846.398</ele>
        <time>2013-06-11T02:24:16Z</time>
      </trkpt>
      <trkpt lat="42.82114" lon="0.16085">
        <ele>1845.928</ele>
        <time>2013-06-11T02:24:17Z</time>
      </trkpt>
      <trkpt lat="42.82114" lon="0.16083">
        <ele>1843.027</ele>
        <time>2013-06-11T02:24:21Z</time>
      </trkpt>
      <trkpt lat="42.82114" lon="0.1608">
        <ele>1841.537</ele>
        <time>2013-06-11T02:24:23Z</time>
      </trkpt>
      <trkpt lat="42.82113" lon="0.16076">
        <ele>1839.149</ele>
        <time>2013-06-11T02:24:27Z</time>
      </trkpt>
      <trkpt lat="42.82113" lon="0.16076">
        <ele>1838.713</ele>
        <time>2013-06-11T02:24:28Z</time>
      </trkpt>
      <trkpt lat="42.82106" lon="0.16068">
        <ele>1818.507</ele>
        <time>2013-06-11T02:24:39Z</time>
      </trkpt>
      <trkpt lat="42.82106" lon="0.16068">
        <ele>1817.097</ele>
        <time>2013-06-11T02:24:40Z</time>
      </trkpt>
      <trkpt lat="42.82108" lon="0.16068">
        <ele>1868.089</ele>
        <time>2013-06-11T02:24:47Z</time>
      </trkpt>
      <trkpt lat="42.821" lon="0.16059">
        <ele>1837.759</ele>
        <time>2013-06-11T02:25:00Z</time>
      </trkpt>
      <trkpt lat="42.821" lon="0.16057">
        <ele>1837.275</ele>
        <time>2013-06-11T02:25:01Z</time>
      </trkpt>
      <trkpt lat="42.82095" lon="0.16057">
        <ele>1835.333</ele>
        <time>2013-06-11T02:25:09Z</time>
      </trkpt>
      <trkpt lat="42.82095" lon="0.16055">
        <ele>1836.363</ele>
        <time>2013-06-11T02:25:11Z</time>
      </trkpt>
      <trkpt lat="42.82093" lon="0.16055">
        <ele>1839.612</ele>
        <time>2013-06-11T02:25:20Z</time>
      </trkpt>
      <trkpt lat="42.82093" lon="0.16055">
        <ele>1839.176</ele>
        <time>2013-06-11T02:25:22Z</time>
      </trkpt>
      <trkpt lat="42.82095" lon="0.16057">
        <ele>1837.79</ele>
        <time>2013-06-11T02:25:25Z</time>
      </trkpt>
      <trkpt lat="42.82089" lon="0.1605">
        <ele>1822.819</ele>
        <time>2013-06-11T02:25:28Z</time>
      </trkpt>
      <trkpt lat="42.82087" lon="0.16048">
        <ele>1827.607</ele>
        <time>2013-06-11T02:25:29Z</time>
      </trkpt>
      <trkpt lat="42.82084" lon="0.16048">
        <ele>1827.161</ele>
        <time>2013-06-11T02:25:34Z</time>
      </trkpt>
      <trkpt lat="42.82084" lon="0.16046">
        <ele>1827.143</ele>
        <time>2013-06-11T02:25:35Z</time>
      </trkpt>
      <trkpt lat="42.82078" lon="0.16044">
        <ele>1975.223</ele>
        <time>2013-06-11T02:25:39Z</time>
      </trkpt>
      <trkpt lat="42.82076" lon="0.16042">
        <ele>1978.099</ele>
        <time>2013-06-11T02:25:40Z</time>
      </trkpt>
      <trkpt lat="42.82074" lon="0.16042">
        <ele>1979.597</ele>
        <time>2013-06-11T02:25:42Z</time>
      </trkpt>
      <trkpt lat="42.82072" lon="0.1604">
        <ele>1981.447</ele>
        <time>2013-06-11T02:25:44Z</time>
      </trkpt>
      <trkpt lat="42.82067" lon="0.16035">
        <ele>1982.496</ele>
        <time>2013-06-11T02:25:48Z</time>
      </trkpt>
      <trkpt lat="42.82063" lon="0.16033">
        <ele>1982.457</ele>
        <time>2013-06-11T02:25:51Z</time>
      </trkpt>
      <trkpt lat="42.82059" lon="0.16031">
        <ele>1982.9</ele>
        <time>2013-06-11T02:25:54Z</time>
      </trkpt>
      <trkpt lat="42.82059" lon="0.16031">
        <ele>1971.82</ele>
        <time>2013-06-11T02:25:55Z</time>
      </trkpt>
      <trkpt lat="42.82052" lon="0.16025">
        <ele>1975.207</ele>
        <time>2013-06-11T02:26:02Z</time>
      </trkpt>
      <trkpt lat="42.8205" lon="0.16025">
        <ele>1975.699</ele>
        <time>2013-06-11T02:26:03Z</time>
      </trkpt>
      <trkpt lat="42.82048" lon="0.16022">
        <ele>1976.181</ele>
        <time>2013-06-11T02:26:06Z</time>
      </trkpt>
      <trkpt lat="42.82046" lon="0.16022">
        <ele>1976.641</ele>
        <time>2013-06-11T02:26:07Z</time>
      </trkpt>
      <trkpt lat="42.82046" lon="0.1602">
        <ele>1826.627</ele>
        <time>2013-06-11T02:26:13Z</time>
      </trkpt>
      <trkpt lat="42.82044" lon="0.16018">
        <ele>1908.415</ele>
        <time>2013-06-11T02:26:15Z</time>
      </trkpt>
      <trkpt lat="42.82039" lon="0.16014">
        <ele>1988.155</ele>
        <time>2013-06-11T02:26:24Z</time>
      </trkpt>
      <trkpt lat="42.82035" lon="0.1601">
        <ele>1917.554</ele>
        <time>2013-06-11T02:26:30Z</time>
      </trkpt>
      <trkpt lat="42.82033" lon="0.16007">
        <ele>1984.892</ele>
        <time>2013-06-11T02:26:32Z</time>
      </trkpt>
      <trkpt lat="42.82031" lon="0.16005">
        <ele>1986.273</ele>
        <time>2013-06-11T02:26:35Z</time>
      </trkpt>
      <trkpt lat="42.82031" lon="0.16005">
        <ele>1986.72</ele>
        <time>2013-06-11T02:26:36Z</time>
      </trkpt>
      <trkpt lat="42.82029" lon="0.16003">
        <ele>1890.607</ele>
        <time>2013-06-11T02:26:40Z</time>
      </trkpt>
      <trkpt lat="42.82027" lon="0.16001">
        <ele>1983.883</ele>
        <time>2013-06-11T02:27:41Z</time>
      </trkpt>
      <trkpt lat="42.82027" lon="0.16001">
        <ele>1984.375</ele>
        <time>2013-06-11T02:27:43Z</time>
      </trkpt>
      <trkpt lat="42.82024" lon="0.15999">
        <ele>1985.315</ele>
        <time>2013-06-11T02:27:45Z</time>
      </trkpt>
      <trkpt lat="42.82022" lon="0.15997">
        <ele>1980.941</ele>
        <time>2013-06-11T02:27:48Z</time>
      </trkpt>
      <trkpt lat="42.82022" lon="0.15997">
        <ele>1830.079</ele>
        <time>2013-06-11T02:27:50Z</time>
      </trkpt>
      <trkpt lat="42.82022" lon="0.15995">
        <ele>1830.519</ele>
        <time>2013-06-11T02:27:55Z</time>
      </trkpt>
      <trkpt lat="42.82022" lon="0.15988">
        <ele>1845.448</ele>
        <time>2013-06-11T02:28:01Z</time>
      </trkpt>
      <trkpt lat="42.8202" lon="0.15988">
        <ele>1878.189</ele>
        <time>2013-06-11T02:28:02Z</time>
      </trkpt>
      <trkpt lat="42.8202" lon="0.15986">
        <ele>1857.906</ele>
        <time>2013-06-11T02:28:05Z</time>
      </trkpt>
      <trkpt lat="42.8202" lon="0.15984">
        <ele>1851.626</ele>
        <time>2013-06-11T02:28:07Z</time>
      </trkpt>
      <trkpt lat="42.82022" lon="0.15984">
        <ele>1848.307</ele>
        <time>2013-06-11T02:28:10Z</time>
      </trkpt>
      <trkpt lat="42.82022" lon="0.15984">
        <ele>1847.882</ele>
        <time>2013-06-11T02:28:11Z</time>
      </trkpt>
      <trkpt lat="42.8202" lon="0.1598">
        <ele>1845.484</ele>
        <time>2013-06-11T02:28:17Z</time>
      </trkpt>
      <trkpt lat="42.8202" lon="0.15977">
        <ele>1845.474</ele>
        <time>2013-06-11T02:28:19Z</time>
      </trkpt>
      <trkpt lat="42.8202" lon="0.15973">
        <ele>1844.98</ele>
        <time>2013-06-11T02:28:23Z</time>
      </trkpt>
      <trkpt lat="42.8202" lon="0.15971">
        <ele>1843.948</ele>
        <time>2013-06-11T02:28:26Z</time>
      </trkpt>
      <trkpt lat="42.8202" lon="0.15967">
        <ele>1843.548</ele>
        <time>2013-06-11T02:28:29Z</time>
      </trkpt>
      <trkpt lat="42.8202" lon="0.15967">
        <ele>1843.567</ele>
        <time>2013-06-11T02:28:30Z</time>
      </trkpt>
      <trkpt lat="42.8202" lon="0.15962">
        <ele>1842.557</ele>
        <time>2013-06-11T02:28:33Z</time>
      </trkpt>
      <trkpt lat="42.8202" lon="0.15962">
        <ele>1842.5</ele>
        <time>2013-06-11T02:28:34Z</time>
      </trkpt>
      <trkpt lat="42.8202" lon="0.15958">
        <ele>1842.02</ele>
        <time>2013-06-11T02:28:37Z</time>
      </trkpt>
      <trkpt lat="42.8202" lon="0.15956">
        <ele>1842.007</ele>
        <time>2013-06-11T02:28:39Z</time>
      </trkpt>
      <trkpt lat="42.8202" lon="0.15945">
        <ele>1842.029</ele>
        <time>2013-06-11T02:28:48Z</time>
      </trkpt>
      <trkpt lat="42.8202" lon="0.15945">
        <ele>1842.061</ele>
        <time>2013-06-11T02:28:49Z</time>
      </trkpt>
      <trkpt lat="42.82018" lon="0.15932">
        <ele>1844.981</ele>
        <time>2013-06-11T02:29:02Z</time>
      </trkpt>
      <trkpt lat="42.82018" lon="0.1593">
        <ele>1844.927</ele>
        <time>2013-06-11T02:29:03Z</time>
      </trkpt>
      <trkpt lat="42.82018" lon="0.15926">
        <ele>1843.985</ele>
        <time>2013-06-11T02:29:07Z</time>
      </trkpt>
      <trkpt lat="42.82018" lon="0.15926">
        <ele>1843.595</ele>
        <time>2013-06-11T02:29:08Z</time>
      </trkpt>
      <trkpt lat="42.82011" lon="0.15919">
        <ele>1843.584</ele>
        <time>2013-06-11T02:29:16Z</time>
      </trkpt>
      <trkpt lat="42.82011" lon="0.15919">
        <ele>1843.554</ele>
        <time>2013-06-11T02:29:17Z</time>
      </trkpt>
      <trkpt lat="42.8201" lon="0.15917">
        <ele>1847.856</ele>
        <time>2013-06-11T02:29:20Z</time>
      </trkpt>
      <trkpt lat="42.8201" lon="0.15917">
        <ele>1847.811</ele>
        <time>2013-06-11T02:29:22Z</time>
      </trkpt>
      <trkpt lat="42.82007" lon="0.15915">
        <ele>1846.807</ele>
        <time>2013-06-11T02:29:25Z</time>
      </trkpt>
      <trkpt lat="42.82007" lon="0.15915">
        <ele>1846.869</ele>
        <time>2013-06-11T02:29:26Z</time>
      </trkpt>
      <trkpt lat="42.82001" lon="0.15909">
        <ele>1850.231</ele>
        <time>2013-06-11T02:29:35Z</time>
      </trkpt>
      <trkpt lat="42.81997" lon="0.15907">
        <ele>1994.971</ele>
        <time>2013-06-11T02:29:38Z</time>
      </trkpt>
      <trkpt lat="42.81992" lon="0.15902">
        <ele>1997.397</ele>
        <time>2013-06-11T02:29:42Z</time>
      </trkpt>
      <trkpt lat="42.81979" lon="0.15894">
        <ele>1987.775</ele>
        <time>2013-06-11T02:29:53Z</time>
      </trkpt>
      <trkpt lat="42.81979" lon="0.15894">
        <ele>1988.175</ele>
        <time>2013-06-11T02:29:54Z</time>
      </trkpt>
      <trkpt lat="42.81977" lon="0.15894">
        <ele>2001.654</ele>
        <time>2013-06-11T02:30:29Z</time>
      </trkpt>
      <trkpt lat="42.81973" lon="0.15892">
        <ele>1951.659</ele>
        <time>2013-06-11T02:30:33Z</time>
      </trkpt>
      <trkpt lat="42.81973" lon="0.15892">
        <ele>1987.203</ele>
        <time>2013-06-11T02:30:58Z</time>
      </trkpt>
      <trkpt lat="42.81969" lon="0.15889">
        <ele>1988.623</ele>
        <time>2013-06-11T02:31:32Z</time>
      </trkpt>
      <trkpt lat="42.81966" lon="0.15889">
        <ele>1986.707</ele>
        <time>2013-06-11T02:31:52Z</time>
      </trkpt>
      <trkpt lat="42.81966" lon="0.15883">
        <ele>1943.489</ele>
        <time>2013-06-11T02:31:59Z</time>
      </trkpt>
      <trkpt lat="42.81966" lon="0.15883">
        <ele>1972.371</ele>
        <time>2013-06-11T02:32:00Z</time>
      </trkpt>
      <trkpt lat="42.81964" lon="0.15879">
        <ele>1892.591</ele>
        <time>2013-06-11T02:32:03Z</time>
      </trkpt>
      <trkpt lat="42.81964" lon="0.15879">
        <ele>1876.667</ele>
        <time>2013-06-11T02:32:04Z</time>
      </trkpt>
      <trkpt lat="42.81964" lon="0.15877">
        <ele>1884.855</ele>
        <time>2013-06-11T02:32:09Z</time>
      </trkpt>
      <trkpt lat="42.81966" lon="0.15877">
        <ele>1904.095</ele>
        <time>2013-06-11T02:32:11Z</time>
      </trkpt>
      <trkpt lat="42.81969" lon="0.15877">
        <ele>1860.834</ele>
        <time>2013-06-11T02:32:31Z</time>
      </trkpt>
      <trkpt lat="42.81975" lon="0.15879">
        <ele>1867.519</ele>
        <time>2013-06-11T02:32:33Z</time>
      </trkpt>
      <trkpt lat="42.81975" lon="0.15881">
        <ele>1866.109</ele>
        <time>2013-06-11T02:32:37Z</time>
      </trkpt>
      <trkpt lat="42.81975" lon="0.15874">
        <ele>1865.119</ele>
        <time>2013-06-11T02:32:44Z</time>
      </trkpt>
      <trkpt lat="42.81973" lon="0.15872">
        <ele>1869.407</ele>
        <time>2013-06-11T02:32:45Z</time>
      </trkpt>
      <trkpt lat="42.81971" lon="0.15868">
        <ele>1876.665</ele>
        <time>2013-06-11T02:32:53Z</time>
      </trkpt>
      <trkpt lat="42.81971" lon="0.15868">
        <ele>1875.727</ele>
        <time>2013-06-11T02:32:54Z</time>
      </trkpt>
      <trkpt lat="42.81969" lon="0.15862">
        <ele>1872.337</ele>
        <time>2013-06-11T02:33:02Z</time>
      </trkpt>
      <trkpt lat="42.81969" lon="0.15859">
        <ele>1871.333</ele>
        <time>2013-06-11T02:33:06Z</time>
      </trkpt>
      <trkpt lat="42.81969" lon="0.15857">
        <ele>1870.971</ele>
        <time>2013-06-11T02:33:09Z</time>
      </trkpt>
      <trkpt lat="42.81969" lon="0.15857">
        <ele>1875.251</ele>
        <time>2013-06-11T02:33:10Z</time>
      </trkpt>
      <trkpt lat="42.81969" lon="0.15857">
        <ele>1873.34</ele>
        <time>2013-06-11T02:33:15Z</time>
      </trkpt>
      <trkpt lat="42.81966" lon="0.15857">
        <ele>1873.362</ele>
        <time>2013-06-11T02:33:16Z</time>
      </trkpt>
      <trkpt lat="42.81966" lon="0.15859">
        <ele>1871.883</ele>
        <time>2013-06-11T02:33:19Z</time>
      </trkpt>
      <trkpt lat="42.81969" lon="0.15859">
        <ele>1868.511</ele>
        <time>2013-06-11T02:33:30Z</time>
      </trkpt>
      <trkpt lat="42.81966" lon="0.15864">
        <ele>1867.007</ele>
        <time>2013-06-11T02:33:38Z</time>
      </trkpt>
      <trkpt lat="42.81964" lon="0.15864">
        <ele>1867.08</ele>
        <time>2013-06-11T02:33:39Z</time>
      </trkpt>
      <trkpt lat="42.81962" lon="0.15877">
        <ele>1867.062</ele>
        <time>2013-06-11T02:33:55Z</time>
      </trkpt>
      <trkpt lat="42.8196" lon="0.15881">
        <ele>1867.512</ele>
        <time>2013-06-11T02:34:08Z</time>
      </trkpt>
      <trkpt lat="42.8196" lon="0.15883">
        <ele>1867.538</ele>
        <time>2013-06-11T02:34:09Z</time>
      </trkpt>
      <trkpt lat="42.8196" lon="0.15879">
        <ele>1865.636</ele>
        <time>2013-06-11T02:34:11Z</time>
      </trkpt>
      <trkpt lat="42.81962" lon="0.15879">
        <ele>1866.156</ele>
        <time>2013-06-11T02:34:23Z</time>
      </trkpt>
      <trkpt lat="42.8196" lon="0.15892">
        <ele>1868.065</ele>
        <time>2013-06-11T02:34:31Z</time>
      </trkpt>
      <trkpt lat="42.81958" lon="0.15892">
        <ele>1868.037</ele>
        <time>2013-06-11T02:34:32Z</time>
      </trkpt>
      <trkpt lat="42.81958" lon="0.15892">
        <ele>1868.549</ele>
        <time>2013-06-11T02:34:35Z</time>
      </trkpt>
      <trkpt lat="42.81958" lon="0.15892">
        <ele>1877.613</ele>
        <time>2013-06-11T02:34:40Z</time>
      </trkpt>
      <trkpt lat="42.81952" lon="0.15885">
        <ele>1881.007</ele>
        <time>2013-06-11T02:34:54Z</time>
      </trkpt>
      <trkpt lat="42.81952" lon="0.15885">
        <ele>1881.037</ele>
        <time>2013-06-11T02:34:56Z</time>
      </trkpt>
      <trkpt lat="42.81945" lon="0.15877">
        <ele>1884.849</ele>
        <time>2013-06-11T02:35:09Z</time>
      </trkpt>
      <trkpt lat="42.81941" lon="0.15868">
        <ele>1890.129</ele>
        <time>2013-06-11T02:35:23Z</time>
      </trkpt>
      <trkpt lat="42.81941" lon="0.15864">
        <ele>1888.645</ele>
        <time>2013-06-11T02:35:29Z</time>
      </trkpt>
      <trkpt lat="42.81941" lon="0.15864">
        <ele>1888.243</ele>
        <time>2013-06-11T02:35:31Z</time>
      </trkpt>
      <trkpt lat="42.81932" lon="0.15859">
        <ele>1897.323</ele>
        <time>2013-06-11T02:35:47Z</time>
      </trkpt>
      <trkpt lat="42.8193" lon="0.15859">
        <ele>1905.522</ele>
        <time>2013-06-11T02:35:51Z</time>
      </trkpt>
      <trkpt lat="42.8193" lon="0.15857">
        <ele>1905.054</ele>
        <time>2013-06-11T02:35:52Z</time>
      </trkpt>
      <trkpt lat="42.81926" lon="0.15849">
        <ele>1905.556</ele>
        <time>2013-06-11T02:36:06Z</time>
      </trkpt>
      <trkpt lat="42.81924" lon="0.15842">
        <ele>1902.611</ele>
        <time>2013-06-11T02:36:16Z</time>
      </trkpt>
      <trkpt lat="42.81924" lon="0.1584">
        <ele>1902.107</ele>
        <time>2013-06-11T02:36:19Z</time>
      </trkpt>
      <trkpt lat="42.81917" lon="0.15832">
        <ele>1915.179</ele>
        <time>2013-06-11T02:36:33Z</time>
      </trkpt>
      <trkpt lat="42.81915" lon="0.15832">
        <ele>1918.491</ele>
        <time>2013-06-11T02:36:37Z</time>
      </trkpt>
      <trkpt lat="42.81917" lon="0.15832">
        <ele>1916.591</ele>
        <time>2013-06-11T02:36:40Z</time>
      </trkpt>
      <trkpt lat="42.81913" lon="0.15825">
        <ele>1923.327</ele>
        <time>2013-06-11T02:36:57Z</time>
      </trkpt>
      <trkpt lat="42.81902" lon="0.15819">
        <ele>1940.645</ele>
        <time>2013-06-11T02:37:12Z</time>
      </trkpt>
      <trkpt lat="42.81895" lon="0.1581">
        <ele>1947.345</ele>
        <time>2013-06-11T02:37:28Z</time>
      </trkpt>
      <trkpt lat="42.81889" lon="0.15801">
        <ele>1904.024</ele>
        <time>2013-06-11T02:37:42Z</time>
      </trkpt>
      <trkpt lat="42.81887" lon="0.15793">
        <ele>1907.998</ele>
        <time>2013-06-11T02:37:56Z</time>
      </trkpt>
      <trkpt lat="42.81887" lon="0.15793">
        <ele>1928.115</ele>
        <time>2013-06-11T02:37:58Z</time>
      </trkpt>
      <trkpt lat="42.81887" lon="0.15793">
        <ele>1927.626</ele>
        <time>2013-06-11T02:38:01Z</time>
      </trkpt>
      <trkpt lat="42.81887" lon="0.15793">
        <ele>1927.107</ele>
        <time>2013-06-11T02:38:04Z</time>
      </trkpt>
      <trkpt lat="42.81887" lon="0.15791">
        <ele>1925.773</ele>
        <time>2013-06-11T02:38:05Z</time>
      </trkpt>
      <trkpt lat="42.81887" lon="0.15791">
        <ele>1923.765</ele>
        <time>2013-06-11T02:38:07Z</time>
      </trkpt>
      <trkpt lat="42.81885" lon="0.15789">
        <ele>1933.845</ele>
        <time>2013-06-11T02:38:09Z</time>
      </trkpt>
      <trkpt lat="42.81878" lon="0.15782">
        <ele>1944.461</ele>
        <time>2013-06-11T02:38:27Z</time>
      </trkpt>
      <trkpt lat="42.81872" lon="0.1578">
        <ele>1945.829</ele>
        <time>2013-06-11T02:38:39Z</time>
      </trkpt>
      <trkpt lat="42.8187" lon="0.15778">
        <ele>1943.939</ele>
        <time>2013-06-11T02:38:45Z</time>
      </trkpt>
      <trkpt lat="42.81868" lon="0.1578">
        <ele>1948.298</ele>
        <time>2013-06-11T02:38:48Z</time>
      </trkpt>
      <trkpt lat="42.81872" lon="0.15769">
        <ele>1953.571</ele>
        <time>2013-06-11T02:39:05Z</time>
      </trkpt>
      <trkpt lat="42.81853" lon="0.15769">
        <ele>1926.141</ele>
        <time>2013-06-11T02:39:12Z</time>
      </trkpt>
      <trkpt lat="42.81866" lon="0.15769">
        <ele>1922.815</ele>
        <time>2013-06-11T02:39:14Z</time>
      </trkpt>
      <trkpt lat="42.81866" lon="0.15771">
        <ele>1926.607</ele>
        <time>2013-06-11T02:39:17Z</time>
      </trkpt>
      <trkpt lat="42.81859" lon="0.15776">
        <ele>1945.831</ele>
        <time>2013-06-11T02:39:29Z</time>
      </trkpt>
      <trkpt lat="42.81859" lon="0.15776">
        <ele>1946.363</ele>
        <time>2013-06-11T02:39:31Z</time>
      </trkpt>
      <trkpt lat="42.81857" lon="0.15776">
        <ele>1947.393</ele>
        <time>2013-06-11T02:39:45Z</time>
      </trkpt>
      <trkpt lat="42.81853" lon="0.15774">
        <ele>1948.719</ele>
        <time>2013-06-11T02:39:58Z</time>
      </trkpt>
      <trkpt lat="42.81849" lon="0.15765">
        <ele>1949.797</ele>
        <time>2013-06-11T02:40:14Z</time>
      </trkpt>
      <trkpt lat="42.81849" lon="0.15765">
        <ele>1950.277</ele>
        <time>2013-06-11T02:40:15Z</time>
      </trkpt>
      <trkpt lat="42.81846" lon="0.15767">
        <ele>1954.076</ele>
        <time>2013-06-11T02:40:17Z</time>
      </trkpt>
      <trkpt lat="42.81844" lon="0.15767">
        <ele>1958.841</ele>
        <time>2013-06-11T02:40:20Z</time>
      </trkpt>
      <trkpt lat="42.81842" lon="0.15782">
        <ele>1963.181</ele>
        <time>2013-06-11T02:40:32Z</time>
      </trkpt>
      <trkpt lat="42.81842" lon="0.15795">
        <ele>1968.009</ele>
        <time>2013-06-11T02:40:46Z</time>
      </trkpt>
      <trkpt lat="42.8184" lon="0.15801">
        <ele>1970.407</ele>
        <time>2013-06-11T02:40:54Z</time>
      </trkpt>
      <trkpt lat="42.8184" lon="0.15804">
        <ele>1971.338</ele>
        <time>2013-06-11T02:40:56Z</time>
      </trkpt>
      <trkpt lat="42.81842" lon="0.1581">
        <ele>1966.54</ele>
        <time>2013-06-11T02:41:03Z</time>
      </trkpt>
      <trkpt lat="42.81844" lon="0.1581">
        <ele>1967.04</ele>
        <time>2013-06-11T02:41:04Z</time>
      </trkpt>
      <trkpt lat="42.81844" lon="0.15812">
        <ele>1968.446</ele>
        <time>2013-06-11T02:41:07Z</time>
      </trkpt>
      <trkpt lat="42.81844" lon="0.15812">
        <ele>1967.564</ele>
        <time>2013-06-11T02:41:08Z</time>
      </trkpt>
      <trkpt lat="42.81842" lon="0.1581">
        <ele>1920.964</ele>
        <time>2013-06-11T02:41:12Z</time>
      </trkpt>
      <trkpt lat="42.81838" lon="0.15808">
        <ele>2007.973</ele>
        <time>2013-06-11T02:41:18Z</time>
      </trkpt>
      <trkpt lat="42.81838" lon="0.15808">
        <ele>1995.827</ele>
        <time>2013-06-11T02:41:19Z</time>
      </trkpt>
      <trkpt lat="42.81827" lon="0.15797">
        <ele>2078.568</ele>
        <time>2013-06-11T02:41:32Z</time>
      </trkpt>
      <trkpt lat="42.81825" lon="0.15797">
        <ele>2055.014</ele>
        <time>2013-06-11T02:41:36Z</time>
      </trkpt>
      <trkpt lat="42.81825" lon="0.15797">
        <ele>2060.707</ele>
        <time>2013-06-11T02:41:37Z</time>
      </trkpt>
      <trkpt lat="42.81823" lon="0.15797">
        <ele>2069.946</ele>
        <time>2013-06-11T02:41:41Z</time>
      </trkpt>
      <trkpt lat="42.81825" lon="0.1581">
        <ele>1989.128</ele>
        <time>2013-06-11T02:41:56Z</time>
      </trkpt>
      <trkpt lat="42.81825" lon="0.15821">
        <ele>1980.058</ele>
        <time>2013-06-11T02:42:08Z</time>
      </trkpt>
      <trkpt lat="42.81827" lon="0.15823">
        <ele>1980.924</ele>
        <time>2013-06-11T02:42:11Z</time>
      </trkpt>
      <trkpt lat="42.81827" lon="0.15829">
        <ele>1982.962</ele>
        <time>2013-06-11T02:42:18Z</time>
      </trkpt>
      <trkpt lat="42.81827" lon="0.15832">
        <ele>1983.352</ele>
        <time>2013-06-11T02:42:19Z</time>
      </trkpt>
      <trkpt lat="42.81829" lon="0.15842">
        <ele>1985.721</ele>
        <time>2013-06-11T02:42:33Z</time>
      </trkpt>
      <trkpt lat="42.81829" lon="0.15842">
        <ele>1985.314</ele>
        <time>2013-06-11T02:42:34Z</time>
      </trkpt>
      <trkpt lat="42.81829" lon="0.15851">
        <ele>1988.154</ele>
        <time>2013-06-11T02:42:46Z</time>
      </trkpt>
      <trkpt lat="42.81829" lon="0.15853">
        <ele>1987.709</ele>
        <time>2013-06-11T02:42:47Z</time>
      </trkpt>
      <trkpt lat="42.81829" lon="0.15855">
        <ele>1984.807</ele>
        <time>2013-06-11T02:42:50Z</time>
      </trkpt>
      <trkpt lat="42.81823" lon="0.15872">
        <ele>1974.735</ele>
        <time>2013-06-11T02:43:04Z</time>
      </trkpt>
      <trkpt lat="42.81821" lon="0.15877">
        <ele>1972.887</ele>
        <time>2013-06-11T02:43:07Z</time>
      </trkpt>
      <trkpt lat="42.81821" lon="0.15877">
        <ele>1973.237</ele>
        <time>2013-06-11T02:43:08Z</time>
      </trkpt>
      <trkpt lat="42.81821" lon="0.15881">
        <ele>1972.853</ele>
        <time>2013-06-11T02:43:12Z</time>
      </trkpt>
      <trkpt lat="42.81827" lon="0.15868">
        <ele>1968.071</ele>
        <time>2013-06-11T02:43:19Z</time>
      </trkpt>
      <trkpt lat="42.81827" lon="0.15866">
        <ele>1968.491</ele>
        <time>2013-06-11T02:43:22Z</time>
      </trkpt>
      <trkpt lat="42.81827" lon="0.15866">
        <ele>1967.55</ele>
        <time>2013-06-11T02:43:24Z</time>
      </trkpt>
      <trkpt lat="42.81825" lon="0.15862">
        <ele>1966.058</ele>
        <time>2013-06-11T02:43:29Z</time>
      </trkpt>
      <trkpt lat="42.81825" lon="0.15859">
        <ele>1969.952</ele>
        <time>2013-06-11T02:43:31Z</time>
      </trkpt>
      <trkpt lat="42.81823" lon="0.15853">
        <ele>1967.017</ele>
        <time>2013-06-11T02:43:38Z</time>
      </trkpt>
      <trkpt lat="42.81823" lon="0.15853">
        <ele>1960.707</ele>
        <time>2013-06-11T02:43:39Z</time>
      </trkpt>
      <trkpt lat="42.81818" lon="0.15853">
        <ele>1987.259</ele>
        <time>2013-06-11T02:43:42Z</time>
      </trkpt>
      <trkpt lat="42.81818" lon="0.15853">
        <ele>2022.861</ele>
        <time>2013-06-11T02:43:46Z</time>
      </trkpt>
      <trkpt lat="42.81818" lon="0.15851">
        <ele>2047.721</ele>
        <time>2013-06-11T02:43:47Z</time>
      </trkpt>
      <trkpt lat="42.81814" lon="0.15849">
        <ele>1991.097</ele>
        <time>2013-06-11T02:44:01Z</time>
      </trkpt>
      <trkpt lat="42.81812" lon="0.15842">
        <ele>2004.095</ele>
        <time>2013-06-11T02:44:14Z</time>
      </trkpt>
      <trkpt lat="42.81812" lon="0.15836">
        <ele>2002.145</ele>
        <time>2013-06-11T02:44:22Z</time>
      </trkpt>
      <trkpt lat="42.81812" lon="0.15836">
        <ele>2002.194</ele>
        <time>2013-06-11T02:44:24Z</time>
      </trkpt>
      <trkpt lat="42.81808" lon="0.15829">
        <ele>2008.891</ele>
        <time>2013-06-11T02:44:37Z</time>
      </trkpt>
      <trkpt lat="42.81805" lon="0.15823">
        <ele>2010.381</ele>
        <time>2013-06-11T02:44:47Z</time>
      </trkpt>
      <trkpt lat="42.81805" lon="0.15823">
        <ele>2010.319</ele>
        <time>2013-06-11T02:44:48Z</time>
      </trkpt>
      <trkpt lat="42.81804" lon="0.15823">
        <ele>2017.007</ele>
        <time>2013-06-11T02:44:52Z</time>
      </trkpt>
      <trkpt lat="42.81804" lon="0.15823">
        <ele>2015.573</ele>
        <time>2013-06-11T02:44:54Z</time>
      </trkpt>
      <trkpt lat="42.81804" lon="0.15825">
        <ele>2008.315</ele>
        <time>2013-06-11T02:45:05Z</time>
      </trkpt>
      <trkpt lat="42.81805" lon="0.15825">
        <ele>2008.815</ele>
        <time>2013-06-11T02:45:06Z</time>
      </trkpt>
      <trkpt lat="42.81799" lon="0.15842">
        <ele>2019.991</ele>
        <time>2013-06-11T02:45:10Z</time>
      </trkpt>
      <trkpt lat="42.81801" lon="0.15849">
        <ele>2019.459</ele>
        <time>2013-06-11T02:45:13Z</time>
      </trkpt>
      <trkpt lat="42.81799" lon="0.15851">
        <ele>2011.729</ele>
        <time>2013-06-11T02:45:30Z</time>
      </trkpt>
      <trkpt lat="42.81797" lon="0.15851">
        <ele>2012.228</ele>
        <time>2013-06-11T02:45:31Z</time>
      </trkpt>
      <trkpt lat="42.81797" lon="0.15855">
        <ele>2013.694</ele>
        <time>2013-06-11T02:45:37Z</time>
      </trkpt>
      <trkpt lat="42.81797" lon="0.15857">
        <ele>2015.157</ele>
        <time>2013-06-11T02:45:41Z</time>
      </trkpt>
      <trkpt lat="42.81799" lon="0.15864">
        <ele>2014.622</ele>
        <time>2013-06-11T02:45:57Z</time>
      </trkpt>
      <trkpt lat="42.81797" lon="0.15874">
        <ele>2020.307</ele>
        <time>2013-06-11T02:46:12Z</time>
      </trkpt>
      <trkpt lat="42.81797" lon="0.15879">
        <ele>2026.183</ele>
        <time>2013-06-11T02:46:21Z</time>
      </trkpt>
      <trkpt lat="42.81793" lon="0.15877">
        <ele>2119.825</ele>
        <time>2013-06-11T02:46:26Z</time>
      </trkpt>
      <trkpt lat="42.81793" lon="0.15874">
        <ele>2119.415</ele>
        <time>2013-06-11T02:46:29Z</time>
      </trkpt>
      <trkpt lat="42.81791" lon="0.15872">
        <ele>2098.271</ele>
        <time>2013-06-11T02:46:34Z</time>
      </trkpt>
      <trkpt lat="42.81788" lon="0.1587">
        <ele>2105.989</ele>
        <time>2013-06-11T02:46:37Z</time>
      </trkpt>
      <trkpt lat="42.81788" lon="0.15868">
        <ele>2108.339</ele>
        <time>2013-06-11T02:46:38Z</time>
      </trkpt>
      <trkpt lat="42.81782" lon="0.15862">
        <ele>2023.228</ele>
        <time>2013-06-11T02:46:53Z</time>
      </trkpt>
      <trkpt lat="42.81784" lon="0.15853">
        <ele>2018.973</ele>
        <time>2013-06-11T02:47:09Z</time>
      </trkpt>
      <trkpt lat="42.81782" lon="0.15853">
        <ele>2021.885</ele>
        <time>2013-06-11T02:47:17Z</time>
      </trkpt>
      <trkpt lat="42.81782" lon="0.15855">
        <ele>2023.213</ele>
        <time>2013-06-11T02:47:20Z</time>
      </trkpt>
      <trkpt lat="42.81782" lon="0.15862">
        <ele>2027.107</ele>
        <time>2013-06-11T02:47:32Z</time>
      </trkpt>
      <trkpt lat="42.81782" lon="0.15864">
        <ele>2027.611</ele>
        <time>2013-06-11T02:47:36Z</time>
      </trkpt>
      <trkpt lat="42.81782" lon="0.15864">
        <ele>2027.183</ele>
        <time>2013-06-11T02:47:37Z</time>
      </trkpt>
      <trkpt lat="42.81782" lon="0.1587">
        <ele>2029.543</ele>
        <time>2013-06-11T02:47:43Z</time>
      </trkpt>
      <trkpt lat="42.81782" lon="0.1587">
        <ele>2030.029</ele>
        <time>2013-06-11T02:47:44Z</time>
      </trkpt>
      <trkpt lat="42.81778" lon="0.15881">
        <ele>2043.477</ele>
        <time>2013-06-11T02:48:00Z</time>
      </trkpt>
      <trkpt lat="42.81778" lon="0.15885">
        <ele>2046.327</ele>
        <time>2013-06-11T02:48:06Z</time>
      </trkpt>
      <trkpt lat="42.81778" lon="0.15885">
        <ele>2046.366</ele>
        <time>2013-06-11T02:48:07Z</time>
      </trkpt>
      <trkpt lat="42.81778" lon="0.15887">
        <ele>2045.899</ele>
        <time>2013-06-11T02:48:11Z</time>
      </trkpt>
      <trkpt lat="42.81778" lon="0.15887">
        <ele>2044.907</ele>
        <time>2013-06-11T02:48:18Z</time>
      </trkpt>
      <trkpt lat="42.81778" lon="0.15889">
        <ele>2045.327</ele>
        <time>2013-06-11T02:48:21Z</time>
      </trkpt>
      <trkpt lat="42.81778" lon="0.15889">
        <ele>2045.307</ele>
        <time>2013-06-11T02:48:22Z</time>
      </trkpt>
      <trkpt lat="42.81778" lon="0.15894">
        <ele>2045.863</ele>
        <time>2013-06-11T02:48:25Z</time>
      </trkpt>
      <trkpt lat="42.81773" lon="0.15894">
        <ele>2046.835</ele>
        <time>2013-06-11T02:48:42Z</time>
      </trkpt>
      <trkpt lat="42.81765" lon="0.15889">
        <ele>2055.435</ele>
        <time>2013-06-11T02:48:56Z</time>
      </trkpt>
      <trkpt lat="42.81765" lon="0.15889">
        <ele>2055.431</ele>
        <time>2013-06-11T02:48:58Z</time>
      </trkpt>
      <trkpt lat="42.81765" lon="0.15892">
        <ele>2052.689</ele>
        <time>2013-06-11T02:49:12Z</time>
      </trkpt>
      <trkpt lat="42.81763" lon="0.15894">
        <ele>2056.989</ele>
        <time>2013-06-11T02:49:20Z</time>
      </trkpt>
      <trkpt lat="42.81756" lon="0.15896">
        <ele>2056.978</ele>
        <time>2013-06-11T02:49:39Z</time>
      </trkpt>
      <trkpt lat="42.81754" lon="0.15896">
        <ele>2057.495</ele>
        <time>2013-06-11T02:49:42Z</time>
      </trkpt>
      <trkpt lat="42.81752" lon="0.15898">
        <ele>2058.349</ele>
        <time>2013-06-11T02:49:46Z</time>
      </trkpt>
      <trkpt lat="42.81746" lon="0.15894">
        <ele>2061.723</ele>
        <time>2013-06-11T02:49:59Z</time>
      </trkpt>
      <trkpt lat="42.81746" lon="0.15894">
        <ele>2062.207</ele>
        <time>2013-06-11T02:50:00Z</time>
      </trkpt>
      <trkpt lat="42.81741" lon="0.15894">
        <ele>2056.943</ele>
        <time>2013-06-11T02:50:04Z</time>
      </trkpt>
      <trkpt lat="42.81728" lon="0.15898">
        <ele>2132.325</ele>
        <time>2013-06-11T02:50:23Z</time>
      </trkpt>
      <trkpt lat="42.81724" lon="0.15894">
        <ele>2071.845</ele>
        <time>2013-06-11T02:50:37Z</time>
      </trkpt>
      <trkpt lat="42.81722" lon="0.15894">
        <ele>2123.211</ele>
        <time>2013-06-11T02:50:44Z</time>
      </trkpt>
      <trkpt lat="42.8172" lon="0.15894">
        <ele>2148.239</ele>
        <time>2013-06-11T02:50:46Z</time>
      </trkpt>
      <trkpt lat="42.81709" lon="0.15894">
        <ele>2136.259</ele>
        <time>2013-06-11T02:51:02Z</time>
      </trkpt>
      <trkpt lat="42.81702" lon="0.15892">
        <ele>2148.218</ele>
        <time>2013-06-11T02:51:45Z</time>
      </trkpt>
      <trkpt lat="42.81698" lon="0.15892">
        <ele>2152.592</ele>
        <time>2013-06-11T02:52:03Z</time>
      </trkpt>
      <trkpt lat="42.81698" lon="0.15892">
        <ele>2153.573</ele>
        <time>2013-06-11T02:52:08Z</time>
      </trkpt>
      <trkpt lat="42.81696" lon="0.15896">
        <ele>2155.42</ele>
        <time>2013-06-11T02:52:24Z</time>
      </trkpt>
      <trkpt lat="42.81698" lon="0.15898">
        <ele>2108.307</ele>
        <time>2013-06-11T02:53:17Z</time>
      </trkpt>
      <trkpt lat="42.81702" lon="0.159">
        <ele>2108.873</ele>
        <time>2013-06-11T02:53:28Z</time>
      </trkpt>
      <trkpt lat="42.81705" lon="0.159">
        <ele>2157.365</ele>
        <time>2013-06-11T02:53:32Z</time>
      </trkpt>
      <trkpt lat="42.81705" lon="0.159">
        <ele>2083.395</ele>
        <time>2013-06-11T02:53:40Z</time>
      </trkpt>
      <trkpt lat="42.81705" lon="0.15898">
        <ele>2142.421</ele>
        <time>2013-06-11T02:54:20Z</time>
      </trkpt>
      <trkpt lat="42.81705" lon="0.15896">
        <ele>2159.759</ele>
        <time>2013-06-11T02:54:47Z</time>
      </trkpt>
      <trkpt lat="42.81696" lon="0.15894">
        <ele>2158.349</ele>
        <time>2013-06-11T02:54:55Z</time>
      </trkpt>
      <trkpt lat="42.81698" lon="0.15894">
        <ele>2142.478</ele>
        <time>2013-06-11T02:55:06Z</time>
      </trkpt>
      <trkpt lat="42.81696" lon="0.15894">
        <ele>2143.486</ele>
        <time>2013-06-11T02:55:08Z</time>
      </trkpt>
      <trkpt lat="42.81692" lon="0.15889">
        <ele>2143.46</ele>
        <time>2013-06-11T02:55:18Z</time>
      </trkpt>
      <trkpt lat="42.81692" lon="0.15889">
        <ele>2142.026</ele>
        <time>2013-06-11T02:55:19Z</time>
      </trkpt>
      <trkpt lat="42.81692" lon="0.15887">
        <ele>2087.207</ele>
        <time>2013-06-11T02:55:31Z</time>
      </trkpt>
      <trkpt lat="42.81692" lon="0.15887">
        <ele>2094.912</ele>
        <time>2013-06-11T02:55:44Z</time>
      </trkpt>
      <trkpt lat="42.81688" lon="0.15896">
        <ele>2096.894</ele>
        <time>2013-06-11T02:55:58Z</time>
      </trkpt>
      <trkpt lat="42.81685" lon="0.15907">
        <ele>2100.154</ele>
        <time>2013-06-11T02:56:14Z</time>
      </trkpt>
      <trkpt lat="42.81681" lon="0.15919">
        <ele>2102.59</ele>
        <time>2013-06-11T02:56:27Z</time>
      </trkpt>
      <trkpt lat="42.81683" lon="0.15924">
        <ele>2106.478</ele>
        <time>2013-06-11T02:56:35Z</time>
      </trkpt>
      <trkpt lat="42.81683" lon="0.15924">
        <ele>2106.928</ele>
        <time>2013-06-11T02:56:36Z</time>
      </trkpt>
      <trkpt lat="42.81683" lon="0.15928">
        <ele>2110.267</ele>
        <time>2013-06-11T02:56:47Z</time>
      </trkpt>
      <trkpt lat="42.81683" lon="0.15928">
        <ele>2175.114</ele>
        <time>2013-06-11T02:56:49Z</time>
      </trkpt>
      <trkpt lat="42.81679" lon="0.15926">
        <ele>2175.654</ele>
        <time>2013-06-11T02:56:53Z</time>
      </trkpt>
      <trkpt lat="42.81679" lon="0.15924">
        <ele>2165.509</ele>
        <time>2013-06-11T02:56:57Z</time>
      </trkpt>
      <trkpt lat="42.81675" lon="0.15922">
        <ele>2170.807</ele>
        <time>2013-06-11T02:57:01Z</time>
      </trkpt>
      <trkpt lat="42.81672" lon="0.15922">
        <ele>2171.815</ele>
        <time>2013-06-11T02:57:03Z</time>
      </trkpt>
      <trkpt lat="42.8167" lon="0.15919">
        <ele>2172.757</ele>
        <time>2013-06-11T02:57:06Z</time>
      </trkpt>
      <trkpt lat="42.8167" lon="0.15919">
        <ele>2168.497</ele>
        <time>2013-06-11T02:57:08Z</time>
      </trkpt>
      <trkpt lat="42.8167" lon="0.15917">
        <ele>2163.153</ele>
        <time>2013-06-11T02:57:13Z</time>
      </trkpt>
      <trkpt lat="42.8167" lon="0.15917">
        <ele>2114.681</ele>
        <time>2013-06-11T02:57:14Z</time>
      </trkpt>
      <trkpt lat="42.81668" lon="0.15917">
        <ele>2105.431</ele>
        <time>2013-06-11T02:57:18Z</time>
      </trkpt>
      <trkpt lat="42.81668" lon="0.15917">
        <ele>2111.29</ele>
        <time>2013-06-11T02:57:19Z</time>
      </trkpt>
      <trkpt lat="42.81666" lon="0.15911">
        <ele>2116.026</ele>
        <time>2013-06-11T02:57:34Z</time>
      </trkpt>
      <trkpt lat="42.81664" lon="0.15909">
        <ele>2118.447</ele>
        <time>2013-06-11T02:57:40Z</time>
      </trkpt>
      <trkpt lat="42.81664" lon="0.15909">
        <ele>2119.811</ele>
        <time>2013-06-11T02:57:41Z</time>
      </trkpt>
      <trkpt lat="42.81662" lon="0.15907">
        <ele>2121.807</ele>
        <time>2013-06-11T02:57:45Z</time>
      </trkpt>
      <trkpt lat="42.81662" lon="0.15907">
        <ele>2122.266</ele>
        <time>2013-06-11T02:57:46Z</time>
      </trkpt>
      <trkpt lat="42.8166" lon="0.15911">
        <ele>2120.318</ele>
        <time>2013-06-11T02:57:56Z</time>
      </trkpt>
      <trkpt lat="42.8166" lon="0.15911">
        <ele>2120.858</ele>
        <time>2013-06-11T02:57:57Z</time>
      </trkpt>
      <trkpt lat="42.81653" lon="0.15917">
        <ele>2124.784</ele>
        <time>2013-06-11T02:58:13Z</time>
      </trkpt>
      <trkpt lat="42.81653" lon="0.15913">
        <ele>2122.722</ele>
        <time>2013-06-11T02:58:18Z</time>
      </trkpt>
      <trkpt lat="42.81651" lon="0.15913">
        <ele>2122.732</ele>
        <time>2013-06-11T02:58:19Z</time>
      </trkpt>
      <trkpt lat="42.81647" lon="0.15911">
        <ele>2117.051</ele>
        <time>2013-06-11T02:58:32Z</time>
      </trkpt>
      <trkpt lat="42.81644" lon="0.15913">
        <ele>2115.531</ele>
        <time>2013-06-11T02:58:47Z</time>
      </trkpt>
      <trkpt lat="42.81643" lon="0.15911">
        <ele>2117.961</ele>
        <time>2013-06-11T02:58:51Z</time>
      </trkpt>
      <trkpt lat="42.81643" lon="0.15911">
        <ele>2117.907</ele>
        <time>2013-06-11T02:58:53Z</time>
      </trkpt>
      <trkpt lat="42.81638" lon="0.15917">
        <ele>2120.307</ele>
        <time>2013-06-11T02:59:07Z</time>
      </trkpt>
      <trkpt lat="42.81636" lon="0.15919">
        <ele>2120.397</ele>
        <time>2013-06-11T02:59:08Z</time>
      </trkpt>
      <trkpt lat="42.81636" lon="0.15919">
        <ele>2119.849</ele>
        <time>2013-06-11T02:59:09Z</time>
      </trkpt>
      <trkpt lat="42.81634" lon="0.15922">
        <ele>2195.369</ele>
        <time>2013-06-11T02:59:14Z</time>
      </trkpt>
      <trkpt lat="42.81632" lon="0.15922">
        <ele>2196.775</ele>
        <time>2013-06-11T02:59:15Z</time>
      </trkpt>
      <trkpt lat="42.81625" lon="0.1593">
        <ele>2192.953</ele>
        <time>2013-06-11T02:59:31Z</time>
      </trkpt>
      <trkpt lat="42.81621" lon="0.15935">
        <ele>2141.023</ele>
        <time>2013-06-11T02:59:39Z</time>
      </trkpt>
      <trkpt lat="42.81621" lon="0.15935">
        <ele>2141.532</ele>
        <time>2013-06-11T02:59:40Z</time>
      </trkpt>
      <trkpt lat="42.81619" lon="0.15937">
        <ele>2142.435</ele>
        <time>2013-06-11T02:59:43Z</time>
      </trkpt>
      <trkpt lat="42.81619" lon="0.15937">
        <ele>2192.986</ele>
        <time>2013-06-11T02:59:48Z</time>
      </trkpt>
      <trkpt lat="42.81619" lon="0.15937">
        <ele>2173.214</ele>
        <time>2013-06-11T02:59:53Z</time>
      </trkpt>
      <trkpt lat="42.81619" lon="0.15935">
        <ele>2177.007</ele>
        <time>2013-06-11T02:59:54Z</time>
      </trkpt>
      <trkpt lat="42.81619" lon="0.15935">
        <ele>2185.277</ele>
        <time>2013-06-11T02:59:58Z</time>
      </trkpt>
      <trkpt lat="42.81621" lon="0.15932">
        <ele>2177.069</ele>
        <time>2013-06-11T03:00:00Z</time>
      </trkpt>
      <trkpt lat="42.81621" lon="0.15928">
        <ele>2201.149</ele>
        <time>2013-06-11T03:00:03Z</time>
      </trkpt>
      <trkpt lat="42.81619" lon="0.15924">
        <ele>2199.255</ele>
        <time>2013-06-11T03:00:05Z</time>
      </trkpt>
      <trkpt lat="42.81619" lon="0.15924">
        <ele>2177.593</ele>
        <time>2013-06-11T03:00:07Z</time>
      </trkpt>
      <trkpt lat="42.81619" lon="0.15922">
        <ele>2174.223</ele>
        <time>2013-06-11T03:00:11Z</time>
      </trkpt>
      <trkpt lat="42.81619" lon="0.15922">
        <ele>2182.852</ele>
        <time>2013-06-11T03:00:12Z</time>
      </trkpt>
      <trkpt lat="42.81619" lon="0.15922">
        <ele>2182.878</ele>
        <time>2013-06-11T03:00:16Z</time>
      </trkpt>
      <trkpt lat="42.81617" lon="0.15922">
        <ele>2186.233</ele>
        <time>2013-06-11T03:00:17Z</time>
      </trkpt>
      <trkpt lat="42.81617" lon="0.15919">
        <ele>2179.926</ele>
        <time>2013-06-11T03:00:59Z</time>
      </trkpt>
      <trkpt lat="42.81617" lon="0.15919">
        <ele>2182.307</ele>
        <time>2013-06-11T03:01:03Z</time>
      </trkpt>
      <trkpt lat="42.81612" lon="0.1593">
        <ele>2146.381</ele>
        <time>2013-06-11T03:01:16Z</time>
      </trkpt>
      <trkpt lat="42.81612" lon="0.1593">
        <ele>2146.873</ele>
        <time>2013-06-11T03:01:17Z</time>
      </trkpt>
      <trkpt lat="42.81612" lon="0.15939">
        <ele>2140.523</ele>
        <time>2013-06-11T03:01:25Z</time>
      </trkpt>
      <trkpt lat="42.81612" lon="0.15939">
        <ele>2139.149</ele>
        <time>2013-06-11T03:01:26Z</time>
      </trkpt>
      <trkpt lat="42.81606" lon="0.15945">
        <ele>2206.857</ele>
        <time>2013-06-11T03:01:40Z</time>
      </trkpt>
      <trkpt lat="42.81599" lon="0.15947">
        <ele>2209.247</ele>
        <time>2013-06-11T03:01:49Z</time>
      </trkpt>
      <trkpt lat="42.81599" lon="0.15947">
        <ele>2200.626</ele>
        <time>2013-06-11T03:01:50Z</time>
      </trkpt>
      <trkpt lat="42.81599" lon="0.1595">
        <ele>2193.931</ele>
        <time>2013-06-11T03:01:55Z</time>
      </trkpt>
      <trkpt lat="42.81599" lon="0.1595">
        <ele>2169.861</ele>
        <time>2013-06-11T03:01:58Z</time>
      </trkpt>
      <trkpt lat="42.81593" lon="0.15954">
        <ele>2191.007</ele>
        <time>2013-06-11T03:02:12Z</time>
      </trkpt>
      <trkpt lat="42.81589" lon="0.15958">
        <ele>2169.807</ele>
        <time>2013-06-11T03:02:25Z</time>
      </trkpt>
      <trkpt lat="42.81587" lon="0.15958">
        <ele>2176.667</ele>
        <time>2013-06-11T03:02:31Z</time>
      </trkpt>
      <trkpt lat="42.81591" lon="0.1596">
        <ele>2172.279</ele>
        <time>2013-06-11T03:02:50Z</time>
      </trkpt>
      <trkpt lat="42.8158" lon="0.15956">
        <ele>2184.389</ele>
        <time>2013-06-11T03:03:04Z</time>
      </trkpt>
      <trkpt lat="42.81578" lon="0.15956">
        <ele>2189.525</ele>
        <time>2013-06-11T03:03:10Z</time>
      </trkpt>
      <trkpt lat="42.81578" lon="0.15958">
        <ele>2189.133</ele>
        <time>2013-06-11T03:03:11Z</time>
      </trkpt>
      <trkpt lat="42.81578" lon="0.15962">
        <ele>2186.753</ele>
        <time>2013-06-11T03:03:15Z</time>
      </trkpt>
      <trkpt lat="42.81578" lon="0.15962">
        <ele>2188.192</ele>
        <time>2013-06-11T03:03:16Z</time>
      </trkpt>
      <trkpt lat="42.81578" lon="0.15965">
        <ele>2189.511</ele>
        <time>2013-06-11T03:03:19Z</time>
      </trkpt>
      <trkpt lat="42.81578" lon="0.15965">
        <ele>2190.021</ele>
        <time>2013-06-11T03:03:21Z</time>
      </trkpt>
      <trkpt lat="42.81578" lon="0.15967">
        <ele>2187.603</ele>
        <time>2013-06-11T03:03:24Z</time>
      </trkpt>
      <trkpt lat="42.81578" lon="0.15967">
        <ele>2185.707</ele>
        <time>2013-06-11T03:03:27Z</time>
      </trkpt>
      <trkpt lat="42.81578" lon="0.15971">
        <ele>2181.475</ele>
        <time>2013-06-11T03:03:35Z</time>
      </trkpt>
      <trkpt lat="42.81578" lon="0.15971">
        <ele>2183.357</ele>
        <time>2013-06-11T03:03:36Z</time>
      </trkpt>
      <trkpt lat="42.81574" lon="0.15977">
        <ele>2227.597</ele>
        <time>2013-06-11T03:03:50Z</time>
      </trkpt>
      <trkpt lat="42.81563" lon="0.15975">
        <ele>2225.653</ele>
        <time>2013-06-11T03:04:02Z</time>
      </trkpt>
      <trkpt lat="42.81559" lon="0.15973">
        <ele>2226.611</ele>
        <time>2013-06-11T03:04:09Z</time>
      </trkpt>
      <trkpt lat="42.81559" lon="0.15971">
        <ele>2226.651</ele>
        <time>2013-06-11T03:04:10Z</time>
      </trkpt>
      <trkpt lat="42.81557" lon="0.15971">
        <ele>2225.65</ele>
        <time>2013-06-11T03:04:18Z</time>
      </trkpt>
      <trkpt lat="42.81559" lon="0.15967">
        <ele>2122.712</ele>
        <time>2013-06-11T03:04:28Z</time>
      </trkpt>
      <trkpt lat="42.81559" lon="0.15969">
        <ele>2180.432</ele>
        <time>2013-06-11T03:04:33Z</time>
      </trkpt>
      <trkpt lat="42.81557" lon="0.15967">
        <ele>2165.005</ele>
        <time>2013-06-11T03:04:45Z</time>
      </trkpt>
      <trkpt lat="42.81557" lon="0.15967">
        <ele>2166.907</ele>
        <time>2013-06-11T03:04:47Z</time>
      </trkpt>
      <trkpt lat="42.81554" lon="0.15962">
        <ele>2172.225</ele>
        <time>2013-06-11T03:05:01Z</time>
      </trkpt>
      <trkpt lat="42.81554" lon="0.1596">
        <ele>2174.267</ele>
        <time>2013-06-11T03:05:05Z</time>
      </trkpt>
      <trkpt lat="42.81554" lon="0.15958">
        <ele>2176.627</ele>
        <time>2013-06-11T03:05:07Z</time>
      </trkpt>
      <trkpt lat="42.81554" lon="0.15956">
        <ele>2178.583</ele>
        <time>2013-06-11T03:05:10Z</time>
      </trkpt>
      <trkpt lat="42.81554" lon="0.15956">
        <ele>2179.011</ele>
        <time>2013-06-11T03:05:11Z</time>
      </trkpt>
      <trkpt lat="42.81552" lon="0.15954">
        <ele>2181.491</ele>
        <time>2013-06-11T03:05:13Z</time>
      </trkpt>
      <trkpt lat="42.81552" lon="0.15952">
        <ele>2183.88</ele>
        <time>2013-06-11T03:05:17Z</time>
      </trkpt>
      <trkpt lat="42.81552" lon="0.15952">
        <ele>2184.331</ele>
        <time>2013-06-11T03:05:20Z</time>
      </trkpt>
      <trkpt lat="42.81552" lon="0.1595">
        <ele>2183.861</ele>
        <time>2013-06-11T03:05:27Z</time>
      </trkpt>
      <trkpt lat="42.81552" lon="0.15954">
        <ele>2183.307</ele>
        <time>2013-06-11T03:06:02Z</time>
      </trkpt>
      <trkpt lat="42.8155" lon="0.15952">
        <ele>2183.307</ele>
        <time>2013-06-11T03:06:08Z</time>
      </trkpt>
      <trkpt lat="42.81548" lon="0.15952">
        <ele>2185.297</ele>
        <time>2013-06-11T03:06:12Z</time>
      </trkpt>
      <trkpt lat="42.81541" lon="0.15958">
        <ele>2185.259</ele>
        <time>2013-06-11T03:06:28Z</time>
      </trkpt>
      <trkpt lat="42.81535" lon="0.15965">
        <ele>2185.799</ele>
        <time>2013-06-11T03:06:42Z</time>
      </trkpt>
      <trkpt lat="42.81529" lon="0.15971">
        <ele>2186.745</ele>
        <time>2013-06-11T03:06:55Z</time>
      </trkpt>
      <trkpt lat="42.81531" lon="0.15977">
        <ele>2188.633</ele>
        <time>2013-06-11T03:07:05Z</time>
      </trkpt>
      <trkpt lat="42.81529" lon="0.1598">
        <ele>2188.133</ele>
        <time>2013-06-11T03:07:07Z</time>
      </trkpt>
      <trkpt lat="42.81527" lon="0.1598">
        <ele>2186.772</ele>
        <time>2013-06-11T03:07:13Z</time>
      </trkpt>
      <trkpt lat="42.8152" lon="0.15986">
        <ele>2183.864</ele>
        <time>2013-06-11T03:07:25Z</time>
      </trkpt>
      <trkpt lat="42.81518" lon="0.15995">
        <ele>2188.106</ele>
        <time>2013-06-11T03:07:39Z</time>
      </trkpt>
      <trkpt lat="42.8152" lon="0.15997">
        <ele>2188.616</ele>
        <time>2013-06-11T03:07:45Z</time>
      </trkpt>
      <trkpt lat="42.81522" lon="0.15997">
        <ele>2189.107</ele>
        <time>2013-06-11T03:07:47Z</time>
      </trkpt>
      <trkpt lat="42.81522" lon="0.15999">
        <ele>2190.54</ele>
        <time>2013-06-11T03:07:54Z</time>
      </trkpt>
      <trkpt lat="42.81522" lon="0.15999">
        <ele>2191.522</ele>
        <time>2013-06-11T03:07:57Z</time>
      </trkpt>
      <trkpt lat="42.8152" lon="0.15999">
        <ele>2193.912</ele>
        <time>2013-06-11T03:08:07Z</time>
      </trkpt>
      <trkpt lat="42.8152" lon="0.15997">
        <ele>2194.828</ele>
        <time>2013-06-11T03:08:21Z</time>
      </trkpt>
      <trkpt lat="42.8152" lon="0.15997">
        <ele>2195.866</ele>
        <time>2013-06-11T03:08:27Z</time>
      </trkpt>
      <trkpt lat="42.81522" lon="0.15992">
        <ele>2197.746</ele>
        <time>2013-06-11T03:10:58Z</time>
      </trkpt>
      <trkpt lat="42.81522" lon="0.16001">
        <ele>2203.085</ele>
        <time>2013-06-11T03:11:13Z</time>
      </trkpt>
      <trkpt lat="42.81522" lon="0.16001">
        <ele>2203.034</ele>
        <time>2013-06-11T03:11:14Z</time>
      </trkpt>
      <trkpt lat="42.8152" lon="0.1601">
        <ele>2204.955</ele>
        <time>2013-06-11T03:11:29Z</time>
      </trkpt>
      <trkpt lat="42.8152" lon="0.16016">
        <ele>2207.31</ele>
        <time>2013-06-11T03:11:39Z</time>
      </trkpt>
      <trkpt lat="42.8152" lon="0.16018">
        <ele>2206.807</ele>
        <time>2013-06-11T03:11:47Z</time>
      </trkpt>
      <trkpt lat="42.8152" lon="0.16018">
        <ele>2206.877</ele>
        <time>2013-06-11T03:11:52Z</time>
      </trkpt>
      <trkpt lat="42.8152" lon="0.16018">
        <ele>2207.869</ele>
        <time>2013-06-11T03:11:55Z</time>
      </trkpt>
      <trkpt lat="42.81522" lon="0.16016">
        <ele>2207.889</ele>
        <time>2013-06-11T03:12:11Z</time>
      </trkpt>
      <trkpt lat="42.81522" lon="0.16018">
        <ele>2208.875</ele>
        <time>2013-06-11T03:12:14Z</time>
      </trkpt>
      <trkpt lat="42.81522" lon="0.16018">
        <ele>2209.273</ele>
        <time>2013-06-11T03:12:15Z</time>
      </trkpt>
      <trkpt lat="42.81522" lon="0.16031">
        <ele>2212.673</ele>
        <time>2013-06-11T03:12:29Z</time>
      </trkpt>
      <trkpt lat="42.81522" lon="0.16031">
        <ele>2213.182</ele>
        <time>2013-06-11T03:12:30Z</time>
      </trkpt>
      <trkpt lat="42.81522" lon="0.16033">
        <ele>2213.697</ele>
        <time>2013-06-11T03:12:33Z</time>
      </trkpt>
      <trkpt lat="42.8152" lon="0.16035">
        <ele>2216.523</ele>
        <time>2013-06-11T03:12:42Z</time>
      </trkpt>
      <trkpt lat="42.81518" lon="0.16035">
        <ele>2216.525</ele>
        <time>2013-06-11T03:12:43Z</time>
      </trkpt>
      <trkpt lat="42.81518" lon="0.16035">
        <ele>2215.507</ele>
        <time>2013-06-11T03:12:46Z</time>
      </trkpt>
      <trkpt lat="42.81518" lon="0.16035">
        <ele>2214.583</ele>
        <time>2013-06-11T03:12:47Z</time>
      </trkpt>
      <trkpt lat="42.81509" lon="0.16031">
        <ele>2214.525</ele>
        <time>2013-06-11T03:13:05Z</time>
      </trkpt>
      <trkpt lat="42.81505" lon="0.1604">
        <ele>2221.315</ele>
        <time>2013-06-11T03:13:18Z</time>
      </trkpt>
      <trkpt lat="42.81501" lon="0.16053">
        <ele>2222.761</ele>
        <time>2013-06-11T03:13:33Z</time>
      </trkpt>
      <trkpt lat="42.81495" lon="0.16063">
        <ele>2225.629</ele>
        <time>2013-06-11T03:13:47Z</time>
      </trkpt>
      <trkpt lat="42.81495" lon="0.16063">
        <ele>2226.159</ele>
        <time>2013-06-11T03:13:48Z</time>
      </trkpt>
      <trkpt lat="42.81482" lon="0.16068">
        <ele>2239.528</ele>
        <time>2013-06-11T03:14:05Z</time>
      </trkpt>
      <trkpt lat="42.81469" lon="0.16065">
        <ele>2256.419</ele>
        <time>2013-06-11T03:14:19Z</time>
      </trkpt>
      <trkpt lat="42.81464" lon="0.1607">
        <ele>2215.009</ele>
        <time>2013-06-11T03:14:31Z</time>
      </trkpt>
      <trkpt lat="42.81462" lon="0.1608">
        <ele>2232.319</ele>
        <time>2013-06-11T03:14:47Z</time>
      </trkpt>
      <trkpt lat="42.8146" lon="0.16087">
        <ele>2230.407</ele>
        <time>2013-06-11T03:15:01Z</time>
      </trkpt>
      <trkpt lat="42.81462" lon="0.16093">
        <ele>2266.415</ele>
        <time>2013-06-11T03:15:14Z</time>
      </trkpt>
      <trkpt lat="42.81462" lon="0.16093">
        <ele>2292.447</ele>
        <time>2013-06-11T03:15:21Z</time>
      </trkpt>
      <trkpt lat="42.81462" lon="0.16093">
        <ele>2260.267</ele>
        <time>2013-06-11T03:15:22Z</time>
      </trkpt>
      <trkpt lat="42.8146" lon="0.16098">
        <ele>2279.913</ele>
        <time>2013-06-11T03:15:35Z</time>
      </trkpt>
      <trkpt lat="42.8146" lon="0.16098">
        <ele>2281.331</ele>
        <time>2013-06-11T03:15:37Z</time>
      </trkpt>
      <trkpt lat="42.8146" lon="0.161">
        <ele>2283.711</ele>
        <time>2013-06-11T03:15:42Z</time>
      </trkpt>
      <trkpt lat="42.8146" lon="0.161">
        <ele>2283.75</ele>
        <time>2013-06-11T03:15:43Z</time>
      </trkpt>
      <trkpt lat="42.81458" lon="0.16098">
        <ele>2290.525</ele>
        <time>2013-06-11T03:16:06Z</time>
      </trkpt>
      <trkpt lat="42.81454" lon="0.16098">
        <ele>2291.926</ele>
        <time>2013-06-11T03:16:11Z</time>
      </trkpt>
      <trkpt lat="42.81454" lon="0.16098">
        <ele>2292.408</ele>
        <time>2013-06-11T03:16:12Z</time>
      </trkpt>
      <trkpt lat="42.81445" lon="0.161">
        <ele>2293.807</ele>
        <time>2013-06-11T03:16:26Z</time>
      </trkpt>
      <trkpt lat="42.81437" lon="0.16102">
        <ele>2298.666</ele>
        <time>2013-06-11T03:16:43Z</time>
      </trkpt>
      <trkpt lat="42.81432" lon="0.16104">
        <ele>2301.158</ele>
        <time>2013-06-11T03:16:55Z</time>
      </trkpt>
      <trkpt lat="42.8143" lon="0.16104">
        <ele>2301.568</ele>
        <time>2013-06-11T03:16:57Z</time>
      </trkpt>
      <trkpt lat="42.81428" lon="0.16108">
        <ele>2303.054</ele>
        <time>2013-06-11T03:17:07Z</time>
      </trkpt>
      <trkpt lat="42.81426" lon="0.16106">
        <ele>2303.972</ele>
        <time>2013-06-11T03:17:46Z</time>
      </trkpt>
      <trkpt lat="42.81426" lon="0.16106">
        <ele>2305.452</ele>
        <time>2013-06-11T03:18:20Z</time>
      </trkpt>
      <trkpt lat="42.81424" lon="0.16113">
        <ele>2308.361</ele>
        <time>2013-06-11T03:18:32Z</time>
      </trkpt>
      <trkpt lat="42.81424" lon="0.16115">
        <ele>2308.396</ele>
        <time>2013-06-11T03:18:33Z</time>
      </trkpt>
      <trkpt lat="42.81426" lon="0.16125">
        <ele>2311.631</ele>
        <time>2013-06-11T03:18:49Z</time>
      </trkpt>
      <trkpt lat="42.81428" lon="0.16132">
        <ele>2313.124</ele>
        <time>2013-06-11T03:18:56Z</time>
      </trkpt>
      <trkpt lat="42.81428" lon="0.16132">
        <ele>2313.107</ele>
        <time>2013-06-11T03:18:58Z</time>
      </trkpt>
      <trkpt lat="42.81449" lon="0.16168">
        <ele>2251.163</ele>
        <time>2013-06-11T03:19:12Z</time>
      </trkpt>
      <trkpt lat="42.81456" lon="0.16173">
        <ele>2259.765</ele>
        <time>2013-06-11T03:19:25Z</time>
      </trkpt>
      <trkpt lat="42.81456" lon="0.16173">
        <ele>2259.745</ele>
        <time>2013-06-11T03:19:26Z</time>
      </trkpt>
      <trkpt lat="42.81454" lon="0.16177">
        <ele>2259.231</ele>
        <time>2013-06-11T03:19:33Z</time>
      </trkpt>
      <trkpt lat="42.81454" lon="0.16179">
        <ele>2259.249</ele>
        <time>2013-06-11T03:19:34Z</time>
      </trkpt>
      <trkpt lat="42.81447" lon="0.1619">
        <ele>2260.759</ele>
        <time>2013-06-11T03:19:49Z</time>
      </trkpt>
      <trkpt lat="42.81447" lon="0.16194">
        <ele>2261.248</ele>
        <time>2013-06-11T03:19:54Z</time>
      </trkpt>
      <trkpt lat="42.81445" lon="0.16194">
        <ele>2261.626</ele>
        <time>2013-06-11T03:19:56Z</time>
      </trkpt>
      <trkpt lat="42.81438" lon="0.16209">
        <ele>2262.647</ele>
        <time>2013-06-11T03:20:14Z</time>
      </trkpt>
      <trkpt lat="42.81432" lon="0.16211">
        <ele>2326.011</ele>
        <time>2013-06-11T03:20:29Z</time>
      </trkpt>
      <trkpt lat="42.81428" lon="0.16216">
        <ele>2326.007</ele>
        <time>2013-06-11T03:20:38Z</time>
      </trkpt>
      <trkpt lat="42.81428" lon="0.16216">
        <ele>2326.596</ele>
        <time>2013-06-11T03:20:39Z</time>
      </trkpt>
      <trkpt lat="42.81426" lon="0.16224">
        <ele>2328.068</ele>
        <time>2013-06-11T03:20:52Z</time>
      </trkpt>
      <trkpt lat="42.81426" lon="0.16224">
        <ele>2328.018</ele>
        <time>2013-06-11T03:20:53Z</time>
      </trkpt>
      <trkpt lat="42.81426" lon="0.16226">
        <ele>2328.024</ele>
        <time>2013-06-11T03:20:55Z</time>
      </trkpt>
      <trkpt lat="42.81426" lon="0.16228">
        <ele>2327.532</ele>
        <time>2013-06-11T03:20:58Z</time>
      </trkpt>
      <trkpt lat="42.81426" lon="0.16228">
        <ele>2327.582</ele>
        <time>2013-06-11T03:20:59Z</time>
      </trkpt>
      <trkpt lat="42.81424" lon="0.16228">
        <ele>2328.031</ele>
        <time>2013-06-11T03:21:07Z</time>
      </trkpt>
      <trkpt lat="42.81424" lon="0.16226">
        <ele>2328.594</ele>
        <time>2013-06-11T03:21:16Z</time>
      </trkpt>
      <trkpt lat="42.81421" lon="0.16226">
        <ele>2327.557</ele>
        <time>2013-06-11T03:21:19Z</time>
      </trkpt>
      <trkpt lat="42.81421" lon="0.16226">
        <ele>2326.522</ele>
        <time>2013-06-11T03:21:53Z</time>
      </trkpt>
      <trkpt lat="42.81421" lon="0.16222">
        <ele>2325.607</ele>
        <time>2013-06-11T03:22:12Z</time>
      </trkpt>
      <trkpt lat="42.81419" lon="0.16224">
        <ele>2325.193</ele>
        <time>2013-06-11T03:22:23Z</time>
      </trkpt>
      <trkpt lat="42.81419" lon="0.16235">
        <ele>2326.085</ele>
        <time>2013-06-11T03:22:32Z</time>
      </trkpt>
      <trkpt lat="42.81419" lon="0.16235">
        <ele>2326.015</ele>
        <time>2013-06-11T03:22:33Z</time>
      </trkpt>
      <trkpt lat="42.81417" lon="0.16244">
        <ele>2327.551</ele>
        <time>2013-06-11T03:22:40Z</time>
      </trkpt>
      <trkpt lat="42.81415" lon="0.16244">
        <ele>2327.529</ele>
        <time>2013-06-11T03:22:41Z</time>
      </trkpt>
      <trkpt lat="42.81411" lon="0.16256">
        <ele>2328.059</ele>
        <time>2013-06-11T03:22:53Z</time>
      </trkpt>
      <trkpt lat="42.81409" lon="0.16256">
        <ele>2328.598</ele>
        <time>2013-06-11T03:22:54Z</time>
      </trkpt>
      <trkpt lat="42.81406" lon="0.16261">
        <ele>2328.559</ele>
        <time>2013-06-11T03:22:59Z</time>
      </trkpt>
      <trkpt lat="42.81404" lon="0.16261">
        <ele>2328.503</ele>
        <time>2013-06-11T03:23:00Z</time>
      </trkpt>
      <trkpt lat="42.81402" lon="0.16265">
        <ele>2328.923</ele>
        <time>2013-06-11T03:23:06Z</time>
      </trkpt>
      <trkpt lat="42.81402" lon="0.16267">
        <ele>2328.907</ele>
        <time>2013-06-11T03:23:07Z</time>
      </trkpt>
      <trkpt lat="42.81398" lon="0.16269">
        <ele>2329.929</ele>
        <time>2013-06-11T03:23:13Z</time>
      </trkpt>
      <trkpt lat="42.81398" lon="0.16271">
        <ele>2329.951</ele>
        <time>2013-06-11T03:23:14Z</time>
      </trkpt>
      <trkpt lat="42.81396" lon="0.16271">
        <ele>2330.961</ele>
        <time>2013-06-11T03:23:17Z</time>
      </trkpt>
      <trkpt lat="42.81396" lon="0.16271">
        <ele>2331.377</ele>
        <time>2013-06-11T03:23:22Z</time>
      </trkpt>
      <trkpt lat="42.81393" lon="0.16276">
        <ele>2330.985</ele>
        <time>2013-06-11T03:23:26Z</time>
      </trkpt>
      <trkpt lat="42.81393" lon="0.16276">
        <ele>2330.995</ele>
        <time>2013-06-11T03:23:27Z</time>
      </trkpt>
      <trkpt lat="42.81392" lon="0.1628">
        <ele>2331.354</ele>
        <time>2013-06-11T03:23:30Z</time>
      </trkpt>
      <trkpt lat="42.81389" lon="0.16286">
        <ele>2332.341</ele>
        <time>2013-06-11T03:23:36Z</time>
      </trkpt>
      <trkpt lat="42.81389" lon="0.16286">
        <ele>2332.381</ele>
        <time>2013-06-11T03:23:37Z</time>
      </trkpt>
      <trkpt lat="42.81385" lon="0.16293">
        <ele>2332.309</ele>
        <time>2013-06-11T03:23:43Z</time>
      </trkpt>
      <trkpt lat="42.81385" lon="0.16293">
        <ele>2332.807</ele>
        <time>2013-06-11T03:23:44Z</time>
      </trkpt>
      <trkpt lat="42.81381" lon="0.16301">
        <ele>2334.278</ele>
        <time>2013-06-11T03:23:54Z</time>
      </trkpt>
      <trkpt lat="42.81381" lon="0.16301">
        <ele>2334.27</ele>
        <time>2013-06-11T03:23:55Z</time>
      </trkpt>
      <trkpt lat="42.81381" lon="0.16304">
        <ele>2334.76</ele>
        <time>2013-06-11T03:23:58Z</time>
      </trkpt>
      <trkpt lat="42.81379" lon="0.16306">
        <ele>2334.776</ele>
        <time>2013-06-11T03:23:59Z</time>
      </trkpt>
      <trkpt lat="42.81376" lon="0.16308">
        <ele>2335.724</ele>
        <time>2013-06-11T03:24:03Z</time>
      </trkpt>
      <trkpt lat="42.81376" lon="0.1631">
        <ele>2336.174</ele>
        <time>2013-06-11T03:24:05Z</time>
      </trkpt>
      <trkpt lat="42.81374" lon="0.16312">
        <ele>2337.153</ele>
        <time>2013-06-11T03:24:09Z</time>
      </trkpt>
      <trkpt lat="42.81374" lon="0.16312">
        <ele>2337.625</ele>
        <time>2013-06-11T03:24:10Z</time>
      </trkpt>
      <trkpt lat="42.81368" lon="0.16325">
        <ele>2341.426</ele>
        <time>2013-06-11T03:24:26Z</time>
      </trkpt>
      <trkpt lat="42.81366" lon="0.16331">
        <ele>2342.408</ele>
        <time>2013-06-11T03:24:33Z</time>
      </trkpt>
      <trkpt lat="42.81366" lon="0.16331">
        <ele>2342.407</ele>
        <time>2013-06-11T03:24:34Z</time>
      </trkpt>
      <trkpt lat="42.81366" lon="0.16336">
        <ele>2343.496</ele>
        <time>2013-06-11T03:24:38Z</time>
      </trkpt>
      <trkpt lat="42.81366" lon="0.16338">
        <ele>2343.498</ele>
        <time>2013-06-11T03:24:40Z</time>
      </trkpt>
      <trkpt lat="42.81363" lon="0.1634">
        <ele>2344.388</ele>
        <time>2013-06-11T03:24:44Z</time>
      </trkpt>
      <trkpt lat="42.81363" lon="0.1634">
        <ele>2344.384</ele>
        <time>2013-06-11T03:24:45Z</time>
      </trkpt>
      <trkpt lat="42.81361" lon="0.16344">
        <ele>2344.882</ele>
        <time>2013-06-11T03:24:49Z</time>
      </trkpt>
      <trkpt lat="42.81361" lon="0.16347">
        <ele>2345.822</ele>
        <time>2013-06-11T03:24:51Z</time>
      </trkpt>
      <trkpt lat="42.81355" lon="0.16355">
        <ele>2348.221</ele>
        <time>2013-06-11T03:25:03Z</time>
      </trkpt>
      <trkpt lat="42.81355" lon="0.16355">
        <ele>2348.286</ele>
        <time>2013-06-11T03:25:04Z</time>
      </trkpt>
      <trkpt lat="42.81346" lon="0.16362">
        <ele>2348.66</ele>
        <time>2013-06-11T03:25:16Z</time>
      </trkpt>
      <trkpt lat="42.81344" lon="0.16362">
        <ele>2348.626</ele>
        <time>2013-06-11T03:25:18Z</time>
      </trkpt>
      <trkpt lat="42.8134" lon="0.16362">
        <ele>2348.607</ele>
        <time>2013-06-11T03:25:21Z</time>
      </trkpt>
      <trkpt lat="42.81334" lon="0.16364">
        <ele>2348.272</ele>
        <time>2013-06-11T03:25:30Z</time>
      </trkpt>
      <trkpt lat="42.81331" lon="0.16364">
        <ele>2348.664</ele>
        <time>2013-06-11T03:25:31Z</time>
      </trkpt>
      <trkpt lat="42.81325" lon="0.16364">
        <ele>2349.674</ele>
        <time>2013-06-11T03:25:40Z</time>
      </trkpt>
      <trkpt lat="42.81325" lon="0.16364">
        <ele>2349.61</ele>
        <time>2013-06-11T03:25:41Z</time>
      </trkpt>
      <trkpt lat="42.81321" lon="0.16364">
        <ele>2350.148</ele>
        <time>2013-06-11T03:25:44Z</time>
      </trkpt>
      <trkpt lat="42.81318" lon="0.16364">
        <ele>2350.618</ele>
        <time>2013-06-11T03:25:48Z</time>
      </trkpt>
      <trkpt lat="42.81316" lon="0.16364">
        <ele>2350.647</ele>
        <time>2013-06-11T03:25:49Z</time>
      </trkpt>
      <trkpt lat="42.81312" lon="0.16364">
        <ele>2352.016</ele>
        <time>2013-06-11T03:25:57Z</time>
      </trkpt>
      <trkpt lat="42.8131" lon="0.16364">
        <ele>2352.076</ele>
        <time>2013-06-11T03:25:58Z</time>
      </trkpt>
      <trkpt lat="42.81299" lon="0.16366">
        <ele>2353.413</ele>
        <time>2013-06-11T03:26:11Z</time>
      </trkpt>
      <trkpt lat="42.81299" lon="0.16366">
        <ele>2353.407</ele>
        <time>2013-06-11T03:26:12Z</time>
      </trkpt>
      <trkpt lat="42.81297" lon="0.16366">
        <ele>2353.495</ele>
        <time>2013-06-11T03:26:15Z</time>
      </trkpt>
      <trkpt lat="42.8129" lon="0.1637">
        <ele>2353.027</ele>
        <time>2013-06-11T03:26:21Z</time>
      </trkpt>
      <trkpt lat="42.81286" lon="0.1637">
        <ele>2353.467</ele>
        <time>2013-06-11T03:26:24Z</time>
      </trkpt>
      <trkpt lat="42.81286" lon="0.1637">
        <ele>2353.933</ele>
        <time>2013-06-11T03:26:27Z</time>
      </trkpt>
      <trkpt lat="42.81286" lon="0.1637">
        <ele>2354.931</ele>
        <time>2013-06-11T03:26:36Z</time>
      </trkpt>
      <trkpt lat="42.81284" lon="0.1637">
        <ele>2354.911</ele>
        <time>2013-06-11T03:26:38Z</time>
      </trkpt>
      <trkpt lat="42.81282" lon="0.1637">
        <ele>2355.46</ele>
        <time>2013-06-11T03:26:41Z</time>
      </trkpt>
      <trkpt lat="42.81278" lon="0.1637">
        <ele>2357.317</ele>
        <time>2013-06-11T03:26:45Z</time>
      </trkpt>
      <trkpt lat="42.81278" lon="0.1637">
        <ele>2357.887</ele>
        <time>2013-06-11T03:27:02Z</time>
      </trkpt>
      <trkpt lat="42.81273" lon="0.1637">
        <ele>2357.815</ele>
        <time>2013-06-11T03:27:06Z</time>
      </trkpt>
      <trkpt lat="42.81269" lon="0.16372">
        <ele>2357.807</ele>
        <time>2013-06-11T03:27:11Z</time>
      </trkpt>
      <trkpt lat="42.81269" lon="0.16372">
        <ele>2357.875</ele>
        <time>2013-06-11T03:27:13Z</time>
      </trkpt>
      <trkpt lat="42.81265" lon="0.16372">
        <ele>2357.857</ele>
        <time>2013-06-11T03:27:17Z</time>
      </trkpt>
      <trkpt lat="42.81263" lon="0.16372">
        <ele>2358.387</ele>
        <time>2013-06-11T03:27:19Z</time>
      </trkpt>
      <trkpt lat="42.8126" lon="0.16372">
        <ele>2359.273</ele>
        <time>2013-06-11T03:27:22Z</time>
      </trkpt>
      <trkpt lat="42.81254" lon="0.16366">
        <ele>2359.751</ele>
        <time>2013-06-11T03:27:34Z</time>
      </trkpt>
      <trkpt lat="42.81254" lon="0.16366">
        <ele>2359.721</ele>
        <time>2013-06-11T03:27:35Z</time>
      </trkpt>
      <trkpt lat="42.81248" lon="0.16362">
        <ele>2360.22</ele>
        <time>2013-06-11T03:27:48Z</time>
      </trkpt>
      <trkpt lat="42.81248" lon="0.16362">
        <ele>2360.758</ele>
        <time>2013-06-11T03:27:49Z</time>
      </trkpt>
      <trkpt lat="42.81243" lon="0.16364">
        <ele>2362.652</ele>
        <time>2013-06-11T03:27:57Z</time>
      </trkpt>
      <trkpt lat="42.81241" lon="0.16366">
        <ele>2363.117</ele>
        <time>2013-06-11T03:27:58Z</time>
      </trkpt>
      <trkpt lat="42.81231" lon="0.16374">
        <ele>2364.507</ele>
        <time>2013-06-11T03:28:17Z</time>
      </trkpt>
      <trkpt lat="42.81228" lon="0.16374">
        <ele>2365.079</ele>
        <time>2013-06-11T03:28:19Z</time>
      </trkpt>
      <trkpt lat="42.81228" lon="0.16377">
        <ele>2365.581</ele>
        <time>2013-06-11T03:28:21Z</time>
      </trkpt>
      <trkpt lat="42.81222" lon="0.16381">
        <ele>2366.421</ele>
        <time>2013-06-11T03:28:33Z</time>
      </trkpt>
      <trkpt lat="42.81222" lon="0.16381">
        <ele>2365.537</ele>
        <time>2013-06-11T03:28:46Z</time>
      </trkpt>
      <trkpt lat="42.8122" lon="0.16385">
        <ele>2366.915</ele>
        <time>2013-06-11T03:28:51Z</time>
      </trkpt>
      <trkpt lat="42.8122" lon="0.16385">
        <ele>2366.985</ele>
        <time>2013-06-11T03:28:52Z</time>
      </trkpt>
      <trkpt lat="42.81211" lon="0.16396">
        <ele>2369.344</ele>
        <time>2013-06-11T03:29:08Z</time>
      </trkpt>
      <trkpt lat="42.81207" lon="0.164">
        <ele>2370.379</ele>
        <time>2013-06-11T03:29:15Z</time>
      </trkpt>
      <trkpt lat="42.81207" lon="0.164">
        <ele>2370.305</ele>
        <time>2013-06-11T03:29:16Z</time>
      </trkpt>
      <trkpt lat="42.812" lon="0.16407">
        <ele>2371.225</ele>
        <time>2013-06-11T03:29:27Z</time>
      </trkpt>
      <trkpt lat="42.812" lon="0.16409">
        <ele>2371.707</ele>
        <time>2013-06-11T03:29:29Z</time>
      </trkpt>
      <trkpt lat="42.812" lon="0.16404">
        <ele>2375.171</ele>
        <time>2013-06-11T03:30:13Z</time>
      </trkpt>
      <trkpt lat="42.81196" lon="0.16413">
        <ele>2378.083</ele>
        <time>2013-06-11T03:30:26Z</time>
      </trkpt>
      <trkpt lat="42.81194" lon="0.16413">
        <ele>2378.013</ele>
        <time>2013-06-11T03:30:27Z</time>
      </trkpt>
      <trkpt lat="42.81192" lon="0.16415">
        <ele>2379.459</ele>
        <time>2013-06-11T03:30:33Z</time>
      </trkpt>
      <trkpt lat="42.81192" lon="0.16417">
        <ele>2380.497</ele>
        <time>2013-06-11T03:30:41Z</time>
      </trkpt>
      <trkpt lat="42.81187" lon="0.16422">
        <ele>2379.987</ele>
        <time>2013-06-11T03:30:49Z</time>
      </trkpt>
      <trkpt lat="42.81186" lon="0.16424">
        <ele>2379.976</ele>
        <time>2013-06-11T03:30:51Z</time>
      </trkpt>
      <trkpt lat="42.81179" lon="0.16434">
        <ele>2380.823</ele>
        <time>2013-06-11T03:31:07Z</time>
      </trkpt>
      <trkpt lat="42.81175" lon="0.16441">
        <ele>2380.883</ele>
        <time>2013-06-11T03:31:17Z</time>
      </trkpt>
      <trkpt lat="42.81175" lon="0.16441">
        <ele>2381.311</ele>
        <time>2013-06-11T03:31:18Z</time>
      </trkpt>
      <trkpt lat="42.8117" lon="0.16447">
        <ele>2381.307</ele>
        <time>2013-06-11T03:31:25Z</time>
      </trkpt>
      <trkpt lat="42.81168" lon="0.16447">
        <ele>2381.316</ele>
        <time>2013-06-11T03:31:27Z</time>
      </trkpt>
      <trkpt lat="42.81164" lon="0.1646">
        <ele>2381.868</ele>
        <time>2013-06-11T03:31:42Z</time>
      </trkpt>
      <trkpt lat="42.81164" lon="0.1646">
        <ele>2381.818</ele>
        <time>2013-06-11T03:31:43Z</time>
      </trkpt>
      <trkpt lat="42.81164" lon="0.16462">
        <ele>2382.354</ele>
        <time>2013-06-11T03:31:46Z</time>
      </trkpt>
      <trkpt lat="42.81162" lon="0.16465">
        <ele>2382.832</ele>
        <time>2013-06-11T03:31:47Z</time>
      </trkpt>
      <trkpt lat="42.81157" lon="0.16475">
        <ele>2384.232</ele>
        <time>2013-06-11T03:32:03Z</time>
      </trkpt>
      <trkpt lat="42.81153" lon="0.1648">
        <ele>2385.691</ele>
        <time>2013-06-11T03:32:12Z</time>
      </trkpt>
      <trkpt lat="42.81153" lon="0.1648">
        <ele>2386.198</ele>
        <time>2013-06-11T03:32:13Z</time>
      </trkpt>
      <trkpt lat="42.81153" lon="0.1648">
        <ele>2387.615</ele>
        <time>2013-06-11T03:32:16Z</time>
      </trkpt>
      <trkpt lat="42.81153" lon="0.16482">
        <ele>2388.126</ele>
        <time>2013-06-11T03:32:18Z</time>
      </trkpt>
      <trkpt lat="42.81151" lon="0.16482">
        <ele>2390.007</ele>
        <time>2013-06-11T03:32:24Z</time>
      </trkpt>
      <trkpt lat="42.81149" lon="0.16484">
        <ele>2390.563</ele>
        <time>2013-06-11T03:32:25Z</time>
      </trkpt>
      <trkpt lat="42.81145" lon="0.16488">
        <ele>2392.915</ele>
        <time>2013-06-11T03:32:40Z</time>
      </trkpt>
      <trkpt lat="42.81136" lon="0.16492">
        <ele>2395.765</ele>
        <time>2013-06-11T03:32:55Z</time>
      </trkpt>
      <trkpt lat="42.81134" lon="0.16492">
        <ele>2397.251</ele>
        <time>2013-06-11T03:33:02Z</time>
      </trkpt>
      <trkpt lat="42.81134" lon="0.16492">
        <ele>2397.789</ele>
        <time>2013-06-11T03:33:03Z</time>
      </trkpt>
      <trkpt lat="42.81132" lon="0.16495">
        <ele>2400.129</ele>
        <time>2013-06-11T03:33:12Z</time>
      </trkpt>
      <trkpt lat="42.81132" lon="0.16495">
        <ele>2401.078</ele>
        <time>2013-06-11T03:33:26Z</time>
      </trkpt>
      <trkpt lat="42.81128" lon="0.16499">
        <ele>2401.092</ele>
        <time>2013-06-11T03:33:33Z</time>
      </trkpt>
      <trkpt lat="42.81128" lon="0.16499">
        <ele>2401.073</ele>
        <time>2013-06-11T03:33:34Z</time>
      </trkpt>
      <trkpt lat="42.81125" lon="0.16501">
        <ele>2402.02</ele>
        <time>2013-06-11T03:33:41Z</time>
      </trkpt>
      <trkpt lat="42.81123" lon="0.16505">
        <ele>2404.407</ele>
        <time>2013-06-11T03:33:52Z</time>
      </trkpt>
      <trkpt lat="42.81123" lon="0.16505">
        <ele>2404.973</ele>
        <time>2013-06-11T03:33:53Z</time>
      </trkpt>
      <trkpt lat="42.81117" lon="0.1651">
        <ele>2404.935</ele>
        <time>2013-06-11T03:34:07Z</time>
      </trkpt>
      <trkpt lat="42.81115" lon="0.1651">
        <ele>2405.445</ele>
        <time>2013-06-11T03:34:09Z</time>
      </trkpt>
      <trkpt lat="42.81115" lon="0.16512">
        <ele>2406.841</ele>
        <time>2013-06-11T03:34:12Z</time>
      </trkpt>
      <trkpt lat="42.81112" lon="0.16512">
        <ele>2406.859</ele>
        <time>2013-06-11T03:34:13Z</time>
      </trkpt>
      <trkpt lat="42.81106" lon="0.16516">
        <ele>2407.859</ele>
        <time>2013-06-11T03:34:28Z</time>
      </trkpt>
      <trkpt lat="42.81106" lon="0.16516">
        <ele>2407.888</ele>
        <time>2013-06-11T03:34:29Z</time>
      </trkpt>
      <trkpt lat="42.81102" lon="0.16522">
        <ele>2408.234</ele>
        <time>2013-06-11T03:34:40Z</time>
      </trkpt>
      <trkpt lat="42.81104" lon="0.1652">
        <ele>2412.155</ele>
        <time>2013-06-11T03:34:50Z</time>
      </trkpt>
      <trkpt lat="42.811" lon="0.16527">
        <ele>2412.11</ele>
        <time>2013-06-11T03:34:58Z</time>
      </trkpt>
      <trkpt lat="42.81097" lon="0.16529">
        <ele>2411.607</ele>
        <time>2013-06-11T03:34:59Z</time>
      </trkpt>
      <trkpt lat="42.81095" lon="0.16531">
        <ele>2410.627</ele>
        <time>2013-06-11T03:35:02Z</time>
      </trkpt>
      <trkpt lat="42.81093" lon="0.16535">
        <ele>2410.249</ele>
        <time>2013-06-11T03:35:05Z</time>
      </trkpt>
      <trkpt lat="42.81093" lon="0.16535">
        <ele>2409.749</ele>
        <time>2013-06-11T03:35:06Z</time>
      </trkpt>
      <trkpt lat="42.81089" lon="0.16542">
        <ele>2410.635</ele>
        <time>2013-06-11T03:35:14Z</time>
      </trkpt>
      <trkpt lat="42.81087" lon="0.16544">
        <ele>2411.173</ele>
        <time>2013-06-11T03:35:16Z</time>
      </trkpt>
      <trkpt lat="42.81084" lon="0.16548">
        <ele>2411.663</ele>
        <time>2013-06-11T03:35:22Z</time>
      </trkpt>
      <trkpt lat="42.81084" lon="0.16548">
        <ele>2412.182</ele>
        <time>2013-06-11T03:35:26Z</time>
      </trkpt>
      <trkpt lat="42.8108" lon="0.16552">
        <ele>2410.675</ele>
        <time>2013-06-11T03:35:35Z</time>
      </trkpt>
      <trkpt lat="42.8108" lon="0.16552">
        <ele>2411.128</ele>
        <time>2013-06-11T03:35:40Z</time>
      </trkpt>
      <trkpt lat="42.81078" lon="0.16557">
        <ele>2403.02</ele>
        <time>2013-06-11T03:36:18Z</time>
      </trkpt>
      <trkpt lat="42.81076" lon="0.16557">
        <ele>2404.407</ele>
        <time>2013-06-11T03:36:53Z</time>
      </trkpt>
      <trkpt lat="42.81074" lon="0.16561">
        <ele>2405.441</ele>
        <time>2013-06-11T03:36:58Z</time>
      </trkpt>
      <trkpt lat="42.81074" lon="0.16561">
        <ele>2405.453</ele>
        <time>2013-06-11T03:37:00Z</time>
      </trkpt>
      <trkpt lat="42.81074" lon="0.16565">
        <ele>2405.473</ele>
        <time>2013-06-11T03:37:04Z</time>
      </trkpt>
      <trkpt lat="42.81072" lon="0.1657">
        <ele>2405.479</ele>
        <time>2013-06-11T03:37:11Z</time>
      </trkpt>
      <trkpt lat="42.81072" lon="0.16574">
        <ele>2406.317</ele>
        <time>2013-06-11T03:37:22Z</time>
      </trkpt>
      <trkpt lat="42.81072" lon="0.16576">
        <ele>2406.387</ele>
        <time>2013-06-11T03:37:25Z</time>
      </trkpt>
      <trkpt lat="42.81072" lon="0.16578">
        <ele>2405.836</ele>
        <time>2013-06-11T03:37:26Z</time>
      </trkpt>
      <trkpt lat="42.8107" lon="0.16583">
        <ele>2406.897</ele>
        <time>2013-06-11T03:37:30Z</time>
      </trkpt>
      <trkpt lat="42.8107" lon="0.16583">
        <ele>2407.323</ele>
        <time>2013-06-11T03:37:31Z</time>
      </trkpt>
      <trkpt lat="42.8107" lon="0.16589">
        <ele>2407.825</ele>
        <time>2013-06-11T03:37:36Z</time>
      </trkpt>
      <trkpt lat="42.81067" lon="0.16589">
        <ele>2408.207</ele>
        <time>2013-06-11T03:37:38Z</time>
      </trkpt>
      <trkpt lat="42.81065" lon="0.16604">
        <ele>2411.613</ele>
        <time>2013-06-11T03:37:54Z</time>
      </trkpt>
      <trkpt lat="42.81065" lon="0.16604">
        <ele>2411.665</ele>
        <time>2013-06-11T03:37:55Z</time>
      </trkpt>
      <trkpt lat="42.81061" lon="0.16604">
        <ele>2411.635</ele>
        <time>2013-06-11T03:38:11Z</time>
      </trkpt>
      <trkpt lat="42.81052" lon="0.16619">
        <ele>2412.661</ele>
        <time>2013-06-11T03:38:29Z</time>
      </trkpt>
      <trkpt lat="42.81052" lon="0.16621">
        <ele>2413.039</ele>
        <time>2013-06-11T03:38:32Z</time>
      </trkpt>
      <trkpt lat="42.81052" lon="0.16623">
        <ele>2413.019</ele>
        <time>2013-06-11T03:38:33Z</time>
      </trkpt>
      <trkpt lat="42.8105" lon="0.16628">
        <ele>2413.028</ele>
        <time>2013-06-11T03:38:40Z</time>
      </trkpt>
      <trkpt lat="42.8105" lon="0.1663">
        <ele>2413.077</ele>
        <time>2013-06-11T03:38:41Z</time>
      </trkpt>
      <trkpt lat="42.81048" lon="0.1664">
        <ele>2416.461</ele>
        <time>2013-06-11T03:38:55Z</time>
      </trkpt>
      <trkpt lat="42.81048" lon="0.1664">
        <ele>2415.927</ele>
        <time>2013-06-11T03:38:57Z</time>
      </trkpt>
      <trkpt lat="42.81048" lon="0.1664">
        <ele>2414.507</ele>
        <time>2013-06-11T03:39:23Z</time>
      </trkpt>
      <trkpt lat="42.81048" lon="0.16645">
        <ele>2415.011</ele>
        <time>2013-06-11T03:39:28Z</time>
      </trkpt>
      <trkpt lat="42.8105" lon="0.16647">
        <ele>2415.973</ele>
        <time>2013-06-11T03:39:32Z</time>
      </trkpt>
      <trkpt lat="42.81048" lon="0.16647">
        <ele>2416.453</ele>
        <time>2013-06-11T03:39:34Z</time>
      </trkpt>
      <trkpt lat="42.81044" lon="0.16649">
        <ele>2417.439</ele>
        <time>2013-06-11T03:39:40Z</time>
      </trkpt>
      <trkpt lat="42.81044" lon="0.16651">
        <ele>2417.467</ele>
        <time>2013-06-11T03:39:41Z</time>
      </trkpt>
      <trkpt lat="42.81044" lon="0.16651">
        <ele>2417.497</ele>
        <time>2013-06-11T03:39:43Z</time>
      </trkpt>
      <trkpt lat="42.81042" lon="0.16651">
        <ele>2418.366</ele>
        <time>2013-06-11T03:39:46Z</time>
      </trkpt>
      <trkpt lat="42.81042" lon="0.16651">
        <ele>2418.895</ele>
        <time>2013-06-11T03:39:49Z</time>
      </trkpt>
      <trkpt lat="42.81039" lon="0.16653">
        <ele>2419.849</ele>
        <time>2013-06-11T03:39:58Z</time>
      </trkpt>
      <trkpt lat="42.81039" lon="0.16653">
        <ele>2421.223</ele>
        <time>2013-06-11T03:40:02Z</time>
      </trkpt>
      <trkpt lat="42.81037" lon="0.16653">
        <ele>2421.707</ele>
        <time>2013-06-11T03:40:06Z</time>
      </trkpt>
      <trkpt lat="42.81033" lon="0.16653">
        <ele>2422.233</ele>
        <time>2013-06-11T03:40:11Z</time>
      </trkpt>
      <trkpt lat="42.81031" lon="0.16653">
        <ele>2422.275</ele>
        <time>2013-06-11T03:40:13Z</time>
      </trkpt>
      <trkpt lat="42.81029" lon="0.16653">
        <ele>2423.615</ele>
        <time>2013-06-11T03:40:18Z</time>
      </trkpt>
      <trkpt lat="42.81029" lon="0.16653">
        <ele>2423.611</ele>
        <time>2013-06-11T03:40:19Z</time>
      </trkpt>
      <trkpt lat="42.81025" lon="0.16651">
        <ele>2426.549</ele>
        <time>2013-06-11T03:40:33Z</time>
      </trkpt>
      <trkpt lat="42.81025" lon="0.16653">
        <ele>2429.949</ele>
        <time>2013-06-11T03:40:46Z</time>
      </trkpt>
      <trkpt lat="42.81022" lon="0.16653">
        <ele>2430.418</ele>
        <time>2013-06-11T03:40:48Z</time>
      </trkpt>
      <trkpt lat="42.81018" lon="0.16651">
        <ele>2431.313</ele>
        <time>2013-06-11T03:41:00Z</time>
      </trkpt>
      <trkpt lat="42.81018" lon="0.16653">
        <ele>2430.843</ele>
        <time>2013-06-11T03:41:02Z</time>
      </trkpt>
      <trkpt lat="42.81012" lon="0.16651">
        <ele>2433.207</ele>
        <time>2013-06-11T03:41:15Z</time>
      </trkpt>
      <trkpt lat="42.81009" lon="0.16651">
        <ele>2433.707</ele>
        <time>2013-06-11T03:41:18Z</time>
      </trkpt>
      <trkpt lat="42.81007" lon="0.16651">
        <ele>2433.775</ele>
        <time>2013-06-11T03:41:20Z</time>
      </trkpt>
      <trkpt lat="42.81007" lon="0.16651">
        <ele>2435.217</ele>
        <time>2013-06-11T03:41:23Z</time>
      </trkpt>
      <trkpt lat="42.81001" lon="0.16649">
        <ele>2439.067</ele>
        <time>2013-06-11T03:41:36Z</time>
      </trkpt>
      <trkpt lat="42.80999" lon="0.16649">
        <ele>2439.533</ele>
        <time>2013-06-11T03:41:39Z</time>
      </trkpt>
      <trkpt lat="42.80997" lon="0.16649">
        <ele>2440.021</ele>
        <time>2013-06-11T03:41:42Z</time>
      </trkpt>
      <trkpt lat="42.80997" lon="0.16649">
        <ele>2440.091</ele>
        <time>2013-06-11T03:41:45Z</time>
      </trkpt>
      <trkpt lat="42.80994" lon="0.16649">
        <ele>2439.55</ele>
        <time>2013-06-11T03:41:47Z</time>
      </trkpt>
      <trkpt lat="42.80992" lon="0.16647">
        <ele>2440.481</ele>
        <time>2013-06-11T03:41:52Z</time>
      </trkpt>
      <trkpt lat="42.8099" lon="0.16649">
        <ele>2440.961</ele>
        <time>2013-06-11T03:41:54Z</time>
      </trkpt>
      <trkpt lat="42.80988" lon="0.16649">
        <ele>2441.417</ele>
        <time>2013-06-11T03:42:00Z</time>
      </trkpt>
      <trkpt lat="42.80988" lon="0.16649">
        <ele>2441.407</ele>
        <time>2013-06-11T03:42:01Z</time>
      </trkpt>
      <trkpt lat="42.80984" lon="0.16649">
        <ele>2443.872</ele>
        <time>2013-06-11T03:42:14Z</time>
      </trkpt>
      <trkpt lat="42.80981" lon="0.16649">
        <ele>2443.884</ele>
        <time>2013-06-11T03:42:15Z</time>
      </trkpt>
      <trkpt lat="42.8098" lon="0.16649">
        <ele>2444.824</ele>
        <time>2013-06-11T03:42:22Z</time>
      </trkpt>
      <trkpt lat="42.80977" lon="0.16649">
        <ele>2444.83</ele>
        <time>2013-06-11T03:42:23Z</time>
      </trkpt>
      <trkpt lat="42.80975" lon="0.16649">
        <ele>2444.348</ele>
        <time>2013-06-11T03:42:26Z</time>
      </trkpt>
      <trkpt lat="42.80975" lon="0.16649">
        <ele>2444.888</ele>
        <time>2013-06-11T03:42:28Z</time>
      </trkpt>
      <trkpt lat="42.80973" lon="0.16649">
        <ele>2445.787</ele>
        <time>2013-06-11T03:42:31Z</time>
      </trkpt>
      <trkpt lat="42.80973" lon="0.16649">
        <ele>2447.272</ele>
        <time>2013-06-11T03:42:36Z</time>
      </trkpt>
      <trkpt lat="42.80971" lon="0.16649">
        <ele>2447.213</ele>
        <time>2013-06-11T03:42:37Z</time>
      </trkpt>
      <trkpt lat="42.80969" lon="0.16649">
        <ele>2448.614</ele>
        <time>2013-06-11T03:42:43Z</time>
      </trkpt>
      <trkpt lat="42.80967" lon="0.16649">
        <ele>2449.107</ele>
        <time>2013-06-11T03:42:46Z</time>
      </trkpt>
      <trkpt lat="42.80964" lon="0.16649">
        <ele>2450.141</ele>
        <time>2013-06-11T03:42:51Z</time>
      </trkpt>
      <trkpt lat="42.80964" lon="0.16647">
        <ele>2451.083</ele>
        <time>2013-06-11T03:42:58Z</time>
      </trkpt>
      <trkpt lat="42.80964" lon="0.16647">
        <ele>2452.043</ele>
        <time>2013-06-11T03:43:01Z</time>
      </trkpt>
      <trkpt lat="42.80962" lon="0.16647">
        <ele>2452.519</ele>
        <time>2013-06-11T03:43:06Z</time>
      </trkpt>
      <trkpt lat="42.80958" lon="0.16647">
        <ele>2454.427</ele>
        <time>2013-06-11T03:43:16Z</time>
      </trkpt>
      <trkpt lat="42.80958" lon="0.16647">
        <ele>2455.377</ele>
        <time>2013-06-11T03:43:18Z</time>
      </trkpt>
      <trkpt lat="42.80958" lon="0.16647">
        <ele>2454.986</ele>
        <time>2013-06-11T03:43:20Z</time>
      </trkpt>
      <trkpt lat="42.80958" lon="0.16645">
        <ele>2457.765</ele>
        <time>2013-06-11T03:43:50Z</time>
      </trkpt>
      <trkpt lat="42.80956" lon="0.16647">
        <ele>2457.368</ele>
        <time>2013-06-11T03:43:52Z</time>
      </trkpt>
      <trkpt lat="42.80956" lon="0.16647">
        <ele>2458.214</ele>
        <time>2013-06-11T03:43:56Z</time>
      </trkpt>
      <trkpt lat="42.80954" lon="0.16647">
        <ele>2458.707</ele>
        <time>2013-06-11T03:43:58Z</time>
      </trkpt>
      <trkpt lat="42.80951" lon="0.16645">
        <ele>2462.63</ele>
        <time>2013-06-11T03:44:07Z</time>
      </trkpt>
      <trkpt lat="42.80951" lon="0.16647">
        <ele>2462.612</ele>
        <time>2013-06-11T03:44:08Z</time>
      </trkpt>
      <trkpt lat="42.80945" lon="0.16647">
        <ele>2464.092</ele>
        <time>2013-06-11T03:44:19Z</time>
      </trkpt>
      <trkpt lat="42.80945" lon="0.16647">
        <ele>2464.548</ele>
        <time>2013-06-11T03:44:21Z</time>
      </trkpt>
      <trkpt lat="42.80941" lon="0.16647">
        <ele>2464.596</ele>
        <time>2013-06-11T03:44:25Z</time>
      </trkpt>
      <trkpt lat="42.80941" lon="0.16647">
        <ele>2465.986</ele>
        <time>2013-06-11T03:44:27Z</time>
      </trkpt>
      <trkpt lat="42.80941" lon="0.16647">
        <ele>2466.455</ele>
        <time>2013-06-11T03:44:30Z</time>
      </trkpt>
      <trkpt lat="42.80936" lon="0.16647">
        <ele>2465.478</ele>
        <time>2013-06-11T03:44:36Z</time>
      </trkpt>
      <trkpt lat="42.80934" lon="0.16647">
        <ele>2465.433</ele>
        <time>2013-06-11T03:44:37Z</time>
      </trkpt>
      <trkpt lat="42.80932" lon="0.16649">
        <ele>2467.426</ele>
        <time>2013-06-11T03:44:43Z</time>
      </trkpt>
      <trkpt lat="42.8093" lon="0.16649">
        <ele>2467.807</ele>
        <time>2013-06-11T03:44:47Z</time>
      </trkpt>
      <trkpt lat="42.80928" lon="0.16649">
        <ele>2468.371</ele>
        <time>2013-06-11T03:44:51Z</time>
      </trkpt>
      <trkpt lat="42.80928" lon="0.16649">
        <ele>2468.893</ele>
        <time>2013-06-11T03:44:52Z</time>
      </trkpt>
      <trkpt lat="42.80928" lon="0.16649">
        <ele>2469.813</ele>
        <time>2013-06-11T03:44:56Z</time>
      </trkpt>
      <trkpt lat="42.80928" lon="0.16649">
        <ele>2470.219</ele>
        <time>2013-06-11T03:44:58Z</time>
      </trkpt>
      <trkpt lat="42.80926" lon="0.16649">
        <ele>2469.877</ele>
        <time>2013-06-11T03:45:00Z</time>
      </trkpt>
      <trkpt lat="42.80926" lon="0.16649">
        <ele>2471.297</ele>
        <time>2013-06-11T03:45:05Z</time>
      </trkpt>
      <trkpt lat="42.80924" lon="0.16647">
        <ele>2471.726</ele>
        <time>2013-06-11T03:45:08Z</time>
      </trkpt>
      <trkpt lat="42.80922" lon="0.16649">
        <ele>2472.217</ele>
        <time>2013-06-11T03:45:12Z</time>
      </trkpt>
      <trkpt lat="42.80919" lon="0.16647">
        <ele>2472.287</ele>
        <time>2013-06-11T03:45:32Z</time>
      </trkpt>
      <trkpt lat="42.80915" lon="0.16647">
        <ele>2472.215</ele>
        <time>2013-06-11T03:45:41Z</time>
      </trkpt>
      <trkpt lat="42.80913" lon="0.16647">
        <ele>2472.207</ele>
        <time>2013-06-11T03:45:43Z</time>
      </trkpt>
      <trkpt lat="42.80913" lon="0.16647">
        <ele>2473.645</ele>
        <time>2013-06-11T03:45:46Z</time>
      </trkpt>
      <trkpt lat="42.80909" lon="0.16649">
        <ele>2475.547</ele>
        <time>2013-06-11T03:45:57Z</time>
      </trkpt>
      <trkpt lat="42.80909" lon="0.16649">
        <ele>2475.597</ele>
        <time>2013-06-11T03:45:58Z</time>
      </trkpt>
      <trkpt lat="42.80902" lon="0.16649">
        <ele>2475.163</ele>
        <time>2013-06-11T03:46:12Z</time>
      </trkpt>
      <trkpt lat="42.809" lon="0.16649">
        <ele>2475.111</ele>
        <time>2013-06-11T03:46:15Z</time>
      </trkpt>
      <trkpt lat="42.809" lon="0.16649">
        <ele>2475.121</ele>
        <time>2013-06-11T03:46:16Z</time>
      </trkpt>
      <trkpt lat="42.80896" lon="0.16649">
        <ele>2476.53</ele>
        <time>2013-06-11T03:46:26Z</time>
      </trkpt>
      <trkpt lat="42.80896" lon="0.16649">
        <ele>2477.023</ele>
        <time>2013-06-11T03:46:27Z</time>
      </trkpt>
      <trkpt lat="42.80891" lon="0.16649">
        <ele>2478.983</ele>
        <time>2013-06-11T03:46:38Z</time>
      </trkpt>
      <trkpt lat="42.80889" lon="0.16649">
        <ele>2479.411</ele>
        <time>2013-06-11T03:46:43Z</time>
      </trkpt>
      <trkpt lat="42.80889" lon="0.16649">
        <ele>2479.907</ele>
        <time>2013-06-11T03:46:46Z</time>
      </trkpt>
      <trkpt lat="42.80889" lon="0.16649">
        <ele>2480.366</ele>
        <time>2013-06-11T03:46:47Z</time>
      </trkpt>
      <trkpt lat="42.80881" lon="0.16649">
        <ele>2483.218</ele>
        <time>2013-06-11T03:47:01Z</time>
      </trkpt>
      <trkpt lat="42.80874" lon="0.16651">
        <ele>2483.788</ele>
        <time>2013-06-11T03:47:14Z</time>
      </trkpt>
      <trkpt lat="42.80872" lon="0.16649">
        <ele>2487.164</ele>
        <time>2013-06-11T03:47:39Z</time>
      </trkpt>
      <trkpt lat="42.80872" lon="0.16651">
        <ele>2488.092</ele>
        <time>2013-06-11T03:47:42Z</time>
      </trkpt>
      <trkpt lat="42.80872" lon="0.16651">
        <ele>2488.592</ele>
        <time>2013-06-11T03:47:43Z</time>
      </trkpt>
      <trkpt lat="42.8087" lon="0.16658">
        <ele>2490.061</ele>
        <time>2013-06-11T03:47:52Z</time>
      </trkpt>
      <trkpt lat="42.8087" lon="0.16658">
        <ele>2490.069</ele>
        <time>2013-06-11T03:47:53Z</time>
      </trkpt>
      <trkpt lat="42.80868" lon="0.16662">
        <ele>2490.404</ele>
        <time>2013-06-11T03:48:00Z</time>
      </trkpt>
      <trkpt lat="42.80866" lon="0.16664">
        <ele>2490.424</ele>
        <time>2013-06-11T03:48:02Z</time>
      </trkpt>
      <trkpt lat="42.80866" lon="0.16673">
        <ele>2491.407</ele>
        <time>2013-06-11T03:48:13Z</time>
      </trkpt>
      <trkpt lat="42.80866" lon="0.16673">
        <ele>2491.44</ele>
        <time>2013-06-11T03:48:14Z</time>
      </trkpt>
      <trkpt lat="42.80866" lon="0.16677">
        <ele>2491.962</ele>
        <time>2013-06-11T03:48:20Z</time>
      </trkpt>
      <trkpt lat="42.80866" lon="0.16679">
        <ele>2492.472</ele>
        <time>2013-06-11T03:48:23Z</time>
      </trkpt>
      <trkpt lat="42.80864" lon="0.16683">
        <ele>2493.338</ele>
        <time>2013-06-11T03:48:29Z</time>
      </trkpt>
      <trkpt lat="42.80864" lon="0.16683">
        <ele>2493.876</ele>
        <time>2013-06-11T03:48:31Z</time>
      </trkpt>
      <trkpt lat="42.80864" lon="0.16686">
        <ele>2494.856</ele>
        <time>2013-06-11T03:48:35Z</time>
      </trkpt>
      <trkpt lat="42.80864" lon="0.1669">
        <ele>2495.745</ele>
        <time>2013-06-11T03:48:39Z</time>
      </trkpt>
      <trkpt lat="42.80864" lon="0.16696">
        <ele>2497.263</ele>
        <time>2013-06-11T03:48:50Z</time>
      </trkpt>
      <trkpt lat="42.80864" lon="0.16696">
        <ele>2497.244</ele>
        <time>2013-06-11T03:48:57Z</time>
      </trkpt>
      <trkpt lat="42.80864" lon="0.16696">
        <ele>2498.618</ele>
        <time>2013-06-11T03:49:17Z</time>
      </trkpt>
      <trkpt lat="42.80861" lon="0.16694">
        <ele>2500.507</ele>
        <time>2013-06-11T03:49:24Z</time>
      </trkpt>
      <trkpt lat="42.80861" lon="0.16694">
        <ele>2501.53</ele>
        <time>2013-06-11T03:49:37Z</time>
      </trkpt>
      <trkpt lat="42.80857" lon="0.16694">
        <ele>2500.092</ele>
        <time>2013-06-11T03:49:53Z</time>
      </trkpt>
      <trkpt lat="42.80857" lon="0.1669">
        <ele>2492.852</ele>
        <time>2013-06-11T03:52:34Z</time>
      </trkpt>
      <trkpt lat="42.80851" lon="0.16692">
        <ele>2489.088</ele>
        <time>2013-06-11T03:55:30Z</time>
      </trkpt>
      <trkpt lat="42.80851" lon="0.16692">
        <ele>2495.246</ele>
        <time>2013-06-11T03:56:21Z</time>
      </trkpt>
      <trkpt lat="42.80853" lon="0.16692">
        <ele>2496.736</ele>
        <time>2013-06-11T03:56:43Z</time>
      </trkpt>
      <trkpt lat="42.80851" lon="0.1669">
        <ele>2499.115</ele>
        <time>2013-06-11T03:56:54Z</time>
      </trkpt>
      <trkpt lat="42.80851" lon="0.16688">
        <ele>2500.028</ele>
        <time>2013-06-11T03:56:56Z</time>
      </trkpt>
      <trkpt lat="42.80851" lon="0.16688">
        <ele>2501.589</ele>
        <time>2013-06-11T03:56:59Z</time>
      </trkpt>
      <trkpt lat="42.80851" lon="0.16688">
        <ele>2501.517</ele>
        <time>2013-06-11T03:57:00Z</time>
      </trkpt>
      <trkpt lat="42.80848" lon="0.16683">
        <ele>2501.007</ele>
        <time>2013-06-11T03:57:04Z</time>
      </trkpt>
      <trkpt lat="42.80848" lon="0.16683">
        <ele>2502.076</ele>
        <time>2013-06-11T03:57:07Z</time>
      </trkpt>
      <trkpt lat="42.80848" lon="0.16681">
        <ele>2502.498</ele>
        <time>2013-06-11T03:57:11Z</time>
      </trkpt>
      <trkpt lat="42.80846" lon="0.16683">
        <ele>2501.538</ele>
        <time>2013-06-11T03:57:24Z</time>
      </trkpt>
      <trkpt lat="42.80846" lon="0.16688">
        <ele>2501.574</ele>
        <time>2013-06-11T03:57:54Z</time>
      </trkpt>
      <trkpt lat="42.80846" lon="0.1669">
        <ele>2502.062</ele>
        <time>2013-06-11T03:57:58Z</time>
      </trkpt>
      <trkpt lat="42.80846" lon="0.16701">
        <ele>2504.492</ele>
        <time>2013-06-11T03:58:13Z</time>
      </trkpt>
      <trkpt lat="42.80844" lon="0.16701">
        <ele>2504.921</ele>
        <time>2013-06-11T03:58:14Z</time>
      </trkpt>
      <trkpt lat="42.80844" lon="0.16709">
        <ele>2506.381</ele>
        <time>2013-06-11T03:58:27Z</time>
      </trkpt>
      <trkpt lat="42.80844" lon="0.16709">
        <ele>2506.361</ele>
        <time>2013-06-11T03:58:28Z</time>
      </trkpt>
      <trkpt lat="42.80844" lon="0.16711">
        <ele>2507.317</ele>
        <time>2013-06-11T03:58:30Z</time>
      </trkpt>
      <trkpt lat="42.80844" lon="0.16716">
        <ele>2508.707</ele>
        <time>2013-06-11T03:58:39Z</time>
      </trkpt>
      <trkpt lat="42.80844" lon="0.16716">
        <ele>2508.732</ele>
        <time>2013-06-11T03:58:40Z</time>
      </trkpt>
      <trkpt lat="42.80844" lon="0.16718">
        <ele>2508.274</ele>
        <time>2013-06-11T03:58:48Z</time>
      </trkpt>
      <trkpt lat="42.80844" lon="0.16716">
        <ele>2509.714</ele>
        <time>2013-06-11T03:58:56Z</time>
      </trkpt>
      <trkpt lat="42.80838" lon="0.16711">
        <ele>2511.19</ele>
        <time>2013-06-11T03:59:06Z</time>
      </trkpt>
      <trkpt lat="42.80836" lon="0.16711">
        <ele>2511.648</ele>
        <time>2013-06-11T03:59:09Z</time>
      </trkpt>
      <trkpt lat="42.80836" lon="0.16709">
        <ele>2512.138</ele>
        <time>2013-06-11T03:59:12Z</time>
      </trkpt>
      <trkpt lat="42.80833" lon="0.16709">
        <ele>2512.147</ele>
        <time>2013-06-11T03:59:13Z</time>
      </trkpt>
      <trkpt lat="42.80833" lon="0.16707">
        <ele>2513.064</ele>
        <time>2013-06-11T03:59:17Z</time>
      </trkpt>
      <trkpt lat="42.80833" lon="0.16705">
        <ele>2514.506</ele>
        <time>2013-06-11T03:59:39Z</time>
      </trkpt>
      <trkpt lat="42.80831" lon="0.16703">
        <ele>2514.516</ele>
        <time>2013-06-11T03:59:45Z</time>
      </trkpt>
      <trkpt lat="42.80829" lon="0.16701">
        <ele>2514.907</ele>
        <time>2013-06-11T03:59:47Z</time>
      </trkpt>
      <trkpt lat="42.80829" lon="0.16701">
        <ele>2515.44</ele>
        <time>2013-06-11T03:59:51Z</time>
      </trkpt>
      <trkpt lat="42.80827" lon="0.16698">
        <ele>2515.942</ele>
        <time>2013-06-11T03:59:53Z</time>
      </trkpt>
      <trkpt lat="42.80827" lon="0.16698">
        <ele>2515.922</ele>
        <time>2013-06-11T03:59:56Z</time>
      </trkpt>
      <trkpt lat="42.80825" lon="0.16694">
        <ele>2516.948</ele>
        <time>2013-06-11T04:00:04Z</time>
      </trkpt>
      <trkpt lat="42.80825" lon="0.16694">
        <ele>2517.396</ele>
        <time>2013-06-11T04:00:05Z</time>
      </trkpt>
      <trkpt lat="42.80825" lon="0.16692">
        <ele>2518.316</ele>
        <time>2013-06-11T04:00:10Z</time>
      </trkpt>
      <trkpt lat="42.80823" lon="0.1669">
        <ele>2519.315</ele>
        <time>2013-06-11T04:00:12Z</time>
      </trkpt>
      <trkpt lat="42.80823" lon="0.1669">
        <ele>2519.375</ele>
        <time>2013-06-11T04:00:15Z</time>
      </trkpt>
      <trkpt lat="42.80821" lon="0.16686">
        <ele>2521.728</ele>
        <time>2013-06-11T04:00:25Z</time>
      </trkpt>
      <trkpt lat="42.80819" lon="0.16683">
        <ele>2522.22</ele>
        <time>2013-06-11T04:00:29Z</time>
      </trkpt>
      <trkpt lat="42.80816" lon="0.16683">
        <ele>2522.207</ele>
        <time>2013-06-11T04:00:32Z</time>
      </trkpt>
      <trkpt lat="42.80814" lon="0.16683">
        <ele>2524.181</ele>
        <time>2013-06-11T04:00:42Z</time>
      </trkpt>
      <trkpt lat="42.80814" lon="0.16681">
        <ele>2524.173</ele>
        <time>2013-06-11T04:00:45Z</time>
      </trkpt>
      <trkpt lat="42.8081" lon="0.16681">
        <ele>2528.933</ele>
        <time>2013-06-11T04:01:01Z</time>
      </trkpt>
      <trkpt lat="42.80808" lon="0.16681">
        <ele>2529.499</ele>
        <time>2013-06-11T04:01:04Z</time>
      </trkpt>
      <trkpt lat="42.80808" lon="0.16681">
        <ele>2529.837</ele>
        <time>2013-06-11T04:01:07Z</time>
      </trkpt>
      <trkpt lat="42.80808" lon="0.16681">
        <ele>2529.477</ele>
        <time>2013-06-11T04:01:09Z</time>
      </trkpt>
      <trkpt lat="42.80806" lon="0.16679">
        <ele>2528.986</ele>
        <time>2013-06-11T04:01:13Z</time>
      </trkpt>
      <trkpt lat="42.80806" lon="0.16679">
        <ele>2528.938</ele>
        <time>2013-06-11T04:01:14Z</time>
      </trkpt>
      <trkpt lat="42.80801" lon="0.16679">
        <ele>2528.97</ele>
        <time>2013-06-11T04:01:21Z</time>
      </trkpt>
      <trkpt lat="42.80795" lon="0.16677">
        <ele>2529.817</ele>
        <time>2013-06-11T04:01:30Z</time>
      </trkpt>
      <trkpt lat="42.80795" lon="0.16677">
        <ele>2529.807</ele>
        <time>2013-06-11T04:01:31Z</time>
      </trkpt>
      <trkpt lat="42.80795" lon="0.16677">
        <ele>2530.887</ele>
        <time>2013-06-11T04:01:34Z</time>
      </trkpt>
      <trkpt lat="42.80793" lon="0.16677">
        <ele>2531.879</ele>
        <time>2013-06-11T04:01:37Z</time>
      </trkpt>
      <trkpt lat="42.80788" lon="0.16675">
        <ele>2532.289</ele>
        <time>2013-06-11T04:01:41Z</time>
      </trkpt>
      <trkpt lat="42.80788" lon="0.16675">
        <ele>2532.745</ele>
        <time>2013-06-11T04:01:42Z</time>
      </trkpt>
      <trkpt lat="42.80788" lon="0.16675">
        <ele>2533.293</ele>
        <time>2013-06-11T04:01:46Z</time>
      </trkpt>
      <trkpt lat="42.80786" lon="0.16675">
        <ele>2533.743</ele>
        <time>2013-06-11T04:01:50Z</time>
      </trkpt>
      <trkpt lat="42.80786" lon="0.16675">
        <ele>2533.742</ele>
        <time>2013-06-11T04:01:51Z</time>
      </trkpt>
      <trkpt lat="42.80784" lon="0.16673">
        <ele>2534.248</ele>
        <time>2013-06-11T04:01:53Z</time>
      </trkpt>
      <trkpt lat="42.80782" lon="0.16673">
        <ele>2534.761</ele>
        <time>2013-06-11T04:01:58Z</time>
      </trkpt>
      <trkpt lat="42.80782" lon="0.16673">
        <ele>2535.117</ele>
        <time>2013-06-11T04:01:59Z</time>
      </trkpt>
      <trkpt lat="42.8078" lon="0.16671">
        <ele>2536.107</ele>
        <time>2013-06-11T04:02:08Z</time>
      </trkpt>
      <trkpt lat="42.8078" lon="0.16671">
        <ele>2536.118</ele>
        <time>2013-06-11T04:02:09Z</time>
      </trkpt>
      <trkpt lat="42.80778" lon="0.16668">
        <ele>2536.67</ele>
        <time>2013-06-11T04:02:13Z</time>
      </trkpt>
      <trkpt lat="42.80776" lon="0.16668">
        <ele>2536.68</ele>
        <time>2013-06-11T04:02:16Z</time>
      </trkpt>
      <trkpt lat="42.80774" lon="0.16668">
        <ele>2536.636</ele>
        <time>2013-06-11T04:02:20Z</time>
      </trkpt>
      <trkpt lat="42.80771" lon="0.16668">
        <ele>2537.194</ele>
        <time>2013-06-11T04:02:21Z</time>
      </trkpt>
      <trkpt lat="42.80771" lon="0.16668">
        <ele>2537.594</ele>
        <time>2013-06-11T04:02:25Z</time>
      </trkpt>
      <trkpt lat="42.80769" lon="0.16666">
        <ele>2537.573</ele>
        <time>2013-06-11T04:02:26Z</time>
      </trkpt>
      <trkpt lat="42.80767" lon="0.16666">
        <ele>2539.525</ele>
        <time>2013-06-11T04:02:32Z</time>
      </trkpt>
      <trkpt lat="42.80767" lon="0.16666">
        <ele>2539.026</ele>
        <time>2013-06-11T04:02:33Z</time>
      </trkpt>
      <trkpt lat="42.80767" lon="0.16666">
        <ele>2539.008</ele>
        <time>2013-06-11T04:02:40Z</time>
      </trkpt>
      <trkpt lat="42.80763" lon="0.16664">
        <ele>2545.207</ele>
        <time>2013-06-11T04:02:52Z</time>
      </trkpt>
      <trkpt lat="42.80758" lon="0.16662">
        <ele>2550.046</ele>
        <time>2013-06-11T04:03:02Z</time>
      </trkpt>
      <trkpt lat="42.80758" lon="0.16664">
        <ele>2550.098</ele>
        <time>2013-06-11T04:03:04Z</time>
      </trkpt>
      <trkpt lat="42.80754" lon="0.16664">
        <ele>2550.528</ele>
        <time>2013-06-11T04:03:09Z</time>
      </trkpt>
      <trkpt lat="42.80754" lon="0.16664">
        <ele>2551.064</ele>
        <time>2013-06-11T04:03:11Z</time>
      </trkpt>
      <trkpt lat="42.80754" lon="0.16664">
        <ele>2551.072</ele>
        <time>2013-06-11T04:03:13Z</time>
      </trkpt>
      <trkpt lat="42.80754" lon="0.16664">
        <ele>2552.012</ele>
        <time>2013-06-11T04:03:36Z</time>
      </trkpt>
      <trkpt lat="42.80752" lon="0.16666">
        <ele>2552.451</ele>
        <time>2013-06-11T04:03:41Z</time>
      </trkpt>
      <trkpt lat="42.8075" lon="0.16666">
        <ele>2552.068</ele>
        <time>2013-06-11T04:03:45Z</time>
      </trkpt>
      <trkpt lat="42.8075" lon="0.16666">
        <ele>2552.042</ele>
        <time>2013-06-11T04:03:47Z</time>
      </trkpt>
      <trkpt lat="42.80748" lon="0.16666">
        <ele>2552.026</ele>
        <time>2013-06-11T04:03:50Z</time>
      </trkpt>
      <trkpt lat="42.80745" lon="0.16666">
        <ele>2552.407</ele>
        <time>2013-06-11T04:03:51Z</time>
      </trkpt>
      <trkpt lat="42.80745" lon="0.16666">
        <ele>2552.45</ele>
        <time>2013-06-11T04:03:54Z</time>
      </trkpt>
      <trkpt lat="42.80745" lon="0.16666">
        <ele>2552.432</ele>
        <time>2013-06-11T04:03:55Z</time>
      </trkpt>
      <trkpt lat="42.80743" lon="0.16668">
        <ele>2552.452</ele>
        <time>2013-06-11T04:03:59Z</time>
      </trkpt>
      <trkpt lat="42.80741" lon="0.16668">
        <ele>2552.938</ele>
        <time>2013-06-11T04:04:03Z</time>
      </trkpt>
      <trkpt lat="42.80741" lon="0.16666">
        <ele>2554.856</ele>
        <time>2013-06-11T04:04:24Z</time>
      </trkpt>
      <trkpt lat="42.80739" lon="0.16666">
        <ele>2554.876</ele>
        <time>2013-06-11T04:04:28Z</time>
      </trkpt>
      <trkpt lat="42.80739" lon="0.16664">
        <ele>2554.835</ele>
        <time>2013-06-11T04:04:29Z</time>
      </trkpt>
      <trkpt lat="42.8073" lon="0.16664">
        <ele>2555.833</ele>
        <time>2013-06-11T04:04:41Z</time>
      </trkpt>
      <trkpt lat="42.8073" lon="0.16664">
        <ele>2555.823</ele>
        <time>2013-06-11T04:04:43Z</time>
      </trkpt>
      <trkpt lat="42.80724" lon="0.16664">
        <ele>2555.815</ele>
        <time>2013-06-11T04:04:50Z</time>
      </trkpt>
      <trkpt lat="42.80724" lon="0.16664">
        <ele>2556.307</ele>
        <time>2013-06-11T04:04:52Z</time>
      </trkpt>
      <trkpt lat="42.80724" lon="0.16664">
        <ele>2556.857</ele>
        <time>2013-06-11T04:04:59Z</time>
      </trkpt>
      <trkpt lat="42.80724" lon="0.16664">
        <ele>2556.889</ele>
        <time>2013-06-11T04:05:03Z</time>
      </trkpt>
      <trkpt lat="42.80722" lon="0.16658">
        <ele>2557.299</ele>
        <time>2013-06-11T04:05:09Z</time>
      </trkpt>
      <trkpt lat="42.80722" lon="0.16655">
        <ele>2557.285</ele>
        <time>2013-06-11T04:05:10Z</time>
      </trkpt>
      <trkpt lat="42.8072" lon="0.16653">
        <ele>2557.253</ele>
        <time>2013-06-11T04:05:13Z</time>
      </trkpt>
      <trkpt lat="42.8072" lon="0.16651">
        <ele>2557.713</ele>
        <time>2013-06-11T04:05:15Z</time>
      </trkpt>
      <trkpt lat="42.80718" lon="0.16647">
        <ele>2557.792</ele>
        <time>2013-06-11T04:05:22Z</time>
      </trkpt>
      <trkpt lat="42.80718" lon="0.16647">
        <ele>2558.295</ele>
        <time>2013-06-11T04:05:23Z</time>
      </trkpt>
      <trkpt lat="42.80713" lon="0.16645">
        <ele>2557.749</ele>
        <time>2013-06-11T04:05:29Z</time>
      </trkpt>
      <trkpt lat="42.80713" lon="0.16645">
        <ele>2557.723</ele>
        <time>2013-06-11T04:05:30Z</time>
      </trkpt>
      <trkpt lat="42.80707" lon="0.1664">
        <ele>2558.207</ele>
        <time>2013-06-11T04:05:40Z</time>
      </trkpt>
      <trkpt lat="42.80707" lon="0.1664">
        <ele>2558.263</ele>
        <time>2013-06-11T04:05:41Z</time>
      </trkpt>
      <trkpt lat="42.80692" lon="0.1664">
        <ele>2553.915</ele>
        <time>2013-06-11T04:06:00Z</time>
      </trkpt>
      <trkpt lat="42.80683" lon="0.16643">
        <ele>2553.475</ele>
        <time>2013-06-11T04:06:11Z</time>
      </trkpt>
      <trkpt lat="42.80679" lon="0.16645">
        <ele>2553.491</ele>
        <time>2013-06-11T04:06:16Z</time>
      </trkpt>
      <trkpt lat="42.80679" lon="0.16645">
        <ele>2553.469</ele>
        <time>2013-06-11T04:06:19Z</time>
      </trkpt>
      <trkpt lat="42.80681" lon="0.16645">
        <ele>2553.489</ele>
        <time>2013-06-11T04:07:00Z</time>
      </trkpt>
      <trkpt lat="42.80679" lon="0.16645">
        <ele>2553.418</ele>
        <time>2013-06-11T04:07:03Z</time>
      </trkpt>
      <trkpt lat="42.80677" lon="0.16645">
        <ele>2553.915</ele>
        <time>2013-06-11T04:07:07Z</time>
      </trkpt>
      <trkpt lat="42.80675" lon="0.16645">
        <ele>2553.965</ele>
        <time>2013-06-11T04:07:11Z</time>
      </trkpt>
      <trkpt lat="42.80671" lon="0.16647">
        <ele>2553.911</ele>
        <time>2013-06-11T04:07:19Z</time>
      </trkpt>
      <trkpt lat="42.80668" lon="0.16647">
        <ele>2553.907</ele>
        <time>2013-06-11T04:07:22Z</time>
      </trkpt>
      <trkpt lat="42.80666" lon="0.16649">
        <ele>2553.915</ele>
        <time>2013-06-11T04:07:23Z</time>
      </trkpt>
      <trkpt lat="42.80664" lon="0.16649">
        <ele>2553.937</ele>
        <time>2013-06-11T04:07:26Z</time>
      </trkpt>
      <trkpt lat="42.80664" lon="0.16651">
        <ele>2553.957</ele>
        <time>2013-06-11T04:07:30Z</time>
      </trkpt>
      <trkpt lat="42.80662" lon="0.16651">
        <ele>2553.933</ele>
        <time>2013-06-11T04:07:33Z</time>
      </trkpt>
      <trkpt lat="42.80662" lon="0.16651">
        <ele>2553.961</ele>
        <time>2013-06-11T04:07:34Z</time>
      </trkpt>
      <trkpt lat="42.80658" lon="0.16653">
        <ele>2553.971</ele>
        <time>2013-06-11T04:07:41Z</time>
      </trkpt>
      <trkpt lat="42.80658" lon="0.16653">
        <ele>2553.98</ele>
        <time>2013-06-11T04:07:46Z</time>
      </trkpt>
      <trkpt lat="42.80653" lon="0.16655">
        <ele>2554.483</ele>
        <time>2013-06-11T04:07:51Z</time>
      </trkpt>
      <trkpt lat="42.80653" lon="0.16655">
        <ele>2554.425</ele>
        <time>2013-06-11T04:07:52Z</time>
      </trkpt>
      <trkpt lat="42.80651" lon="0.16655">
        <ele>2554.417</ele>
        <time>2013-06-11T04:07:59Z</time>
      </trkpt>
      <trkpt lat="42.80649" lon="0.16655">
        <ele>2554.407</ele>
        <time>2013-06-11T04:08:04Z</time>
      </trkpt>
      <trkpt lat="42.80647" lon="0.16658">
        <ele>2554.462</ele>
        <time>2013-06-11T04:08:10Z</time>
      </trkpt>
      <trkpt lat="42.80645" lon="0.16658">
        <ele>2554.474</ele>
        <time>2013-06-11T04:08:15Z</time>
      </trkpt>
      <trkpt lat="42.80642" lon="0.16658">
        <ele>2554.434</ele>
        <time>2013-06-11T04:08:21Z</time>
      </trkpt>
      <trkpt lat="42.80642" lon="0.16658">
        <ele>2554.48</ele>
        <time>2013-06-11T04:08:22Z</time>
      </trkpt>
      <trkpt lat="42.8064" lon="0.16658">
        <ele>2554.468</ele>
        <time>2013-06-11T04:08:24Z</time>
      </trkpt>
      <trkpt lat="42.8064" lon="0.16658">
        <ele>2554.418</ele>
        <time>2013-06-11T04:08:26Z</time>
      </trkpt>
      <trkpt lat="42.80638" lon="0.16658">
        <ele>2554.477</ele>
        <time>2013-06-11T04:08:29Z</time>
      </trkpt>
      <trkpt lat="42.80636" lon="0.1666">
        <ele>2554.466</ele>
        <time>2013-06-11T04:08:32Z</time>
      </trkpt>
      <trkpt lat="42.80632" lon="0.16658">
        <ele>2555.329</ele>
        <time>2013-06-11T04:08:56Z</time>
      </trkpt>
      <trkpt lat="42.80632" lon="0.16658">
        <ele>2555.321</ele>
        <time>2013-06-11T04:09:08Z</time>
      </trkpt>
      <trkpt lat="42.8063" lon="0.16658">
        <ele>2555.807</ele>
        <time>2013-06-11T04:09:11Z</time>
      </trkpt>
      <trkpt lat="42.8063" lon="0.16658">
        <ele>2555.85</ele>
        <time>2013-06-11T04:09:12Z</time>
      </trkpt>
      <trkpt lat="42.80623" lon="0.16655">
        <ele>2556.332</ele>
        <time>2013-06-11T04:09:24Z</time>
      </trkpt>
      <trkpt lat="42.80621" lon="0.16655">
        <ele>2556.822</ele>
        <time>2013-06-11T04:09:39Z</time>
      </trkpt>
      <trkpt lat="42.80619" lon="0.16653">
        <ele>2556.888</ele>
        <time>2013-06-11T04:09:53Z</time>
      </trkpt>
      <trkpt lat="42.80615" lon="0.16653">
        <ele>2557.246</ele>
        <time>2013-06-11T04:10:00Z</time>
      </trkpt>
      <trkpt lat="42.80615" lon="0.16653">
        <ele>2557.276</ele>
        <time>2013-06-11T04:10:01Z</time>
      </trkpt>
      <trkpt lat="42.80615" lon="0.16653">
        <ele>2557.215</ele>
        <time>2013-06-11T04:10:04Z</time>
      </trkpt>
      <trkpt lat="42.80615" lon="0.16653">
        <ele>2557.231</ele>
        <time>2013-06-11T04:10:07Z</time>
      </trkpt>
      <trkpt lat="42.80615" lon="0.16653">
        <ele>2557.261</ele>
        <time>2013-06-11T04:10:13Z</time>
      </trkpt>
      <trkpt lat="42.80615" lon="0.16655">
        <ele>2558.207</ele>
        <time>2013-06-11T04:10:32Z</time>
      </trkpt>
      <trkpt lat="42.80615" lon="0.16658">
        <ele>2558.207</ele>
        <time>2013-06-11T04:10:36Z</time>
      </trkpt>
      <trkpt lat="42.80613" lon="0.16658">
        <ele>2558.237</ele>
        <time>2013-06-11T04:10:38Z</time>
      </trkpt>
      <trkpt lat="42.80613" lon="0.1666">
        <ele>2558.269</ele>
        <time>2013-06-11T04:10:41Z</time>
      </trkpt>
      <trkpt lat="42.80615" lon="0.1666">
        <ele>2558.239</ele>
        <time>2013-06-11T04:10:45Z</time>
      </trkpt>
      <trkpt lat="42.80613" lon="0.16664">
        <ele>2558.765</ele>
        <time>2013-06-11T04:10:48Z</time>
      </trkpt>
      <trkpt lat="42.80613" lon="0.16664">
        <ele>2558.763</ele>
        <time>2013-06-11T04:10:49Z</time>
      </trkpt>
      <trkpt lat="42.80613" lon="0.16668">
        <ele>2558.793</ele>
        <time>2013-06-11T04:10:57Z</time>
      </trkpt>
      <trkpt lat="42.80613" lon="0.16671">
        <ele>2558.792</ele>
        <time>2013-06-11T04:10:59Z</time>
      </trkpt>
      <trkpt lat="42.80613" lon="0.16671">
        <ele>2558.734</ele>
        <time>2013-06-11T04:11:01Z</time>
      </trkpt>
      <trkpt lat="42.80613" lon="0.16673">
        <ele>2558.755</ele>
        <time>2013-06-11T04:11:03Z</time>
      </trkpt>
      <trkpt lat="42.80615" lon="0.16675">
        <ele>2559.21</ele>
        <time>2013-06-11T04:11:08Z</time>
      </trkpt>
      <trkpt lat="42.80615" lon="0.16677">
        <ele>2559.207</ele>
        <time>2013-06-11T04:11:09Z</time>
      </trkpt>
      <trkpt lat="42.80613" lon="0.16679">
        <ele>2559.297</ele>
        <time>2013-06-11T04:11:12Z</time>
      </trkpt>
      <trkpt lat="42.80613" lon="0.16681">
        <ele>2559.269</ele>
        <time>2013-06-11T04:11:17Z</time>
      </trkpt>
      <trkpt lat="42.80613" lon="0.16683">
        <ele>2559.219</ele>
        <time>2013-06-11T04:11:21Z</time>
      </trkpt>
      <trkpt lat="42.80613" lon="0.16683">
        <ele>2559.225</ele>
        <time>2013-06-11T04:11:22Z</time>
      </trkpt>
      <trkpt lat="42.80613" lon="0.16686">
        <ele>2559.213</ele>
        <time>2013-06-11T04:11:25Z</time>
      </trkpt>
      <trkpt lat="42.80615" lon="0.1669">
        <ele>2559.273</ele>
        <time>2013-06-11T04:11:32Z</time>
      </trkpt>
      <trkpt lat="42.80615" lon="0.16692">
        <ele>2559.262</ele>
        <time>2013-06-11T04:11:34Z</time>
      </trkpt>
      <trkpt lat="42.80615" lon="0.16694">
        <ele>2559.217</ele>
        <time>2013-06-11T04:11:38Z</time>
      </trkpt>
      <trkpt lat="42.80615" lon="0.16696">
        <ele>2559.687</ele>
        <time>2013-06-11T04:11:43Z</time>
      </trkpt>
      <trkpt lat="42.80613" lon="0.16698">
        <ele>2559.615</ele>
        <time>2013-06-11T04:12:05Z</time>
      </trkpt>
      <trkpt lat="42.8061" lon="0.16701">
        <ele>2559.607</ele>
        <time>2013-06-11T04:12:09Z</time>
      </trkpt>
      <trkpt lat="42.80613" lon="0.16703">
        <ele>2559.695</ele>
        <time>2013-06-11T04:12:12Z</time>
      </trkpt>
      <trkpt lat="42.80613" lon="0.16703">
        <ele>2559.627</ele>
        <time>2013-06-11T04:12:13Z</time>
      </trkpt>
      <trkpt lat="42.80613" lon="0.16707">
        <ele>2560.187</ele>
        <time>2013-06-11T04:12:19Z</time>
      </trkpt>
      <trkpt lat="42.80613" lon="0.16707">
        <ele>2560.173</ele>
        <time>2013-06-11T04:12:20Z</time>
      </trkpt>
      <trkpt lat="42.80613" lon="0.16707">
        <ele>2560.111</ele>
        <time>2013-06-11T04:12:25Z</time>
      </trkpt>
      <trkpt lat="42.80613" lon="0.16711">
        <ele>2560.181</ele>
        <time>2013-06-11T04:12:29Z</time>
      </trkpt>
      <trkpt lat="42.80613" lon="0.16711">
        <ele>2560.14</ele>
        <time>2013-06-11T04:12:30Z</time>
      </trkpt>
      <trkpt lat="42.80613" lon="0.16713">
        <ele>2560.197</ele>
        <time>2013-06-11T04:12:34Z</time>
      </trkpt>
      <trkpt lat="42.80613" lon="0.16713">
        <ele>2560.123</ele>
        <time>2013-06-11T04:12:36Z</time>
      </trkpt>
      <trkpt lat="42.8061" lon="0.16716">
        <ele>2560.625</ele>
        <time>2013-06-11T04:12:57Z</time>
      </trkpt>
      <trkpt lat="42.80608" lon="0.16716">
        <ele>2560.607</ele>
        <time>2013-06-11T04:13:02Z</time>
      </trkpt>
      <trkpt lat="42.80604" lon="0.16713">
        <ele>2560.613</ele>
        <time>2013-06-11T04:13:08Z</time>
      </trkpt>
      <trkpt lat="42.80602" lon="0.16713">
        <ele>2560.625</ele>
        <time>2013-06-11T04:13:11Z</time>
      </trkpt>
      <trkpt lat="42.806" lon="0.16713">
        <ele>2560.635</ele>
        <time>2013-06-11T04:13:14Z</time>
      </trkpt>
      <trkpt lat="42.806" lon="0.16711">
        <ele>2561.191</ele>
        <time>2013-06-11T04:13:16Z</time>
      </trkpt>
      <trkpt lat="42.80589" lon="0.16709">
        <ele>2562.169</ele>
        <time>2013-06-11T04:13:47Z</time>
      </trkpt>
      <trkpt lat="42.80585" lon="0.16709">
        <ele>2562.129</ele>
        <time>2013-06-11T04:13:52Z</time>
      </trkpt>
      <trkpt lat="42.80585" lon="0.16705">
        <ele>2562.138</ele>
        <time>2013-06-11T04:13:59Z</time>
      </trkpt>
      <trkpt lat="42.80585" lon="0.16705">
        <ele>2562.122</ele>
        <time>2013-06-11T04:14:01Z</time>
      </trkpt>
      <trkpt lat="42.80582" lon="0.16703">
        <ele>2562.162</ele>
        <time>2013-06-11T04:14:05Z</time>
      </trkpt>
      <trkpt lat="42.80578" lon="0.16703">
        <ele>2562.108</ele>
        <time>2013-06-11T04:14:10Z</time>
      </trkpt>
      <trkpt lat="42.80578" lon="0.16703">
        <ele>2562.107</ele>
        <time>2013-06-11T04:14:13Z</time>
      </trkpt>
      <trkpt lat="42.80578" lon="0.16701">
        <ele>2562.116</ele>
        <time>2013-06-11T04:14:16Z</time>
      </trkpt>
      <trkpt lat="42.80576" lon="0.16701">
        <ele>2562.168</ele>
        <time>2013-06-11T04:14:18Z</time>
      </trkpt>
      <trkpt lat="42.80574" lon="0.16698">
        <ele>2562.168</ele>
        <time>2013-06-11T04:14:26Z</time>
      </trkpt>
      <trkpt lat="42.80572" lon="0.16698">
        <ele>2562.164</ele>
        <time>2013-06-11T04:14:30Z</time>
      </trkpt>
      <trkpt lat="42.80572" lon="0.16698">
        <ele>2562.112</ele>
        <time>2013-06-11T04:14:34Z</time>
      </trkpt>
      <trkpt lat="42.8057" lon="0.16698">
        <ele>2562.182</ele>
        <time>2013-06-11T04:14:37Z</time>
      </trkpt>
      <trkpt lat="42.80568" lon="0.16698">
        <ele>2562.161</ele>
        <time>2013-06-11T04:14:42Z</time>
      </trkpt>
      <trkpt lat="42.80568" lon="0.16698">
        <ele>2562.152</ele>
        <time>2013-06-11T04:14:44Z</time>
      </trkpt>
      <trkpt lat="42.80568" lon="0.16698">
        <ele>2562.153</ele>
        <time>2013-06-11T04:14:46Z</time>
      </trkpt>
      <trkpt lat="42.80565" lon="0.16694">
        <ele>2562.508</ele>
        <time>2013-06-11T04:14:54Z</time>
      </trkpt>
      <trkpt lat="42.80565" lon="0.16694">
        <ele>2562.507</ele>
        <time>2013-06-11T04:14:55Z</time>
      </trkpt>
      <trkpt lat="42.80563" lon="0.16694">
        <ele>2562.549</ele>
        <time>2013-06-11T04:14:59Z</time>
      </trkpt>
      <trkpt lat="42.80563" lon="0.16694">
        <ele>2562.551</ele>
        <time>2013-06-11T04:15:03Z</time>
      </trkpt>
      <trkpt lat="42.80561" lon="0.16692">
        <ele>2562.561</ele>
        <time>2013-06-11T04:15:08Z</time>
      </trkpt>
      <trkpt lat="42.80561" lon="0.16692">
        <ele>2562.527</ele>
        <time>2013-06-11T04:15:10Z</time>
      </trkpt>
      <trkpt lat="42.80561" lon="0.1669">
        <ele>2563.095</ele>
        <time>2013-06-11T04:15:33Z</time>
      </trkpt>
      <trkpt lat="42.80561" lon="0.1669">
        <ele>2563.075</ele>
        <time>2013-06-11T04:15:46Z</time>
      </trkpt>
      <trkpt lat="42.80561" lon="0.16694">
        <ele>2563.014</ele>
        <time>2013-06-11T04:15:53Z</time>
      </trkpt>
      <trkpt lat="42.80559" lon="0.16696">
        <ele>2563.034</ele>
        <time>2013-06-11T04:16:01Z</time>
      </trkpt>
      <trkpt lat="42.80559" lon="0.16698">
        <ele>2563.055</ele>
        <time>2013-06-11T04:16:04Z</time>
      </trkpt>
      <trkpt lat="42.80559" lon="0.16698">
        <ele>2563.01</ele>
        <time>2013-06-11T04:16:05Z</time>
      </trkpt>
      <trkpt lat="42.80559" lon="0.16701">
        <ele>2563.007</ele>
        <time>2013-06-11T04:16:08Z</time>
      </trkpt>
      <trkpt lat="42.80557" lon="0.16707">
        <ele>2563.067</ele>
        <time>2013-06-11T04:16:25Z</time>
      </trkpt>
      <trkpt lat="42.80557" lon="0.16709">
        <ele>2563.079</ele>
        <time>2013-06-11T04:16:29Z</time>
      </trkpt>
      <trkpt lat="42.80557" lon="0.16711">
        <ele>2563.019</ele>
        <time>2013-06-11T04:16:32Z</time>
      </trkpt>
      <trkpt lat="42.80557" lon="0.16713">
        <ele>2563.045</ele>
        <time>2013-06-11T04:16:34Z</time>
      </trkpt>
      <trkpt lat="42.80557" lon="0.16713">
        <ele>2563.583</ele>
        <time>2013-06-11T04:16:37Z</time>
      </trkpt>
      <trkpt lat="42.80557" lon="0.16716">
        <ele>2563.513</ele>
        <time>2013-06-11T04:16:42Z</time>
      </trkpt>
      <trkpt lat="42.80557" lon="0.16716">
        <ele>2563.512</ele>
        <time>2013-06-11T04:16:45Z</time>
      </trkpt>
      <trkpt lat="42.80557" lon="0.16718">
        <ele>2563.543</ele>
        <time>2013-06-11T04:16:47Z</time>
      </trkpt>
      <trkpt lat="42.80559" lon="0.1672">
        <ele>2563.564</ele>
        <time>2013-06-11T04:16:56Z</time>
      </trkpt>
      <trkpt lat="42.80559" lon="0.1672">
        <ele>2563.51</ele>
        <time>2013-06-11T04:17:24Z</time>
      </trkpt>
      <trkpt lat="42.80555" lon="0.1672">
        <ele>2563.507</ele>
        <time>2013-06-11T04:17:32Z</time>
      </trkpt>
      <trkpt lat="42.8055" lon="0.16718">
        <ele>2563.588</ele>
        <time>2013-06-11T04:17:39Z</time>
      </trkpt>
      <trkpt lat="42.80552" lon="0.16718">
        <ele>2563.52</ele>
        <time>2013-06-11T04:17:42Z</time>
      </trkpt>
      <trkpt lat="42.8055" lon="0.16718">
        <ele>2563.56</ele>
        <time>2013-06-11T04:17:45Z</time>
      </trkpt>
      <trkpt lat="42.80546" lon="0.16718">
        <ele>2563.526</ele>
        <time>2013-06-11T04:17:49Z</time>
      </trkpt>
      <trkpt lat="42.80546" lon="0.16718">
        <ele>2563.574</ele>
        <time>2013-06-11T04:17:52Z</time>
      </trkpt>
      <trkpt lat="42.80542" lon="0.16716">
        <ele>2563.574</ele>
        <time>2013-06-11T04:18:02Z</time>
      </trkpt>
      <trkpt lat="42.80539" lon="0.16713">
        <ele>2563.553</ele>
        <time>2013-06-11T04:18:05Z</time>
      </trkpt>
      <trkpt lat="42.80539" lon="0.16713">
        <ele>2563.562</ele>
        <time>2013-06-11T04:18:06Z</time>
      </trkpt>
      <trkpt lat="42.80537" lon="0.16713">
        <ele>2563.583</ele>
        <time>2013-06-11T04:18:08Z</time>
      </trkpt>
      <trkpt lat="42.80533" lon="0.16711">
        <ele>2563.511</ele>
        <time>2013-06-11T04:18:15Z</time>
      </trkpt>
      <trkpt lat="42.80533" lon="0.16709">
        <ele>2563.507</ele>
        <time>2013-06-11T04:18:28Z</time>
      </trkpt>
      <trkpt lat="42.80533" lon="0.16709">
        <ele>2563.55</ele>
        <time>2013-06-11T04:18:32Z</time>
      </trkpt>
      <trkpt lat="42.80533" lon="0.16711">
        <ele>2563.542</ele>
        <time>2013-06-11T04:19:17Z</time>
      </trkpt>
      <trkpt lat="42.80533" lon="0.16716">
        <ele>2563.542</ele>
        <time>2013-06-11T04:19:24Z</time>
      </trkpt>
      <trkpt lat="42.80533" lon="0.16716">
        <ele>2563.558</ele>
        <time>2013-06-11T04:19:26Z</time>
      </trkpt>
      <trkpt lat="42.80533" lon="0.16718">
        <ele>2563.556</ele>
        <time>2013-06-11T04:19:28Z</time>
      </trkpt>
      <trkpt lat="42.80533" lon="0.1672">
        <ele>2563.546</ele>
        <time>2013-06-11T04:19:34Z</time>
      </trkpt>
      <trkpt lat="42.80533" lon="0.16722">
        <ele>2563.535</ele>
        <time>2013-06-11T04:19:38Z</time>
      </trkpt>
      <trkpt lat="42.80531" lon="0.16724">
        <ele>2563.563</ele>
        <time>2013-06-11T04:19:41Z</time>
      </trkpt>
      <trkpt lat="42.80531" lon="0.16728">
        <ele>2563.044</ele>
        <time>2013-06-11T04:19:47Z</time>
      </trkpt>
      <trkpt lat="42.80531" lon="0.16728">
        <ele>2563.018</ele>
        <time>2013-06-11T04:19:48Z</time>
      </trkpt>
      <trkpt lat="42.80531" lon="0.16731">
        <ele>2563.007</ele>
        <time>2013-06-11T04:19:52Z</time>
      </trkpt>
      <trkpt lat="42.80531" lon="0.16733">
        <ele>2563.02</ele>
        <time>2013-06-11T04:20:00Z</time>
      </trkpt>
      <trkpt lat="42.80529" lon="0.16737">
        <ele>2563.032</ele>
        <time>2013-06-11T04:20:08Z</time>
      </trkpt>
      <trkpt lat="42.80529" lon="0.16737">
        <ele>2563.032</ele>
        <time>2013-06-11T04:20:11Z</time>
      </trkpt>
      <trkpt lat="42.80529" lon="0.16739">
        <ele>2563.088</ele>
        <time>2013-06-11T04:20:14Z</time>
      </trkpt>
      <trkpt lat="42.80529" lon="0.16739">
        <ele>2563.076</ele>
        <time>2013-06-11T04:20:15Z</time>
      </trkpt>
      <trkpt lat="42.80531" lon="0.16741">
        <ele>2563.076</ele>
        <time>2013-06-11T04:20:27Z</time>
      </trkpt>
      <trkpt lat="42.80527" lon="0.16743">
        <ele>2563.035</ele>
        <time>2013-06-11T04:20:38Z</time>
      </trkpt>
      <trkpt lat="42.80524" lon="0.16743">
        <ele>2563.069</ele>
        <time>2013-06-11T04:20:44Z</time>
      </trkpt>
      <trkpt lat="42.80524" lon="0.16743">
        <ele>2563.004</ele>
        <time>2013-06-11T04:20:46Z</time>
      </trkpt>
      <trkpt lat="42.80522" lon="0.16741">
        <ele>2563.024</ele>
        <time>2013-06-11T04:20:50Z</time>
      </trkpt>
      <trkpt lat="42.8052" lon="0.16741">
        <ele>2563.007</ele>
        <time>2013-06-11T04:20:52Z</time>
      </trkpt>
      <trkpt lat="42.8052" lon="0.16739">
        <ele>2563.04</ele>
        <time>2013-06-11T04:20:57Z</time>
      </trkpt>
      <trkpt lat="42.80514" lon="0.16737">
        <ele>2563.072</ele>
        <time>2013-06-11T04:21:12Z</time>
      </trkpt>
      <trkpt lat="42.80514" lon="0.16737">
        <ele>2563.082</ele>
        <time>2013-06-11T04:21:16Z</time>
      </trkpt>
      <trkpt lat="42.8051" lon="0.16735">
        <ele>2563.058</ele>
        <time>2013-06-11T04:21:26Z</time>
      </trkpt>
      <trkpt lat="42.8051" lon="0.16735">
        <ele>2563.056</ele>
        <time>2013-06-11T04:21:30Z</time>
      </trkpt>
      <trkpt lat="42.8051" lon="0.16735">
        <ele>2563.016</ele>
        <time>2013-06-11T04:21:31Z</time>
      </trkpt>
      <trkpt lat="42.8051" lon="0.16733">
        <ele>2563.045</ele>
        <time>2013-06-11T04:21:37Z</time>
      </trkpt>
      <trkpt lat="42.80507" lon="0.16733">
        <ele>2563.021</ele>
        <time>2013-06-11T04:21:41Z</time>
      </trkpt>
      <trkpt lat="42.80507" lon="0.16731">
        <ele>2563.041</ele>
        <time>2013-06-11T04:21:56Z</time>
      </trkpt>
      <trkpt lat="42.80507" lon="0.16731">
        <ele>2563.005</ele>
        <time>2013-06-11T04:21:58Z</time>
      </trkpt>
      <trkpt lat="42.80507" lon="0.16728">
        <ele>2562.507</ele>
        <time>2013-06-11T04:22:49Z</time>
      </trkpt>
      <trkpt lat="42.80499" lon="0.16728">
        <ele>2561.656</ele>
        <time>2013-06-11T04:24:46Z</time>
      </trkpt>
      <trkpt lat="42.80499" lon="0.16724">
        <ele>2561.628</ele>
        <time>2013-06-11T04:25:02Z</time>
      </trkpt>
      <trkpt lat="42.80488" lon="0.16731">
        <ele>2674.038</ele>
        <time>2013-06-11T04:33:33Z</time>
      </trkpt>
      <trkpt lat="42.80497" lon="0.16748">
        <ele>2681.334</ele>
        <time>2013-06-11T04:33:37Z</time>
      </trkpt>
      <trkpt lat="42.80492" lon="0.16739">
        <ele>2679.812</ele>
        <time>2013-06-11T04:33:41Z</time>
      </trkpt>
      <trkpt lat="42.80492" lon="0.16737">
        <ele>2680.362</ele>
        <time>2013-06-11T04:33:43Z</time>
      </trkpt>
      <trkpt lat="42.8049" lon="0.16735">
        <ele>2682.271</ele>
        <time>2013-06-11T04:33:46Z</time>
      </trkpt>
      <trkpt lat="42.80488" lon="0.16735">
        <ele>2683.717</ele>
        <time>2013-06-11T04:33:53Z</time>
      </trkpt>
      <trkpt lat="42.80486" lon="0.16733">
        <ele>2684.187</ele>
        <time>2013-06-11T04:33:59Z</time>
      </trkpt>
      <trkpt lat="42.80486" lon="0.16733">
        <ele>2683.715</ele>
        <time>2013-06-11T04:34:01Z</time>
      </trkpt>
      <trkpt lat="42.80486" lon="0.16733">
        <ele>2683.207</ele>
        <time>2013-06-11T04:34:05Z</time>
      </trkpt>
      <trkpt lat="42.80484" lon="0.16733">
        <ele>2679.845</ele>
        <time>2013-06-11T04:34:15Z</time>
      </trkpt>
      <trkpt lat="42.80484" lon="0.16733">
        <ele>2677.467</ele>
        <time>2013-06-11T04:34:27Z</time>
      </trkpt>
      <trkpt lat="42.80486" lon="0.16735">
        <ele>2676.917</ele>
        <time>2013-06-11T04:34:40Z</time>
      </trkpt>
      <trkpt lat="42.80486" lon="0.16737">
        <ele>2676.493</ele>
        <time>2013-06-11T04:34:45Z</time>
      </trkpt>
      <trkpt lat="42.80486" lon="0.16737">
        <ele>2677.491</ele>
        <time>2013-06-11T04:34:51Z</time>
      </trkpt>
      <trkpt lat="42.80486" lon="0.16741">
        <ele>2677.991</ele>
        <time>2013-06-11T04:34:57Z</time>
      </trkpt>
      <trkpt lat="42.80486" lon="0.16743">
        <ele>2677.43</ele>
        <time>2013-06-11T04:35:01Z</time>
      </trkpt>
      <trkpt lat="42.80486" lon="0.16743">
        <ele>2678.924</ele>
        <time>2013-06-11T04:35:05Z</time>
      </trkpt>
      <trkpt lat="42.80486" lon="0.16743">
        <ele>2682.204</ele>
        <time>2013-06-11T04:35:10Z</time>
      </trkpt>
      <trkpt lat="42.80484" lon="0.16743">
        <ele>2682.714</ele>
        <time>2013-06-11T04:35:13Z</time>
      </trkpt>
      <trkpt lat="42.80484" lon="0.16746">
        <ele>2683.707</ele>
        <time>2013-06-11T04:35:16Z</time>
      </trkpt>
      <trkpt lat="42.80484" lon="0.16746">
        <ele>2684.696</ele>
        <time>2013-06-11T04:35:19Z</time>
      </trkpt>
      <trkpt lat="42.80482" lon="0.16741">
        <ele>2691.848</ele>
        <time>2013-06-11T04:35:46Z</time>
      </trkpt>
      <trkpt lat="42.80484" lon="0.16743">
        <ele>2688.588</ele>
        <time>2013-06-11T04:37:05Z</time>
      </trkpt>
      <trkpt lat="42.80482" lon="0.16741">
        <ele>2691.314</ele>
        <time>2013-06-11T04:37:12Z</time>
      </trkpt>
      <trkpt lat="42.80479" lon="0.16739">
        <ele>2691.342</ele>
        <time>2013-06-11T04:37:17Z</time>
      </trkpt>
      <trkpt lat="42.80479" lon="0.16739">
        <ele>2690.952</ele>
        <time>2013-06-11T04:37:23Z</time>
      </trkpt>
      <trkpt lat="42.80477" lon="0.16739">
        <ele>2692.331</ele>
        <time>2013-06-11T04:37:28Z</time>
      </trkpt>
      <trkpt lat="42.80475" lon="0.16735">
        <ele>2692.822</ele>
        <time>2013-06-11T04:37:32Z</time>
      </trkpt>
      <trkpt lat="42.80475" lon="0.16733">
        <ele>2693.862</ele>
        <time>2013-06-11T04:37:35Z</time>
      </trkpt>
      <trkpt lat="42.80475" lon="0.16733">
        <ele>2693.808</ele>
        <time>2013-06-11T04:37:36Z</time>
      </trkpt>
      <trkpt lat="42.80475" lon="0.16733">
        <ele>2695.707</ele>
        <time>2013-06-11T04:37:48Z</time>
      </trkpt>
      <trkpt lat="42.80475" lon="0.16737">
        <ele>2699.016</ele>
        <time>2013-06-11T04:37:59Z</time>
      </trkpt>
      <trkpt lat="42.80473" lon="0.16739">
        <ele>2698.698</ele>
        <time>2013-06-11T04:38:05Z</time>
      </trkpt>
      <trkpt lat="42.80473" lon="0.16741">
        <ele>2699.548</ele>
        <time>2013-06-11T04:38:09Z</time>
      </trkpt>
      <trkpt lat="42.80473" lon="0.16743">
        <ele>2700.014</ele>
        <time>2013-06-11T04:38:16Z</time>
      </trkpt>
      <trkpt lat="42.80473" lon="0.16746">
        <ele>2700.082</ele>
        <time>2013-06-11T04:38:18Z</time>
      </trkpt>
      <trkpt lat="42.80473" lon="0.16746">
        <ele>2700.522</ele>
        <time>2013-06-11T04:38:21Z</time>
      </trkpt>
      <trkpt lat="42.80473" lon="0.16748">
        <ele>2700.081</ele>
        <time>2013-06-11T04:38:23Z</time>
      </trkpt>
      <trkpt lat="42.80473" lon="0.16748">
        <ele>2700.031</ele>
        <time>2013-06-11T04:38:26Z</time>
      </trkpt>
      <trkpt lat="42.80471" lon="0.1675">
        <ele>2700.061</ele>
        <time>2013-06-11T04:38:31Z</time>
      </trkpt>
      <trkpt lat="42.80471" lon="0.16752">
        <ele>2699.507</ele>
        <time>2013-06-11T04:38:42Z</time>
      </trkpt>
      <trkpt lat="42.80471" lon="0.16752">
        <ele>2699.507</ele>
        <time>2013-06-11T04:38:49Z</time>
      </trkpt>
      <trkpt lat="42.80471" lon="0.1675">
        <ele>2700.027</ele>
        <time>2013-06-11T04:38:52Z</time>
      </trkpt>
      <trkpt lat="42.80471" lon="0.1675">
        <ele>2700.079</ele>
        <time>2013-06-11T04:38:53Z</time>
      </trkpt>
      <trkpt lat="42.80469" lon="0.16746">
        <ele>2700.039</ele>
        <time>2013-06-11T04:39:00Z</time>
      </trkpt>
      <trkpt lat="42.80469" lon="0.16748">
        <ele>2701.075</ele>
        <time>2013-06-11T04:39:02Z</time>
      </trkpt>
      <trkpt lat="42.80467" lon="0.16746">
        <ele>2701.983</ele>
        <time>2013-06-11T04:39:06Z</time>
      </trkpt>
      <trkpt lat="42.80467" lon="0.16746">
        <ele>2702.453</ele>
        <time>2013-06-11T04:39:07Z</time>
      </trkpt>
      <trkpt lat="42.80467" lon="0.16743">
        <ele>2702.412</ele>
        <time>2013-06-11T04:39:10Z</time>
      </trkpt>
      <trkpt lat="42.80467" lon="0.16743">
        <ele>2702.941</ele>
        <time>2013-06-11T04:39:12Z</time>
      </trkpt>
      <trkpt lat="42.80465" lon="0.16743">
        <ele>2705.381</ele>
        <time>2013-06-11T04:39:20Z</time>
      </trkpt>
      <trkpt lat="42.80465" lon="0.16741">
        <ele>2705.809</ele>
        <time>2013-06-11T04:39:22Z</time>
      </trkpt>
      <trkpt lat="42.80465" lon="0.16741">
        <ele>2704.807</ele>
        <time>2013-06-11T04:39:25Z</time>
      </trkpt>
      <trkpt lat="42.80465" lon="0.16741">
        <ele>2704.868</ele>
        <time>2013-06-11T04:39:27Z</time>
      </trkpt>
      <trkpt lat="42.80465" lon="0.16741">
        <ele>2704.39</ele>
        <time>2013-06-11T04:39:33Z</time>
      </trkpt>
      <trkpt lat="42.80465" lon="0.16741">
        <ele>2704.82</ele>
        <time>2013-06-11T04:39:53Z</time>
      </trkpt>
      <trkpt lat="42.80465" lon="0.16743">
        <ele>2706.236</ele>
        <time>2013-06-11T04:40:06Z</time>
      </trkpt>
      <trkpt lat="42.80462" lon="0.16743">
        <ele>2706.284</ele>
        <time>2013-06-11T04:40:08Z</time>
      </trkpt>
      <trkpt lat="42.80462" lon="0.16746">
        <ele>2709.154</ele>
        <time>2013-06-11T04:40:15Z</time>
      </trkpt>
      <trkpt lat="42.80462" lon="0.16746">
        <ele>2708.223</ele>
        <time>2013-06-11T04:40:23Z</time>
      </trkpt>
      <trkpt lat="42.80462" lon="0.16748">
        <ele>2707.723</ele>
        <time>2013-06-11T04:40:27Z</time>
      </trkpt>
      <trkpt lat="42.8046" lon="0.16748">
        <ele>2707.783</ele>
        <time>2013-06-11T04:40:42Z</time>
      </trkpt>
      <trkpt lat="42.8046" lon="0.16748">
        <ele>2708.211</ele>
        <time>2013-06-11T04:40:44Z</time>
      </trkpt>
      <trkpt lat="42.8046" lon="0.1675">
        <ele>2708.207</ele>
        <time>2013-06-11T04:40:47Z</time>
      </trkpt>
      <trkpt lat="42.8046" lon="0.1675">
        <ele>2708.776</ele>
        <time>2013-06-11T04:41:00Z</time>
      </trkpt>
      <trkpt lat="42.80458" lon="0.1675">
        <ele>2710.138</ele>
        <time>2013-06-11T04:41:11Z</time>
      </trkpt>
      <trkpt lat="42.8046" lon="0.1675">
        <ele>2709.688</ele>
        <time>2013-06-11T04:41:14Z</time>
      </trkpt>
      <trkpt lat="42.80458" lon="0.1675">
        <ele>2709.654</ele>
        <time>2013-06-11T04:41:33Z</time>
      </trkpt>
      <trkpt lat="42.80458" lon="0.1675">
        <ele>2710.622</ele>
        <time>2013-06-11T04:41:42Z</time>
      </trkpt>
      <trkpt lat="42.80458" lon="0.1675">
        <ele>2711.122</ele>
        <time>2013-06-11T04:41:50Z</time>
      </trkpt>
      <trkpt lat="42.80458" lon="0.1675">
        <ele>2711.141</ele>
        <time>2013-06-11T04:41:52Z</time>
      </trkpt>
      <trkpt lat="42.80458" lon="0.1675">
        <ele>2710.613</ele>
        <time>2013-06-11T04:42:00Z</time>
      </trkpt>
      <trkpt lat="42.80456" lon="0.1675">
        <ele>2711.143</ele>
        <time>2013-06-11T04:42:06Z</time>
      </trkpt>
      <trkpt lat="42.80458" lon="0.1675">
        <ele>2710.607</ele>
        <time>2013-06-11T04:42:22Z</time>
      </trkpt>
      <trkpt lat="42.80458" lon="0.1675">
        <ele>2710.607</ele>
        <time>2013-06-11T04:42:29Z</time>
      </trkpt>
      <trkpt lat="42.80456" lon="0.1675">
        <ele>2711.115</ele>
        <time>2013-06-11T04:42:33Z</time>
      </trkpt>
      <trkpt lat="42.80456" lon="0.1675">
        <ele>2710.667</ele>
        <time>2013-06-11T04:42:53Z</time>
      </trkpt>
      <trkpt lat="42.80456" lon="0.16752">
        <ele>2710.627</ele>
        <time>2013-06-11T04:43:12Z</time>
      </trkpt>
      <trkpt lat="42.80454" lon="0.16752">
        <ele>2710.113</ele>
        <time>2013-06-11T04:43:18Z</time>
      </trkpt>
      <trkpt lat="42.80454" lon="0.16752">
        <ele>2710.681</ele>
        <time>2013-06-11T04:43:30Z</time>
      </trkpt>
      <trkpt lat="42.80454" lon="0.16752">
        <ele>2711.181</ele>
        <time>2013-06-11T04:43:35Z</time>
      </trkpt>
      <trkpt lat="42.80454" lon="0.16752">
        <ele>2711.52</ele>
        <time>2013-06-11T04:43:40Z</time>
      </trkpt>
      <trkpt lat="42.80454" lon="0.16752">
        <ele>2712.576</ele>
        <time>2013-06-11T04:44:09Z</time>
      </trkpt>
      <trkpt lat="42.80452" lon="0.16752">
        <ele>2712.09</ele>
        <time>2013-06-11T04:44:26Z</time>
      </trkpt>
      <trkpt lat="42.80452" lon="0.16752">
        <ele>2712.019</ele>
        <time>2013-06-11T04:44:32Z</time>
      </trkpt>
      <trkpt lat="42.80452" lon="0.16752">
        <ele>2712.507</ele>
        <time>2013-06-11T04:44:37Z</time>
      </trkpt>
      <trkpt lat="42.80452" lon="0.16752">
        <ele>2712.591</ele>
        <time>2013-06-11T04:44:39Z</time>
      </trkpt>
      <trkpt lat="42.80452" lon="0.16752">
        <ele>2713.523</ele>
        <time>2013-06-11T04:44:45Z</time>
      </trkpt>
      <trkpt lat="42.80449" lon="0.16752">
        <ele>2713.083</ele>
        <time>2013-06-11T04:44:48Z</time>
      </trkpt>
      <trkpt lat="42.80449" lon="0.16752">
        <ele>2713.569</ele>
        <time>2013-06-11T04:44:51Z</time>
      </trkpt>
      <trkpt lat="42.80449" lon="0.16754">
        <ele>2713.987</ele>
        <time>2013-06-11T04:44:58Z</time>
      </trkpt>
      <trkpt lat="42.80449" lon="0.16754">
        <ele>2713.987</ele>
        <time>2013-06-11T04:45:02Z</time>
      </trkpt>
      <trkpt lat="42.80449" lon="0.16754">
        <ele>2714.476</ele>
        <time>2013-06-11T04:45:06Z</time>
      </trkpt>
      <trkpt lat="42.80447" lon="0.16752">
        <ele>2714.911</ele>
        <time>2013-06-11T04:45:10Z</time>
      </trkpt>
      <trkpt lat="42.80447" lon="0.16752">
        <ele>2715.921</ele>
        <time>2013-06-11T04:45:14Z</time>
      </trkpt>
      <trkpt lat="42.80447" lon="0.16752">
        <ele>2715.903</ele>
        <time>2013-06-11T04:45:17Z</time>
      </trkpt>
      <trkpt lat="42.80447" lon="0.16752">
        <ele>2716.307</ele>
        <time>2013-06-11T04:45:20Z</time>
      </trkpt>
      <trkpt lat="42.80445" lon="0.16752">
        <ele>2717.375</ele>
        <time>2013-06-11T04:45:35Z</time>
      </trkpt>
      <trkpt lat="42.80445" lon="0.16752">
        <ele>2717.347</ele>
        <time>2013-06-11T04:45:37Z</time>
      </trkpt>
      <trkpt lat="42.80445" lon="0.16752">
        <ele>2717.887</ele>
        <time>2013-06-11T04:45:44Z</time>
      </trkpt>
      <trkpt lat="42.80445" lon="0.16752">
        <ele>2718.733</ele>
        <time>2013-06-11T04:45:48Z</time>
      </trkpt>
      <trkpt lat="42.80443" lon="0.16752">
        <ele>2718.781</ele>
        <time>2013-06-11T04:45:51Z</time>
      </trkpt>
      <trkpt lat="42.80443" lon="0.16754">
        <ele>2719.271</ele>
        <time>2013-06-11T04:45:57Z</time>
      </trkpt>
      <trkpt lat="42.80443" lon="0.16754">
        <ele>2719.78</ele>
        <time>2013-06-11T04:46:00Z</time>
      </trkpt>
      <trkpt lat="42.80443" lon="0.16754">
        <ele>2721.119</ele>
        <time>2013-06-11T04:46:05Z</time>
      </trkpt>
      <trkpt lat="42.80441" lon="0.16754">
        <ele>2722.109</ele>
        <time>2013-06-11T04:46:14Z</time>
      </trkpt>
      <trkpt lat="42.80441" lon="0.16754">
        <ele>2724.019</ele>
        <time>2013-06-11T04:46:22Z</time>
      </trkpt>
      <trkpt lat="42.80441" lon="0.16756">
        <ele>2724.507</ele>
        <time>2013-06-11T04:46:25Z</time>
      </trkpt>
      <trkpt lat="42.80441" lon="0.16756">
        <ele>2724.035</ele>
        <time>2013-06-11T04:46:45Z</time>
      </trkpt>
      <trkpt lat="42.80441" lon="0.16756">
        <ele>2724.017</ele>
        <time>2013-06-11T04:46:47Z</time>
      </trkpt>
      <trkpt lat="42.80439" lon="0.16758">
        <ele>2723.617</ele>
        <time>2013-06-11T04:46:51Z</time>
      </trkpt>
      <trkpt lat="42.80439" lon="0.16758">
        <ele>2722.673</ele>
        <time>2013-06-11T04:47:08Z</time>
      </trkpt>
      <trkpt lat="42.80441" lon="0.16758">
        <ele>2720.721</ele>
        <time>2013-06-11T04:47:28Z</time>
      </trkpt>
      <trkpt lat="42.80441" lon="0.16758">
        <ele>2720.761</ele>
        <time>2013-06-11T04:47:30Z</time>
      </trkpt>
      <trkpt lat="42.80441" lon="0.16758">
        <ele>2720.28</ele>
        <time>2013-06-11T04:47:39Z</time>
      </trkpt>
      <trkpt lat="42.80441" lon="0.16758">
        <ele>2721.136</ele>
        <time>2013-06-11T04:47:50Z</time>
      </trkpt>
      <trkpt lat="42.80441" lon="0.16761">
        <ele>2721.617</ele>
        <time>2013-06-11T04:47:57Z</time>
      </trkpt>
      <trkpt lat="42.80441" lon="0.16761">
        <ele>2721.118</ele>
        <time>2013-06-11T04:48:01Z</time>
      </trkpt>
      <trkpt lat="42.80439" lon="0.16761">
        <ele>2721.107</ele>
        <time>2013-06-11T04:48:04Z</time>
      </trkpt>
      <trkpt lat="42.80441" lon="0.16761">
        <ele>2719.737</ele>
        <time>2013-06-11T04:48:38Z</time>
      </trkpt>
      <trkpt lat="42.80441" lon="0.16758">
        <ele>2719.249</ele>
        <time>2013-06-11T04:48:43Z</time>
      </trkpt>
      <trkpt lat="42.80441" lon="0.16758">
        <ele>2719.249</ele>
        <time>2013-06-11T04:48:47Z</time>
      </trkpt>
      <trkpt lat="42.80441" lon="0.16758">
        <ele>2719.225</ele>
        <time>2013-06-11T04:48:48Z</time>
      </trkpt>
      <trkpt lat="42.80441" lon="0.16758">
        <ele>2719.293</ele>
        <time>2013-06-11T04:48:56Z</time>
      </trkpt>
      <trkpt lat="42.80441" lon="0.16758">
        <ele>2720.723</ele>
        <time>2013-06-11T04:49:16Z</time>
      </trkpt>
      <trkpt lat="42.80443" lon="0.16761">
        <ele>2719.772</ele>
        <time>2013-06-11T04:49:25Z</time>
      </trkpt>
      <trkpt lat="42.80443" lon="0.16761">
        <ele>2720.234</ele>
        <time>2013-06-11T04:49:34Z</time>
      </trkpt>
      <trkpt lat="42.80441" lon="0.16761">
        <ele>2720.255</ele>
        <time>2013-06-11T04:49:47Z</time>
      </trkpt>
      <trkpt lat="42.80441" lon="0.16761">
        <ele>2719.21</ele>
        <time>2013-06-11T04:50:04Z</time>
      </trkpt>
      <trkpt lat="42.80441" lon="0.16761">
        <ele>2719.207</ele>
        <time>2013-06-11T04:50:06Z</time>
      </trkpt>
      <trkpt lat="42.80441" lon="0.16763">
        <ele>2719.747</ele>
        <time>2013-06-11T04:50:09Z</time>
      </trkpt>
      <trkpt lat="42.80441" lon="0.16763">
        <ele>2719.779</ele>
        <time>2013-06-11T04:50:11Z</time>
      </trkpt>
      <trkpt lat="42.80441" lon="0.16763">
        <ele>2720.239</ele>
        <time>2013-06-11T04:50:13Z</time>
      </trkpt>
      <trkpt lat="42.80441" lon="0.16763">
        <ele>2720.775</ele>
        <time>2013-06-11T04:50:16Z</time>
      </trkpt>
      <trkpt lat="42.80441" lon="0.16765">
        <ele>2721.193</ele>
        <time>2013-06-11T04:50:18Z</time>
      </trkpt>
      <trkpt lat="42.80441" lon="0.16765">
        <ele>2721.193</ele>
        <time>2013-06-11T04:50:21Z</time>
      </trkpt>
      <trkpt lat="42.80441" lon="0.16765">
        <ele>2721.662</ele>
        <time>2013-06-11T04:50:23Z</time>
      </trkpt>
      <trkpt lat="42.80441" lon="0.16765">
        <ele>2721.121</ele>
        <time>2013-06-11T04:50:30Z</time>
      </trkpt>
      <trkpt lat="42.80441" lon="0.16765">
        <ele>2719.741</ele>
        <time>2013-06-11T04:50:34Z</time>
      </trkpt>
      <trkpt lat="42.80441" lon="0.16767">
        <ele>2720.705</ele>
        <time>2013-06-11T04:50:45Z</time>
      </trkpt>
      <trkpt lat="42.80439" lon="0.16765">
        <ele>2725.507</ele>
        <time>2013-06-11T04:52:21Z</time>
      </trkpt>
      <trkpt lat="42.80439" lon="0.16765">
        <ele>2726.036</ele>
        <time>2013-06-11T04:57:31Z</time>
      </trkpt>
      <trkpt lat="42.80439" lon="0.16765">
        <ele>2726.058</ele>
        <time>2013-06-11T04:57:33Z</time>
      </trkpt>
      <trkpt lat="42.80436" lon="0.16763">
        <ele>2725.548</ele>
        <time>2013-06-11T04:57:40Z</time>
      </trkpt>
      <trkpt lat="42.80436" lon="0.16763">
        <ele>2725.084</ele>
        <time>2013-06-11T04:57:45Z</time>
      </trkpt>
      <trkpt lat="42.80439" lon="0.16765">
        <ele>2721.192</ele>
        <time>2013-06-11T04:58:36Z</time>
      </trkpt>
      <trkpt lat="42.80439" lon="0.16765">
        <ele>2721.162</ele>
        <time>2013-06-11T04:58:39Z</time>
      </trkpt>
      <trkpt lat="42.80439" lon="0.16765">
        <ele>2721.691</ele>
        <time>2013-06-11T04:58:42Z</time>
      </trkpt>
      <trkpt lat="42.80439" lon="0.16765">
        <ele>2722.129</ele>
        <time>2013-06-11T04:58:45Z</time>
      </trkpt>
      <trkpt lat="42.80441" lon="0.16765">
        <ele>2722.1</ele>
        <time>2013-06-11T04:58:48Z</time>
      </trkpt>
      <trkpt lat="42.80441" lon="0.16765">
        <ele>2722.12</ele>
        <time>2013-06-11T04:58:49Z</time>
      </trkpt>
      <trkpt lat="42.80441" lon="0.16767">
        <ele>2722.607</ele>
        <time>2013-06-11T04:58:55Z</time>
      </trkpt>
      <trkpt lat="42.80441" lon="0.16767">
        <ele>2722.696</ele>
        <time>2013-06-11T04:58:56Z</time>
      </trkpt>
      <trkpt lat="42.80441" lon="0.16767">
        <ele>2723.178</ele>
        <time>2013-06-11T04:58:58Z</time>
      </trkpt>
      <trkpt lat="42.80441" lon="0.16767">
        <ele>2723.188</ele>
        <time>2013-06-11T04:59:00Z</time>
      </trkpt>
      <trkpt lat="42.80441" lon="0.16767">
        <ele>2723.184</ele>
        <time>2013-06-11T04:59:03Z</time>
      </trkpt>
      <trkpt lat="42.80441" lon="0.16769">
        <ele>2723.642</ele>
        <time>2013-06-11T04:59:06Z</time>
      </trkpt>
      <trkpt lat="42.80441" lon="0.16769">
        <ele>2724.082</ele>
        <time>2013-06-11T04:59:07Z</time>
      </trkpt>
      <trkpt lat="42.80441" lon="0.16769">
        <ele>2724.091</ele>
        <time>2013-06-11T04:59:10Z</time>
      </trkpt>
      <trkpt lat="42.80441" lon="0.16771">
        <ele>2724.067</ele>
        <time>2013-06-11T04:59:14Z</time>
      </trkpt>
      <trkpt lat="42.80441" lon="0.16771">
        <ele>2724.581</ele>
        <time>2013-06-11T04:59:15Z</time>
      </trkpt>
      <trkpt lat="42.80441" lon="0.16771">
        <ele>2724.519</ele>
        <time>2013-06-11T04:59:17Z</time>
      </trkpt>
      <trkpt lat="42.80441" lon="0.16771">
        <ele>2724.007</ele>
        <time>2013-06-11T04:59:28Z</time>
      </trkpt>
      <trkpt lat="42.80441" lon="0.16771">
        <ele>2723.68</ele>
        <time>2013-06-11T04:59:34Z</time>
      </trkpt>
      <trkpt lat="42.80441" lon="0.16771">
        <ele>2724.022</ele>
        <time>2013-06-11T04:59:36Z</time>
      </trkpt>
      <trkpt lat="42.80443" lon="0.16774">
        <ele>2723.612</ele>
        <time>2013-06-11T05:00:35Z</time>
      </trkpt>
      <trkpt lat="42.80441" lon="0.16774">
        <ele>2725.598</ele>
        <time>2013-06-11T05:01:24Z</time>
      </trkpt>
      <trkpt lat="42.80441" lon="0.16771">
        <ele>2725.026</ele>
        <time>2013-06-11T05:01:31Z</time>
      </trkpt>
      <trkpt lat="42.80441" lon="0.16771">
        <ele>2724.546</ele>
        <time>2013-06-11T05:01:33Z</time>
      </trkpt>
      <trkpt lat="42.80439" lon="0.16765">
        <ele>2721.685</ele>
        <time>2013-06-11T05:01:50Z</time>
      </trkpt>
      <trkpt lat="42.80439" lon="0.16761">
        <ele>2720.766</ele>
        <time>2013-06-11T05:01:58Z</time>
      </trkpt>
      <trkpt lat="42.80439" lon="0.16761">
        <ele>2720.729</ele>
        <time>2013-06-11T05:01:59Z</time>
      </trkpt>
      <trkpt lat="42.80439" lon="0.16761">
        <ele>2720.721</ele>
        <time>2013-06-11T05:02:04Z</time>
      </trkpt>
      <trkpt lat="42.80439" lon="0.16761">
        <ele>2721.607</ele>
        <time>2013-06-11T05:02:18Z</time>
      </trkpt>
      <trkpt lat="42.80439" lon="0.16758">
        <ele>2721.12</ele>
        <time>2013-06-11T05:02:21Z</time>
      </trkpt>
      <trkpt lat="42.80439" lon="0.16758">
        <ele>2721.122</ele>
        <time>2013-06-11T05:02:24Z</time>
      </trkpt>
      <trkpt lat="42.80436" lon="0.16754">
        <ele>2722.122</ele>
        <time>2013-06-11T05:03:31Z</time>
      </trkpt>
      <trkpt lat="42.80434" lon="0.16752">
        <ele>2720.768</ele>
        <time>2013-06-11T05:07:14Z</time>
      </trkpt>
      <trkpt lat="42.80439" lon="0.16756">
        <ele>2716.856</ele>
        <time>2013-06-11T05:15:12Z</time>
      </trkpt>
      <trkpt lat="42.80441" lon="0.16761">
        <ele>2719.266</ele>
        <time>2013-06-11T05:15:34Z</time>
      </trkpt>
      <trkpt lat="42.80441" lon="0.16758">
        <ele>2719.245</ele>
        <time>2013-06-11T05:15:37Z</time>
      </trkpt>
      <trkpt lat="42.80441" lon="0.16758">
        <ele>2720.253</ele>
        <time>2013-06-11T05:15:45Z</time>
      </trkpt>
      <trkpt lat="42.80441" lon="0.16758">
        <ele>2719.704</ele>
        <time>2013-06-11T05:15:51Z</time>
      </trkpt>
      <trkpt lat="42.80441" lon="0.16758">
        <ele>2718.714</ele>
        <time>2013-06-11T05:16:00Z</time>
      </trkpt>
      <trkpt lat="42.80443" lon="0.16758">
        <ele>2718.707</ele>
        <time>2013-06-11T05:16:05Z</time>
      </trkpt>
      <trkpt lat="42.80443" lon="0.16758">
        <ele>2717.889</ele>
        <time>2013-06-11T05:16:17Z</time>
      </trkpt>
      <trkpt lat="42.80443" lon="0.16761">
        <ele>2717.821</ele>
        <time>2013-06-11T05:16:20Z</time>
      </trkpt>
      <trkpt lat="42.80443" lon="0.16758">
        <ele>2717.891</ele>
        <time>2013-06-11T05:16:24Z</time>
      </trkpt>
      <trkpt lat="42.80443" lon="0.16758">
        <ele>2717.867</ele>
        <time>2013-06-11T05:16:27Z</time>
      </trkpt>
      <trkpt lat="42.80443" lon="0.16758">
        <ele>2717.885</ele>
        <time>2013-06-11T05:16:28Z</time>
      </trkpt>
      <trkpt lat="42.80443" lon="0.16761">
        <ele>2718.335</ele>
        <time>2013-06-11T05:16:31Z</time>
      </trkpt>
      <trkpt lat="42.80443" lon="0.16761">
        <ele>2717.884</ele>
        <time>2013-06-11T05:16:32Z</time>
      </trkpt>
      <trkpt lat="42.80441" lon="0.16761">
        <ele>2715.498</ele>
        <time>2013-06-11T05:17:10Z</time>
      </trkpt>
      <trkpt lat="42.80443" lon="0.16761">
        <ele>2714.915</ele>
        <time>2013-06-11T05:17:14Z</time>
      </trkpt>
      <trkpt lat="42.80443" lon="0.16758">
        <ele>2713.926</ele>
        <time>2013-06-11T05:17:18Z</time>
      </trkpt>
      <trkpt lat="42.80443" lon="0.16758">
        <ele>2713.507</ele>
        <time>2013-06-11T05:17:19Z</time>
      </trkpt>
      <trkpt lat="42.80447" lon="0.16756">
        <ele>2711.583</ele>
        <time>2013-06-11T05:17:28Z</time>
      </trkpt>
      <trkpt lat="42.80449" lon="0.16756">
        <ele>2711.145</ele>
        <time>2013-06-11T05:17:38Z</time>
      </trkpt>
      <trkpt lat="42.80454" lon="0.16754">
        <ele>2707.775</ele>
        <time>2013-06-11T05:17:46Z</time>
      </trkpt>
      <trkpt lat="42.80454" lon="0.16754">
        <ele>2707.711</ele>
        <time>2013-06-11T05:17:47Z</time>
      </trkpt>
      <trkpt lat="42.80454" lon="0.16754">
        <ele>2706.719</ele>
        <time>2013-06-11T05:17:50Z</time>
      </trkpt>
      <trkpt lat="42.80456" lon="0.16752">
        <ele>2705.389</ele>
        <time>2013-06-11T05:17:53Z</time>
      </trkpt>
      <trkpt lat="42.80456" lon="0.16752">
        <ele>2704.378</ele>
        <time>2013-06-11T05:18:22Z</time>
      </trkpt>
      <trkpt lat="42.80456" lon="0.1675">
        <ele>2702.481</ele>
        <time>2013-06-11T05:18:46Z</time>
      </trkpt>
      <trkpt lat="42.80458" lon="0.16748">
        <ele>2701.461</ele>
        <time>2013-06-11T05:18:50Z</time>
      </trkpt>
      <trkpt lat="42.80465" lon="0.16746">
        <ele>2697.117</ele>
        <time>2013-06-11T05:18:58Z</time>
      </trkpt>
      <trkpt lat="42.80465" lon="0.16746">
        <ele>2696.607</ele>
        <time>2013-06-11T05:19:00Z</time>
      </trkpt>
      <trkpt lat="42.80467" lon="0.16746">
        <ele>2696.282</ele>
        <time>2013-06-11T05:19:01Z</time>
      </trkpt>
      <trkpt lat="42.80471" lon="0.1675">
        <ele>2691.854</ele>
        <time>2013-06-11T05:19:09Z</time>
      </trkpt>
      <trkpt lat="42.80471" lon="0.16752">
        <ele>2691.364</ele>
        <time>2013-06-11T05:19:10Z</time>
      </trkpt>
      <trkpt lat="42.80473" lon="0.16752">
        <ele>2690.45</ele>
        <time>2013-06-11T05:19:13Z</time>
      </trkpt>
      <trkpt lat="42.80475" lon="0.1675">
        <ele>2688.568</ele>
        <time>2013-06-11T05:19:16Z</time>
      </trkpt>
      <trkpt lat="42.80488" lon="0.16739">
        <ele>2684.198</ele>
        <time>2013-06-11T05:19:23Z</time>
      </trkpt>
      <trkpt lat="42.80497" lon="0.16733">
        <ele>2679.357</ele>
        <time>2013-06-11T05:19:29Z</time>
      </trkpt>
      <trkpt lat="42.80503" lon="0.16726">
        <ele>2676.027</ele>
        <time>2013-06-11T05:19:34Z</time>
      </trkpt>
      <trkpt lat="42.80497" lon="0.16728">
        <ele>2670.268</ele>
        <time>2013-06-11T05:20:11Z</time>
      </trkpt>
      <trkpt lat="42.8051" lon="0.16713">
        <ele>2660.114</ele>
        <time>2013-06-11T05:20:20Z</time>
      </trkpt>
      <trkpt lat="42.8052" lon="0.16711">
        <ele>2650.007</ele>
        <time>2013-06-11T05:20:26Z</time>
      </trkpt>
      <trkpt lat="42.80531" lon="0.16701">
        <ele>2640.456</ele>
        <time>2013-06-11T05:20:32Z</time>
      </trkpt>
      <trkpt lat="42.80544" lon="0.16707">
        <ele>2636.678</ele>
        <time>2013-06-11T05:20:38Z</time>
      </trkpt>
      <trkpt lat="42.80548" lon="0.16703">
        <ele>2635.198</ele>
        <time>2013-06-11T05:20:42Z</time>
      </trkpt>
      <trkpt lat="42.80546" lon="0.16707">
        <ele>2623.694</ele>
        <time>2013-06-11T05:22:14Z</time>
      </trkpt>
      <trkpt lat="42.80546" lon="0.16709">
        <ele>2625.072</ele>
        <time>2013-06-11T05:23:35Z</time>
      </trkpt>
      <trkpt lat="42.80544" lon="0.16703">
        <ele>2624.132</ele>
        <time>2013-06-11T05:23:40Z</time>
      </trkpt>
      <trkpt lat="42.80544" lon="0.16705">
        <ele>2623.681</ele>
        <time>2013-06-11T05:23:45Z</time>
      </trkpt>
      <trkpt lat="42.80555" lon="0.16705">
        <ele>2619.286</ele>
        <time>2013-06-11T05:23:51Z</time>
      </trkpt>
      <trkpt lat="42.80557" lon="0.16709">
        <ele>2617.36</ele>
        <time>2013-06-11T05:23:53Z</time>
      </trkpt>
      <trkpt lat="42.8057" lon="0.1672">
        <ele>2611.626</ele>
        <time>2013-06-11T05:24:00Z</time>
      </trkpt>
      <trkpt lat="42.80582" lon="0.16724">
        <ele>2606.807</ele>
        <time>2013-06-11T05:24:05Z</time>
      </trkpt>
      <trkpt lat="42.80593" lon="0.16731">
        <ele>2603.912</ele>
        <time>2013-06-11T05:24:12Z</time>
      </trkpt>
      <trkpt lat="42.80597" lon="0.16733">
        <ele>2601.974</ele>
        <time>2013-06-11T05:24:15Z</time>
      </trkpt>
      <trkpt lat="42.80602" lon="0.16733">
        <ele>2600.084</ele>
        <time>2013-06-11T05:24:17Z</time>
      </trkpt>
      <trkpt lat="42.80606" lon="0.16718">
        <ele>2593.81</ele>
        <time>2013-06-11T05:24:22Z</time>
      </trkpt>
      <trkpt lat="42.80613" lon="0.16698">
        <ele>2585.638</ele>
        <time>2013-06-11T05:24:29Z</time>
      </trkpt>
      <trkpt lat="42.80623" lon="0.16688">
        <ele>2578.488</ele>
        <time>2013-06-11T05:24:35Z</time>
      </trkpt>
      <trkpt lat="42.80632" lon="0.16673">
        <ele>2572.177</ele>
        <time>2013-06-11T05:24:41Z</time>
      </trkpt>
      <trkpt lat="42.80634" lon="0.16673">
        <ele>2570.235</ele>
        <time>2013-06-11T05:24:44Z</time>
      </trkpt>
      <trkpt lat="42.80634" lon="0.16673">
        <ele>2568.386</ele>
        <time>2013-06-11T05:25:00Z</time>
      </trkpt>
      <trkpt lat="42.80636" lon="0.16675">
        <ele>2563.014</ele>
        <time>2013-06-11T05:25:57Z</time>
      </trkpt>
      <trkpt lat="42.80638" lon="0.16673">
        <ele>2562.107</ele>
        <time>2013-06-11T05:26:33Z</time>
      </trkpt>
      <trkpt lat="42.80642" lon="0.16675">
        <ele>2561.137</ele>
        <time>2013-06-11T05:26:36Z</time>
      </trkpt>
      <trkpt lat="42.80651" lon="0.16675">
        <ele>2558.239</ele>
        <time>2013-06-11T05:26:39Z</time>
      </trkpt>
      <trkpt lat="42.80653" lon="0.16662">
        <ele>2554.829</ele>
        <time>2013-06-11T05:26:42Z</time>
      </trkpt>
      <trkpt lat="42.80664" lon="0.16636">
        <ele>2545.725</ele>
        <time>2013-06-11T05:26:48Z</time>
      </trkpt>
      <trkpt lat="42.80677" lon="0.16621">
        <ele>2539.513</ele>
        <time>2013-06-11T05:26:52Z</time>
      </trkpt>
      <trkpt lat="42.80679" lon="0.16615">
        <ele>2538.023</ele>
        <time>2013-06-11T05:26:53Z</time>
      </trkpt>
      <trkpt lat="42.80688" lon="0.16591">
        <ele>2532.722</ele>
        <time>2013-06-11T05:26:59Z</time>
      </trkpt>
      <trkpt lat="42.80688" lon="0.16591">
        <ele>2532.256</ele>
        <time>2013-06-11T05:27:02Z</time>
      </trkpt>
      <trkpt lat="42.80694" lon="0.16595">
        <ele>2535.659</ele>
        <time>2013-06-11T05:28:19Z</time>
      </trkpt>
      <trkpt lat="42.80694" lon="0.16595">
        <ele>2537.114</ele>
        <time>2013-06-11T05:29:11Z</time>
      </trkpt>
      <trkpt lat="42.80694" lon="0.16595">
        <ele>2535.607</ele>
        <time>2013-06-11T05:29:16Z</time>
      </trkpt>
      <trkpt lat="42.80696" lon="0.16585">
        <ele>2532.799</ele>
        <time>2013-06-11T05:29:19Z</time>
      </trkpt>
      <trkpt lat="42.80705" lon="0.16572">
        <ele>2524.191</ele>
        <time>2013-06-11T05:29:24Z</time>
      </trkpt>
      <trkpt lat="42.80698" lon="0.16559">
        <ele>2521.751</ele>
        <time>2013-06-11T05:29:30Z</time>
      </trkpt>
      <trkpt lat="42.80698" lon="0.16561">
        <ele>2524.197</ele>
        <time>2013-06-11T05:29:39Z</time>
      </trkpt>
      <trkpt lat="42.80696" lon="0.16559">
        <ele>2523.625</ele>
        <time>2013-06-11T05:29:43Z</time>
      </trkpt>
      <trkpt lat="42.80696" lon="0.16559">
        <ele>2523.135</ele>
        <time>2013-06-11T05:29:44Z</time>
      </trkpt>
      <trkpt lat="42.80692" lon="0.16552">
        <ele>2521.714</ele>
        <time>2013-06-11T05:29:47Z</time>
      </trkpt>
      <trkpt lat="42.80688" lon="0.16546">
        <ele>2519.871</ele>
        <time>2013-06-11T05:29:52Z</time>
      </trkpt>
      <trkpt lat="42.80688" lon="0.16546">
        <ele>2519.841</ele>
        <time>2013-06-11T05:29:53Z</time>
      </trkpt>
      <trkpt lat="42.80677" lon="0.16527">
        <ele>2516.415</ele>
        <time>2013-06-11T05:30:03Z</time>
      </trkpt>
      <trkpt lat="42.80673" lon="0.1652">
        <ele>2514.507</ele>
        <time>2013-06-11T05:30:07Z</time>
      </trkpt>
      <trkpt lat="42.80671" lon="0.16514">
        <ele>2513.011</ele>
        <time>2013-06-11T05:30:11Z</time>
      </trkpt>
      <trkpt lat="42.80666" lon="0.16512">
        <ele>2511.693</ele>
        <time>2013-06-11T05:30:31Z</time>
      </trkpt>
      <trkpt lat="42.80666" lon="0.1651">
        <ele>2512.593</ele>
        <time>2013-06-11T05:30:41Z</time>
      </trkpt>
      <trkpt lat="42.80675" lon="0.16497">
        <ele>2504.969</ele>
        <time>2013-06-11T05:30:47Z</time>
      </trkpt>
      <trkpt lat="42.80677" lon="0.16495">
        <ele>2503.497</ele>
        <time>2013-06-11T05:30:48Z</time>
      </trkpt>
      <trkpt lat="42.80675" lon="0.16482">
        <ele>2498.637</ele>
        <time>2013-06-11T05:30:51Z</time>
      </trkpt>
      <trkpt lat="42.80675" lon="0.16477">
        <ele>2496.216</ele>
        <time>2013-06-11T05:30:52Z</time>
      </trkpt>
      <trkpt lat="42.80683" lon="0.16477">
        <ele>2492.479</ele>
        <time>2013-06-11T05:30:55Z</time>
      </trkpt>
      <trkpt lat="42.80688" lon="0.16475">
        <ele>2491.405</ele>
        <time>2013-06-11T05:30:56Z</time>
      </trkpt>
      <trkpt lat="42.80685" lon="0.16467">
        <ele>2489.025</ele>
        <time>2013-06-11T05:31:01Z</time>
      </trkpt>
      <trkpt lat="42.80685" lon="0.16467">
        <ele>2487.507</ele>
        <time>2013-06-11T05:31:03Z</time>
      </trkpt>
      <trkpt lat="42.80685" lon="0.16465">
        <ele>2487.121</ele>
        <time>2013-06-11T05:33:16Z</time>
      </trkpt>
      <trkpt lat="42.80683" lon="0.16465">
        <ele>2481.883</ele>
        <time>2013-06-11T05:33:32Z</time>
      </trkpt>
      <trkpt lat="42.80683" lon="0.1646">
        <ele>2482.343</ele>
        <time>2013-06-11T05:33:40Z</time>
      </trkpt>
      <trkpt lat="42.80692" lon="0.1645">
        <ele>2476.049</ele>
        <time>2013-06-11T05:33:46Z</time>
      </trkpt>
      <trkpt lat="42.80698" lon="0.16437">
        <ele>2468.387</ele>
        <time>2013-06-11T05:33:52Z</time>
      </trkpt>
      <trkpt lat="42.80698" lon="0.16432">
        <ele>2467.897</ele>
        <time>2013-06-11T05:33:53Z</time>
      </trkpt>
      <trkpt lat="42.80698" lon="0.16424">
        <ele>2467.886</ele>
        <time>2013-06-11T05:33:56Z</time>
      </trkpt>
      <trkpt lat="42.807" lon="0.16419">
        <ele>2466.451</ele>
        <time>2013-06-11T05:34:02Z</time>
      </trkpt>
      <trkpt lat="42.807" lon="0.16419">
        <ele>2466.901</ele>
        <time>2013-06-11T05:34:09Z</time>
      </trkpt>
      <trkpt lat="42.80705" lon="0.16411">
        <ele>2465.911</ele>
        <time>2013-06-11T05:34:14Z</time>
      </trkpt>
      <trkpt lat="42.80707" lon="0.16409">
        <ele>2465.407</ele>
        <time>2013-06-11T05:34:15Z</time>
      </trkpt>
      <trkpt lat="42.80724" lon="0.16398">
        <ele>2456.329</ele>
        <time>2013-06-11T05:34:21Z</time>
      </trkpt>
      <trkpt lat="42.80741" lon="0.16377">
        <ele>2448.181</ele>
        <time>2013-06-11T05:34:26Z</time>
      </trkpt>
      <trkpt lat="42.80748" lon="0.16342">
        <ele>2445.321</ele>
        <time>2013-06-11T05:34:32Z</time>
      </trkpt>
      <trkpt lat="42.8075" lon="0.16338">
        <ele>2444.327</ele>
        <time>2013-06-11T05:34:33Z</time>
      </trkpt>
      <trkpt lat="42.80761" lon="0.1628">
        <ele>2438.585</ele>
        <time>2013-06-11T05:34:41Z</time>
      </trkpt>
      <trkpt lat="42.80761" lon="0.16254">
        <ele>2437.145</ele>
        <time>2013-06-11T05:34:44Z</time>
      </trkpt>
      <trkpt lat="42.80769" lon="0.16222">
        <ele>2435.294</ele>
        <time>2013-06-11T05:34:51Z</time>
      </trkpt>
      <trkpt lat="42.80769" lon="0.16222">
        <ele>2435.247</ele>
        <time>2013-06-11T05:34:52Z</time>
      </trkpt>
      <trkpt lat="42.80769" lon="0.16222">
        <ele>2435.229</ele>
        <time>2013-06-11T05:34:53Z</time>
      </trkpt>
      <trkpt lat="42.80769" lon="0.16222">
        <ele>2433.221</ele>
        <time>2013-06-11T05:35:14Z</time>
      </trkpt>
      <trkpt lat="42.80788" lon="0.16207">
        <ele>2422.707</ele>
        <time>2013-06-11T05:35:22Z</time>
      </trkpt>
      <trkpt lat="42.80801" lon="0.16207">
        <ele>2412.648</ele>
        <time>2013-06-11T05:35:27Z</time>
      </trkpt>
      <trkpt lat="42.80819" lon="0.16198">
        <ele>2401.05</ele>
        <time>2013-06-11T05:35:32Z</time>
      </trkpt>
      <trkpt lat="42.80836" lon="0.16179">
        <ele>2393.38</ele>
        <time>2013-06-11T05:35:38Z</time>
      </trkpt>
      <trkpt lat="42.80838" lon="0.16175">
        <ele>2392.436</ele>
        <time>2013-06-11T05:35:39Z</time>
      </trkpt>
      <trkpt lat="42.8084" lon="0.16166">
        <ele>2390.934</ele>
        <time>2013-06-11T05:35:41Z</time>
      </trkpt>
      <trkpt lat="42.8084" lon="0.16141">
        <ele>2389.594</ele>
        <time>2013-06-11T05:35:47Z</time>
      </trkpt>
      <trkpt lat="42.8084" lon="0.16138">
        <ele>2390.033</ele>
        <time>2013-06-11T05:35:53Z</time>
      </trkpt>
      <trkpt lat="42.8084" lon="0.16138">
        <ele>2391.938</ele>
        <time>2013-06-11T05:36:24Z</time>
      </trkpt>
      <trkpt lat="42.8084" lon="0.16138">
        <ele>2392.47</ele>
        <time>2013-06-11T05:36:31Z</time>
      </trkpt>
      <trkpt lat="42.80844" lon="0.16132">
        <ele>2390.917</ele>
        <time>2013-06-11T05:36:35Z</time>
      </trkpt>
      <trkpt lat="42.80846" lon="0.16113">
        <ele>2386.607</ele>
        <time>2013-06-11T05:36:40Z</time>
      </trkpt>
      <trkpt lat="42.80846" lon="0.16089">
        <ele>2383.757</ele>
        <time>2013-06-11T05:36:46Z</time>
      </trkpt>
      <trkpt lat="42.80844" lon="0.16085">
        <ele>2382.889</ele>
        <time>2013-06-11T05:36:48Z</time>
      </trkpt>
      <trkpt lat="42.80844" lon="0.16085">
        <ele>2382.399</ele>
        <time>2013-06-11T05:36:55Z</time>
      </trkpt>
      <trkpt lat="42.80844" lon="0.1608">
        <ele>2381.325</ele>
        <time>2013-06-11T05:36:58Z</time>
      </trkpt>
      <trkpt lat="42.80842" lon="0.16072">
        <ele>2380.483</ele>
        <time>2013-06-11T05:37:01Z</time>
      </trkpt>
      <trkpt lat="42.8084" lon="0.16065">
        <ele>2379.963</ele>
        <time>2013-06-11T05:37:03Z</time>
      </trkpt>
      <trkpt lat="42.80838" lon="0.16057">
        <ele>2379.492</ele>
        <time>2013-06-11T05:37:08Z</time>
      </trkpt>
      <trkpt lat="42.8084" lon="0.16057">
        <ele>2378.987</ele>
        <time>2013-06-11T05:37:39Z</time>
      </trkpt>
      <trkpt lat="42.80838" lon="0.16053">
        <ele>2379.442</ele>
        <time>2013-06-11T05:37:43Z</time>
      </trkpt>
      <trkpt lat="42.80831" lon="0.16046">
        <ele>2378.926</ele>
        <time>2013-06-11T05:37:49Z</time>
      </trkpt>
      <trkpt lat="42.80831" lon="0.16046">
        <ele>2378.907</ele>
        <time>2013-06-11T05:37:50Z</time>
      </trkpt>
      <trkpt lat="42.80823" lon="0.1604">
        <ele>2376.572</ele>
        <time>2013-06-11T05:37:53Z</time>
      </trkpt>
      <trkpt lat="42.8081" lon="0.16031">
        <ele>2373.664</ele>
        <time>2013-06-11T05:37:56Z</time>
      </trkpt>
      <trkpt lat="42.80801" lon="0.16025">
        <ele>2372.714</ele>
        <time>2013-06-11T05:37:58Z</time>
      </trkpt>
      <trkpt lat="42.80791" lon="0.16003">
        <ele>2372.25</ele>
        <time>2013-06-11T05:38:05Z</time>
      </trkpt>
      <trkpt lat="42.80786" lon="0.15992">
        <ele>2372.258</ele>
        <time>2013-06-11T05:38:10Z</time>
      </trkpt>
      <trkpt lat="42.80784" lon="0.15988">
        <ele>2372.228</ele>
        <time>2013-06-11T05:38:12Z</time>
      </trkpt>
      <trkpt lat="42.80778" lon="0.15975">
        <ele>2371.217</ele>
        <time>2013-06-11T05:38:16Z</time>
      </trkpt>
      <trkpt lat="42.80776" lon="0.15965">
        <ele>2370.771</ele>
        <time>2013-06-11T05:38:19Z</time>
      </trkpt>
      <trkpt lat="42.80774" lon="0.15962">
        <ele>2370.741</ele>
        <time>2013-06-11T05:38:21Z</time>
      </trkpt>
      <trkpt lat="42.80774" lon="0.1596">
        <ele>2370.315</ele>
        <time>2013-06-11T05:38:24Z</time>
      </trkpt>
      <trkpt lat="42.80774" lon="0.1596">
        <ele>2370.307</ele>
        <time>2013-06-11T05:38:26Z</time>
      </trkpt>
      <trkpt lat="42.80774" lon="0.1596">
        <ele>2370.781</ele>
        <time>2013-06-11T05:38:40Z</time>
      </trkpt>
      <trkpt lat="42.80774" lon="0.15958">
        <ele>2370.783</ele>
        <time>2013-06-11T05:38:57Z</time>
      </trkpt>
      <trkpt lat="42.80774" lon="0.1596">
        <ele>2370.353</ele>
        <time>2013-06-11T05:39:11Z</time>
      </trkpt>
      <trkpt lat="42.80774" lon="0.1596">
        <ele>2369.869</ele>
        <time>2013-06-11T05:39:13Z</time>
      </trkpt>
      <trkpt lat="42.80774" lon="0.15958">
        <ele>2371.767</ele>
        <time>2013-06-11T05:39:36Z</time>
      </trkpt>
      <trkpt lat="42.80774" lon="0.1596">
        <ele>2374.137</ele>
        <time>2013-06-11T05:43:23Z</time>
      </trkpt>
      <trkpt lat="42.80782" lon="0.15967">
        <ele>2468.856</ele>
        <time>2013-06-11T05:46:54Z</time>
      </trkpt>
      <trkpt lat="42.80771" lon="0.15954">
        <ele>2368.896</ele>
        <time>2013-06-11T05:47:11Z</time>
      </trkpt>
      <trkpt lat="42.80769" lon="0.15958">
        <ele>2369.831</ele>
        <time>2013-06-11T05:49:29Z</time>
      </trkpt>
      <trkpt lat="42.80769" lon="0.15958">
        <ele>2372.224</ele>
        <time>2013-06-11T05:49:54Z</time>
      </trkpt>
      <trkpt lat="42.80774" lon="0.15958">
        <ele>2370.707</ele>
        <time>2013-06-11T05:50:31Z</time>
      </trkpt>
      <trkpt lat="42.80774" lon="0.1596">
        <ele>2366.423</ele>
        <time>2013-06-11T05:51:29Z</time>
      </trkpt>
      <trkpt lat="42.80776" lon="0.1596">
        <ele>2366.955</ele>
        <time>2013-06-11T05:51:37Z</time>
      </trkpt>
      <trkpt lat="42.80771" lon="0.15965">
        <ele>2373.245</ele>
        <time>2013-06-11T05:51:54Z</time>
      </trkpt>
      <trkpt lat="42.80774" lon="0.1596">
        <ele>2374.651</ele>
        <time>2013-06-11T05:52:35Z</time>
      </trkpt>
      <trkpt lat="42.80774" lon="0.1596">
        <ele>2375.649</ele>
        <time>2013-06-11T05:52:45Z</time>
      </trkpt>
      <trkpt lat="42.80774" lon="0.15958">
        <ele>2376.539</ele>
        <time>2013-06-11T05:52:55Z</time>
      </trkpt>
      <trkpt lat="42.80771" lon="0.15958">
        <ele>2375.168</ele>
        <time>2013-06-11T05:53:04Z</time>
      </trkpt>
      <trkpt lat="42.80769" lon="0.1595">
        <ele>2374.645</ele>
        <time>2013-06-11T05:53:13Z</time>
      </trkpt>
      <trkpt lat="42.80767" lon="0.1595">
        <ele>2374.647</ele>
        <time>2013-06-11T05:53:14Z</time>
      </trkpt>
      <trkpt lat="42.80767" lon="0.15945">
        <ele>2374.611</ele>
        <time>2013-06-11T05:53:17Z</time>
      </trkpt>
      <trkpt lat="42.80765" lon="0.15943">
        <ele>2375.107</ele>
        <time>2013-06-11T05:53:19Z</time>
      </trkpt>
      <trkpt lat="42.80761" lon="0.15935">
        <ele>2374.688</ele>
        <time>2013-06-11T05:53:27Z</time>
      </trkpt>
      <trkpt lat="42.80761" lon="0.15935">
        <ele>2374.66</ele>
        <time>2013-06-11T05:53:28Z</time>
      </trkpt>
      <trkpt lat="42.80761" lon="0.1593">
        <ele>2375.15</ele>
        <time>2013-06-11T05:53:32Z</time>
      </trkpt>
      <trkpt lat="42.80758" lon="0.15932">
        <ele>2375.656</ele>
        <time>2013-06-11T05:53:36Z</time>
      </trkpt>
      <trkpt lat="42.80756" lon="0.15922">
        <ele>2375.174</ele>
        <time>2013-06-11T05:53:49Z</time>
      </trkpt>
      <trkpt lat="42.80758" lon="0.15919">
        <ele>2374.134</ele>
        <time>2013-06-11T05:53:51Z</time>
      </trkpt>
      <trkpt lat="42.80761" lon="0.15917">
        <ele>2373.643</ele>
        <time>2013-06-11T05:53:52Z</time>
      </trkpt>
      <trkpt lat="42.80767" lon="0.15907">
        <ele>2370.759</ele>
        <time>2013-06-11T05:53:56Z</time>
      </trkpt>
      <trkpt lat="42.80765" lon="0.15898">
        <ele>2372.703</ele>
        <time>2013-06-11T05:54:06Z</time>
      </trkpt>
      <trkpt lat="42.80763" lon="0.15896">
        <ele>2373.623</ele>
        <time>2013-06-11T05:54:09Z</time>
      </trkpt>
      <trkpt lat="42.80763" lon="0.15894">
        <ele>2374.107</ele>
        <time>2013-06-11T05:54:11Z</time>
      </trkpt>
      <trkpt lat="42.80763" lon="0.15894">
        <ele>2374.699</ele>
        <time>2013-06-11T05:54:14Z</time>
      </trkpt>
      <trkpt lat="42.80761" lon="0.15892">
        <ele>2376.091</ele>
        <time>2013-06-11T05:54:20Z</time>
      </trkpt>
      <trkpt lat="42.80761" lon="0.15889">
        <ele>2376.051</ele>
        <time>2013-06-11T05:54:23Z</time>
      </trkpt>
      <trkpt lat="42.80761" lon="0.15892">
        <ele>2375.137</ele>
        <time>2013-06-11T05:54:29Z</time>
      </trkpt>
      <trkpt lat="42.80758" lon="0.15892">
        <ele>2374.665</ele>
        <time>2013-06-11T05:54:33Z</time>
      </trkpt>
      <trkpt lat="42.80754" lon="0.15889">
        <ele>2377.055</ele>
        <time>2013-06-11T05:54:40Z</time>
      </trkpt>
      <trkpt lat="42.80754" lon="0.15887">
        <ele>2378.094</ele>
        <time>2013-06-11T05:54:42Z</time>
      </trkpt>
      <trkpt lat="42.8075" lon="0.15879">
        <ele>2381.322</ele>
        <time>2013-06-11T05:54:58Z</time>
      </trkpt>
      <trkpt lat="42.80748" lon="0.15877">
        <ele>2381.862</ele>
        <time>2013-06-11T05:54:59Z</time>
      </trkpt>
      <trkpt lat="42.80748" lon="0.15877">
        <ele>2381.808</ele>
        <time>2013-06-11T05:55:00Z</time>
      </trkpt>
      <trkpt lat="42.80745" lon="0.15874">
        <ele>2382.807</ele>
        <time>2013-06-11T05:55:04Z</time>
      </trkpt>
      <trkpt lat="42.80745" lon="0.15874">
        <ele>2382.836</ele>
        <time>2013-06-11T05:55:05Z</time>
      </trkpt>
      <trkpt lat="42.80741" lon="0.15868">
        <ele>2384.248</ele>
        <time>2013-06-11T05:55:20Z</time>
      </trkpt>
      <trkpt lat="42.80741" lon="0.15868">
        <ele>2384.288</ele>
        <time>2013-06-11T05:55:21Z</time>
      </trkpt>
      <trkpt lat="42.80741" lon="0.15866">
        <ele>2384.774</ele>
        <time>2013-06-11T05:55:22Z</time>
      </trkpt>
      <trkpt lat="42.80735" lon="0.15862">
        <ele>2386.152</ele>
        <time>2013-06-11T05:55:37Z</time>
      </trkpt>
      <trkpt lat="42.80733" lon="0.15857">
        <ele>2388.542</ele>
        <time>2013-06-11T05:55:44Z</time>
      </trkpt>
      <trkpt lat="42.80733" lon="0.15857">
        <ele>2389.571</ele>
        <time>2013-06-11T05:55:45Z</time>
      </trkpt>
      <trkpt lat="42.8073" lon="0.15855">
        <ele>2390.962</ele>
        <time>2013-06-11T05:55:53Z</time>
      </trkpt>
      <trkpt lat="42.80728" lon="0.15855">
        <ele>2390.083</ele>
        <time>2013-06-11T05:55:55Z</time>
      </trkpt>
      <trkpt lat="42.80728" lon="0.15853">
        <ele>2390.911</ele>
        <time>2013-06-11T05:55:58Z</time>
      </trkpt>
      <trkpt lat="42.80728" lon="0.15853">
        <ele>2391.407</ele>
        <time>2013-06-11T05:56:01Z</time>
      </trkpt>
      <trkpt lat="42.80726" lon="0.15853">
        <ele>2391.92</ele>
        <time>2013-06-11T05:56:16Z</time>
      </trkpt>
      <trkpt lat="42.80728" lon="0.15849">
        <ele>2368.362</ele>
        <time>2013-06-11T05:56:38Z</time>
      </trkpt>
      <trkpt lat="42.80726" lon="0.15855">
        <ele>2386.612</ele>
        <time>2013-06-11T05:59:32Z</time>
      </trkpt>
      <trkpt lat="42.80726" lon="0.15853">
        <ele>2387.658</ele>
        <time>2013-06-11T05:59:35Z</time>
      </trkpt>
      <trkpt lat="42.80726" lon="0.15853">
        <ele>2383.226</ele>
        <time>2013-06-11T06:00:27Z</time>
      </trkpt>
      <trkpt lat="42.80726" lon="0.15855">
        <ele>2385.216</ele>
        <time>2013-06-11T06:00:37Z</time>
      </trkpt>
      <trkpt lat="42.80726" lon="0.15855">
        <ele>2384.745</ele>
        <time>2013-06-11T06:00:49Z</time>
      </trkpt>
      <trkpt lat="42.80726" lon="0.15853">
        <ele>2387.619</ele>
        <time>2013-06-11T06:00:54Z</time>
      </trkpt>
      <trkpt lat="42.80726" lon="0.15853">
        <ele>2389.009</ele>
        <time>2013-06-11T06:01:01Z</time>
      </trkpt>
      <trkpt lat="42.80726" lon="0.15851">
        <ele>2387.619</ele>
        <time>2013-06-11T06:01:12Z</time>
      </trkpt>
      <trkpt lat="42.80722" lon="0.15849">
        <ele>2390.007</ele>
        <time>2013-06-11T06:01:20Z</time>
      </trkpt>
      <trkpt lat="42.80722" lon="0.15849">
        <ele>2390.535</ele>
        <time>2013-06-11T06:01:23Z</time>
      </trkpt>
      <trkpt lat="42.80718" lon="0.15844">
        <ele>2391.937</ele>
        <time>2013-06-11T06:01:36Z</time>
      </trkpt>
      <trkpt lat="42.80718" lon="0.15844">
        <ele>2391.947</ele>
        <time>2013-06-11T06:01:37Z</time>
      </trkpt>
      <trkpt lat="42.80716" lon="0.15842">
        <ele>2394.853</ele>
        <time>2013-06-11T06:01:45Z</time>
      </trkpt>
      <trkpt lat="42.80716" lon="0.15842">
        <ele>2394.881</ele>
        <time>2013-06-11T06:01:46Z</time>
      </trkpt>
      <trkpt lat="42.80713" lon="0.1584">
        <ele>2396.761</ele>
        <time>2013-06-11T06:01:54Z</time>
      </trkpt>
      <trkpt lat="42.80711" lon="0.1584">
        <ele>2396.71</ele>
        <time>2013-06-11T06:01:55Z</time>
      </trkpt>
      <trkpt lat="42.80709" lon="0.15834">
        <ele>2401.045</ele>
        <time>2013-06-11T06:02:09Z</time>
      </trkpt>
      <trkpt lat="42.80707" lon="0.15834">
        <ele>2401.047</ele>
        <time>2013-06-11T06:02:11Z</time>
      </trkpt>
      <trkpt lat="42.80707" lon="0.15834">
        <ele>2401.011</ele>
        <time>2013-06-11T06:02:19Z</time>
      </trkpt>
      <trkpt lat="42.80705" lon="0.15829">
        <ele>2402.007</ele>
        <time>2013-06-11T06:02:29Z</time>
      </trkpt>
      <trkpt lat="42.80705" lon="0.15829">
        <ele>2402.018</ele>
        <time>2013-06-11T06:02:30Z</time>
      </trkpt>
      <trkpt lat="42.80705" lon="0.15827">
        <ele>2402.01</ele>
        <time>2013-06-11T06:02:35Z</time>
      </trkpt>
      <trkpt lat="42.80703" lon="0.15825">
        <ele>2403.42</ele>
        <time>2013-06-11T06:02:41Z</time>
      </trkpt>
      <trkpt lat="42.80703" lon="0.15825">
        <ele>2403.446</ele>
        <time>2013-06-11T06:02:42Z</time>
      </trkpt>
      <trkpt lat="42.80703" lon="0.15823">
        <ele>2403.984</ele>
        <time>2013-06-11T06:02:45Z</time>
      </trkpt>
      <trkpt lat="42.80703" lon="0.15823">
        <ele>2405.434</ele>
        <time>2013-06-11T06:02:47Z</time>
      </trkpt>
      <trkpt lat="42.807" lon="0.15819">
        <ele>2406.393</ele>
        <time>2013-06-11T06:02:55Z</time>
      </trkpt>
      <trkpt lat="42.807" lon="0.15819">
        <ele>2406.813</ele>
        <time>2013-06-11T06:02:57Z</time>
      </trkpt>
      <trkpt lat="42.80698" lon="0.15817">
        <ele>2407.843</ele>
        <time>2013-06-11T06:03:02Z</time>
      </trkpt>
      <trkpt lat="42.80698" lon="0.15817">
        <ele>2407.307</ele>
        <time>2013-06-11T06:03:03Z</time>
      </trkpt>
      <trkpt lat="42.80698" lon="0.15812">
        <ele>2408.707</ele>
        <time>2013-06-11T06:03:07Z</time>
      </trkpt>
      <trkpt lat="42.80696" lon="0.15812">
        <ele>2409.295</ele>
        <time>2013-06-11T06:03:08Z</time>
      </trkpt>
      <trkpt lat="42.80696" lon="0.15812">
        <ele>2409.277</ele>
        <time>2013-06-11T06:03:11Z</time>
      </trkpt>
      <trkpt lat="42.80694" lon="0.1581">
        <ele>2412.197</ele>
        <time>2013-06-11T06:03:17Z</time>
      </trkpt>
      <trkpt lat="42.80692" lon="0.1581">
        <ele>2412.143</ele>
        <time>2013-06-11T06:03:19Z</time>
      </trkpt>
      <trkpt lat="42.80692" lon="0.15808">
        <ele>2410.691</ele>
        <time>2013-06-11T06:03:31Z</time>
      </trkpt>
      <trkpt lat="42.80694" lon="0.15808">
        <ele>2404.411</ele>
        <time>2013-06-11T06:03:41Z</time>
      </trkpt>
      <trkpt lat="42.80694" lon="0.15808">
        <ele>2406.39</ele>
        <time>2013-06-11T06:03:45Z</time>
      </trkpt>
      <trkpt lat="42.80694" lon="0.15808">
        <ele>2404.483</ele>
        <time>2013-06-11T06:03:48Z</time>
      </trkpt>
      <trkpt lat="42.80694" lon="0.1581">
        <ele>2404.925</ele>
        <time>2013-06-11T06:03:50Z</time>
      </trkpt>
      <trkpt lat="42.80696" lon="0.1581">
        <ele>2405.417</ele>
        <time>2013-06-11T06:03:54Z</time>
      </trkpt>
      <trkpt lat="42.80696" lon="0.1581">
        <ele>2405.807</ele>
        <time>2013-06-11T06:03:57Z</time>
      </trkpt>
      <trkpt lat="42.80696" lon="0.1581">
        <ele>2409.722</ele>
        <time>2013-06-11T06:04:14Z</time>
      </trkpt>
      <trkpt lat="42.80696" lon="0.1581">
        <ele>2411.194</ele>
        <time>2013-06-11T06:04:17Z</time>
      </trkpt>
      <trkpt lat="42.80696" lon="0.1581">
        <ele>2411.624</ele>
        <time>2013-06-11T06:04:19Z</time>
      </trkpt>
      <trkpt lat="42.80694" lon="0.15812">
        <ele>2403.06</ele>
        <time>2013-06-11T06:04:38Z</time>
      </trkpt>
      <trkpt lat="42.80694" lon="0.15812">
        <ele>2404.918</ele>
        <time>2013-06-11T06:04:54Z</time>
      </trkpt>
      <trkpt lat="42.80694" lon="0.1581">
        <ele>2404.468</ele>
        <time>2013-06-11T06:04:56Z</time>
      </trkpt>
      <trkpt lat="42.8069" lon="0.15806">
        <ele>2404.467</ele>
        <time>2013-06-11T06:05:08Z</time>
      </trkpt>
      <trkpt lat="42.8069" lon="0.15806">
        <ele>2403.944</ele>
        <time>2013-06-11T06:05:09Z</time>
      </trkpt>
      <trkpt lat="42.80688" lon="0.15804">
        <ele>2402.505</ele>
        <time>2013-06-11T06:05:13Z</time>
      </trkpt>
      <trkpt lat="42.80685" lon="0.15801">
        <ele>2404.915</ele>
        <time>2013-06-11T06:05:17Z</time>
      </trkpt>
      <trkpt lat="42.80685" lon="0.15801">
        <ele>2406.807</ele>
        <time>2013-06-11T06:05:20Z</time>
      </trkpt>
      <trkpt lat="42.80685" lon="0.15797">
        <ele>2408.718</ele>
        <time>2013-06-11T06:05:25Z</time>
      </trkpt>
      <trkpt lat="42.80683" lon="0.15797">
        <ele>2407.37</ele>
        <time>2013-06-11T06:05:29Z</time>
      </trkpt>
      <trkpt lat="42.80683" lon="0.15795">
        <ele>2408.77</ele>
        <time>2013-06-11T06:05:32Z</time>
      </trkpt>
      <trkpt lat="42.80683" lon="0.15795">
        <ele>2408.746</ele>
        <time>2013-06-11T06:05:33Z</time>
      </trkpt>
      <trkpt lat="42.80681" lon="0.15793">
        <ele>2409.774</ele>
        <time>2013-06-11T06:05:36Z</time>
      </trkpt>
      <trkpt lat="42.80681" lon="0.15793">
        <ele>2410.274</ele>
        <time>2013-06-11T06:05:39Z</time>
      </trkpt>
      <trkpt lat="42.80679" lon="0.15789">
        <ele>2411.683</ele>
        <time>2013-06-11T06:05:46Z</time>
      </trkpt>
      <trkpt lat="42.80679" lon="0.15789">
        <ele>2411.689</ele>
        <time>2013-06-11T06:05:48Z</time>
      </trkpt>
      <trkpt lat="42.80681" lon="0.15786">
        <ele>2415.906</ele>
        <time>2013-06-11T06:06:09Z</time>
      </trkpt>
      <trkpt lat="42.80681" lon="0.15789">
        <ele>2414.026</ele>
        <time>2013-06-11T06:06:15Z</time>
      </trkpt>
      <trkpt lat="42.80677" lon="0.15782">
        <ele>2421.707</ele>
        <time>2013-06-11T06:06:30Z</time>
      </trkpt>
      <trkpt lat="42.80675" lon="0.15774">
        <ele>2426.012</ele>
        <time>2013-06-11T06:06:46Z</time>
      </trkpt>
      <trkpt lat="42.80673" lon="0.15771">
        <ele>2428.484</ele>
        <time>2013-06-11T06:06:53Z</time>
      </trkpt>
      <trkpt lat="42.80673" lon="0.15771">
        <ele>2428.454</ele>
        <time>2013-06-11T06:06:54Z</time>
      </trkpt>
      <trkpt lat="42.80673" lon="0.15769">
        <ele>2428.46</ele>
        <time>2013-06-11T06:06:57Z</time>
      </trkpt>
      <trkpt lat="42.80673" lon="0.15767">
        <ele>2428.488</ele>
        <time>2013-06-11T06:07:00Z</time>
      </trkpt>
      <trkpt lat="42.80673" lon="0.15767">
        <ele>2428.468</ele>
        <time>2013-06-11T06:07:02Z</time>
      </trkpt>
      <trkpt lat="42.80673" lon="0.15765">
        <ele>2428.427</ele>
        <time>2013-06-11T06:07:05Z</time>
      </trkpt>
      <trkpt lat="42.80673" lon="0.15765">
        <ele>2428.941</ele>
        <time>2013-06-11T06:07:06Z</time>
      </trkpt>
      <trkpt lat="42.80671" lon="0.15765">
        <ele>2427.981</ele>
        <time>2013-06-11T06:07:09Z</time>
      </trkpt>
      <trkpt lat="42.80671" lon="0.15765">
        <ele>2427.509</ele>
        <time>2013-06-11T06:07:12Z</time>
      </trkpt>
      <trkpt lat="42.80671" lon="0.15765">
        <ele>2427.507</ele>
        <time>2013-06-11T06:07:16Z</time>
      </trkpt>
      <trkpt lat="42.80671" lon="0.15765">
        <ele>2426.098</ele>
        <time>2013-06-11T06:07:20Z</time>
      </trkpt>
      <trkpt lat="42.80671" lon="0.15765">
        <ele>2425.53</ele>
        <time>2013-06-11T06:07:24Z</time>
      </trkpt>
      <trkpt lat="42.80671" lon="0.15765">
        <ele>2425.56</ele>
        <time>2013-06-11T06:07:25Z</time>
      </trkpt>
      <trkpt lat="42.80668" lon="0.15767">
        <ele>2425.516</ele>
        <time>2013-06-11T06:07:27Z</time>
      </trkpt>
      <trkpt lat="42.80668" lon="0.15769">
        <ele>2425.584</ele>
        <time>2013-06-11T06:07:30Z</time>
      </trkpt>
      <trkpt lat="42.80668" lon="0.15769">
        <ele>2425.554</ele>
        <time>2013-06-11T06:07:31Z</time>
      </trkpt>
      <trkpt lat="42.80668" lon="0.15771">
        <ele>2426.573</ele>
        <time>2013-06-11T06:07:37Z</time>
      </trkpt>
      <trkpt lat="42.80668" lon="0.15774">
        <ele>2431.818</ele>
        <time>2013-06-11T06:08:10Z</time>
      </trkpt>
      <trkpt lat="42.80668" lon="0.15774">
        <ele>2431.898</ele>
        <time>2013-06-11T06:08:12Z</time>
      </trkpt>
      <trkpt lat="42.80666" lon="0.15778">
        <ele>2431.817</ele>
        <time>2013-06-11T06:08:21Z</time>
      </trkpt>
      <trkpt lat="42.80666" lon="0.15778">
        <ele>2431.807</ele>
        <time>2013-06-11T06:08:22Z</time>
      </trkpt>
      <trkpt lat="42.80666" lon="0.1578">
        <ele>2431.835</ele>
        <time>2013-06-11T06:08:26Z</time>
      </trkpt>
      <trkpt lat="42.80666" lon="0.1578">
        <ele>2431.377</ele>
        <time>2013-06-11T06:08:27Z</time>
      </trkpt>
      <trkpt lat="42.80664" lon="0.15782">
        <ele>2430.837</ele>
        <time>2013-06-11T06:08:32Z</time>
      </trkpt>
      <trkpt lat="42.80664" lon="0.15784">
        <ele>2430.493</ele>
        <time>2013-06-11T06:08:35Z</time>
      </trkpt>
      <trkpt lat="42.80664" lon="0.15791">
        <ele>2432.881</ele>
        <time>2013-06-11T06:08:49Z</time>
      </trkpt>
      <trkpt lat="42.80662" lon="0.15793">
        <ele>2432.821</ele>
        <time>2013-06-11T06:08:55Z</time>
      </trkpt>
      <trkpt lat="42.80662" lon="0.15793">
        <ele>2432.86</ele>
        <time>2013-06-11T06:08:56Z</time>
      </trkpt>
      <trkpt lat="42.80662" lon="0.15795">
        <ele>2433.294</ele>
        <time>2013-06-11T06:08:59Z</time>
      </trkpt>
      <trkpt lat="42.80662" lon="0.15795">
        <ele>2433.257</ele>
        <time>2013-06-11T06:09:02Z</time>
      </trkpt>
      <trkpt lat="42.80662" lon="0.15797">
        <ele>2434.222</ele>
        <time>2013-06-11T06:09:08Z</time>
      </trkpt>
      <trkpt lat="42.80662" lon="0.15797">
        <ele>2434.207</ele>
        <time>2013-06-11T06:09:09Z</time>
      </trkpt>
      <trkpt lat="42.8066" lon="0.15804">
        <ele>2434.733</ele>
        <time>2013-06-11T06:09:23Z</time>
      </trkpt>
      <trkpt lat="42.80658" lon="0.1581">
        <ele>2436.155</ele>
        <time>2013-06-11T06:09:37Z</time>
      </trkpt>
      <trkpt lat="42.80658" lon="0.1581">
        <ele>2436.185</ele>
        <time>2013-06-11T06:09:41Z</time>
      </trkpt>
      <trkpt lat="42.80658" lon="0.1581">
        <ele>2437.191</ele>
        <time>2013-06-11T06:09:58Z</time>
      </trkpt>
      <trkpt lat="42.80655" lon="0.15817">
        <ele>2439.089</ele>
        <time>2013-06-11T06:10:11Z</time>
      </trkpt>
      <trkpt lat="42.80655" lon="0.15819">
        <ele>2439.519</ele>
        <time>2013-06-11T06:10:12Z</time>
      </trkpt>
      <trkpt lat="42.80653" lon="0.15821">
        <ele>2440.078</ele>
        <time>2013-06-11T06:10:16Z</time>
      </trkpt>
      <trkpt lat="42.80653" lon="0.15821">
        <ele>2440.485</ele>
        <time>2013-06-11T06:10:17Z</time>
      </trkpt>
      <trkpt lat="42.80653" lon="0.15821">
        <ele>2440.989</ele>
        <time>2013-06-11T06:10:20Z</time>
      </trkpt>
      <trkpt lat="42.80653" lon="0.15821">
        <ele>2442.817</ele>
        <time>2013-06-11T06:10:21Z</time>
      </trkpt>
      <trkpt lat="42.80653" lon="0.15823">
        <ele>2443.307</ele>
        <time>2013-06-11T06:10:24Z</time>
      </trkpt>
      <trkpt lat="42.80653" lon="0.15823">
        <ele>2443.342</ele>
        <time>2013-06-11T06:10:25Z</time>
      </trkpt>
      <trkpt lat="42.80653" lon="0.15825">
        <ele>2444.334</ele>
        <time>2013-06-11T06:10:29Z</time>
      </trkpt>
      <trkpt lat="42.80651" lon="0.15827">
        <ele>2444.354</ele>
        <time>2013-06-11T06:10:30Z</time>
      </trkpt>
      <trkpt lat="42.80649" lon="0.15834">
        <ele>2445.35</ele>
        <time>2013-06-11T06:10:44Z</time>
      </trkpt>
      <trkpt lat="42.80647" lon="0.15836">
        <ele>2446.798</ele>
        <time>2013-06-11T06:10:56Z</time>
      </trkpt>
      <trkpt lat="42.80647" lon="0.15838">
        <ele>2446.758</ele>
        <time>2013-06-11T06:10:57Z</time>
      </trkpt>
      <trkpt lat="42.80645" lon="0.15838">
        <ele>2446.247</ele>
        <time>2013-06-11T06:10:59Z</time>
      </trkpt>
      <trkpt lat="42.80642" lon="0.1584">
        <ele>2447.219</ele>
        <time>2013-06-11T06:11:08Z</time>
      </trkpt>
      <trkpt lat="42.80642" lon="0.15842">
        <ele>2447.209</ele>
        <time>2013-06-11T06:11:33Z</time>
      </trkpt>
      <trkpt lat="42.80642" lon="0.15842">
        <ele>2447.719</ele>
        <time>2013-06-11T06:11:36Z</time>
      </trkpt>
      <trkpt lat="42.8064" lon="0.15847">
        <ele>2449.607</ele>
        <time>2013-06-11T06:11:45Z</time>
      </trkpt>
      <trkpt lat="42.8064" lon="0.15849">
        <ele>2449.645</ele>
        <time>2013-06-11T06:11:46Z</time>
      </trkpt>
      <trkpt lat="42.8064" lon="0.15849">
        <ele>2450.117</ele>
        <time>2013-06-11T06:11:49Z</time>
      </trkpt>
      <trkpt lat="42.8064" lon="0.15849">
        <ele>2450.197</ele>
        <time>2013-06-11T06:11:50Z</time>
      </trkpt>
      <trkpt lat="42.80638" lon="0.15853">
        <ele>2451.053</ele>
        <time>2013-06-11T06:12:02Z</time>
      </trkpt>
      <trkpt lat="42.80638" lon="0.15853">
        <ele>2451.071</ele>
        <time>2013-06-11T06:12:03Z</time>
      </trkpt>
      <trkpt lat="42.80636" lon="0.15857">
        <ele>2452.931</ele>
        <time>2013-06-11T06:12:16Z</time>
      </trkpt>
      <trkpt lat="42.80636" lon="0.15857">
        <ele>2452.95</ele>
        <time>2013-06-11T06:12:18Z</time>
      </trkpt>
      <trkpt lat="42.80634" lon="0.15859">
        <ele>2453.437</ele>
        <time>2013-06-11T06:12:22Z</time>
      </trkpt>
      <trkpt lat="42.80634" lon="0.15859">
        <ele>2453.449</ele>
        <time>2013-06-11T06:12:23Z</time>
      </trkpt>
      <trkpt lat="42.80634" lon="0.15859">
        <ele>2453.413</ele>
        <time>2013-06-11T06:12:25Z</time>
      </trkpt>
      <trkpt lat="42.80634" lon="0.15862">
        <ele>2453.907</ele>
        <time>2013-06-11T06:12:28Z</time>
      </trkpt>
      <trkpt lat="42.80634" lon="0.15857">
        <ele>2455.897</ele>
        <time>2013-06-11T06:13:09Z</time>
      </trkpt>
      <trkpt lat="42.80632" lon="0.15859">
        <ele>2455.359</ele>
        <time>2013-06-11T06:13:19Z</time>
      </trkpt>
      <trkpt lat="42.80634" lon="0.15857">
        <ele>2455.879</ele>
        <time>2013-06-11T06:13:25Z</time>
      </trkpt>
      <trkpt lat="42.80634" lon="0.15855">
        <ele>2456.325</ele>
        <time>2013-06-11T06:13:29Z</time>
      </trkpt>
      <trkpt lat="42.80632" lon="0.15851">
        <ele>2455.313</ele>
        <time>2013-06-11T06:13:34Z</time>
      </trkpt>
      <trkpt lat="42.80632" lon="0.15851">
        <ele>2455.373</ele>
        <time>2013-06-11T06:13:35Z</time>
      </trkpt>
      <trkpt lat="42.80632" lon="0.15851">
        <ele>2455.822</ele>
        <time>2013-06-11T06:13:37Z</time>
      </trkpt>
      <trkpt lat="42.80632" lon="0.15847">
        <ele>2457.374</ele>
        <time>2013-06-11T06:13:44Z</time>
      </trkpt>
      <trkpt lat="42.80632" lon="0.15847">
        <ele>2458.256</ele>
        <time>2013-06-11T06:13:46Z</time>
      </trkpt>
      <trkpt lat="42.80632" lon="0.15847">
        <ele>2457.321</ele>
        <time>2013-06-11T06:13:48Z</time>
      </trkpt>
      <trkpt lat="42.80632" lon="0.15844">
        <ele>2458.207</ele>
        <time>2013-06-11T06:13:51Z</time>
      </trkpt>
      <trkpt lat="42.8063" lon="0.15844">
        <ele>2458.731</ele>
        <time>2013-06-11T06:13:54Z</time>
      </trkpt>
      <trkpt lat="42.8063" lon="0.15847">
        <ele>2459.293</ele>
        <time>2013-06-11T06:13:58Z</time>
      </trkpt>
      <trkpt lat="42.8063" lon="0.15847">
        <ele>2459.253</ele>
        <time>2013-06-11T06:14:02Z</time>
      </trkpt>
      <trkpt lat="42.80627" lon="0.15853">
        <ele>2458.729</ele>
        <time>2013-06-11T06:14:15Z</time>
      </trkpt>
      <trkpt lat="42.80623" lon="0.15859">
        <ele>2456.837</ele>
        <time>2013-06-11T06:14:30Z</time>
      </trkpt>
      <trkpt lat="42.80621" lon="0.15857">
        <ele>2454.447</ele>
        <time>2013-06-11T06:14:49Z</time>
      </trkpt>
      <trkpt lat="42.80621" lon="0.15857">
        <ele>2455.396</ele>
        <time>2013-06-11T06:14:51Z</time>
      </trkpt>
      <trkpt lat="42.80621" lon="0.15864">
        <ele>2457.779</ele>
        <time>2013-06-11T06:15:01Z</time>
      </trkpt>
      <trkpt lat="42.80621" lon="0.15864">
        <ele>2458.205</ele>
        <time>2013-06-11T06:15:02Z</time>
      </trkpt>
      <trkpt lat="42.80619" lon="0.1587">
        <ele>2461.125</ele>
        <time>2013-06-11T06:15:15Z</time>
      </trkpt>
      <trkpt lat="42.80619" lon="0.15877">
        <ele>2465.407</ele>
        <time>2013-06-11T06:15:29Z</time>
      </trkpt>
      <trkpt lat="42.80619" lon="0.15877">
        <ele>2465.431</ele>
        <time>2013-06-11T06:15:30Z</time>
      </trkpt>
      <trkpt lat="42.80617" lon="0.15879">
        <ele>2465.983</ele>
        <time>2013-06-11T06:15:34Z</time>
      </trkpt>
      <trkpt lat="42.80617" lon="0.15879">
        <ele>2466.993</ele>
        <time>2013-06-11T06:15:35Z</time>
      </trkpt>
      <trkpt lat="42.80617" lon="0.15881">
        <ele>2466.999</ele>
        <time>2013-06-11T06:15:38Z</time>
      </trkpt>
      <trkpt lat="42.80617" lon="0.15881">
        <ele>2466.947</ele>
        <time>2013-06-11T06:15:39Z</time>
      </trkpt>
      <trkpt lat="42.80617" lon="0.15881">
        <ele>2467.877</ele>
        <time>2013-06-11T06:15:41Z</time>
      </trkpt>
      <trkpt lat="42.80615" lon="0.15881">
        <ele>2467.416</ele>
        <time>2013-06-11T06:15:46Z</time>
      </trkpt>
      <trkpt lat="42.80615" lon="0.15881">
        <ele>2466.487</ele>
        <time>2013-06-11T06:15:48Z</time>
      </trkpt>
      <trkpt lat="42.80613" lon="0.15885">
        <ele>2467.442</ele>
        <time>2013-06-11T06:15:53Z</time>
      </trkpt>
      <trkpt lat="42.80613" lon="0.15885">
        <ele>2467.826</ele>
        <time>2013-06-11T06:15:56Z</time>
      </trkpt>
      <trkpt lat="42.80613" lon="0.15885">
        <ele>2466.907</ele>
        <time>2013-06-11T06:16:01Z</time>
      </trkpt>
      <trkpt lat="42.80613" lon="0.15885">
        <ele>2467.492</ele>
        <time>2013-06-11T06:16:03Z</time>
      </trkpt>
      <trkpt lat="42.8061" lon="0.15889">
        <ele>2468.834</ele>
        <time>2013-06-11T06:16:09Z</time>
      </trkpt>
      <trkpt lat="42.8061" lon="0.15889">
        <ele>2469.314</ele>
        <time>2013-06-11T06:16:10Z</time>
      </trkpt>
      <trkpt lat="42.8061" lon="0.15892">
        <ele>2470.28</ele>
        <time>2013-06-11T06:16:19Z</time>
      </trkpt>
      <trkpt lat="42.8061" lon="0.15892">
        <ele>2470.798</ele>
        <time>2013-06-11T06:16:20Z</time>
      </trkpt>
      <trkpt lat="42.80608" lon="0.15894">
        <ele>2471.288</ele>
        <time>2013-06-11T06:16:23Z</time>
      </trkpt>
      <trkpt lat="42.80608" lon="0.15894">
        <ele>2470.717</ele>
        <time>2013-06-11T06:16:26Z</time>
      </trkpt>
      <trkpt lat="42.80608" lon="0.15894">
        <ele>2470.266</ele>
        <time>2013-06-11T06:16:29Z</time>
      </trkpt>
      <trkpt lat="42.80606" lon="0.15894">
        <ele>2470.229</ele>
        <time>2013-06-11T06:16:31Z</time>
      </trkpt>
      <trkpt lat="42.80606" lon="0.15896">
        <ele>2471.721</ele>
        <time>2013-06-11T06:16:35Z</time>
      </trkpt>
      <trkpt lat="42.80606" lon="0.15896">
        <ele>2471.707</ele>
        <time>2013-06-11T06:16:37Z</time>
      </trkpt>
      <trkpt lat="42.80604" lon="0.15898">
        <ele>2471.71</ele>
        <time>2013-06-11T06:16:41Z</time>
      </trkpt>
      <trkpt lat="42.80604" lon="0.159">
        <ele>2472.682</ele>
        <time>2013-06-11T06:16:45Z</time>
      </trkpt>
      <trkpt lat="42.80604" lon="0.15902">
        <ele>2473.142</ele>
        <time>2013-06-11T06:17:09Z</time>
      </trkpt>
      <trkpt lat="42.80604" lon="0.15904">
        <ele>2473.128</ele>
        <time>2013-06-11T06:17:11Z</time>
      </trkpt>
      <trkpt lat="42.80602" lon="0.15907">
        <ele>2473.136</ele>
        <time>2013-06-11T06:17:16Z</time>
      </trkpt>
      <trkpt lat="42.80602" lon="0.15907">
        <ele>2472.666</ele>
        <time>2013-06-11T06:17:18Z</time>
      </trkpt>
      <trkpt lat="42.80602" lon="0.15907">
        <ele>2472.655</ele>
        <time>2013-06-11T06:17:21Z</time>
      </trkpt>
      <trkpt lat="42.80602" lon="0.15909">
        <ele>2473.131</ele>
        <time>2013-06-11T06:17:25Z</time>
      </trkpt>
      <trkpt lat="42.80602" lon="0.15909">
        <ele>2474.161</ele>
        <time>2013-06-11T06:17:33Z</time>
      </trkpt>
      <trkpt lat="42.80602" lon="0.15911">
        <ele>2474.607</ele>
        <time>2013-06-11T06:17:35Z</time>
      </trkpt>
      <trkpt lat="42.806" lon="0.15913">
        <ele>2474.607</ele>
        <time>2013-06-11T06:17:39Z</time>
      </trkpt>
      <trkpt lat="42.806" lon="0.15915">
        <ele>2479.957</ele>
        <time>2013-06-11T06:18:11Z</time>
      </trkpt>
      <trkpt lat="42.806" lon="0.15915">
        <ele>2478.959</ele>
        <time>2013-06-11T06:18:16Z</time>
      </trkpt>
      <trkpt lat="42.806" lon="0.15917">
        <ele>2478.959</ele>
        <time>2013-06-11T06:18:18Z</time>
      </trkpt>
      <trkpt lat="42.80597" lon="0.15917">
        <ele>2477.995</ele>
        <time>2013-06-11T06:18:21Z</time>
      </trkpt>
      <trkpt lat="42.80597" lon="0.15919">
        <ele>2478.413</ele>
        <time>2013-06-11T06:18:23Z</time>
      </trkpt>
      <trkpt lat="42.80595" lon="0.15924">
        <ele>2480.383</ele>
        <time>2013-06-11T06:18:35Z</time>
      </trkpt>
      <trkpt lat="42.80593" lon="0.15926">
        <ele>2480.342</ele>
        <time>2013-06-11T06:18:38Z</time>
      </trkpt>
      <trkpt lat="42.80593" lon="0.15926">
        <ele>2480.342</ele>
        <time>2013-06-11T06:18:39Z</time>
      </trkpt>
      <trkpt lat="42.80591" lon="0.15932">
        <ele>2483.222</ele>
        <time>2013-06-11T06:18:52Z</time>
      </trkpt>
      <trkpt lat="42.80589" lon="0.15937">
        <ele>2483.714</ele>
        <time>2013-06-11T06:18:57Z</time>
      </trkpt>
      <trkpt lat="42.80589" lon="0.15937">
        <ele>2484.207</ele>
        <time>2013-06-11T06:18:58Z</time>
      </trkpt>
      <trkpt lat="42.80589" lon="0.15937">
        <ele>2485.138</ele>
        <time>2013-06-11T06:19:01Z</time>
      </trkpt>
      <trkpt lat="42.80589" lon="0.15939">
        <ele>2485.19</ele>
        <time>2013-06-11T06:19:03Z</time>
      </trkpt>
      <trkpt lat="42.80589" lon="0.15939">
        <ele>2486.65</ele>
        <time>2013-06-11T06:19:06Z</time>
      </trkpt>
      <trkpt lat="42.80589" lon="0.15939">
        <ele>2486.616</ele>
        <time>2013-06-11T06:19:07Z</time>
      </trkpt>
      <trkpt lat="42.80587" lon="0.15941">
        <ele>2487.514</ele>
        <time>2013-06-11T06:19:10Z</time>
      </trkpt>
      <trkpt lat="42.80587" lon="0.15943">
        <ele>2488.054</ele>
        <time>2013-06-11T06:19:13Z</time>
      </trkpt>
      <trkpt lat="42.80587" lon="0.15943">
        <ele>2488.543</ele>
        <time>2013-06-11T06:19:16Z</time>
      </trkpt>
      <trkpt lat="42.80585" lon="0.15945">
        <ele>2489.039</ele>
        <time>2013-06-11T06:19:18Z</time>
      </trkpt>
      <trkpt lat="42.80585" lon="0.15945">
        <ele>2489.501</ele>
        <time>2013-06-11T06:19:20Z</time>
      </trkpt>
      <trkpt lat="42.80585" lon="0.15947">
        <ele>2491.421</ele>
        <time>2013-06-11T06:19:37Z</time>
      </trkpt>
      <trkpt lat="42.80585" lon="0.15945">
        <ele>2491.407</ele>
        <time>2013-06-11T06:19:40Z</time>
      </trkpt>
      <trkpt lat="42.80585" lon="0.15945">
        <ele>2491.477</ele>
        <time>2013-06-11T06:19:41Z</time>
      </trkpt>
      <trkpt lat="42.80585" lon="0.15945">
        <ele>2491.469</ele>
        <time>2013-06-11T06:19:43Z</time>
      </trkpt>
      <trkpt lat="42.80582" lon="0.15945">
        <ele>2489.059</ele>
        <time>2013-06-11T06:19:53Z</time>
      </trkpt>
      <trkpt lat="42.8058" lon="0.15943">
        <ele>2489.095</ele>
        <time>2013-06-11T06:19:56Z</time>
      </trkpt>
      <trkpt lat="42.8058" lon="0.15941">
        <ele>2488.013</ele>
        <time>2013-06-11T06:20:00Z</time>
      </trkpt>
      <trkpt lat="42.8058" lon="0.15939">
        <ele>2488.533</ele>
        <time>2013-06-11T06:20:01Z</time>
      </trkpt>
      <trkpt lat="42.80578" lon="0.15939">
        <ele>2488.042</ele>
        <time>2013-06-11T06:20:04Z</time>
      </trkpt>
      <trkpt lat="42.80578" lon="0.15939">
        <ele>2488.089</ele>
        <time>2013-06-11T06:20:06Z</time>
      </trkpt>
      <trkpt lat="42.80578" lon="0.15937">
        <ele>2490.006</ele>
        <time>2013-06-11T06:20:11Z</time>
      </trkpt>
      <trkpt lat="42.80578" lon="0.15935">
        <ele>2490.026</ele>
        <time>2013-06-11T06:20:12Z</time>
      </trkpt>
      <trkpt lat="42.80576" lon="0.15935">
        <ele>2489.507</ele>
        <time>2013-06-11T06:20:15Z</time>
      </trkpt>
      <trkpt lat="42.80576" lon="0.1593">
        <ele>2490.092</ele>
        <time>2013-06-11T06:20:20Z</time>
      </trkpt>
      <trkpt lat="42.80576" lon="0.15926">
        <ele>2490.944</ele>
        <time>2013-06-11T06:20:27Z</time>
      </trkpt>
      <trkpt lat="42.80576" lon="0.15924">
        <ele>2491.494</ele>
        <time>2013-06-11T06:20:30Z</time>
      </trkpt>
      <trkpt lat="42.80576" lon="0.15924">
        <ele>2491.95</ele>
        <time>2013-06-11T06:20:31Z</time>
      </trkpt>
      <trkpt lat="42.80576" lon="0.15922">
        <ele>2492.418</ele>
        <time>2013-06-11T06:20:34Z</time>
      </trkpt>
      <trkpt lat="42.80576" lon="0.15922">
        <ele>2492.448</ele>
        <time>2013-06-11T06:20:35Z</time>
      </trkpt>
      <trkpt lat="42.80576" lon="0.15919">
        <ele>2493.367</ele>
        <time>2013-06-11T06:20:38Z</time>
      </trkpt>
      <trkpt lat="42.80576" lon="0.15919">
        <ele>2493.357</ele>
        <time>2013-06-11T06:20:42Z</time>
      </trkpt>
      <trkpt lat="42.80574" lon="0.15919">
        <ele>2494.3</ele>
        <time>2013-06-11T06:20:50Z</time>
      </trkpt>
      <trkpt lat="42.80574" lon="0.15919">
        <ele>2494.82</ele>
        <time>2013-06-11T06:20:52Z</time>
      </trkpt>
      <trkpt lat="42.80574" lon="0.15917">
        <ele>2493.807</ele>
        <time>2013-06-11T06:20:55Z</time>
      </trkpt>
      <trkpt lat="42.80574" lon="0.15917">
        <ele>2493.889</ele>
        <time>2013-06-11T06:20:56Z</time>
      </trkpt>
      <trkpt lat="42.80572" lon="0.15911">
        <ele>2495.211</ele>
        <time>2013-06-11T06:21:07Z</time>
      </trkpt>
      <trkpt lat="42.8057" lon="0.15909">
        <ele>2495.231</ele>
        <time>2013-06-11T06:21:11Z</time>
      </trkpt>
      <trkpt lat="42.8057" lon="0.15909">
        <ele>2495.227</ele>
        <time>2013-06-11T06:21:12Z</time>
      </trkpt>
      <trkpt lat="42.8057" lon="0.15907">
        <ele>2496.255</ele>
        <time>2013-06-11T06:21:16Z</time>
      </trkpt>
      <trkpt lat="42.80568" lon="0.159">
        <ele>2495.285</ele>
        <time>2013-06-11T06:21:26Z</time>
      </trkpt>
      <trkpt lat="42.80568" lon="0.159">
        <ele>2496.724</ele>
        <time>2013-06-11T06:21:27Z</time>
      </trkpt>
      <trkpt lat="42.80565" lon="0.159">
        <ele>2496.717</ele>
        <time>2013-06-11T06:21:31Z</time>
      </trkpt>
      <trkpt lat="42.80563" lon="0.15902">
        <ele>2498.187</ele>
        <time>2013-06-11T06:21:37Z</time>
      </trkpt>
      <trkpt lat="42.80563" lon="0.15902">
        <ele>2498.615</ele>
        <time>2013-06-11T06:21:38Z</time>
      </trkpt>
      <trkpt lat="42.80561" lon="0.15902">
        <ele>2499.107</ele>
        <time>2013-06-11T06:21:42Z</time>
      </trkpt>
      <trkpt lat="42.80561" lon="0.15902">
        <ele>2499.185</ele>
        <time>2013-06-11T06:21:44Z</time>
      </trkpt>
      <trkpt lat="42.80561" lon="0.15902">
        <ele>2499.197</ele>
        <time>2013-06-11T06:21:48Z</time>
      </trkpt>
      <trkpt lat="42.80559" lon="0.15902">
        <ele>2496.757</ele>
        <time>2013-06-11T06:21:59Z</time>
      </trkpt>
      <trkpt lat="42.80557" lon="0.15904">
        <ele>2497.663</ele>
        <time>2013-06-11T06:22:02Z</time>
      </trkpt>
      <trkpt lat="42.80557" lon="0.15904">
        <ele>2497.281</ele>
        <time>2013-06-11T06:22:04Z</time>
      </trkpt>
      <trkpt lat="42.80555" lon="0.15904">
        <ele>2497.641</ele>
        <time>2013-06-11T06:22:08Z</time>
      </trkpt>
      <trkpt lat="42.80555" lon="0.15904">
        <ele>2497.66</ele>
        <time>2013-06-11T06:22:10Z</time>
      </trkpt>
      <trkpt lat="42.80552" lon="0.15904">
        <ele>2498.688</ele>
        <time>2013-06-11T06:22:15Z</time>
      </trkpt>
      <trkpt lat="42.80552" lon="0.15904">
        <ele>2499.124</ele>
        <time>2013-06-11T06:22:16Z</time>
      </trkpt>
      <trkpt lat="42.8055" lon="0.15907">
        <ele>2499.626</ele>
        <time>2013-06-11T06:22:19Z</time>
      </trkpt>
      <trkpt lat="42.8055" lon="0.15907">
        <ele>2501.507</ele>
        <time>2013-06-11T06:22:22Z</time>
      </trkpt>
      <trkpt lat="42.80546" lon="0.15907">
        <ele>2500.022</ele>
        <time>2013-06-11T06:22:28Z</time>
      </trkpt>
      <trkpt lat="42.80546" lon="0.15907">
        <ele>2501.014</ele>
        <time>2013-06-11T06:22:29Z</time>
      </trkpt>
      <trkpt lat="42.80546" lon="0.15907">
        <ele>2502.024</ele>
        <time>2013-06-11T06:22:32Z</time>
      </trkpt>
      <trkpt lat="42.80546" lon="0.15907">
        <ele>2503.93</ele>
        <time>2013-06-11T06:22:37Z</time>
      </trkpt>
      <trkpt lat="42.80546" lon="0.15902">
        <ele>2507.768</ele>
        <time>2013-06-11T06:22:44Z</time>
      </trkpt>
      <trkpt lat="42.80546" lon="0.15902">
        <ele>2507.738</ele>
        <time>2013-06-11T06:22:47Z</time>
      </trkpt>
      <trkpt lat="42.80544" lon="0.159">
        <ele>2509.777</ele>
        <time>2013-06-11T06:22:54Z</time>
      </trkpt>
      <trkpt lat="42.80544" lon="0.159">
        <ele>2514.597</ele>
        <time>2013-06-11T06:23:19Z</time>
      </trkpt>
      <trkpt lat="42.80544" lon="0.15898">
        <ele>2514.523</ele>
        <time>2013-06-11T06:23:22Z</time>
      </trkpt>
      <trkpt lat="42.80544" lon="0.15898">
        <ele>2514.925</ele>
        <time>2013-06-11T06:23:23Z</time>
      </trkpt>
      <trkpt lat="42.80544" lon="0.15896">
        <ele>2515.907</ele>
        <time>2013-06-11T06:23:25Z</time>
      </trkpt>
      <trkpt lat="42.80542" lon="0.15898">
        <ele>2514.933</ele>
        <time>2013-06-11T06:23:28Z</time>
      </trkpt>
      <trkpt lat="42.80542" lon="0.15898">
        <ele>2515.955</ele>
        <time>2013-06-11T06:23:30Z</time>
      </trkpt>
      <trkpt lat="42.80539" lon="0.15896">
        <ele>2515.455</ele>
        <time>2013-06-11T06:23:33Z</time>
      </trkpt>
      <trkpt lat="42.80539" lon="0.15896">
        <ele>2515.471</ele>
        <time>2013-06-11T06:23:35Z</time>
      </trkpt>
      <trkpt lat="42.80535" lon="0.15896">
        <ele>2513.059</ele>
        <time>2013-06-11T06:23:40Z</time>
      </trkpt>
      <trkpt lat="42.80535" lon="0.15896">
        <ele>2513.529</ele>
        <time>2013-06-11T06:23:41Z</time>
      </trkpt>
      <trkpt lat="42.80535" lon="0.15896">
        <ele>2514.928</ele>
        <time>2013-06-11T06:23:44Z</time>
      </trkpt>
      <trkpt lat="42.80533" lon="0.15896">
        <ele>2516.471</ele>
        <time>2013-06-11T06:23:54Z</time>
      </trkpt>
      <trkpt lat="42.80531" lon="0.15896">
        <ele>2517.341</ele>
        <time>2013-06-11T06:23:58Z</time>
      </trkpt>
      <trkpt lat="42.80531" lon="0.15896">
        <ele>2518.815</ele>
        <time>2013-06-11T06:24:02Z</time>
      </trkpt>
      <trkpt lat="42.80531" lon="0.15898">
        <ele>2519.807</ele>
        <time>2013-06-11T06:24:04Z</time>
      </trkpt>
      <trkpt lat="42.80529" lon="0.15898">
        <ele>2520.261</ele>
        <time>2013-06-11T06:24:07Z</time>
      </trkpt>
      <trkpt lat="42.80529" lon="0.15898">
        <ele>2520.243</ele>
        <time>2013-06-11T06:24:09Z</time>
      </trkpt>
      <trkpt lat="42.80527" lon="0.15898">
        <ele>2521.753</ele>
        <time>2013-06-11T06:24:12Z</time>
      </trkpt>
      <trkpt lat="42.80527" lon="0.15898">
        <ele>2522.249</ele>
        <time>2013-06-11T06:24:14Z</time>
      </trkpt>
      <trkpt lat="42.80527" lon="0.15898">
        <ele>2522.277</ele>
        <time>2013-06-11T06:24:17Z</time>
      </trkpt>
      <trkpt lat="42.80527" lon="0.15898">
        <ele>2521.727</ele>
        <time>2013-06-11T06:24:18Z</time>
      </trkpt>
      <trkpt lat="42.80524" lon="0.15898">
        <ele>2521.736</ele>
        <time>2013-06-11T06:24:27Z</time>
      </trkpt>
      <trkpt lat="42.80524" lon="0.15898">
        <ele>2521.277</ele>
        <time>2013-06-11T06:24:53Z</time>
      </trkpt>
      <trkpt lat="42.80522" lon="0.159">
        <ele>2521.261</ele>
        <time>2013-06-11T06:24:55Z</time>
      </trkpt>
      <trkpt lat="42.80522" lon="0.159">
        <ele>2521.227</ele>
        <time>2013-06-11T06:25:00Z</time>
      </trkpt>
      <trkpt lat="42.80522" lon="0.159">
        <ele>2522.207</ele>
        <time>2013-06-11T06:25:02Z</time>
      </trkpt>
      <trkpt lat="42.8052" lon="0.15904">
        <ele>2524.141</ele>
        <time>2013-06-11T06:25:12Z</time>
      </trkpt>
      <trkpt lat="42.8052" lon="0.15904">
        <ele>2524.113</ele>
        <time>2013-06-11T06:25:13Z</time>
      </trkpt>
      <trkpt lat="42.8052" lon="0.15907">
        <ele>2525.583</ele>
        <time>2013-06-11T06:25:16Z</time>
      </trkpt>
      <trkpt lat="42.8052" lon="0.15907">
        <ele>2526.579</ele>
        <time>2013-06-11T06:25:18Z</time>
      </trkpt>
      <trkpt lat="42.80518" lon="0.15909">
        <ele>2526.557</ele>
        <time>2013-06-11T06:25:23Z</time>
      </trkpt>
      <trkpt lat="42.80518" lon="0.15911">
        <ele>2527.057</ele>
        <time>2013-06-11T06:25:24Z</time>
      </trkpt>
      <trkpt lat="42.80518" lon="0.15913">
        <ele>2527.436</ele>
        <time>2013-06-11T06:25:28Z</time>
      </trkpt>
      <trkpt lat="42.80518" lon="0.15913">
        <ele>2527.422</ele>
        <time>2013-06-11T06:25:29Z</time>
      </trkpt>
      <trkpt lat="42.80516" lon="0.15917">
        <ele>2529.462</ele>
        <time>2013-06-11T06:25:39Z</time>
      </trkpt>
      <trkpt lat="42.80516" lon="0.15917">
        <ele>2529.408</ele>
        <time>2013-06-11T06:25:40Z</time>
      </trkpt>
      <trkpt lat="42.80516" lon="0.15919">
        <ele>2530.307</ele>
        <time>2013-06-11T06:25:44Z</time>
      </trkpt>
      <trkpt lat="42.80516" lon="0.15919">
        <ele>2530.356</ele>
        <time>2013-06-11T06:25:45Z</time>
      </trkpt>
      <trkpt lat="42.80516" lon="0.15922">
        <ele>2531.388</ele>
        <time>2013-06-11T06:25:48Z</time>
      </trkpt>
      <trkpt lat="42.80516" lon="0.15924">
        <ele>2533.738</ele>
        <time>2013-06-11T06:25:50Z</time>
      </trkpt>
      <trkpt lat="42.80516" lon="0.15924">
        <ele>2534.244</ele>
        <time>2013-06-11T06:25:52Z</time>
      </trkpt>
      <trkpt lat="42.80516" lon="0.15924">
        <ele>2535.192</ele>
        <time>2013-06-11T06:25:56Z</time>
      </trkpt>
      <trkpt lat="42.80512" lon="0.15926">
        <ele>2533.232</ele>
        <time>2013-06-11T06:26:18Z</time>
      </trkpt>
      <trkpt lat="42.8051" lon="0.15926">
        <ele>2533.231</ele>
        <time>2013-06-11T06:26:21Z</time>
      </trkpt>
      <trkpt lat="42.8051" lon="0.15924">
        <ele>2533.238</ele>
        <time>2013-06-11T06:26:22Z</time>
      </trkpt>
      <trkpt lat="42.8051" lon="0.15922">
        <ele>2532.27</ele>
        <time>2013-06-11T06:27:01Z</time>
      </trkpt>
      <trkpt lat="42.80512" lon="0.15922">
        <ele>2534.217</ele>
        <time>2013-06-11T06:27:17Z</time>
      </trkpt>
      <trkpt lat="42.8051" lon="0.15917">
        <ele>2535.607</ele>
        <time>2013-06-11T06:27:24Z</time>
      </trkpt>
      <trkpt lat="42.8051" lon="0.15917">
        <ele>2535.617</ele>
        <time>2013-06-11T06:27:25Z</time>
      </trkpt>
      <trkpt lat="42.8051" lon="0.15917">
        <ele>2535.149</ele>
        <time>2013-06-11T06:27:27Z</time>
      </trkpt>
      <trkpt lat="42.8051" lon="0.15917">
        <ele>2535.639</ele>
        <time>2013-06-11T06:27:29Z</time>
      </trkpt>
      <trkpt lat="42.80505" lon="0.15915">
        <ele>2536.155</ele>
        <time>2013-06-11T06:27:36Z</time>
      </trkpt>
      <trkpt lat="42.80505" lon="0.15913">
        <ele>2536.173</ele>
        <time>2013-06-11T06:27:43Z</time>
      </trkpt>
      <trkpt lat="42.80501" lon="0.15909">
        <ele>2537.573</ele>
        <time>2013-06-11T06:27:55Z</time>
      </trkpt>
      <trkpt lat="42.80497" lon="0.15904">
        <ele>2538.542</ele>
        <time>2013-06-11T06:28:04Z</time>
      </trkpt>
      <trkpt lat="42.80497" lon="0.15904">
        <ele>2539.023</ele>
        <time>2013-06-11T06:28:06Z</time>
      </trkpt>
      <trkpt lat="42.80494" lon="0.15904">
        <ele>2539.583</ele>
        <time>2013-06-11T06:28:10Z</time>
      </trkpt>
      <trkpt lat="42.80492" lon="0.159">
        <ele>2540.911</ele>
        <time>2013-06-11T06:28:18Z</time>
      </trkpt>
      <trkpt lat="42.80492" lon="0.15898">
        <ele>2540.907</ele>
        <time>2013-06-11T06:28:20Z</time>
      </trkpt>
      <trkpt lat="42.8049" lon="0.15898">
        <ele>2540.426</ele>
        <time>2013-06-11T06:28:43Z</time>
      </trkpt>
      <trkpt lat="42.8049" lon="0.15896">
        <ele>2541.958</ele>
        <time>2013-06-11T06:28:46Z</time>
      </trkpt>
      <trkpt lat="42.80488" lon="0.15896">
        <ele>2541.438</ele>
        <time>2013-06-11T06:28:47Z</time>
      </trkpt>
      <trkpt lat="42.80488" lon="0.15894">
        <ele>2542.334</ele>
        <time>2013-06-11T06:28:50Z</time>
      </trkpt>
      <trkpt lat="42.80488" lon="0.15894">
        <ele>2541.992</ele>
        <time>2013-06-11T06:28:53Z</time>
      </trkpt>
      <trkpt lat="42.80486" lon="0.15894">
        <ele>2541.932</ele>
        <time>2013-06-11T06:28:57Z</time>
      </trkpt>
      <trkpt lat="42.80484" lon="0.15892">
        <ele>2541.451</ele>
        <time>2013-06-11T06:29:00Z</time>
      </trkpt>
      <trkpt lat="42.80484" lon="0.15892">
        <ele>2540.995</ele>
        <time>2013-06-11T06:29:01Z</time>
      </trkpt>
      <trkpt lat="42.80484" lon="0.15892">
        <ele>2540.949</ele>
        <time>2013-06-11T06:29:06Z</time>
      </trkpt>
      <trkpt lat="42.80482" lon="0.15889">
        <ele>2541.423</ele>
        <time>2013-06-11T06:29:09Z</time>
      </trkpt>
      <trkpt lat="42.80482" lon="0.15889">
        <ele>2541.407</ele>
        <time>2013-06-11T06:29:11Z</time>
      </trkpt>
      <trkpt lat="42.80482" lon="0.15889">
        <ele>2541.933</ele>
        <time>2013-06-11T06:29:23Z</time>
      </trkpt>
      <trkpt lat="42.80482" lon="0.15887">
        <ele>2543.375</ele>
        <time>2013-06-11T06:29:29Z</time>
      </trkpt>
      <trkpt lat="42.80482" lon="0.15885">
        <ele>2543.835</ele>
        <time>2013-06-11T06:29:32Z</time>
      </trkpt>
      <trkpt lat="42.80482" lon="0.15885">
        <ele>2543.831</ele>
        <time>2013-06-11T06:29:37Z</time>
      </trkpt>
      <trkpt lat="42.80482" lon="0.15883">
        <ele>2544.759</ele>
        <time>2013-06-11T06:29:41Z</time>
      </trkpt>
      <trkpt lat="42.80479" lon="0.15883">
        <ele>2542.829</ele>
        <time>2013-06-11T06:29:53Z</time>
      </trkpt>
      <trkpt lat="42.80477" lon="0.15881">
        <ele>2543.388</ele>
        <time>2013-06-11T06:29:56Z</time>
      </trkpt>
      <trkpt lat="42.80477" lon="0.15881">
        <ele>2544.382</ele>
        <time>2013-06-11T06:29:58Z</time>
      </trkpt>
      <trkpt lat="42.80477" lon="0.15881">
        <ele>2544.343</ele>
        <time>2013-06-11T06:30:01Z</time>
      </trkpt>
      <trkpt lat="42.80477" lon="0.15879">
        <ele>2544.717</ele>
        <time>2013-06-11T06:30:03Z</time>
      </trkpt>
      <trkpt lat="42.80477" lon="0.15879">
        <ele>2545.707</ele>
        <time>2013-06-11T06:30:09Z</time>
      </trkpt>
      <trkpt lat="42.80479" lon="0.15879">
        <ele>2545.792</ele>
        <time>2013-06-11T06:30:12Z</time>
      </trkpt>
      <trkpt lat="42.80479" lon="0.15874">
        <ele>2546.774</ele>
        <time>2013-06-11T06:30:17Z</time>
      </trkpt>
      <trkpt lat="42.80479" lon="0.15874">
        <ele>2548.634</ele>
        <time>2013-06-11T06:30:21Z</time>
      </trkpt>
      <trkpt lat="42.80479" lon="0.15872">
        <ele>2549.13</ele>
        <time>2013-06-11T06:30:25Z</time>
      </trkpt>
      <trkpt lat="42.80477" lon="0.1587">
        <ele>2548.628</ele>
        <time>2013-06-11T06:30:33Z</time>
      </trkpt>
      <trkpt lat="42.80477" lon="0.1587">
        <ele>2549.198</ele>
        <time>2013-06-11T06:30:35Z</time>
      </trkpt>
      <trkpt lat="42.80477" lon="0.15866">
        <ele>2550.027</ele>
        <time>2013-06-11T06:30:42Z</time>
      </trkpt>
      <trkpt lat="42.80479" lon="0.15864">
        <ele>2551.097</ele>
        <time>2013-06-11T06:30:45Z</time>
      </trkpt>
      <trkpt lat="42.80477" lon="0.15864">
        <ele>2554.823</ele>
        <time>2013-06-11T06:31:03Z</time>
      </trkpt>
      <trkpt lat="42.80477" lon="0.15866">
        <ele>2554.425</ele>
        <time>2013-06-11T06:31:11Z</time>
      </trkpt>
      <trkpt lat="42.80477" lon="0.15864">
        <ele>2554.407</ele>
        <time>2013-06-11T06:31:13Z</time>
      </trkpt>
      <trkpt lat="42.80477" lon="0.15864">
        <ele>2554.443</ele>
        <time>2013-06-11T06:31:16Z</time>
      </trkpt>
      <trkpt lat="42.80477" lon="0.15862">
        <ele>2554.825</ele>
        <time>2013-06-11T06:31:20Z</time>
      </trkpt>
      <trkpt lat="42.80475" lon="0.15857">
        <ele>2554.855</ele>
        <time>2013-06-11T06:31:28Z</time>
      </trkpt>
      <trkpt lat="42.80477" lon="0.15853">
        <ele>2554.811</ele>
        <time>2013-06-11T06:31:34Z</time>
      </trkpt>
      <trkpt lat="42.80475" lon="0.15851">
        <ele>2553.469</ele>
        <time>2013-06-11T06:31:37Z</time>
      </trkpt>
      <trkpt lat="42.80473" lon="0.15849">
        <ele>2553.919</ele>
        <time>2013-06-11T06:31:43Z</time>
      </trkpt>
      <trkpt lat="42.80473" lon="0.15849">
        <ele>2554.478</ele>
        <time>2013-06-11T06:31:45Z</time>
      </trkpt>
      <trkpt lat="42.80473" lon="0.15847">
        <ele>2553.478</ele>
        <time>2013-06-11T06:32:30Z</time>
      </trkpt>
      <trkpt lat="42.80473" lon="0.15842">
        <ele>2553.433</ele>
        <time>2013-06-11T06:33:00Z</time>
      </trkpt>
      <trkpt lat="42.80475" lon="0.15842">
        <ele>2557.226</ele>
        <time>2013-06-11T06:33:21Z</time>
      </trkpt>
      <trkpt lat="42.80473" lon="0.15838">
        <ele>2557.207</ele>
        <time>2013-06-11T06:33:29Z</time>
      </trkpt>
      <trkpt lat="42.80475" lon="0.15836">
        <ele>2557.271</ele>
        <time>2013-06-11T06:33:30Z</time>
      </trkpt>
      <trkpt lat="42.80475" lon="0.15834">
        <ele>2560.133</ele>
        <time>2013-06-11T06:33:36Z</time>
      </trkpt>
      <trkpt lat="42.80475" lon="0.15827">
        <ele>2560.113</ele>
        <time>2013-06-11T06:33:43Z</time>
      </trkpt>
      <trkpt lat="42.80473" lon="0.15827">
        <ele>2560.689</ele>
        <time>2013-06-11T06:33:45Z</time>
      </trkpt>
      <trkpt lat="42.80473" lon="0.15827">
        <ele>2561.167</ele>
        <time>2013-06-11T06:33:48Z</time>
      </trkpt>
      <trkpt lat="42.80473" lon="0.15823">
        <ele>2562.127</ele>
        <time>2013-06-11T06:33:54Z</time>
      </trkpt>
      <trkpt lat="42.80473" lon="0.15819">
        <ele>2562.596</ele>
        <time>2013-06-11T06:33:59Z</time>
      </trkpt>
      <trkpt lat="42.80473" lon="0.15817">
        <ele>2563.591</ele>
        <time>2013-06-11T06:34:03Z</time>
      </trkpt>
      <trkpt lat="42.80473" lon="0.15814">
        <ele>2564.081</ele>
        <time>2013-06-11T06:34:06Z</time>
      </trkpt>
      <trkpt lat="42.80471" lon="0.15814">
        <ele>2564.519</ele>
        <time>2013-06-11T06:34:10Z</time>
      </trkpt>
      <trkpt lat="42.80467" lon="0.15812">
        <ele>2554.807</ele>
        <time>2013-06-11T06:34:27Z</time>
      </trkpt>
      <trkpt lat="42.80467" lon="0.15812">
        <ele>2566.963</ele>
        <time>2013-06-11T06:35:13Z</time>
      </trkpt>
      <trkpt lat="42.80469" lon="0.15814">
        <ele>2569.315</ele>
        <time>2013-06-11T06:35:16Z</time>
      </trkpt>
      <trkpt lat="42.80469" lon="0.15814">
        <ele>2569.395</ele>
        <time>2013-06-11T06:35:17Z</time>
      </trkpt>
      <trkpt lat="42.80469" lon="0.15812">
        <ele>2568.861</ele>
        <time>2013-06-11T06:35:19Z</time>
      </trkpt>
      <trkpt lat="42.80469" lon="0.1581">
        <ele>2569.719</ele>
        <time>2013-06-11T06:35:23Z</time>
      </trkpt>
      <trkpt lat="42.80469" lon="0.1581">
        <ele>2570.269</ele>
        <time>2013-06-11T06:35:25Z</time>
      </trkpt>
      <trkpt lat="42.80469" lon="0.15808">
        <ele>2570.218</ele>
        <time>2013-06-11T06:35:28Z</time>
      </trkpt>
      <trkpt lat="42.80469" lon="0.15806">
        <ele>2570.267</ele>
        <time>2013-06-11T06:35:31Z</time>
      </trkpt>
      <trkpt lat="42.80469" lon="0.15806">
        <ele>2570.281</ele>
        <time>2013-06-11T06:35:32Z</time>
      </trkpt>
      <trkpt lat="42.80469" lon="0.15801">
        <ele>2570.219</ele>
        <time>2013-06-11T06:35:35Z</time>
      </trkpt>
      <trkpt lat="42.80469" lon="0.15801">
        <ele>2570.707</ele>
        <time>2013-06-11T06:35:36Z</time>
      </trkpt>
      <trkpt lat="42.80467" lon="0.15799">
        <ele>2571.27</ele>
        <time>2013-06-11T06:35:40Z</time>
      </trkpt>
      <trkpt lat="42.80469" lon="0.15799">
        <ele>2571.712</ele>
        <time>2013-06-11T06:35:42Z</time>
      </trkpt>
      <trkpt lat="42.80469" lon="0.15799">
        <ele>2574.512</ele>
        <time>2013-06-11T06:35:53Z</time>
      </trkpt>
      <trkpt lat="42.80471" lon="0.15801">
        <ele>2576.568</ele>
        <time>2013-06-11T06:36:14Z</time>
      </trkpt>
      <trkpt lat="42.80469" lon="0.15804">
        <ele>2577.046</ele>
        <time>2013-06-11T06:36:17Z</time>
      </trkpt>
      <trkpt lat="42.80471" lon="0.15804">
        <ele>2577.496</ele>
        <time>2013-06-11T06:36:19Z</time>
      </trkpt>
      <trkpt lat="42.80469" lon="0.15806">
        <ele>2577.425</ele>
        <time>2013-06-11T06:36:25Z</time>
      </trkpt>
      <trkpt lat="42.80469" lon="0.15804">
        <ele>2577.495</ele>
        <time>2013-06-11T06:36:36Z</time>
      </trkpt>
      <trkpt lat="42.80467" lon="0.15806">
        <ele>2577.449</ele>
        <time>2013-06-11T06:36:38Z</time>
      </trkpt>
      <trkpt lat="42.80462" lon="0.1581">
        <ele>2577.923</ele>
        <time>2013-06-11T06:36:46Z</time>
      </trkpt>
      <trkpt lat="42.80462" lon="0.1581">
        <ele>2579.407</ele>
        <time>2013-06-11T06:36:48Z</time>
      </trkpt>
      <trkpt lat="42.80462" lon="0.1581">
        <ele>2579.483</ele>
        <time>2013-06-11T06:36:51Z</time>
      </trkpt>
      <trkpt lat="42.80462" lon="0.1581">
        <ele>2578.925</ele>
        <time>2013-06-11T06:36:56Z</time>
      </trkpt>
      <trkpt lat="42.80462" lon="0.15814">
        <ele>2584.285</ele>
        <time>2013-06-11T06:37:15Z</time>
      </trkpt>
      <trkpt lat="42.80462" lon="0.15817">
        <ele>2584.261</ele>
        <time>2013-06-11T06:37:19Z</time>
      </trkpt>
      <trkpt lat="42.8046" lon="0.15819">
        <ele>2584.289</ele>
        <time>2013-06-11T06:37:22Z</time>
      </trkpt>
      <trkpt lat="42.8046" lon="0.15819">
        <ele>2584.639</ele>
        <time>2013-06-11T06:37:24Z</time>
      </trkpt>
      <trkpt lat="42.80458" lon="0.15821">
        <ele>2585.148</ele>
        <time>2013-06-11T06:37:27Z</time>
      </trkpt>
      <trkpt lat="42.80456" lon="0.15823">
        <ele>2585.183</ele>
        <time>2013-06-11T06:37:30Z</time>
      </trkpt>
      <trkpt lat="42.80456" lon="0.15823">
        <ele>2585.125</ele>
        <time>2013-06-11T06:37:31Z</time>
      </trkpt>
      <trkpt lat="42.80456" lon="0.15825">
        <ele>2585.617</ele>
        <time>2013-06-11T06:37:35Z</time>
      </trkpt>
      <trkpt lat="42.80454" lon="0.15825">
        <ele>2585.107</ele>
        <time>2013-06-11T06:37:37Z</time>
      </trkpt>
      <trkpt lat="42.80454" lon="0.15825">
        <ele>2583.212</ele>
        <time>2013-06-11T06:37:40Z</time>
      </trkpt>
      <trkpt lat="42.80452" lon="0.15825">
        <ele>2581.824</ele>
        <time>2013-06-11T06:37:45Z</time>
      </trkpt>
      <trkpt lat="42.80449" lon="0.15827">
        <ele>2582.794</ele>
        <time>2013-06-11T06:37:46Z</time>
      </trkpt>
      <trkpt lat="42.80447" lon="0.15832">
        <ele>2584.25</ele>
        <time>2013-06-11T06:37:52Z</time>
      </trkpt>
      <trkpt lat="42.80447" lon="0.15829">
        <ele>2584.278</ele>
        <time>2013-06-11T06:37:55Z</time>
      </trkpt>
      <trkpt lat="42.80447" lon="0.15829">
        <ele>2584.298</ele>
        <time>2013-06-11T06:37:56Z</time>
      </trkpt>
      <trkpt lat="42.80445" lon="0.15832">
        <ele>2585.187</ele>
        <time>2013-06-11T06:38:06Z</time>
      </trkpt>
      <trkpt lat="42.80445" lon="0.15834">
        <ele>2586.181</ele>
        <time>2013-06-11T06:38:11Z</time>
      </trkpt>
      <trkpt lat="42.80441" lon="0.15838">
        <ele>2587.061</ele>
        <time>2013-06-11T06:38:20Z</time>
      </trkpt>
      <trkpt lat="42.80441" lon="0.15838">
        <ele>2587.517</ele>
        <time>2013-06-11T06:38:26Z</time>
      </trkpt>
      <trkpt lat="42.80441" lon="0.1584">
        <ele>2587.007</ele>
        <time>2013-06-11T06:38:30Z</time>
      </trkpt>
      <trkpt lat="42.80439" lon="0.15842">
        <ele>2587.572</ele>
        <time>2013-06-11T06:38:33Z</time>
      </trkpt>
      <trkpt lat="42.80439" lon="0.15842">
        <ele>2587.064</ele>
        <time>2013-06-11T06:38:34Z</time>
      </trkpt>
      <trkpt lat="42.80439" lon="0.15842">
        <ele>2587.084</ele>
        <time>2013-06-11T06:38:36Z</time>
      </trkpt>
      <trkpt lat="42.80439" lon="0.15844">
        <ele>2588.56</ele>
        <time>2013-06-11T06:38:40Z</time>
      </trkpt>
      <trkpt lat="42.80439" lon="0.15844">
        <ele>2589.018</ele>
        <time>2013-06-11T06:38:43Z</time>
      </trkpt>
      <trkpt lat="42.80439" lon="0.15844">
        <ele>2589.078</ele>
        <time>2013-06-11T06:38:49Z</time>
      </trkpt>
      <trkpt lat="42.80439" lon="0.15844">
        <ele>2589.917</ele>
        <time>2013-06-11T06:38:50Z</time>
      </trkpt>
      <trkpt lat="42.80436" lon="0.15849">
        <ele>2591.425</ele>
        <time>2013-06-11T06:38:54Z</time>
      </trkpt>
      <trkpt lat="42.80434" lon="0.15849">
        <ele>2591.926</ele>
        <time>2013-06-11T06:38:55Z</time>
      </trkpt>
      <trkpt lat="42.80434" lon="0.15851">
        <ele>2592.308</ele>
        <time>2013-06-11T06:39:00Z</time>
      </trkpt>
      <trkpt lat="42.80434" lon="0.15851">
        <ele>2592.307</ele>
        <time>2013-06-11T06:39:01Z</time>
      </trkpt>
      <trkpt lat="42.80434" lon="0.15853">
        <ele>2592.836</ele>
        <time>2013-06-11T06:39:07Z</time>
      </trkpt>
      <trkpt lat="42.80434" lon="0.15853">
        <ele>2595.748</ele>
        <time>2013-06-11T06:39:33Z</time>
      </trkpt>
      <trkpt lat="42.80434" lon="0.15853">
        <ele>2595.758</ele>
        <time>2013-06-11T06:39:36Z</time>
      </trkpt>
      <trkpt lat="42.80434" lon="0.15855">
        <ele>2595.774</ele>
        <time>2013-06-11T06:39:39Z</time>
      </trkpt>
      <trkpt lat="42.80432" lon="0.15859">
        <ele>2596.762</ele>
        <time>2013-06-11T06:39:44Z</time>
      </trkpt>
      <trkpt lat="42.8043" lon="0.15862">
        <ele>2596.752</ele>
        <time>2013-06-11T06:39:46Z</time>
      </trkpt>
      <trkpt lat="42.8043" lon="0.15864">
        <ele>2595.771</ele>
        <time>2013-06-11T06:39:53Z</time>
      </trkpt>
      <trkpt lat="42.80428" lon="0.15864">
        <ele>2595.799</ele>
        <time>2013-06-11T06:39:54Z</time>
      </trkpt>
      <trkpt lat="42.80428" lon="0.15864">
        <ele>2594.707</ele>
        <time>2013-06-11T06:39:57Z</time>
      </trkpt>
      <trkpt lat="42.8043" lon="0.15862">
        <ele>2603.427</ele>
        <time>2013-06-11T06:40:23Z</time>
      </trkpt>
      <trkpt lat="42.80434" lon="0.15862">
        <ele>2603.907</ele>
        <time>2013-06-11T06:40:31Z</time>
      </trkpt>
      <trkpt lat="42.80426" lon="0.15862">
        <ele>2592.313</ele>
        <time>2013-06-11T06:43:05Z</time>
      </trkpt>
      <trkpt lat="42.80426" lon="0.15859">
        <ele>2587.545</ele>
        <time>2013-06-11T06:45:54Z</time>
      </trkpt>
      <trkpt lat="42.80421" lon="0.15857">
        <ele>2587.575</ele>
        <time>2013-06-11T06:46:01Z</time>
      </trkpt>
      <trkpt lat="42.80421" lon="0.15855">
        <ele>2588.531</ele>
        <time>2013-06-11T06:46:05Z</time>
      </trkpt>
      <trkpt lat="42.80421" lon="0.15851">
        <ele>2589.039</ele>
        <time>2013-06-11T06:46:07Z</time>
      </trkpt>
      <trkpt lat="42.80421" lon="0.15851">
        <ele>2589.449</ele>
        <time>2013-06-11T06:46:09Z</time>
      </trkpt>
      <trkpt lat="42.80421" lon="0.15851">
        <ele>2589.478</ele>
        <time>2013-06-11T06:46:15Z</time>
      </trkpt>
      <trkpt lat="42.80419" lon="0.1584">
        <ele>2591.977</ele>
        <time>2013-06-11T06:46:28Z</time>
      </trkpt>
      <trkpt lat="42.80417" lon="0.1584">
        <ele>2592.361</ele>
        <time>2013-06-11T06:46:30Z</time>
      </trkpt>
      <trkpt lat="42.80417" lon="0.1584">
        <ele>2592.327</ele>
        <time>2013-06-11T06:46:33Z</time>
      </trkpt>
      <trkpt lat="42.80417" lon="0.15838">
        <ele>2592.807</ele>
        <time>2013-06-11T06:46:36Z</time>
      </trkpt>
      <trkpt lat="42.80417" lon="0.15834">
        <ele>2592.391</ele>
        <time>2013-06-11T06:46:40Z</time>
      </trkpt>
      <trkpt lat="42.80413" lon="0.15832">
        <ele>2592.853</ele>
        <time>2013-06-11T06:46:48Z</time>
      </trkpt>
      <trkpt lat="42.80413" lon="0.15827">
        <ele>2593.853</ele>
        <time>2013-06-11T06:46:54Z</time>
      </trkpt>
      <trkpt lat="42.80411" lon="0.15825">
        <ele>2593.889</ele>
        <time>2013-06-11T06:46:57Z</time>
      </trkpt>
      <trkpt lat="42.80411" lon="0.15825">
        <ele>2596.277</ele>
        <time>2013-06-11T06:47:07Z</time>
      </trkpt>
      <trkpt lat="42.80409" lon="0.15817">
        <ele>2598.697</ele>
        <time>2013-06-11T06:47:23Z</time>
      </trkpt>
      <trkpt lat="42.80409" lon="0.15814">
        <ele>2598.656</ele>
        <time>2013-06-11T06:47:27Z</time>
      </trkpt>
      <trkpt lat="42.80409" lon="0.15812">
        <ele>2598.621</ele>
        <time>2013-06-11T06:47:30Z</time>
      </trkpt>
      <trkpt lat="42.80407" lon="0.15814">
        <ele>2599.141</ele>
        <time>2013-06-11T06:47:53Z</time>
      </trkpt>
      <trkpt lat="42.804" lon="0.15819">
        <ele>2601.505</ele>
        <time>2013-06-11T06:48:05Z</time>
      </trkpt>
      <trkpt lat="42.804" lon="0.15819">
        <ele>2601.907</ele>
        <time>2013-06-11T06:48:06Z</time>
      </trkpt>
      <trkpt lat="42.804" lon="0.15821">
        <ele>2604.356</ele>
        <time>2013-06-11T06:48:25Z</time>
      </trkpt>
      <trkpt lat="42.80398" lon="0.15823">
        <ele>2605.378</ele>
        <time>2013-06-11T06:48:30Z</time>
      </trkpt>
      <trkpt lat="42.80398" lon="0.15823">
        <ele>2604.898</ele>
        <time>2013-06-11T06:48:31Z</time>
      </trkpt>
      <trkpt lat="42.80398" lon="0.15825">
        <ele>2605.854</ele>
        <time>2013-06-11T06:48:33Z</time>
      </trkpt>
      <trkpt lat="42.80398" lon="0.15825">
        <ele>2606.392</ele>
        <time>2013-06-11T06:48:35Z</time>
      </trkpt>
      <trkpt lat="42.80396" lon="0.15827">
        <ele>2606.392</ele>
        <time>2013-06-11T06:48:40Z</time>
      </trkpt>
      <trkpt lat="42.80396" lon="0.15829">
        <ele>2606.891</ele>
        <time>2013-06-11T06:48:44Z</time>
      </trkpt>
      <trkpt lat="42.80396" lon="0.15829">
        <ele>2609.238</ele>
        <time>2013-06-11T06:49:10Z</time>
      </trkpt>
      <trkpt lat="42.80394" lon="0.15836">
        <ele>2606.87</ele>
        <time>2013-06-11T06:49:43Z</time>
      </trkpt>
      <trkpt lat="42.80391" lon="0.1584">
        <ele>2605.817</ele>
        <time>2013-06-11T06:49:51Z</time>
      </trkpt>
      <trkpt lat="42.80391" lon="0.15844">
        <ele>2607.707</ele>
        <time>2013-06-11T06:49:57Z</time>
      </trkpt>
      <trkpt lat="42.80391" lon="0.15847">
        <ele>2609.247</ele>
        <time>2013-06-11T06:50:04Z</time>
      </trkpt>
      <trkpt lat="42.80391" lon="0.15851">
        <ele>2609.279</ele>
        <time>2013-06-11T06:50:07Z</time>
      </trkpt>
      <trkpt lat="42.80391" lon="0.15851">
        <ele>2609.639</ele>
        <time>2013-06-11T06:50:09Z</time>
      </trkpt>
      <trkpt lat="42.80389" lon="0.15857">
        <ele>2610.195</ele>
        <time>2013-06-11T06:50:17Z</time>
      </trkpt>
      <trkpt lat="42.80389" lon="0.15859">
        <ele>2610.113</ele>
        <time>2013-06-11T06:50:22Z</time>
      </trkpt>
      <trkpt lat="42.80389" lon="0.15859">
        <ele>2610.173</ele>
        <time>2013-06-11T06:50:27Z</time>
      </trkpt>
      <trkpt lat="42.80387" lon="0.15857">
        <ele>2612.012</ele>
        <time>2013-06-11T06:50:46Z</time>
      </trkpt>
      <trkpt lat="42.80385" lon="0.15853">
        <ele>2612.038</ele>
        <time>2013-06-11T06:50:52Z</time>
      </trkpt>
      <trkpt lat="42.80383" lon="0.15851">
        <ele>2611.67</ele>
        <time>2013-06-11T06:50:58Z</time>
      </trkpt>
      <trkpt lat="42.80383" lon="0.15849">
        <ele>2612.517</ele>
        <time>2013-06-11T06:51:01Z</time>
      </trkpt>
      <trkpt lat="42.80379" lon="0.15847">
        <ele>2612.507</ele>
        <time>2013-06-11T06:51:11Z</time>
      </trkpt>
      <trkpt lat="42.80376" lon="0.15844">
        <ele>2612.517</ele>
        <time>2013-06-11T06:51:14Z</time>
      </trkpt>
      <trkpt lat="42.80376" lon="0.15844">
        <ele>2611.629</ele>
        <time>2013-06-11T06:51:19Z</time>
      </trkpt>
      <trkpt lat="42.80374" lon="0.15842">
        <ele>2613.599</ele>
        <time>2013-06-11T06:51:21Z</time>
      </trkpt>
      <trkpt lat="42.8037" lon="0.15842">
        <ele>2628.495</ele>
        <time>2013-06-11T06:51:38Z</time>
      </trkpt>
      <trkpt lat="42.80372" lon="0.15838">
        <ele>2630.893</ele>
        <time>2013-06-11T06:51:57Z</time>
      </trkpt>
      <trkpt lat="42.8037" lon="0.15836">
        <ele>2628.443</ele>
        <time>2013-06-11T06:52:01Z</time>
      </trkpt>
      <trkpt lat="42.80368" lon="0.15836">
        <ele>2627.912</ele>
        <time>2013-06-11T06:52:06Z</time>
      </trkpt>
      <trkpt lat="42.80366" lon="0.15832">
        <ele>2628.466</ele>
        <time>2013-06-11T06:52:12Z</time>
      </trkpt>
      <trkpt lat="42.80364" lon="0.15829">
        <ele>2628.429</ele>
        <time>2013-06-11T06:52:24Z</time>
      </trkpt>
      <trkpt lat="42.80362" lon="0.15827">
        <ele>2628.921</ele>
        <time>2013-06-11T06:52:27Z</time>
      </trkpt>
      <trkpt lat="42.80359" lon="0.15827">
        <ele>2628.907</ele>
        <time>2013-06-11T06:52:31Z</time>
      </trkpt>
      <trkpt lat="42.80359" lon="0.15825">
        <ele>2628.98</ele>
        <time>2013-06-11T06:52:34Z</time>
      </trkpt>
      <trkpt lat="42.80357" lon="0.15825">
        <ele>2629.322</ele>
        <time>2013-06-11T06:52:37Z</time>
      </trkpt>
      <trkpt lat="42.80355" lon="0.15823">
        <ele>2629.342</ele>
        <time>2013-06-11T06:52:40Z</time>
      </trkpt>
      <trkpt lat="42.80355" lon="0.15821">
        <ele>2629.348</ele>
        <time>2013-06-11T06:52:44Z</time>
      </trkpt>
      <trkpt lat="42.80355" lon="0.15819">
        <ele>2629.386</ele>
        <time>2013-06-11T06:52:46Z</time>
      </trkpt>
      <trkpt lat="42.80353" lon="0.15819">
        <ele>2629.366</ele>
        <time>2013-06-11T06:52:49Z</time>
      </trkpt>
      <trkpt lat="42.80353" lon="0.15817">
        <ele>2629.315</ele>
        <time>2013-06-11T06:52:51Z</time>
      </trkpt>
      <trkpt lat="42.80351" lon="0.15817">
        <ele>2629.334</ele>
        <time>2013-06-11T06:52:54Z</time>
      </trkpt>
      <trkpt lat="42.80349" lon="0.15814">
        <ele>2629.355</ele>
        <time>2013-06-11T06:52:57Z</time>
      </trkpt>
      <trkpt lat="42.80349" lon="0.15814">
        <ele>2629.31</ele>
        <time>2013-06-11T06:52:58Z</time>
      </trkpt>
      <trkpt lat="42.80349" lon="0.15814">
        <ele>2629.307</ele>
        <time>2013-06-11T06:53:00Z</time>
      </trkpt>
      <trkpt lat="42.80346" lon="0.1581">
        <ele>2629.897</ele>
        <time>2013-06-11T06:53:27Z</time>
      </trkpt>
      <trkpt lat="42.80349" lon="0.15791">
        <ele>2630.329</ele>
        <time>2013-06-11T06:54:11Z</time>
      </trkpt>
      <trkpt lat="42.80349" lon="0.15797">
        <ele>2630.379</ele>
        <time>2013-06-11T06:54:14Z</time>
      </trkpt>
      <trkpt lat="42.80346" lon="0.15797">
        <ele>2630.385</ele>
        <time>2013-06-11T06:54:15Z</time>
      </trkpt>
      <trkpt lat="42.80346" lon="0.15795">
        <ele>2630.373</ele>
        <time>2013-06-11T06:54:23Z</time>
      </trkpt>
      <trkpt lat="42.80344" lon="0.15795">
        <ele>2630.373</ele>
        <time>2013-06-11T06:54:28Z</time>
      </trkpt>
      <trkpt lat="42.8034" lon="0.15795">
        <ele>2630.842</ele>
        <time>2013-06-11T06:54:36Z</time>
      </trkpt>
      <trkpt lat="42.80338" lon="0.15795">
        <ele>2630.823</ele>
        <time>2013-06-11T06:54:44Z</time>
      </trkpt>
      <trkpt lat="42.80336" lon="0.15791">
        <ele>2630.883</ele>
        <time>2013-06-11T06:54:52Z</time>
      </trkpt>
      <trkpt lat="42.80333" lon="0.15791">
        <ele>2630.811</ele>
        <time>2013-06-11T06:55:01Z</time>
      </trkpt>
      <trkpt lat="42.80331" lon="0.15791">
        <ele>2630.807</ele>
        <time>2013-06-11T06:55:04Z</time>
      </trkpt>
      <trkpt lat="42.80331" lon="0.15791">
        <ele>2631.366</ele>
        <time>2013-06-11T06:55:08Z</time>
      </trkpt>
      <trkpt lat="42.80331" lon="0.15793">
        <ele>2631.348</ele>
        <time>2013-06-11T06:55:11Z</time>
      </trkpt>
      <trkpt lat="42.80331" lon="0.15793">
        <ele>2631.318</ele>
        <time>2013-06-11T06:55:19Z</time>
      </trkpt>
      <trkpt lat="42.80331" lon="0.15795">
        <ele>2631.384</ele>
        <time>2013-06-11T06:55:23Z</time>
      </trkpt>
      <trkpt lat="42.80331" lon="0.15797">
        <ele>2631.792</ele>
        <time>2013-06-11T06:55:32Z</time>
      </trkpt>
      <trkpt lat="42.80331" lon="0.15801">
        <ele>2631.772</ele>
        <time>2013-06-11T06:55:36Z</time>
      </trkpt>
      <trkpt lat="42.80331" lon="0.15801">
        <ele>2631.731</ele>
        <time>2013-06-11T06:55:41Z</time>
      </trkpt>
      <trkpt lat="42.80331" lon="0.15808">
        <ele>2632.241</ele>
        <time>2013-06-11T06:55:52Z</time>
      </trkpt>
      <trkpt lat="42.80331" lon="0.1581">
        <ele>2632.281</ele>
        <time>2013-06-11T06:55:56Z</time>
      </trkpt>
      <trkpt lat="42.80331" lon="0.1581">
        <ele>2632.209</ele>
        <time>2013-06-11T06:55:58Z</time>
      </trkpt>
      <trkpt lat="42.80331" lon="0.15814">
        <ele>2632.207</ele>
        <time>2013-06-11T06:56:17Z</time>
      </trkpt>
      <trkpt lat="42.80331" lon="0.15812">
        <ele>2633.218</ele>
        <time>2013-06-11T06:56:33Z</time>
      </trkpt>
      <trkpt lat="42.80331" lon="0.15812">
        <ele>2633.26</ele>
        <time>2013-06-11T06:56:38Z</time>
      </trkpt>
      <trkpt lat="42.80329" lon="0.15817">
        <ele>2633.28</ele>
        <time>2013-06-11T06:56:41Z</time>
      </trkpt>
      <trkpt lat="42.80331" lon="0.15821">
        <ele>2634.166</ele>
        <time>2013-06-11T06:57:29Z</time>
      </trkpt>
      <trkpt lat="42.80331" lon="0.15827">
        <ele>2634.174</ele>
        <time>2013-06-11T06:57:32Z</time>
      </trkpt>
      <trkpt lat="42.80331" lon="0.15829">
        <ele>2634.144</ele>
        <time>2013-06-11T06:57:35Z</time>
      </trkpt>
      <trkpt lat="42.80329" lon="0.15829">
        <ele>2634.173</ele>
        <time>2013-06-11T06:57:37Z</time>
      </trkpt>
      <trkpt lat="42.80329" lon="0.15829">
        <ele>2634.141</ele>
        <time>2013-06-11T06:57:43Z</time>
      </trkpt>
      <trkpt lat="42.80329" lon="0.15834">
        <ele>2634.681</ele>
        <time>2013-06-11T06:57:49Z</time>
      </trkpt>
      <trkpt lat="42.80329" lon="0.15834">
        <ele>2634.609</ele>
        <time>2013-06-11T06:57:52Z</time>
      </trkpt>
      <trkpt lat="42.80329" lon="0.15836">
        <ele>2634.607</ele>
        <time>2013-06-11T06:57:55Z</time>
      </trkpt>
      <trkpt lat="42.80329" lon="0.15838">
        <ele>2635.198</ele>
        <time>2013-06-11T06:58:00Z</time>
      </trkpt>
      <trkpt lat="42.80329" lon="0.15838">
        <ele>2635.19</ele>
        <time>2013-06-11T06:58:01Z</time>
      </trkpt>
      <trkpt lat="42.80329" lon="0.15838">
        <ele>2635.19</ele>
        <time>2013-06-11T06:58:03Z</time>
      </trkpt>
      <trkpt lat="42.80329" lon="0.15838">
        <ele>2635.686</ele>
        <time>2013-06-11T06:58:12Z</time>
      </trkpt>
      <trkpt lat="42.80329" lon="0.1584">
        <ele>2635.644</ele>
        <time>2013-06-11T06:58:15Z</time>
      </trkpt>
      <trkpt lat="42.80329" lon="0.15842">
        <ele>2636.184</ele>
        <time>2013-06-11T06:58:20Z</time>
      </trkpt>
      <trkpt lat="42.80329" lon="0.15844">
        <ele>2636.133</ele>
        <time>2013-06-11T06:58:24Z</time>
      </trkpt>
      <trkpt lat="42.80329" lon="0.15844">
        <ele>2636.662</ele>
        <time>2013-06-11T06:58:26Z</time>
      </trkpt>
      <trkpt lat="42.80327" lon="0.15844">
        <ele>2636.683</ele>
        <time>2013-06-11T06:58:38Z</time>
      </trkpt>
      <trkpt lat="42.80327" lon="0.15842">
        <ele>2640.911</ele>
        <time>2013-06-11T06:58:54Z</time>
      </trkpt>
      <trkpt lat="42.80327" lon="0.15842">
        <ele>2640.907</ele>
        <time>2013-06-11T06:58:56Z</time>
      </trkpt>
      <trkpt lat="42.80327" lon="0.15842">
        <ele>2642.83</ele>
        <time>2013-06-11T06:59:00Z</time>
      </trkpt>
      <trkpt lat="42.80325" lon="0.15842">
        <ele>2644.232</ele>
        <time>2013-06-11T06:59:02Z</time>
      </trkpt>
      <trkpt lat="42.80325" lon="0.1584">
        <ele>2655.362</ele>
        <time>2013-06-11T06:59:33Z</time>
      </trkpt>
      <trkpt lat="42.80325" lon="0.1584">
        <ele>2655.868</ele>
        <time>2013-06-11T06:59:38Z</time>
      </trkpt>
      <trkpt lat="42.80327" lon="0.1584">
        <ele>2655.826</ele>
        <time>2013-06-11T06:59:55Z</time>
      </trkpt>
      <trkpt lat="42.80323" lon="0.15847">
        <ele>2652.996</ele>
        <time>2013-06-11T07:02:19Z</time>
      </trkpt>
      <trkpt lat="42.80325" lon="0.15842">
        <ele>2655.865</ele>
        <time>2013-06-11T07:05:52Z</time>
      </trkpt>
      <trkpt lat="42.80325" lon="0.15847">
        <ele>2657.228</ele>
        <time>2013-06-11T07:06:06Z</time>
      </trkpt>
      <trkpt lat="42.80323" lon="0.15849">
        <ele>2664.089</ele>
        <time>2013-06-11T07:06:35Z</time>
      </trkpt>
      <trkpt lat="42.80319" lon="0.15853">
        <ele>2666.417</ele>
        <time>2013-06-11T07:07:27Z</time>
      </trkpt>
      <trkpt lat="42.80314" lon="0.15855">
        <ele>2668.307</ele>
        <time>2013-06-11T07:07:32Z</time>
      </trkpt>
      <trkpt lat="42.80314" lon="0.15855">
        <ele>2667.876</ele>
        <time>2013-06-11T07:07:41Z</time>
      </trkpt>
      <trkpt lat="42.80312" lon="0.15857">
        <ele>2669.238</ele>
        <time>2013-06-11T07:07:43Z</time>
      </trkpt>
      <trkpt lat="42.80312" lon="0.15857">
        <ele>2670.288</ele>
        <time>2013-06-11T07:07:46Z</time>
      </trkpt>
      <trkpt lat="42.80312" lon="0.15857">
        <ele>2670.724</ele>
        <time>2013-06-11T07:07:49Z</time>
      </trkpt>
      <trkpt lat="42.80312" lon="0.15857">
        <ele>2672.112</ele>
        <time>2013-06-11T07:07:54Z</time>
      </trkpt>
      <trkpt lat="42.80312" lon="0.15857">
        <ele>2672.642</ele>
        <time>2013-06-11T07:07:59Z</time>
      </trkpt>
      <trkpt lat="42.8031" lon="0.15859">
        <ele>2673.621</ele>
        <time>2013-06-11T07:08:07Z</time>
      </trkpt>
      <trkpt lat="42.8031" lon="0.15859">
        <ele>2676.498</ele>
        <time>2013-06-11T07:08:19Z</time>
      </trkpt>
      <trkpt lat="42.8031" lon="0.15859">
        <ele>2679.315</ele>
        <time>2013-06-11T07:08:31Z</time>
      </trkpt>
      <trkpt lat="42.8031" lon="0.15859">
        <ele>2680.326</ele>
        <time>2013-06-11T07:08:34Z</time>
      </trkpt>
      <trkpt lat="42.8031" lon="0.15862">
        <ele>2681.307</ele>
        <time>2013-06-11T07:08:42Z</time>
      </trkpt>
      <trkpt lat="42.8031" lon="0.15862">
        <ele>2681.343</ele>
        <time>2013-06-11T07:08:45Z</time>
      </trkpt>
      <trkpt lat="42.80308" lon="0.15862">
        <ele>2683.785</ele>
        <time>2013-06-11T07:09:01Z</time>
      </trkpt>
      <trkpt lat="42.80306" lon="0.15864">
        <ele>2685.675</ele>
        <time>2013-06-11T07:09:19Z</time>
      </trkpt>
      <trkpt lat="42.80308" lon="0.15864">
        <ele>2689.431</ele>
        <time>2013-06-11T07:09:55Z</time>
      </trkpt>
      <trkpt lat="42.80304" lon="0.15866">
        <ele>2689.939</ele>
        <time>2013-06-11T07:10:18Z</time>
      </trkpt>
      <trkpt lat="42.80304" lon="0.15868">
        <ele>2689.459</ele>
        <time>2013-06-11T07:10:45Z</time>
      </trkpt>
      <trkpt lat="42.80299" lon="0.15866">
        <ele>2691.858</ele>
        <time>2013-06-11T07:11:57Z</time>
      </trkpt>
      <trkpt lat="42.80304" lon="0.15862">
        <ele>2697.186</ele>
        <time>2013-06-11T07:14:38Z</time>
      </trkpt>
      <trkpt lat="42.80301" lon="0.15859">
        <ele>2696.26</ele>
        <time>2013-06-11T07:14:59Z</time>
      </trkpt>
      <trkpt lat="42.80304" lon="0.15857">
        <ele>2693.826</ele>
        <time>2013-06-11T07:15:14Z</time>
      </trkpt>
      <trkpt lat="42.80304" lon="0.15859">
        <ele>2691.807</ele>
        <time>2013-06-11T07:15:22Z</time>
      </trkpt>
      <trkpt lat="42.80304" lon="0.15857">
        <ele>2689.462</ele>
        <time>2013-06-11T07:15:31Z</time>
      </trkpt>
      <trkpt lat="42.80308" lon="0.15857">
        <ele>2684.614</ele>
        <time>2013-06-11T07:15:49Z</time>
      </trkpt>
      <trkpt lat="42.80308" lon="0.15855">
        <ele>2681.344</ele>
        <time>2013-06-11T07:15:54Z</time>
      </trkpt>
      <trkpt lat="42.80308" lon="0.15855">
        <ele>2680.88</ele>
        <time>2013-06-11T07:15:55Z</time>
      </trkpt>
      <trkpt lat="42.80308" lon="0.15855">
        <ele>2678.918</ele>
        <time>2013-06-11T07:16:00Z</time>
      </trkpt>
      <trkpt lat="42.8031" lon="0.15855">
        <ele>2678.438</ele>
        <time>2013-06-11T07:16:01Z</time>
      </trkpt>
      <trkpt lat="42.8031" lon="0.15855">
        <ele>2677.957</ele>
        <time>2013-06-11T07:16:05Z</time>
      </trkpt>
      <trkpt lat="42.8031" lon="0.15855">
        <ele>2676.956</ele>
        <time>2013-06-11T07:16:08Z</time>
      </trkpt>
      <trkpt lat="42.8031" lon="0.15853">
        <ele>2675.559</ele>
        <time>2013-06-11T07:16:11Z</time>
      </trkpt>
      <trkpt lat="42.80312" lon="0.15853">
        <ele>2675.014</ele>
        <time>2013-06-11T07:16:14Z</time>
      </trkpt>
      <trkpt lat="42.80314" lon="0.15853">
        <ele>2673.107</ele>
        <time>2013-06-11T07:16:18Z</time>
      </trkpt>
      <trkpt lat="42.80314" lon="0.15851">
        <ele>2670.759</ele>
        <time>2013-06-11T07:16:27Z</time>
      </trkpt>
      <trkpt lat="42.80314" lon="0.15851">
        <ele>2670.711</ele>
        <time>2013-06-11T07:16:31Z</time>
      </trkpt>
      <trkpt lat="42.80319" lon="0.15849">
        <ele>2667.861</ele>
        <time>2013-06-11T07:16:45Z</time>
      </trkpt>
      <trkpt lat="42.80321" lon="0.15844">
        <ele>2665.967</ele>
        <time>2013-06-11T07:16:55Z</time>
      </trkpt>
      <trkpt lat="42.80321" lon="0.15844">
        <ele>2665.455</ele>
        <time>2013-06-11T07:17:00Z</time>
      </trkpt>
      <trkpt lat="42.80321" lon="0.15842">
        <ele>2664.415</ele>
        <time>2013-06-11T07:17:06Z</time>
      </trkpt>
      <trkpt lat="42.80321" lon="0.15842">
        <ele>2663.594</ele>
        <time>2013-06-11T07:17:08Z</time>
      </trkpt>
      <trkpt lat="42.80321" lon="0.15842">
        <ele>2662.574</ele>
        <time>2013-06-11T07:17:11Z</time>
      </trkpt>
      <trkpt lat="42.80323" lon="0.15842">
        <ele>2662.056</ele>
        <time>2013-06-11T07:17:14Z</time>
      </trkpt>
      <trkpt lat="42.80321" lon="0.15844">
        <ele>2653.921</ele>
        <time>2013-06-11T07:17:44Z</time>
      </trkpt>
      <trkpt lat="42.80329" lon="0.15842">
        <ele>2663.007</ele>
        <time>2013-06-11T07:20:14Z</time>
      </trkpt>
      <trkpt lat="42.80325" lon="0.15842">
        <ele>2659.151</ele>
        <time>2013-06-11T07:20:58Z</time>
      </trkpt>
      <trkpt lat="42.80321" lon="0.15842">
        <ele>2655.373</ele>
        <time>2013-06-11T07:21:39Z</time>
      </trkpt>
      <trkpt lat="42.80323" lon="0.1584">
        <ele>2652.493</ele>
        <time>2013-06-11T07:22:29Z</time>
      </trkpt>
      <trkpt lat="42.80329" lon="0.15832">
        <ele>2646.249</ele>
        <time>2013-06-11T07:22:38Z</time>
      </trkpt>
      <trkpt lat="42.80338" lon="0.15821">
        <ele>2643.377</ele>
        <time>2013-06-11T07:22:43Z</time>
      </trkpt>
      <trkpt lat="42.8034" lon="0.15817">
        <ele>2641.817</ele>
        <time>2013-06-11T07:22:44Z</time>
      </trkpt>
      <trkpt lat="42.8034" lon="0.15814">
        <ele>2640.426</ele>
        <time>2013-06-11T07:22:45Z</time>
      </trkpt>
      <trkpt lat="42.80357" lon="0.15817">
        <ele>2634.135</ele>
        <time>2013-06-11T07:22:51Z</time>
      </trkpt>
      <trkpt lat="42.80366" lon="0.15829">
        <ele>2629.386</ele>
        <time>2013-06-11T07:22:55Z</time>
      </trkpt>
      <trkpt lat="42.80374" lon="0.15849">
        <ele>2624.514</ele>
        <time>2013-06-11T07:23:05Z</time>
      </trkpt>
      <trkpt lat="42.80374" lon="0.15849">
        <ele>2620.207</ele>
        <time>2013-06-11T07:23:27Z</time>
      </trkpt>
      <trkpt lat="42.80389" lon="0.15842">
        <ele>2619.267</ele>
        <time>2013-06-11T07:23:33Z</time>
      </trkpt>
      <trkpt lat="42.80407" lon="0.15834">
        <ele>2619.229</ele>
        <time>2013-06-11T07:23:39Z</time>
      </trkpt>
      <trkpt lat="42.80417" lon="0.15849">
        <ele>2608.269</ele>
        <time>2013-06-11T07:23:45Z</time>
      </trkpt>
      <trkpt lat="42.80417" lon="0.15847">
        <ele>2606.885</ele>
        <time>2013-06-11T07:23:46Z</time>
      </trkpt>
      <trkpt lat="42.80421" lon="0.15847">
        <ele>2603.963</ele>
        <time>2013-06-11T07:23:47Z</time>
      </trkpt>
      <trkpt lat="42.80432" lon="0.15847">
        <ele>2593.383</ele>
        <time>2013-06-11T07:23:52Z</time>
      </trkpt>
      <trkpt lat="42.80432" lon="0.15851">
        <ele>2591.442</ele>
        <time>2013-06-11T07:23:54Z</time>
      </trkpt>
      <trkpt lat="42.80434" lon="0.15849">
        <ele>2592.333</ele>
        <time>2013-06-11T07:24:13Z</time>
      </trkpt>
      <trkpt lat="42.80441" lon="0.15866">
        <ele>2588.523</ele>
        <time>2013-06-11T07:24:20Z</time>
      </trkpt>
      <trkpt lat="42.80443" lon="0.1587">
        <ele>2587.515</ele>
        <time>2013-06-11T07:24:22Z</time>
      </trkpt>
      <trkpt lat="42.80443" lon="0.15872">
        <ele>2586.107</ele>
        <time>2013-06-11T07:24:25Z</time>
      </trkpt>
      <trkpt lat="42.80443" lon="0.15874">
        <ele>2585.627</ele>
        <time>2013-06-11T07:24:26Z</time>
      </trkpt>
      <trkpt lat="42.80443" lon="0.15877">
        <ele>2584.639</ele>
        <time>2013-06-11T07:24:29Z</time>
      </trkpt>
      <trkpt lat="42.80443" lon="0.15889">
        <ele>2579.889</ele>
        <time>2013-06-11T07:24:37Z</time>
      </trkpt>
      <trkpt lat="42.80443" lon="0.15889">
        <ele>2579.455</ele>
        <time>2013-06-11T07:24:40Z</time>
      </trkpt>
      <trkpt lat="42.80445" lon="0.15887">
        <ele>2577.933</ele>
        <time>2013-06-11T07:24:44Z</time>
      </trkpt>
      <trkpt lat="42.80441" lon="0.15887">
        <ele>2568.363</ele>
        <time>2013-06-11T07:25:00Z</time>
      </trkpt>
      <trkpt lat="42.80445" lon="0.15872">
        <ele>2564.552</ele>
        <time>2013-06-11T07:25:05Z</time>
      </trkpt>
      <trkpt lat="42.80447" lon="0.15868">
        <ele>2564.044</ele>
        <time>2013-06-11T07:25:06Z</time>
      </trkpt>
      <trkpt lat="42.80449" lon="0.15859">
        <ele>2563.505</ele>
        <time>2013-06-11T07:25:10Z</time>
      </trkpt>
      <trkpt lat="42.80462" lon="0.15864">
        <ele>2555.315</ele>
        <time>2013-06-11T07:25:16Z</time>
      </trkpt>
      <trkpt lat="42.80475" lon="0.15857">
        <ele>2554.407</ele>
        <time>2013-06-11T07:25:21Z</time>
      </trkpt>
      <trkpt lat="42.80475" lon="0.15857">
        <ele>2554.898</ele>
        <time>2013-06-11T07:25:23Z</time>
      </trkpt>
      <trkpt lat="42.80473" lon="0.15857">
        <ele>2551.53</ele>
        <time>2013-06-11T07:25:29Z</time>
      </trkpt>
      <trkpt lat="42.80475" lon="0.15849">
        <ele>2548.69</ele>
        <time>2013-06-11T07:25:34Z</time>
      </trkpt>
      <trkpt lat="42.80475" lon="0.15842">
        <ele>2547.676</ele>
        <time>2013-06-11T07:25:37Z</time>
      </trkpt>
      <trkpt lat="42.80477" lon="0.15842">
        <ele>2548.134</ele>
        <time>2013-06-11T07:25:40Z</time>
      </trkpt>
      <trkpt lat="42.80475" lon="0.15842">
        <ele>2540.474</ele>
        <time>2013-06-11T07:25:52Z</time>
      </trkpt>
      <trkpt lat="42.80473" lon="0.1584">
        <ele>2543.323</ele>
        <time>2013-06-11T07:26:06Z</time>
      </trkpt>
      <trkpt lat="42.80479" lon="0.15836">
        <ele>2544.363</ele>
        <time>2013-06-11T07:26:26Z</time>
      </trkpt>
      <trkpt lat="42.80473" lon="0.15832">
        <ele>2545.744</ele>
        <time>2013-06-11T07:27:39Z</time>
      </trkpt>
      <trkpt lat="42.8049" lon="0.15834">
        <ele>2536.618</ele>
        <time>2013-06-11T07:27:45Z</time>
      </trkpt>
      <trkpt lat="42.80492" lon="0.15832">
        <ele>2535.107</ele>
        <time>2013-06-11T07:27:46Z</time>
      </trkpt>
      <trkpt lat="42.80494" lon="0.15834">
        <ele>2536.12</ele>
        <time>2013-06-11T07:27:47Z</time>
      </trkpt>
      <trkpt lat="42.8051" lon="0.15834">
        <ele>2536.152</ele>
        <time>2013-06-11T07:27:53Z</time>
      </trkpt>
      <trkpt lat="42.8051" lon="0.15836">
        <ele>2535.672</ele>
        <time>2013-06-11T07:27:54Z</time>
      </trkpt>
      <trkpt lat="42.8051" lon="0.15836">
        <ele>2533.278</ele>
        <time>2013-06-11T07:28:01Z</time>
      </trkpt>
      <trkpt lat="42.80507" lon="0.15838">
        <ele>2532.716</ele>
        <time>2013-06-11T07:28:03Z</time>
      </trkpt>
      <trkpt lat="42.80518" lon="0.15838">
        <ele>2530.376</ele>
        <time>2013-06-11T07:28:10Z</time>
      </trkpt>
      <trkpt lat="42.80518" lon="0.15836">
        <ele>2529.835</ele>
        <time>2013-06-11T07:28:11Z</time>
      </trkpt>
      <trkpt lat="42.8052" lon="0.15832">
        <ele>2529.466</ele>
        <time>2013-06-11T07:28:12Z</time>
      </trkpt>
      <trkpt lat="42.80537" lon="0.15827">
        <ele>2522.629</ele>
        <time>2013-06-11T07:28:17Z</time>
      </trkpt>
      <trkpt lat="42.80552" lon="0.15827">
        <ele>2520.221</ele>
        <time>2013-06-11T07:28:22Z</time>
      </trkpt>
      <trkpt lat="42.80565" lon="0.15827">
        <ele>2517.807</ele>
        <time>2013-06-11T07:28:25Z</time>
      </trkpt>
      <trkpt lat="42.80568" lon="0.15829">
        <ele>2516.44</ele>
        <time>2013-06-11T07:28:26Z</time>
      </trkpt>
      <trkpt lat="42.8058" lon="0.15823">
        <ele>2508.722</ele>
        <time>2013-06-11T07:28:32Z</time>
      </trkpt>
      <trkpt lat="42.8058" lon="0.15823">
        <ele>2508.252</ele>
        <time>2013-06-11T07:28:34Z</time>
      </trkpt>
      <trkpt lat="42.8058" lon="0.15827">
        <ele>2502.048</ele>
        <time>2013-06-11T07:28:53Z</time>
      </trkpt>
      <trkpt lat="42.8058" lon="0.15829">
        <ele>2501.036</ele>
        <time>2013-06-11T07:28:55Z</time>
      </trkpt>
      <trkpt lat="42.80578" lon="0.15829">
        <ele>2503.456</ele>
        <time>2013-06-11T07:29:12Z</time>
      </trkpt>
      <trkpt lat="42.80585" lon="0.15834">
        <ele>2496.725</ele>
        <time>2013-06-11T07:31:36Z</time>
      </trkpt>
      <trkpt lat="42.8058" lon="0.15829">
        <ele>2496.718</ele>
        <time>2013-06-11T07:32:17Z</time>
      </trkpt>
      <trkpt lat="42.8058" lon="0.15829">
        <ele>2496.298</ele>
        <time>2013-06-11T07:32:23Z</time>
      </trkpt>
      <trkpt lat="42.80578" lon="0.15832">
        <ele>2495.717</ele>
        <time>2013-06-11T07:32:25Z</time>
      </trkpt>
      <trkpt lat="42.80587" lon="0.15847">
        <ele>2489.007</ele>
        <time>2013-06-11T07:32:30Z</time>
      </trkpt>
      <trkpt lat="42.80591" lon="0.15866">
        <ele>2485.165</ele>
        <time>2013-06-11T07:32:35Z</time>
      </trkpt>
      <trkpt lat="42.80593" lon="0.15874">
        <ele>2483.777</ele>
        <time>2013-06-11T07:32:38Z</time>
      </trkpt>
      <trkpt lat="42.80595" lon="0.15877">
        <ele>2483.297</ele>
        <time>2013-06-11T07:32:39Z</time>
      </trkpt>
      <trkpt lat="42.80606" lon="0.15879">
        <ele>2482.373</ele>
        <time>2013-06-11T07:32:43Z</time>
      </trkpt>
      <trkpt lat="42.80617" lon="0.15877">
        <ele>2476.031</ele>
        <time>2013-06-11T07:32:48Z</time>
      </trkpt>
      <trkpt lat="42.80621" lon="0.15883">
        <ele>2471.221</ele>
        <time>2013-06-11T07:32:52Z</time>
      </trkpt>
      <trkpt lat="42.80621" lon="0.15885">
        <ele>2467.43</ele>
        <time>2013-06-11T07:33:02Z</time>
      </trkpt>
      <trkpt lat="42.80621" lon="0.15883">
        <ele>2467.499</ele>
        <time>2013-06-11T07:33:09Z</time>
      </trkpt>
      <trkpt lat="42.80634" lon="0.15883">
        <ele>2460.207</ele>
        <time>2013-06-11T07:33:18Z</time>
      </trkpt>
      <trkpt lat="42.80632" lon="0.15889">
        <ele>2457.327</ele>
        <time>2013-06-11T07:33:20Z</time>
      </trkpt>
      <trkpt lat="42.80632" lon="0.15889">
        <ele>2455.807</ele>
        <time>2013-06-11T07:33:21Z</time>
      </trkpt>
      <trkpt lat="42.80638" lon="0.15892">
        <ele>2451.053</ele>
        <time>2013-06-11T07:33:26Z</time>
      </trkpt>
      <trkpt lat="42.80638" lon="0.15896">
        <ele>2450.585</ele>
        <time>2013-06-11T07:33:27Z</time>
      </trkpt>
      <trkpt lat="42.80649" lon="0.15885">
        <ele>2442.865</ele>
        <time>2013-06-11T07:33:33Z</time>
      </trkpt>
      <trkpt lat="42.80651" lon="0.15889">
        <ele>2441.411</ele>
        <time>2013-06-11T07:33:34Z</time>
      </trkpt>
      <trkpt lat="42.80653" lon="0.15894">
        <ele>2440.499</ele>
        <time>2013-06-11T07:33:35Z</time>
      </trkpt>
      <trkpt lat="42.8066" lon="0.15892">
        <ele>2434.779</ele>
        <time>2013-06-11T07:33:41Z</time>
      </trkpt>
      <trkpt lat="42.8066" lon="0.15889">
        <ele>2434.218</ele>
        <time>2013-06-11T07:33:42Z</time>
      </trkpt>
      <trkpt lat="42.80662" lon="0.15889">
        <ele>2425.144</ele>
        <time>2013-06-11T07:34:09Z</time>
      </trkpt>
      <trkpt lat="42.80662" lon="0.15898">
        <ele>2421.205</ele>
        <time>2013-06-11T07:34:12Z</time>
      </trkpt>
      <trkpt lat="42.80662" lon="0.159">
        <ele>2420.715</ele>
        <time>2013-06-11T07:34:13Z</time>
      </trkpt>
      <trkpt lat="42.80666" lon="0.15922">
        <ele>2417.907</ele>
        <time>2013-06-11T07:34:18Z</time>
      </trkpt>
      <trkpt lat="42.80664" lon="0.1593">
        <ele>2417.458</ele>
        <time>2013-06-11T07:34:26Z</time>
      </trkpt>
      <trkpt lat="42.80666" lon="0.15939">
        <ele>2415.42</ele>
        <time>2013-06-11T07:34:31Z</time>
      </trkpt>
      <trkpt lat="42.80675" lon="0.15962">
        <ele>2412.16</ele>
        <time>2013-06-11T07:34:36Z</time>
      </trkpt>
      <trkpt lat="42.80675" lon="0.15962">
        <ele>2412.116</ele>
        <time>2013-06-11T07:34:38Z</time>
      </trkpt>
      <trkpt lat="42.80675" lon="0.15962">
        <ele>2411.654</ele>
        <time>2013-06-11T07:34:40Z</time>
      </trkpt>
      <trkpt lat="42.80679" lon="0.15969">
        <ele>2409.744</ele>
        <time>2013-06-11T07:34:44Z</time>
      </trkpt>
      <trkpt lat="42.80681" lon="0.15971">
        <ele>2409.783</ele>
        <time>2013-06-11T07:34:45Z</time>
      </trkpt>
      <trkpt lat="42.80681" lon="0.15971">
        <ele>2409.222</ele>
        <time>2013-06-11T07:34:47Z</time>
      </trkpt>
      <trkpt lat="42.80683" lon="0.15975">
        <ele>2408.762</ele>
        <time>2013-06-11T07:34:51Z</time>
      </trkpt>
      <trkpt lat="42.80688" lon="0.1598">
        <ele>2407.808</ele>
        <time>2013-06-11T07:34:53Z</time>
      </trkpt>
      <trkpt lat="42.8069" lon="0.15984">
        <ele>2406.307</ele>
        <time>2013-06-11T07:34:55Z</time>
      </trkpt>
      <trkpt lat="42.80692" lon="0.15986">
        <ele>2405.826</ele>
        <time>2013-06-11T07:34:59Z</time>
      </trkpt>
      <trkpt lat="42.80692" lon="0.15986">
        <ele>2406.378</ele>
        <time>2013-06-11T07:35:00Z</time>
      </trkpt>
      <trkpt lat="42.80692" lon="0.1599">
        <ele>2405.498</ele>
        <time>2013-06-11T07:35:05Z</time>
      </trkpt>
      <trkpt lat="42.80692" lon="0.1599">
        <ele>2405.874</ele>
        <time>2013-06-11T07:35:08Z</time>
      </trkpt>
      <trkpt lat="42.80698" lon="0.15999">
        <ele>2405.442</ele>
        <time>2013-06-11T07:35:13Z</time>
      </trkpt>
      <trkpt lat="42.80703" lon="0.16005">
        <ele>2403.982</ele>
        <time>2013-06-11T07:35:18Z</time>
      </trkpt>
      <trkpt lat="42.80705" lon="0.1601">
        <ele>2403.021</ele>
        <time>2013-06-11T07:35:21Z</time>
      </trkpt>
      <trkpt lat="42.80707" lon="0.16014">
        <ele>2402.075</ele>
        <time>2013-06-11T07:35:23Z</time>
      </trkpt>
      <trkpt lat="42.80709" lon="0.16014">
        <ele>2402.028</ele>
        <time>2013-06-11T07:35:26Z</time>
      </trkpt>
      <trkpt lat="42.80709" lon="0.16014">
        <ele>2401.52</ele>
        <time>2013-06-11T07:35:28Z</time>
      </trkpt>
      <trkpt lat="42.80716" lon="0.16022">
        <ele>2400.107</ele>
        <time>2013-06-11T07:35:33Z</time>
      </trkpt>
      <trkpt lat="42.80718" lon="0.16025">
        <ele>2399.671</ele>
        <time>2013-06-11T07:35:35Z</time>
      </trkpt>
      <trkpt lat="42.80718" lon="0.16025">
        <ele>2399.133</ele>
        <time>2013-06-11T07:35:37Z</time>
      </trkpt>
      <trkpt lat="42.80724" lon="0.16029">
        <ele>2398.683</ele>
        <time>2013-06-11T07:35:43Z</time>
      </trkpt>
      <trkpt lat="42.80726" lon="0.16031">
        <ele>2400.169</ele>
        <time>2013-06-11T07:35:48Z</time>
      </trkpt>
      <trkpt lat="42.80728" lon="0.16031">
        <ele>2400.147</ele>
        <time>2013-06-11T07:35:53Z</time>
      </trkpt>
      <trkpt lat="42.80728" lon="0.16029">
        <ele>2400.157</ele>
        <time>2013-06-11T07:36:19Z</time>
      </trkpt>
      <trkpt lat="42.80733" lon="0.16029">
        <ele>2401.036</ele>
        <time>2013-06-11T07:36:21Z</time>
      </trkpt>
      <trkpt lat="42.80748" lon="0.16014">
        <ele>2398.698</ele>
        <time>2013-06-11T07:36:26Z</time>
      </trkpt>
      <trkpt lat="42.80765" lon="0.16003">
        <ele>2393.815</ele>
        <time>2013-06-11T07:36:32Z</time>
      </trkpt>
      <trkpt lat="42.80786" lon="0.15997">
        <ele>2388.126</ele>
        <time>2013-06-11T07:36:38Z</time>
      </trkpt>
      <trkpt lat="42.80786" lon="0.15997">
        <ele>2387.607</ele>
        <time>2013-06-11T07:36:39Z</time>
      </trkpt>
      <trkpt lat="42.80788" lon="0.15997">
        <ele>2380.433</ele>
        <time>2013-06-11T07:36:55Z</time>
      </trkpt>
      <trkpt lat="42.80797" lon="0.16003">
        <ele>2378.485</ele>
        <time>2013-06-11T07:37:01Z</time>
      </trkpt>
      <trkpt lat="42.80816" lon="0.1601">
        <ele>2373.245</ele>
        <time>2013-06-11T07:37:05Z</time>
      </trkpt>
      <trkpt lat="42.80831" lon="0.16012">
        <ele>2371.231</ele>
        <time>2013-06-11T07:37:08Z</time>
      </trkpt>
      <trkpt lat="42.80848" lon="0.1601">
        <ele>2366.969</ele>
        <time>2013-06-11T07:37:14Z</time>
      </trkpt>
      <trkpt lat="42.80853" lon="0.1601">
        <ele>2366.949</ele>
        <time>2013-06-11T07:37:16Z</time>
      </trkpt>
      <trkpt lat="42.80859" lon="0.16012">
        <ele>2364.588</ele>
        <time>2013-06-11T07:37:20Z</time>
      </trkpt>
      <trkpt lat="42.80859" lon="0.16012">
        <ele>2364.536</ele>
        <time>2013-06-11T07:37:21Z</time>
      </trkpt>
      <trkpt lat="42.80861" lon="0.16014">
        <ele>2364.017</ele>
        <time>2013-06-11T07:37:24Z</time>
      </trkpt>
      <trkpt lat="42.80861" lon="0.16014">
        <ele>2364.018</ele>
        <time>2013-06-11T07:37:25Z</time>
      </trkpt>
      <trkpt lat="42.80868" lon="0.16018">
        <ele>2363.507</ele>
        <time>2013-06-11T07:37:33Z</time>
      </trkpt>
      <trkpt lat="42.80868" lon="0.1602">
        <ele>2363.177</ele>
        <time>2013-06-11T07:37:35Z</time>
      </trkpt>
      <trkpt lat="42.80889" lon="0.16042">
        <ele>2354.959</ele>
        <time>2013-06-11T07:37:45Z</time>
      </trkpt>
      <trkpt lat="42.80913" lon="0.16048">
        <ele>2351.579</ele>
        <time>2013-06-11T07:37:50Z</time>
      </trkpt>
      <trkpt lat="42.80949" lon="0.1604">
        <ele>2348.665</ele>
        <time>2013-06-11T07:38:01Z</time>
      </trkpt>
      <trkpt lat="42.80958" lon="0.16038">
        <ele>2347.733</ele>
        <time>2013-06-11T07:38:06Z</time>
      </trkpt>
      <trkpt lat="42.80962" lon="0.16035">
        <ele>2346.273</ele>
        <time>2013-06-11T07:38:11Z</time>
      </trkpt>
      <trkpt lat="42.80964" lon="0.16035">
        <ele>2345.852</ele>
        <time>2013-06-11T07:38:35Z</time>
      </trkpt>
      <trkpt lat="42.80964" lon="0.16035">
        <ele>2346.714</ele>
        <time>2013-06-11T07:38:44Z</time>
      </trkpt>
      <trkpt lat="42.80971" lon="0.16031">
        <ele>2345.354</ele>
        <time>2013-06-11T07:38:48Z</time>
      </trkpt>
      <trkpt lat="42.80986" lon="0.16022">
        <ele>2343.409</ele>
        <time>2013-06-11T07:38:53Z</time>
      </trkpt>
      <trkpt lat="42.81001" lon="0.16007">
        <ele>2341.407</ele>
        <time>2013-06-11T07:38:59Z</time>
      </trkpt>
      <trkpt lat="42.81007" lon="0.16005">
        <ele>2340.535</ele>
        <time>2013-06-11T07:39:01Z</time>
      </trkpt>
      <trkpt lat="42.81016" lon="0.16001">
        <ele>2339.027</ele>
        <time>2013-06-11T07:39:04Z</time>
      </trkpt>
      <trkpt lat="42.81027" lon="0.16001">
        <ele>2337.687</ele>
        <time>2013-06-11T07:39:07Z</time>
      </trkpt>
      <trkpt lat="42.81048" lon="0.16003">
        <ele>2334.293</ele>
        <time>2013-06-11T07:39:14Z</time>
      </trkpt>
      <trkpt lat="42.81072" lon="0.16012">
        <ele>2328.031</ele>
        <time>2013-06-11T07:39:21Z</time>
      </trkpt>
      <trkpt lat="42.81074" lon="0.16005">
        <ele>2326.541</ele>
        <time>2013-06-11T07:39:22Z</time>
      </trkpt>
      <trkpt lat="42.81078" lon="0.16003">
        <ele>2325.14</ele>
        <time>2013-06-11T07:39:23Z</time>
      </trkpt>
      <trkpt lat="42.811" lon="0.16001">
        <ele>2316.948</ele>
        <time>2013-06-11T07:39:27Z</time>
      </trkpt>
      <trkpt lat="42.81104" lon="0.16001">
        <ele>2314.561</ele>
        <time>2013-06-11T07:39:28Z</time>
      </trkpt>
      <trkpt lat="42.81123" lon="0.16005">
        <ele>2308.317</ele>
        <time>2013-06-11T07:39:33Z</time>
      </trkpt>
      <trkpt lat="42.81142" lon="0.15999">
        <ele>2298.607</ele>
        <time>2013-06-11T07:39:38Z</time>
      </trkpt>
      <trkpt lat="42.8116" lon="0.15995">
        <ele>2293.858</ele>
        <time>2013-06-11T07:39:43Z</time>
      </trkpt>
      <trkpt lat="42.81168" lon="0.15975">
        <ele>2289.03</ele>
        <time>2013-06-11T07:39:50Z</time>
      </trkpt>
      <trkpt lat="42.81168" lon="0.15975">
        <ele>2288.64</ele>
        <time>2013-06-11T07:39:54Z</time>
      </trkpt>
      <trkpt lat="42.81168" lon="0.15977">
        <ele>2288.196</ele>
        <time>2013-06-11T07:40:06Z</time>
      </trkpt>
      <trkpt lat="42.81181" lon="0.15969">
        <ele>2282.874</ele>
        <time>2013-06-11T07:40:12Z</time>
      </trkpt>
      <trkpt lat="42.81213" lon="0.15956">
        <ele>2278.064</ele>
        <time>2013-06-11T07:40:19Z</time>
      </trkpt>
      <trkpt lat="42.81245" lon="0.15967">
        <ele>2270.893</ele>
        <time>2013-06-11T07:40:25Z</time>
      </trkpt>
      <trkpt lat="42.81256" lon="0.15965">
        <ele>2272.286</ele>
        <time>2013-06-11T07:40:28Z</time>
      </trkpt>
      <trkpt lat="42.81256" lon="0.15965">
        <ele>2272.26</ele>
        <time>2013-06-11T07:40:29Z</time>
      </trkpt>
      <trkpt lat="42.81258" lon="0.15962">
        <ele>2272.726</ele>
        <time>2013-06-11T07:40:32Z</time>
      </trkpt>
      <trkpt lat="42.81265" lon="0.15956">
        <ele>2271.307</ele>
        <time>2013-06-11T07:40:36Z</time>
      </trkpt>
      <trkpt lat="42.81271" lon="0.15952">
        <ele>2270.342</ele>
        <time>2013-06-11T07:40:38Z</time>
      </trkpt>
      <trkpt lat="42.81306" lon="0.15947">
        <ele>2262.124</ele>
        <time>2013-06-11T07:40:47Z</time>
      </trkpt>
      <trkpt lat="42.81325" lon="0.15932">
        <ele>2259.754</ele>
        <time>2013-06-11T07:40:52Z</time>
      </trkpt>
      <trkpt lat="42.81338" lon="0.15909">
        <ele>2255.43</ele>
        <time>2013-06-11T07:40:57Z</time>
      </trkpt>
      <trkpt lat="42.81355" lon="0.15898">
        <ele>2251.518</ele>
        <time>2013-06-11T07:41:00Z</time>
      </trkpt>
      <trkpt lat="42.81372" lon="0.15885">
        <ele>2249.678</ele>
        <time>2013-06-11T07:41:03Z</time>
      </trkpt>
      <trkpt lat="42.81396" lon="0.15877">
        <ele>2246.737</ele>
        <time>2013-06-11T07:41:08Z</time>
      </trkpt>
      <trkpt lat="42.814" lon="0.15877">
        <ele>2245.335</ele>
        <time>2013-06-11T07:41:09Z</time>
      </trkpt>
      <trkpt lat="42.81404" lon="0.15874">
        <ele>2244.386</ele>
        <time>2013-06-11T07:41:10Z</time>
      </trkpt>
      <trkpt lat="42.81438" lon="0.15851">
        <ele>2237.114</ele>
        <time>2013-06-11T07:41:16Z</time>
      </trkpt>
      <trkpt lat="42.81451" lon="0.15834">
        <ele>2237.607</ele>
        <time>2013-06-11T07:41:19Z</time>
      </trkpt>
      <trkpt lat="42.8146" lon="0.15829">
        <ele>2237.197</ele>
        <time>2013-06-11T07:41:26Z</time>
      </trkpt>
      <trkpt lat="42.8146" lon="0.15829">
        <ele>2237.699</ele>
        <time>2013-06-11T07:41:27Z</time>
      </trkpt>
      <trkpt lat="42.81458" lon="0.15829">
        <ele>2237.179</ele>
        <time>2013-06-11T07:41:31Z</time>
      </trkpt>
      <trkpt lat="42.81456" lon="0.15827">
        <ele>2241.015</ele>
        <time>2013-06-11T07:42:41Z</time>
      </trkpt>
      <trkpt lat="42.81458" lon="0.15829">
        <ele>2241.063</ele>
        <time>2013-06-11T07:43:07Z</time>
      </trkpt>
      <trkpt lat="42.81469" lon="0.15821">
        <ele>2236.653</ele>
        <time>2013-06-11T07:43:15Z</time>
      </trkpt>
      <trkpt lat="42.81469" lon="0.15817">
        <ele>2235.772</ele>
        <time>2013-06-11T07:43:19Z</time>
      </trkpt>
      <trkpt lat="42.81469" lon="0.15817">
        <ele>2235.263</ele>
        <time>2013-06-11T07:43:20Z</time>
      </trkpt>
      <trkpt lat="42.8149" lon="0.15799">
        <ele>2229.444</ele>
        <time>2013-06-11T07:43:25Z</time>
      </trkpt>
      <trkpt lat="42.81495" lon="0.15799">
        <ele>2229.418</ele>
        <time>2013-06-11T07:43:26Z</time>
      </trkpt>
      <trkpt lat="42.81496" lon="0.15795">
        <ele>2229.007</ele>
        <time>2013-06-11T07:43:27Z</time>
      </trkpt>
      <trkpt lat="42.81522" lon="0.15791">
        <ele>2226.12</ele>
        <time>2013-06-11T07:43:32Z</time>
      </trkpt>
      <trkpt lat="42.81527" lon="0.15791">
        <ele>2226.192</ele>
        <time>2013-06-11T07:43:33Z</time>
      </trkpt>
      <trkpt lat="42.81533" lon="0.15793">
        <ele>2225.642</ele>
        <time>2013-06-11T07:43:34Z</time>
      </trkpt>
      <trkpt lat="42.81537" lon="0.15784">
        <ele>2224.658</ele>
        <time>2013-06-11T07:43:36Z</time>
      </trkpt>
      <trkpt lat="42.81557" lon="0.15782">
        <ele>2219.396</ele>
        <time>2013-06-11T07:43:41Z</time>
      </trkpt>
      <trkpt lat="42.81565" lon="0.15782">
        <ele>2216.526</ele>
        <time>2013-06-11T07:43:43Z</time>
      </trkpt>
      <trkpt lat="42.81574" lon="0.15771">
        <ele>2212.665</ele>
        <time>2013-06-11T07:43:46Z</time>
      </trkpt>
      <trkpt lat="42.81593" lon="0.15769">
        <ele>2206.443</ele>
        <time>2013-06-11T07:43:52Z</time>
      </trkpt>
      <trkpt lat="42.8161" lon="0.15774">
        <ele>2198.764</ele>
        <time>2013-06-11T07:43:59Z</time>
      </trkpt>
      <trkpt lat="42.81627" lon="0.15791">
        <ele>2192.41</ele>
        <time>2013-06-11T07:44:03Z</time>
      </trkpt>
      <trkpt lat="42.8164" lon="0.15806">
        <ele>2188.107</ele>
        <time>2013-06-11T07:44:06Z</time>
      </trkpt>
      <trkpt lat="42.81657" lon="0.15821">
        <ele>2185.278</ele>
        <time>2013-06-11T07:44:10Z</time>
      </trkpt>
      <trkpt lat="42.81662" lon="0.15806">
        <ele>2183.83</ele>
        <time>2013-06-11T07:44:13Z</time>
      </trkpt>
      <trkpt lat="42.81683" lon="0.15799">
        <ele>2177.02</ele>
        <time>2013-06-11T07:44:18Z</time>
      </trkpt>
      <trkpt lat="42.81694" lon="0.15804">
        <ele>2173.266</ele>
        <time>2013-06-11T07:44:21Z</time>
      </trkpt>
      <trkpt lat="42.81698" lon="0.15804">
        <ele>2172.754</ele>
        <time>2013-06-11T07:44:22Z</time>
      </trkpt>
      <trkpt lat="42.81709" lon="0.15808">
        <ele>2169.474</ele>
        <time>2013-06-11T07:44:26Z</time>
      </trkpt>
      <trkpt lat="42.8172" lon="0.15806">
        <ele>2167.993</ele>
        <time>2013-06-11T07:44:29Z</time>
      </trkpt>
      <trkpt lat="42.81733" lon="0.15812">
        <ele>2163.634</ele>
        <time>2013-06-11T07:44:34Z</time>
      </trkpt>
      <trkpt lat="42.81733" lon="0.15812">
        <ele>2159.355</ele>
        <time>2013-06-11T07:44:43Z</time>
      </trkpt>
      <trkpt lat="42.81735" lon="0.15819">
        <ele>2149.61</ele>
        <time>2013-06-11T07:45:08Z</time>
      </trkpt>
      <trkpt lat="42.81735" lon="0.15821">
        <ele>2145.807</ele>
        <time>2013-06-11T07:46:29Z</time>
      </trkpt>
      <trkpt lat="42.8175" lon="0.15842">
        <ele>2141.097</ele>
        <time>2013-06-11T07:46:36Z</time>
      </trkpt>
      <trkpt lat="42.81765" lon="0.1584">
        <ele>2130.919</ele>
        <time>2013-06-11T07:46:42Z</time>
      </trkpt>
      <trkpt lat="42.81767" lon="0.15844">
        <ele>2129.059</ele>
        <time>2013-06-11T07:46:43Z</time>
      </trkpt>
      <trkpt lat="42.81778" lon="0.15857">
        <ele>2125.115</ele>
        <time>2013-06-11T07:46:46Z</time>
      </trkpt>
      <trkpt lat="42.8178" lon="0.15836">
        <ele>2122.213</ele>
        <time>2013-06-11T07:46:50Z</time>
      </trkpt>
      <trkpt lat="42.81782" lon="0.15832">
        <ele>2121.843</ele>
        <time>2013-06-11T07:46:51Z</time>
      </trkpt>
      <trkpt lat="42.81795" lon="0.15825">
        <ele>2116.092</ele>
        <time>2013-06-11T07:46:58Z</time>
      </trkpt>
      <trkpt lat="42.81805" lon="0.15812">
        <ele>2113.136</ele>
        <time>2013-06-11T07:47:02Z</time>
      </trkpt>
      <trkpt lat="42.81814" lon="0.15812">
        <ele>2112.617</ele>
        <time>2013-06-11T07:47:05Z</time>
      </trkpt>
      <trkpt lat="42.81829" lon="0.15808">
        <ele>2107.818</ele>
        <time>2013-06-11T07:47:10Z</time>
      </trkpt>
      <trkpt lat="42.8184" lon="0.15821">
        <ele>2104.907</ele>
        <time>2013-06-11T07:47:15Z</time>
      </trkpt>
      <trkpt lat="42.81842" lon="0.15819">
        <ele>2104.027</ele>
        <time>2013-06-11T07:47:16Z</time>
      </trkpt>
      <trkpt lat="42.81866" lon="0.15819">
        <ele>2100.159</ele>
        <time>2013-06-11T07:47:22Z</time>
      </trkpt>
      <trkpt lat="42.81872" lon="0.15821">
        <ele>2096.369</ele>
        <time>2013-06-11T07:47:24Z</time>
      </trkpt>
      <trkpt lat="42.81876" lon="0.15821">
        <ele>2096.375</ele>
        <time>2013-06-11T07:47:25Z</time>
      </trkpt>
      <trkpt lat="42.81881" lon="0.15823">
        <ele>2092.413</ele>
        <time>2013-06-11T07:47:28Z</time>
      </trkpt>
      <trkpt lat="42.81885" lon="0.15819">
        <ele>2090.083</ele>
        <time>2013-06-11T07:47:31Z</time>
      </trkpt>
      <trkpt lat="42.81889" lon="0.15819">
        <ele>2090.022</ele>
        <time>2013-06-11T07:47:32Z</time>
      </trkpt>
      <trkpt lat="42.81889" lon="0.15823">
        <ele>2085.213</ele>
        <time>2013-06-11T07:47:39Z</time>
      </trkpt>
      <trkpt lat="42.81887" lon="0.15834">
        <ele>2045.843</ele>
        <time>2013-06-11T07:48:37Z</time>
      </trkpt>
      <trkpt lat="42.81891" lon="0.15853">
        <ele>2038.607</ele>
        <time>2013-06-11T07:48:42Z</time>
      </trkpt>
      <trkpt lat="42.81894" lon="0.15857">
        <ele>2038.107</ele>
        <time>2013-06-11T07:48:43Z</time>
      </trkpt>
      <trkpt lat="42.81902" lon="0.15857">
        <ele>2037.245</ele>
        <time>2013-06-11T07:48:46Z</time>
      </trkpt>
      <trkpt lat="42.81907" lon="0.15862">
        <ele>2036.757</ele>
        <time>2013-06-11T07:48:47Z</time>
      </trkpt>
      <trkpt lat="42.81926" lon="0.15862">
        <ele>2032.857</ele>
        <time>2013-06-11T07:48:52Z</time>
      </trkpt>
      <trkpt lat="42.8193" lon="0.15862">
        <ele>2032.463</ele>
        <time>2013-06-11T07:48:53Z</time>
      </trkpt>
      <trkpt lat="42.81956" lon="0.15866">
        <ele>2029.061</ele>
        <time>2013-06-11T07:48:59Z</time>
      </trkpt>
      <trkpt lat="42.81969" lon="0.15877">
        <ele>2024.251</ele>
        <time>2013-06-11T07:49:04Z</time>
      </trkpt>
      <trkpt lat="42.81971" lon="0.15879">
        <ele>2023.26</ele>
        <time>2013-06-11T07:49:05Z</time>
      </trkpt>
      <trkpt lat="42.81973" lon="0.15883">
        <ele>2021.317</ele>
        <time>2013-06-11T07:49:08Z</time>
      </trkpt>
      <trkpt lat="42.81971" lon="0.15883">
        <ele>2017.587</ele>
        <time>2013-06-11T07:49:15Z</time>
      </trkpt>
      <trkpt lat="42.81969" lon="0.15883">
        <ele>2017.015</ele>
        <time>2013-06-11T07:49:18Z</time>
      </trkpt>
      <trkpt lat="42.81969" lon="0.15885">
        <ele>2012.707</ele>
        <time>2013-06-11T07:49:25Z</time>
      </trkpt>
      <trkpt lat="42.81971" lon="0.15887">
        <ele>2012.235</ele>
        <time>2013-06-11T07:49:28Z</time>
      </trkpt>
      <trkpt lat="42.81971" lon="0.15889">
        <ele>2012.737</ele>
        <time>2013-06-11T07:49:30Z</time>
      </trkpt>
      <trkpt lat="42.81973" lon="0.15889">
        <ele>2008.827</ele>
        <time>2013-06-11T07:49:53Z</time>
      </trkpt>
      <trkpt lat="42.81973" lon="0.15889">
        <ele>2006.483</ele>
        <time>2013-06-11T07:50:03Z</time>
      </trkpt>
      <trkpt lat="42.81977" lon="0.15894">
        <ele>2004.511</ele>
        <time>2013-06-11T07:50:06Z</time>
      </trkpt>
      <trkpt lat="42.81986" lon="0.15904">
        <ele>2002.141</ele>
        <time>2013-06-11T07:50:10Z</time>
      </trkpt>
      <trkpt lat="42.81992" lon="0.15917">
        <ele>2000.29</ele>
        <time>2013-06-11T07:50:14Z</time>
      </trkpt>
      <trkpt lat="42.81997" lon="0.15924">
        <ele>1999.712</ele>
        <time>2013-06-11T07:50:16Z</time>
      </trkpt>
      <trkpt lat="42.81997" lon="0.15935">
        <ele>1998.732</ele>
        <time>2013-06-11T07:50:19Z</time>
      </trkpt>
      <trkpt lat="42.81997" lon="0.15939">
        <ele>1997.805</ele>
        <time>2013-06-11T07:50:20Z</time>
      </trkpt>
      <trkpt lat="42.81998" lon="0.15952">
        <ele>1996.307</ele>
        <time>2013-06-11T07:50:23Z</time>
      </trkpt>
      <trkpt lat="42.82011" lon="0.15984">
        <ele>1993.425</ele>
        <time>2013-06-11T07:50:33Z</time>
      </trkpt>
      <trkpt lat="42.82037" lon="0.16014">
        <ele>1988.197</ele>
        <time>2013-06-11T07:50:45Z</time>
      </trkpt>
      <trkpt lat="42.82067" lon="0.16042">
        <ele>1984.337</ele>
        <time>2013-06-11T07:50:58Z</time>
      </trkpt>
      <trkpt lat="42.82074" lon="0.16046">
        <ele>1982.953</ele>
        <time>2013-06-11T07:51:01Z</time>
      </trkpt>
      <trkpt lat="42.82082" lon="0.16055">
        <ele>1981.931</ele>
        <time>2013-06-11T07:51:06Z</time>
      </trkpt>
      <trkpt lat="42.821" lon="0.16091">
        <ele>1978.031</ele>
        <time>2013-06-11T07:51:19Z</time>
      </trkpt>
      <trkpt lat="42.82113" lon="0.1611">
        <ele>1974.77</ele>
        <time>2013-06-11T07:51:28Z</time>
      </trkpt>
      <trkpt lat="42.82117" lon="0.16117">
        <ele>1974.237</ele>
        <time>2013-06-11T07:51:31Z</time>
      </trkpt>
      <trkpt lat="42.82123" lon="0.16123">
        <ele>1974.249</ele>
        <time>2013-06-11T07:51:35Z</time>
      </trkpt>
      <trkpt lat="42.82132" lon="0.1613">
        <ele>1974.213</ele>
        <time>2013-06-11T07:51:39Z</time>
      </trkpt>
      <trkpt lat="42.82149" lon="0.16149">
        <ele>1970.807</ele>
        <time>2013-06-11T07:51:49Z</time>
      </trkpt>
      <trkpt lat="42.8219" lon="0.16171">
        <ele>1965.167</ele>
        <time>2013-06-11T07:52:03Z</time>
      </trkpt>
      <trkpt lat="42.822" lon="0.16181">
        <ele>1963.629</ele>
        <time>2013-06-11T07:52:07Z</time>
      </trkpt>
      <trkpt lat="42.82204" lon="0.16188">
        <ele>1962.269</ele>
        <time>2013-06-11T07:52:09Z</time>
      </trkpt>
      <trkpt lat="42.8223" lon="0.16218">
        <ele>1958.875</ele>
        <time>2013-06-11T07:52:19Z</time>
      </trkpt>
      <trkpt lat="42.82233" lon="0.16222">
        <ele>1957.963</ele>
        <time>2013-06-11T07:52:22Z</time>
      </trkpt>
      <trkpt lat="42.82235" lon="0.16224">
        <ele>1956.953</ele>
        <time>2013-06-11T07:52:25Z</time>
      </trkpt>
      <trkpt lat="42.82237" lon="0.16228">
        <ele>1954.512</ele>
        <time>2013-06-11T07:52:40Z</time>
      </trkpt>
      <trkpt lat="42.82233" lon="0.1622">
        <ele>1958.368</ele>
        <time>2013-06-11T07:54:18Z</time>
      </trkpt>
      <trkpt lat="42.82239" lon="0.16226">
        <ele>1958.342</ele>
        <time>2013-06-11T07:54:22Z</time>
      </trkpt>
      <trkpt lat="42.82239" lon="0.16228">
        <ele>1958.326</ele>
        <time>2013-06-11T07:54:23Z</time>
      </trkpt>
      <trkpt lat="42.82262" lon="0.16259">
        <ele>1954.507</ele>
        <time>2013-06-11T07:54:36Z</time>
      </trkpt>
      <trkpt lat="42.82303" lon="0.16312">
        <ele>1947.87</ele>
        <time>2013-06-11T07:54:54Z</time>
      </trkpt>
      <trkpt lat="42.82306" lon="0.16314">
        <ele>1947.332</ele>
        <time>2013-06-11T07:54:55Z</time>
      </trkpt>
      <trkpt lat="42.82327" lon="0.16372">
        <ele>1941.072</ele>
        <time>2013-06-11T07:55:10Z</time>
      </trkpt>
      <trkpt lat="42.82346" lon="0.16419">
        <ele>1936.238</ele>
        <time>2013-06-11T07:55:24Z</time>
      </trkpt>
      <trkpt lat="42.82365" lon="0.16447">
        <ele>1933.386</ele>
        <time>2013-06-11T07:55:32Z</time>
      </trkpt>
      <trkpt lat="42.8237" lon="0.1646">
        <ele>1932.486</ele>
        <time>2013-06-11T07:55:35Z</time>
      </trkpt>
      <trkpt lat="42.82381" lon="0.1654">
        <ele>1926.145</ele>
        <time>2013-06-11T07:55:55Z</time>
      </trkpt>
      <trkpt lat="42.82383" lon="0.16548">
        <ele>1925.248</ele>
        <time>2013-06-11T07:55:57Z</time>
      </trkpt>
      <trkpt lat="42.82385" lon="0.16563">
        <ele>1923.761</ele>
        <time>2013-06-11T07:56:01Z</time>
      </trkpt>
      <trkpt lat="42.82398" lon="0.16598">
        <ele>1919.917</ele>
        <time>2013-06-11T07:56:11Z</time>
      </trkpt>
      <trkpt lat="42.82415" lon="0.16666">
        <ele>1914.607</ele>
        <time>2013-06-11T07:56:28Z</time>
      </trkpt>
      <trkpt lat="42.82417" lon="0.16677">
        <ele>1913.648</ele>
        <time>2013-06-11T07:56:31Z</time>
      </trkpt>
      <trkpt lat="42.82434" lon="0.16743">
        <ele>1907.92</ele>
        <time>2013-06-11T07:56:50Z</time>
      </trkpt>
      <trkpt lat="42.82436" lon="0.16748">
        <ele>1907.95</ele>
        <time>2013-06-11T07:56:52Z</time>
      </trkpt>
      <trkpt lat="42.82439" lon="0.16763">
        <ele>1907.426</ele>
        <time>2013-06-11T07:56:57Z</time>
      </trkpt>
      <trkpt lat="42.82439" lon="0.16767">
        <ele>1907.994</ele>
        <time>2013-06-11T07:56:59Z</time>
      </trkpt>
      <trkpt lat="42.82439" lon="0.16774">
        <ele>1907.434</ele>
        <time>2013-06-11T07:57:04Z</time>
      </trkpt>
      <trkpt lat="42.82441" lon="0.16774">
        <ele>1906.433</ele>
        <time>2013-06-11T07:57:23Z</time>
      </trkpt>
      <trkpt lat="42.82441" lon="0.16774">
        <ele>1910.811</ele>
        <time>2013-06-11T07:58:11Z</time>
      </trkpt>
      <trkpt lat="42.82441" lon="0.16774">
        <ele>1909.821</ele>
        <time>2013-06-11T07:58:40Z</time>
      </trkpt>
      <trkpt lat="42.82441" lon="0.16774">
        <ele>1910.303</ele>
        <time>2013-06-11T07:58:50Z</time>
      </trkpt>
      <trkpt lat="42.82441" lon="0.16774">
        <ele>1909.807</ele>
        <time>2013-06-11T07:58:53Z</time>
      </trkpt>
      <trkpt lat="42.82441" lon="0.16774">
        <ele>1909.825</ele>
        <time>2013-06-11T07:58:56Z</time>
      </trkpt>
      <trkpt lat="42.82441" lon="0.16774">
        <ele>1909.887</ele>
        <time>2013-06-11T07:58:59Z</time>
      </trkpt>
      <trkpt lat="42.82441" lon="0.1678">
        <ele>1909.827</ele>
        <time>2013-06-11T07:59:02Z</time>
      </trkpt>
      <trkpt lat="42.82439" lon="0.16793">
        <ele>1908.853</ele>
        <time>2013-06-11T07:59:09Z</time>
      </trkpt>
      <trkpt lat="42.82439" lon="0.16804">
        <ele>1907.921</ele>
        <time>2013-06-11T07:59:14Z</time>
      </trkpt>
      <trkpt lat="42.82439" lon="0.16823">
        <ele>1906.961</ele>
        <time>2013-06-11T07:59:24Z</time>
      </trkpt>
      <trkpt lat="42.82439" lon="0.16827">
        <ele>1906.91</ele>
        <time>2013-06-11T07:59:26Z</time>
      </trkpt>
      <trkpt lat="42.82439" lon="0.16842">
        <ele>1906.946</ele>
        <time>2013-06-11T07:59:34Z</time>
      </trkpt>
      <trkpt lat="42.82439" lon="0.16855">
        <ele>1906.988</ele>
        <time>2013-06-11T07:59:40Z</time>
      </trkpt>
      <trkpt lat="42.82436" lon="0.16866">
        <ele>1906.416</ele>
        <time>2013-06-11T07:59:47Z</time>
      </trkpt>
      <trkpt lat="42.82432" lon="0.16887">
        <ele>1905.507</ele>
        <time>2013-06-11T07:59:59Z</time>
      </trkpt>
      <trkpt lat="42.82439" lon="0.16881">
        <ele>1904.578</ele>
        <time>2013-06-11T08:00:07Z</time>
      </trkpt>
      <trkpt lat="42.82443" lon="0.16868">
        <ele>1904.03</ele>
        <time>2013-06-11T08:00:14Z</time>
      </trkpt>
      <trkpt lat="42.82445" lon="0.16861">
        <ele>1903.53</ele>
        <time>2013-06-11T08:00:18Z</time>
      </trkpt>
      <trkpt lat="42.82447" lon="0.16853">
        <ele>1902.676</ele>
        <time>2013-06-11T08:00:22Z</time>
      </trkpt>
      <trkpt lat="42.82449" lon="0.16849">
        <ele>1902.674</ele>
        <time>2013-06-11T08:00:25Z</time>
      </trkpt>
      <trkpt lat="42.82451" lon="0.16829">
        <ele>1901.654</ele>
        <time>2013-06-11T08:00:35Z</time>
      </trkpt>
      <trkpt lat="42.82456" lon="0.16825">
        <ele>1901.153</ele>
        <time>2013-06-11T08:00:41Z</time>
      </trkpt>
      <trkpt lat="42.82456" lon="0.16825">
        <ele>1901.637</ele>
        <time>2013-06-11T08:00:44Z</time>
      </trkpt>
      <trkpt lat="42.82456" lon="0.16827">
        <ele>1902.149</ele>
        <time>2013-06-11T08:00:48Z</time>
      </trkpt>
      <trkpt lat="42.82458" lon="0.16827">
        <ele>1901.113</ele>
        <time>2013-06-11T08:00:51Z</time>
      </trkpt>
    </trkseg>
  </trk>
</gpx>